<?xml version="1.0" encoding="UTF-8" standalone="no" ?>
<gpx xmlns="http://www.topografix.com/GPX/1/1" xmlns:xsi="http://www.w3.org/2001/XMLSchema-instance" xsi:schemaLocation="http://www.topografix.com/GPX/1/1 http://www.topografix.com/GPX/1/1/gpx.xsd" version="1.1" creator="VisuGPX - https://www.visugpx.com">
  <metadata>
    <name>Lamoura Cyclisme 2</name>
    <desc><![CDATA[Julbo endurojura jour 2]]></desc>
  </metadata>
  <trk>
    <name><![CDATA[Lamoura Cyclisme]]></name>
    <trkseg>
      <trkpt lat="46.40424" lon="5.97927">
        <ele>1179.5999755859</ele>
        <time>2018-06-10T06:58:05.000Z</time>
      </trkpt>
      <trkpt lat="46.40419" lon="5.97929">
        <ele>1180.1999511719</ele>
        <time>2018-06-10T06:58:06.000Z</time>
      </trkpt>
      <trkpt lat="46.40418" lon="5.97932">
        <ele>1181.4000244141</ele>
        <time>2018-06-10T06:58:07.000Z</time>
      </trkpt>
      <trkpt lat="46.40414" lon="5.97933">
        <ele>1179</ele>
        <time>2018-06-10T06:58:08.000Z</time>
      </trkpt>
      <trkpt lat="46.4041" lon="5.97931">
        <ele>1175.5999755859</ele>
        <time>2018-06-10T06:58:10.000Z</time>
      </trkpt>
      <trkpt lat="46.40409" lon="5.9793">
        <ele>1176.4000244141</ele>
        <time>2018-06-10T06:58:11.000Z</time>
      </trkpt>
      <trkpt lat="46.40406" lon="5.97928">
        <ele>1177</ele>
        <time>2018-06-10T06:58:12.000Z</time>
      </trkpt>
      <trkpt lat="46.40399" lon="5.97915">
        <ele>1178.4000244141</ele>
        <time>2018-06-10T06:58:16.000Z</time>
      </trkpt>
      <trkpt lat="46.40367" lon="5.97871">
        <ele>1178.1999511719</ele>
        <time>2018-06-10T06:58:29.000Z</time>
      </trkpt>
      <trkpt lat="46.40358" lon="5.97865">
        <ele>1177.4000244141</ele>
        <time>2018-06-10T06:58:31.000Z</time>
      </trkpt>
      <trkpt lat="46.40349" lon="5.97855">
        <ele>1176</ele>
        <time>2018-06-10T06:58:33.000Z</time>
      </trkpt>
      <trkpt lat="46.40329" lon="5.97848">
        <ele>1175</ele>
        <time>2018-06-10T06:58:36.000Z</time>
      </trkpt>
      <trkpt lat="46.40324" lon="5.97844">
        <ele>1174.8000488281</ele>
        <time>2018-06-10T06:58:37.000Z</time>
      </trkpt>
      <trkpt lat="46.40272" lon="5.97809">
        <ele>1175</ele>
        <time>2018-06-10T06:58:50.000Z</time>
      </trkpt>
      <trkpt lat="46.40261" lon="5.97791">
        <ele>1173.5999755859</ele>
        <time>2018-06-10T06:58:53.000Z</time>
      </trkpt>
      <trkpt lat="46.40249" lon="5.97779">
        <ele>1172.1999511719</ele>
        <time>2018-06-10T06:58:55.000Z</time>
      </trkpt>
      <trkpt lat="46.40237" lon="5.97766">
        <ele>1170.8000488281</ele>
        <time>2018-06-10T06:58:57.000Z</time>
      </trkpt>
      <trkpt lat="46.40227" lon="5.97753">
        <ele>1169.8000488281</ele>
        <time>2018-06-10T06:58:59.000Z</time>
      </trkpt>
      <trkpt lat="46.40223" lon="5.97748">
        <ele>1169.4000244141</ele>
        <time>2018-06-10T06:59:00.000Z</time>
      </trkpt>
      <trkpt lat="46.40205" lon="5.97721">
        <ele>1168.1999511719</ele>
        <time>2018-06-10T06:59:05.000Z</time>
      </trkpt>
      <trkpt lat="46.4019" lon="5.97698">
        <ele>1167.1999511719</ele>
        <time>2018-06-10T06:59:08.000Z</time>
      </trkpt>
      <trkpt lat="46.40185" lon="5.9769">
        <ele>1166.5999755859</ele>
        <time>2018-06-10T06:59:09.000Z</time>
      </trkpt>
      <trkpt lat="46.40176" lon="5.97674">
        <ele>1166</ele>
        <time>2018-06-10T06:59:11.000Z</time>
      </trkpt>
      <trkpt lat="46.40156" lon="5.97639">
        <ele>1165</ele>
        <time>2018-06-10T06:59:15.000Z</time>
      </trkpt>
      <trkpt lat="46.40146" lon="5.97612">
        <ele>1163.5999755859</ele>
        <time>2018-06-10T06:59:17.000Z</time>
      </trkpt>
      <trkpt lat="46.40138" lon="5.97589">
        <ele>1161.4000244141</ele>
        <time>2018-06-10T06:59:19.000Z</time>
      </trkpt>
      <trkpt lat="46.40134" lon="5.97579">
        <ele>1160.4000244141</ele>
        <time>2018-06-10T06:59:20.000Z</time>
      </trkpt>
      <trkpt lat="46.40127" lon="5.9757">
        <ele>1159.1999511719</ele>
        <time>2018-06-10T06:59:22.000Z</time>
      </trkpt>
      <trkpt lat="46.40104" lon="5.97539">
        <ele>1159</ele>
        <time>2018-06-10T06:59:25.000Z</time>
      </trkpt>
      <trkpt lat="46.40084" lon="5.97516">
        <ele>1158.1999511719</ele>
        <time>2018-06-10T06:59:28.000Z</time>
      </trkpt>
      <trkpt lat="46.40069" lon="5.97498">
        <ele>1156.5999755859</ele>
        <time>2018-06-10T06:59:31.000Z</time>
      </trkpt>
      <trkpt lat="46.40053" lon="5.97477">
        <ele>1155.1999511719</ele>
        <time>2018-06-10T06:59:34.000Z</time>
      </trkpt>
      <trkpt lat="46.40034" lon="5.97451">
        <ele>1154</ele>
        <time>2018-06-10T06:59:37.000Z</time>
      </trkpt>
      <trkpt lat="46.40029" lon="5.97444">
        <ele>1153.8000488281</ele>
        <time>2018-06-10T06:59:38.000Z</time>
      </trkpt>
      <trkpt lat="46.40011" lon="5.97418">
        <ele>1153</ele>
        <time>2018-06-10T06:59:42.000Z</time>
      </trkpt>
      <trkpt lat="46.40003" lon="5.97407">
        <ele>1152.8000488281</ele>
        <time>2018-06-10T06:59:44.000Z</time>
      </trkpt>
      <trkpt lat="46.39994" lon="5.97395">
        <ele>1152.4000244141</ele>
        <time>2018-06-10T06:59:46.000Z</time>
      </trkpt>
      <trkpt lat="46.39984" lon="5.97383">
        <ele>1151.8000488281</ele>
        <time>2018-06-10T06:59:48.000Z</time>
      </trkpt>
      <trkpt lat="46.39974" lon="5.97368">
        <ele>1150.5999755859</ele>
        <time>2018-06-10T06:59:51.000Z</time>
      </trkpt>
      <trkpt lat="46.39956" lon="5.97339">
        <ele>1151</ele>
        <time>2018-06-10T06:59:57.000Z</time>
      </trkpt>
      <trkpt lat="46.39919" lon="5.9728">
        <ele>1151.4000244141</ele>
        <time>2018-06-10T07:00:12.000Z</time>
      </trkpt>
      <trkpt lat="46.39886" lon="5.97215">
        <ele>1151.5999755859</ele>
        <time>2018-06-10T07:00:27.000Z</time>
      </trkpt>
      <trkpt lat="46.39876" lon="5.97197">
        <ele>1152.8000488281</ele>
        <time>2018-06-10T07:00:32.000Z</time>
      </trkpt>
      <trkpt lat="46.39869" lon="5.97182">
        <ele>1154</ele>
        <time>2018-06-10T07:00:38.000Z</time>
      </trkpt>
      <trkpt lat="46.39867" lon="5.97177">
        <ele>1154.4000244141</ele>
        <time>2018-06-10T07:00:40.000Z</time>
      </trkpt>
      <trkpt lat="46.39861" lon="5.97165">
        <ele>1155</ele>
        <time>2018-06-10T07:00:45.000Z</time>
      </trkpt>
      <trkpt lat="46.39851" lon="5.97153">
        <ele>1156.1999511719</ele>
        <time>2018-06-10T07:00:51.000Z</time>
      </trkpt>
      <trkpt lat="46.39816" lon="5.97092">
        <ele>1157</ele>
        <time>2018-06-10T07:01:12.000Z</time>
      </trkpt>
      <trkpt lat="46.39786" lon="5.97054">
        <ele>1155.5999755859</ele>
        <time>2018-06-10T07:01:23.000Z</time>
      </trkpt>
      <trkpt lat="46.39777" lon="5.97039">
        <ele>1155</ele>
        <time>2018-06-10T07:01:26.000Z</time>
      </trkpt>
      <trkpt lat="46.39759" lon="5.97019">
        <ele>1154</ele>
        <time>2018-06-10T07:01:30.000Z</time>
      </trkpt>
      <trkpt lat="46.39755" lon="5.97014">
        <ele>1153.4000244141</ele>
        <time>2018-06-10T07:01:31.000Z</time>
      </trkpt>
      <trkpt lat="46.39745" lon="5.97004">
        <ele>1152.5999755859</ele>
        <time>2018-06-10T07:01:33.000Z</time>
      </trkpt>
      <trkpt lat="46.39715" lon="5.96969">
        <ele>1151.4000244141</ele>
        <time>2018-06-10T07:01:41.000Z</time>
      </trkpt>
      <trkpt lat="46.39705" lon="5.96954">
        <ele>1150.1999511719</ele>
        <time>2018-06-10T07:01:44.000Z</time>
      </trkpt>
      <trkpt lat="46.39683" lon="5.96916">
        <ele>1148.8000488281</ele>
        <time>2018-06-10T07:01:49.000Z</time>
      </trkpt>
      <trkpt lat="46.39677" lon="5.96909">
        <ele>1148.5999755859</ele>
        <time>2018-06-10T07:01:50.000Z</time>
      </trkpt>
      <trkpt lat="46.39668" lon="5.96899">
        <ele>1147.8000488281</ele>
        <time>2018-06-10T07:01:52.000Z</time>
      </trkpt>
      <trkpt lat="46.39661" lon="5.96883">
        <ele>1146.4000244141</ele>
        <time>2018-06-10T07:01:54.000Z</time>
      </trkpt>
      <trkpt lat="46.39661" lon="5.96868">
        <ele>1144.8000488281</ele>
        <time>2018-06-10T07:01:56.000Z</time>
      </trkpt>
      <trkpt lat="46.39661" lon="5.9686">
        <ele>1144.4000244141</ele>
        <time>2018-06-10T07:01:57.000Z</time>
      </trkpt>
      <trkpt lat="46.39663" lon="5.96851">
        <ele>1143.8000488281</ele>
        <time>2018-06-10T07:01:58.000Z</time>
      </trkpt>
      <trkpt lat="46.39668" lon="5.96829">
        <ele>1142.4000244141</ele>
        <time>2018-06-10T07:02:00.000Z</time>
      </trkpt>
      <trkpt lat="46.39671" lon="5.96816">
        <ele>1141.4000244141</ele>
        <time>2018-06-10T07:02:01.000Z</time>
      </trkpt>
      <trkpt lat="46.39673" lon="5.96801">
        <ele>1139.5999755859</ele>
        <time>2018-06-10T07:02:02.000Z</time>
      </trkpt>
      <trkpt lat="46.39674" lon="5.96786">
        <ele>1137.5999755859</ele>
        <time>2018-06-10T07:02:03.000Z</time>
      </trkpt>
      <trkpt lat="46.39673" lon="5.96771">
        <ele>1135.5999755859</ele>
        <time>2018-06-10T07:02:04.000Z</time>
      </trkpt>
      <trkpt lat="46.39669" lon="5.96757">
        <ele>1134</ele>
        <time>2018-06-10T07:02:05.000Z</time>
      </trkpt>
      <trkpt lat="46.39657" lon="5.96737">
        <ele>1132.5999755859</ele>
        <time>2018-06-10T07:02:07.000Z</time>
      </trkpt>
      <trkpt lat="46.39644" lon="5.96717">
        <ele>1130.8000488281</ele>
        <time>2018-06-10T07:02:09.000Z</time>
      </trkpt>
      <trkpt lat="46.39639" lon="5.96693">
        <ele>1129.4000244141</ele>
        <time>2018-06-10T07:02:11.000Z</time>
      </trkpt>
      <trkpt lat="46.3964" lon="5.96672">
        <ele>1129</ele>
        <time>2018-06-10T07:02:13.000Z</time>
      </trkpt>
      <trkpt lat="46.39647" lon="5.96644">
        <ele>1129.1999511719</ele>
        <time>2018-06-10T07:02:16.000Z</time>
      </trkpt>
      <trkpt lat="46.39647" lon="5.96629">
        <ele>1129.1999511719</ele>
        <time>2018-06-10T07:02:18.000Z</time>
      </trkpt>
      <trkpt lat="46.39643" lon="5.96616">
        <ele>1128.5999755859</ele>
        <time>2018-06-10T07:02:20.000Z</time>
      </trkpt>
      <trkpt lat="46.39641" lon="5.96612">
        <ele>1128.1999511719</ele>
        <time>2018-06-10T07:02:21.000Z</time>
      </trkpt>
      <trkpt lat="46.39639" lon="5.96597">
        <ele>1126.8000488281</ele>
        <time>2018-06-10T07:02:25.000Z</time>
      </trkpt>
      <trkpt lat="46.39643" lon="5.96593">
        <ele>1125.8000488281</ele>
        <time>2018-06-10T07:02:27.000Z</time>
      </trkpt>
      <trkpt lat="46.39655" lon="5.96594">
        <ele>1124.5999755859</ele>
        <time>2018-06-10T07:02:30.000Z</time>
      </trkpt>
      <trkpt lat="46.39667" lon="5.966">
        <ele>1124</ele>
        <time>2018-06-10T07:02:33.000Z</time>
      </trkpt>
      <trkpt lat="46.39675" lon="5.96608">
        <ele>1123.4000244141</ele>
        <time>2018-06-10T07:02:35.000Z</time>
      </trkpt>
      <trkpt lat="46.39689" lon="5.96644">
        <ele>1122.1999511719</ele>
        <time>2018-06-10T07:02:40.000Z</time>
      </trkpt>
      <trkpt lat="46.39701" lon="5.9666">
        <ele>1120.8000488281</ele>
        <time>2018-06-10T07:02:43.000Z</time>
      </trkpt>
      <trkpt lat="46.39711" lon="5.96667">
        <ele>1120.1999511719</ele>
        <time>2018-06-10T07:02:45.000Z</time>
      </trkpt>
      <trkpt lat="46.39723" lon="5.96669">
        <ele>1119.8000488281</ele>
        <time>2018-06-10T07:02:47.000Z</time>
      </trkpt>
      <trkpt lat="46.39735" lon="5.96668">
        <ele>1119.4000244141</ele>
        <time>2018-06-10T07:02:49.000Z</time>
      </trkpt>
      <trkpt lat="46.39787" lon="5.96638">
        <ele>1119.4000244141</ele>
        <time>2018-06-10T07:02:59.000Z</time>
      </trkpt>
      <trkpt lat="46.39841" lon="5.96633">
        <ele>1119.4000244141</ele>
        <time>2018-06-10T07:03:09.000Z</time>
      </trkpt>
      <trkpt lat="46.39845" lon="5.96635">
        <ele>1119.4000244141</ele>
        <time>2018-06-10T07:03:10.000Z</time>
      </trkpt>
      <trkpt lat="46.3986" lon="5.96641">
        <ele>1119.4000244141</ele>
        <time>2018-06-10T07:03:14.000Z</time>
      </trkpt>
      <trkpt lat="46.39868" lon="5.96643">
        <ele>1119.5999755859</ele>
        <time>2018-06-10T07:03:16.000Z</time>
      </trkpt>
      <trkpt lat="46.39894" lon="5.96639">
        <ele>1119.5999755859</ele>
        <time>2018-06-10T07:03:21.000Z</time>
      </trkpt>
      <trkpt lat="46.39927" lon="5.96618">
        <ele>1120.1999511719</ele>
        <time>2018-06-10T07:03:28.000Z</time>
      </trkpt>
      <trkpt lat="46.39947" lon="5.9659">
        <ele>1120.8000488281</ele>
        <time>2018-06-10T07:03:35.000Z</time>
      </trkpt>
      <trkpt lat="46.39959" lon="5.96583">
        <ele>1122</ele>
        <time>2018-06-10T07:03:40.000Z</time>
      </trkpt>
      <trkpt lat="46.39969" lon="5.96584">
        <ele>1123</ele>
        <time>2018-06-10T07:03:44.000Z</time>
      </trkpt>
      <trkpt lat="46.39993" lon="5.96588">
        <ele>1124</ele>
        <time>2018-06-10T07:03:53.000Z</time>
      </trkpt>
      <trkpt lat="46.40019" lon="5.96588">
        <ele>1125.1999511719</ele>
        <time>2018-06-10T07:04:03.000Z</time>
      </trkpt>
      <trkpt lat="46.40063" lon="5.96587">
        <ele>1126.1999511719</ele>
        <time>2018-06-10T07:04:18.000Z</time>
      </trkpt>
      <trkpt lat="46.40082" lon="5.96584">
        <ele>1127.1999511719</ele>
        <time>2018-06-10T07:04:25.000Z</time>
      </trkpt>
      <trkpt lat="46.40105" lon="5.96585">
        <ele>1128.1999511719</ele>
        <time>2018-06-10T07:04:33.000Z</time>
      </trkpt>
      <trkpt lat="46.40109" lon="5.96584">
        <ele>1128.4000244141</ele>
        <time>2018-06-10T07:04:35.000Z</time>
      </trkpt>
      <trkpt lat="46.40124" lon="5.96579">
        <ele>1129.1999511719</ele>
        <time>2018-06-10T07:04:42.000Z</time>
      </trkpt>
      <trkpt lat="46.40147" lon="5.9657">
        <ele>1130.4000244141</ele>
        <time>2018-06-10T07:04:52.000Z</time>
      </trkpt>
      <trkpt lat="46.40162" lon="5.96564">
        <ele>1131.4000244141</ele>
        <time>2018-06-10T07:04:58.000Z</time>
      </trkpt>
      <trkpt lat="46.40176" lon="5.96559">
        <ele>1132.4000244141</ele>
        <time>2018-06-10T07:05:04.000Z</time>
      </trkpt>
      <trkpt lat="46.4019" lon="5.96556">
        <ele>1133.4000244141</ele>
        <time>2018-06-10T07:05:10.000Z</time>
      </trkpt>
      <trkpt lat="46.40209" lon="5.96554">
        <ele>1134.5999755859</ele>
        <time>2018-06-10T07:05:18.000Z</time>
      </trkpt>
      <trkpt lat="46.40227" lon="5.96545">
        <ele>1135.5999755859</ele>
        <time>2018-06-10T07:05:26.000Z</time>
      </trkpt>
      <trkpt lat="46.40247" lon="5.96534">
        <ele>1136.5999755859</ele>
        <time>2018-06-10T07:05:34.000Z</time>
      </trkpt>
      <trkpt lat="46.40301" lon="5.96511">
        <ele>1136.8000488281</ele>
        <time>2018-06-10T07:05:50.000Z</time>
      </trkpt>
      <trkpt lat="46.40339" lon="5.96467">
        <ele>1137.5999755859</ele>
        <time>2018-06-10T07:06:04.000Z</time>
      </trkpt>
      <trkpt lat="46.40342" lon="5.96464">
        <ele>1137.5999755859</ele>
        <time>2018-06-10T07:06:05.000Z</time>
      </trkpt>
      <trkpt lat="46.40382" lon="5.96439">
        <ele>1138.8000488281</ele>
        <time>2018-06-10T07:06:18.000Z</time>
      </trkpt>
      <trkpt lat="46.40399" lon="5.96436">
        <ele>1139.8000488281</ele>
        <time>2018-06-10T07:06:23.000Z</time>
      </trkpt>
      <trkpt lat="46.40442" lon="5.96424">
        <ele>1139.4000244141</ele>
        <time>2018-06-10T07:06:36.000Z</time>
      </trkpt>
      <trkpt lat="46.40453" lon="5.96418">
        <ele>1139</ele>
        <time>2018-06-10T07:06:38.000Z</time>
      </trkpt>
      <trkpt lat="46.40465" lon="5.96412">
        <ele>1138.5999755859</ele>
        <time>2018-06-10T07:06:40.000Z</time>
      </trkpt>
      <trkpt lat="46.4047" lon="5.9641">
        <ele>1138.4000244141</ele>
        <time>2018-06-10T07:06:41.000Z</time>
      </trkpt>
      <trkpt lat="46.4052" lon="5.96405">
        <ele>1138.5999755859</ele>
        <time>2018-06-10T07:06:52.000Z</time>
      </trkpt>
      <trkpt lat="46.40544" lon="5.964">
        <ele>1138.5999755859</ele>
        <time>2018-06-10T07:06:57.000Z</time>
      </trkpt>
      <trkpt lat="46.40569" lon="5.96393">
        <ele>1138.1999511719</ele>
        <time>2018-06-10T07:07:02.000Z</time>
      </trkpt>
      <trkpt lat="46.40583" lon="5.96389">
        <ele>1137.8000488281</ele>
        <time>2018-06-10T07:07:05.000Z</time>
      </trkpt>
      <trkpt lat="46.40592" lon="5.96387">
        <ele>1137.5999755859</ele>
        <time>2018-06-10T07:07:07.000Z</time>
      </trkpt>
      <trkpt lat="46.40646" lon="5.96384">
        <ele>1136.5999755859</ele>
        <time>2018-06-10T07:07:19.000Z</time>
      </trkpt>
      <trkpt lat="46.40654" lon="5.96382">
        <ele>1135.8000488281</ele>
        <time>2018-06-10T07:07:20.000Z</time>
      </trkpt>
      <trkpt lat="46.40662" lon="5.96378">
        <ele>1135.1999511719</ele>
        <time>2018-06-10T07:07:21.000Z</time>
      </trkpt>
      <trkpt lat="46.40669" lon="5.9637">
        <ele>1134.1999511719</ele>
        <time>2018-06-10T07:07:22.000Z</time>
      </trkpt>
      <trkpt lat="46.40673" lon="5.9636">
        <ele>1133.4000244141</ele>
        <time>2018-06-10T07:07:23.000Z</time>
      </trkpt>
      <trkpt lat="46.40673" lon="5.96347">
        <ele>1132.5999755859</ele>
        <time>2018-06-10T07:07:24.000Z</time>
      </trkpt>
      <trkpt lat="46.40672" lon="5.96334">
        <ele>1131.8000488281</ele>
        <time>2018-06-10T07:07:25.000Z</time>
      </trkpt>
      <trkpt lat="46.40669" lon="5.96321">
        <ele>1130.8000488281</ele>
        <time>2018-06-10T07:07:26.000Z</time>
      </trkpt>
      <trkpt lat="46.40666" lon="5.96311">
        <ele>1129.8000488281</ele>
        <time>2018-06-10T07:07:27.000Z</time>
      </trkpt>
      <trkpt lat="46.40663" lon="5.96301">
        <ele>1128.8000488281</ele>
        <time>2018-06-10T07:07:28.000Z</time>
      </trkpt>
      <trkpt lat="46.40654" lon="5.96283">
        <ele>1127.5999755859</ele>
        <time>2018-06-10T07:07:30.000Z</time>
      </trkpt>
      <trkpt lat="46.40638" lon="5.96255">
        <ele>1126.1999511719</ele>
        <time>2018-06-10T07:07:33.000Z</time>
      </trkpt>
      <trkpt lat="46.40619" lon="5.96228">
        <ele>1125.1999511719</ele>
        <time>2018-06-10T07:07:36.000Z</time>
      </trkpt>
      <trkpt lat="46.40583" lon="5.96169">
        <ele>1124.5999755859</ele>
        <time>2018-06-10T07:07:44.000Z</time>
      </trkpt>
      <trkpt lat="46.40552" lon="5.96098">
        <ele>1125</ele>
        <time>2018-06-10T07:07:55.000Z</time>
      </trkpt>
      <trkpt lat="46.40525" lon="5.96029">
        <ele>1125</ele>
        <time>2018-06-10T07:08:06.000Z</time>
      </trkpt>
      <trkpt lat="46.40511" lon="5.95999">
        <ele>1125.1999511719</ele>
        <time>2018-06-10T07:08:11.000Z</time>
      </trkpt>
      <trkpt lat="46.40494" lon="5.95959">
        <ele>1124</ele>
        <time>2018-06-10T07:08:17.000Z</time>
      </trkpt>
      <trkpt lat="46.40467" lon="5.9589">
        <ele>1123.5999755859</ele>
        <time>2018-06-10T07:08:27.000Z</time>
      </trkpt>
      <trkpt lat="46.40447" lon="5.95814">
        <ele>1123.4000244141</ele>
        <time>2018-06-10T07:08:38.000Z</time>
      </trkpt>
      <trkpt lat="46.40439" lon="5.95792">
        <ele>1122.8000488281</ele>
        <time>2018-06-10T07:08:41.000Z</time>
      </trkpt>
      <trkpt lat="46.40427" lon="5.95771">
        <ele>1121.4000244141</ele>
        <time>2018-06-10T07:08:44.000Z</time>
      </trkpt>
      <trkpt lat="46.4041" lon="5.95747">
        <ele>1120.4000244141</ele>
        <time>2018-06-10T07:08:48.000Z</time>
      </trkpt>
      <trkpt lat="46.40366" lon="5.9569">
        <ele>1120</ele>
        <time>2018-06-10T07:08:59.000Z</time>
      </trkpt>
      <trkpt lat="46.40362" lon="5.95684">
        <ele>1119.8000488281</ele>
        <time>2018-06-10T07:09:00.000Z</time>
      </trkpt>
      <trkpt lat="46.40358" lon="5.95666">
        <ele>1119.1999511719</ele>
        <time>2018-06-10T07:09:02.000Z</time>
      </trkpt>
      <trkpt lat="46.4036" lon="5.95634">
        <ele>1117.8000488281</ele>
        <time>2018-06-10T07:09:05.000Z</time>
      </trkpt>
      <trkpt lat="46.40365" lon="5.95594">
        <ele>1116.5999755859</ele>
        <time>2018-06-10T07:09:09.000Z</time>
      </trkpt>
      <trkpt lat="46.40369" lon="5.95577">
        <ele>1115.8000488281</ele>
        <time>2018-06-10T07:09:11.000Z</time>
      </trkpt>
      <trkpt lat="46.40371" lon="5.9557">
        <ele>1115.4000244141</ele>
        <time>2018-06-10T07:09:12.000Z</time>
      </trkpt>
      <trkpt lat="46.40377" lon="5.95545">
        <ele>1114.4000244141</ele>
        <time>2018-06-10T07:09:15.000Z</time>
      </trkpt>
      <trkpt lat="46.40379" lon="5.95529">
        <ele>1114.4000244141</ele>
        <time>2018-06-10T07:09:17.000Z</time>
      </trkpt>
      <trkpt lat="46.40378" lon="5.95514">
        <ele>1114.4000244141</ele>
        <time>2018-06-10T07:09:19.000Z</time>
      </trkpt>
      <trkpt lat="46.40374" lon="5.95491">
        <ele>1114.8000488281</ele>
        <time>2018-06-10T07:09:22.000Z</time>
      </trkpt>
      <trkpt lat="46.40358" lon="5.95446">
        <ele>1115.5999755859</ele>
        <time>2018-06-10T07:09:30.000Z</time>
      </trkpt>
      <trkpt lat="46.40349" lon="5.95429">
        <ele>1116.5999755859</ele>
        <time>2018-06-10T07:09:34.000Z</time>
      </trkpt>
      <trkpt lat="46.40343" lon="5.95415">
        <ele>1116</ele>
        <time>2018-06-10T07:09:36.000Z</time>
      </trkpt>
      <trkpt lat="46.4034" lon="5.95406">
        <ele>1115.5999755859</ele>
        <time>2018-06-10T07:09:37.000Z</time>
      </trkpt>
      <trkpt lat="46.40336" lon="5.95386">
        <ele>1114.5999755859</ele>
        <time>2018-06-10T07:09:39.000Z</time>
      </trkpt>
      <trkpt lat="46.40335" lon="5.95376">
        <ele>1114</ele>
        <time>2018-06-10T07:09:40.000Z</time>
      </trkpt>
      <trkpt lat="46.40334" lon="5.95367">
        <ele>1113.1999511719</ele>
        <time>2018-06-10T07:09:41.000Z</time>
      </trkpt>
      <trkpt lat="46.40332" lon="5.95357">
        <ele>1111.8000488281</ele>
        <time>2018-06-10T07:09:42.000Z</time>
      </trkpt>
      <trkpt lat="46.4033" lon="5.95348">
        <ele>1110.4000244141</ele>
        <time>2018-06-10T07:09:43.000Z</time>
      </trkpt>
      <trkpt lat="46.40327" lon="5.9534">
        <ele>1109.4000244141</ele>
        <time>2018-06-10T07:09:44.000Z</time>
      </trkpt>
      <trkpt lat="46.40323" lon="5.95332">
        <ele>1108.8000488281</ele>
        <time>2018-06-10T07:09:45.000Z</time>
      </trkpt>
      <trkpt lat="46.40315" lon="5.95314">
        <ele>1108</ele>
        <time>2018-06-10T07:09:47.000Z</time>
      </trkpt>
      <trkpt lat="46.40306" lon="5.95296">
        <ele>1107.4000244141</ele>
        <time>2018-06-10T07:09:49.000Z</time>
      </trkpt>
      <trkpt lat="46.40297" lon="5.95282">
        <ele>1107</ele>
        <time>2018-06-10T07:09:51.000Z</time>
      </trkpt>
      <trkpt lat="46.40264" lon="5.9522">
        <ele>1107.1999511719</ele>
        <time>2018-06-10T07:10:01.000Z</time>
      </trkpt>
      <trkpt lat="46.40256" lon="5.95205">
        <ele>1107</ele>
        <time>2018-06-10T07:10:04.000Z</time>
      </trkpt>
      <trkpt lat="46.40232" lon="5.95177">
        <ele>1105.8000488281</ele>
        <time>2018-06-10T07:10:10.000Z</time>
      </trkpt>
      <trkpt lat="46.40217" lon="5.95162">
        <ele>1105.5999755859</ele>
        <time>2018-06-10T07:10:15.000Z</time>
      </trkpt>
      <trkpt lat="46.40209" lon="5.95153">
        <ele>1104.8000488281</ele>
        <time>2018-06-10T07:10:17.000Z</time>
      </trkpt>
      <trkpt lat="46.40206" lon="5.95149">
        <ele>1104.1999511719</ele>
        <time>2018-06-10T07:10:18.000Z</time>
      </trkpt>
      <trkpt lat="46.40203" lon="5.95147">
        <ele>1103.5999755859</ele>
        <time>2018-06-10T07:10:19.000Z</time>
      </trkpt>
      <trkpt lat="46.40199" lon="5.95138">
        <ele>1102.5999755859</ele>
        <time>2018-06-10T07:10:21.000Z</time>
      </trkpt>
      <trkpt lat="46.40172" lon="5.95103">
        <ele>1103.5999755859</ele>
        <time>2018-06-10T07:10:30.000Z</time>
      </trkpt>
      <trkpt lat="46.40164" lon="5.95094">
        <ele>1104.8000488281</ele>
        <time>2018-06-10T07:10:33.000Z</time>
      </trkpt>
      <trkpt lat="46.40151" lon="5.95077">
        <ele>1105.5999755859</ele>
        <time>2018-06-10T07:10:37.000Z</time>
      </trkpt>
      <trkpt lat="46.40145" lon="5.95071">
        <ele>1105.8000488281</ele>
        <time>2018-06-10T07:10:39.000Z</time>
      </trkpt>
      <trkpt lat="46.40129" lon="5.95051">
        <ele>1107</ele>
        <time>2018-06-10T07:10:46.000Z</time>
      </trkpt>
      <trkpt lat="46.40114" lon="5.95033">
        <ele>1108</ele>
        <time>2018-06-10T07:10:53.000Z</time>
      </trkpt>
      <trkpt lat="46.4011" lon="5.9503">
        <ele>1108.4000244141</ele>
        <time>2018-06-10T07:10:56.000Z</time>
      </trkpt>
      <trkpt lat="46.40106" lon="5.95029">
        <ele>1108.8000488281</ele>
        <time>2018-06-10T07:10:58.000Z</time>
      </trkpt>
      <trkpt lat="46.40105" lon="5.95029">
        <ele>1109.1999511719</ele>
        <time>2018-06-10T07:10:59.000Z</time>
      </trkpt>
      <trkpt lat="46.40095" lon="5.95028">
        <ele>1110.1999511719</ele>
        <time>2018-06-10T07:11:04.000Z</time>
      </trkpt>
      <trkpt lat="46.40074" lon="5.95031">
        <ele>1111.4000244141</ele>
        <time>2018-06-10T07:11:14.000Z</time>
      </trkpt>
      <trkpt lat="46.40056" lon="5.95022">
        <ele>1112.4000244141</ele>
        <time>2018-06-10T07:11:23.000Z</time>
      </trkpt>
      <trkpt lat="46.40049" lon="5.95016">
        <ele>1112.5999755859</ele>
        <time>2018-06-10T07:11:27.000Z</time>
      </trkpt>
      <trkpt lat="46.40045" lon="5.95011">
        <ele>1112.5999755859</ele>
        <time>2018-06-10T07:11:30.000Z</time>
      </trkpt>
      <trkpt lat="46.40021" lon="5.94993">
        <ele>1113.4000244141</ele>
        <time>2018-06-10T07:11:44.000Z</time>
      </trkpt>
      <trkpt lat="46.4001" lon="5.94983">
        <ele>1113.8000488281</ele>
        <time>2018-06-10T07:11:48.000Z</time>
      </trkpt>
      <trkpt lat="46.40009" lon="5.94972">
        <ele>1114.1999511719</ele>
        <time>2018-06-10T07:11:51.000Z</time>
      </trkpt>
      <trkpt lat="46.40008" lon="5.94968">
        <ele>1114.4000244141</ele>
        <time>2018-06-10T07:11:53.000Z</time>
      </trkpt>
      <trkpt lat="46.40009" lon="5.94965">
        <ele>1114.5999755859</ele>
        <time>2018-06-10T07:11:54.000Z</time>
      </trkpt>
      <trkpt lat="46.40013" lon="5.94943">
        <ele>1115.4000244141</ele>
        <time>2018-06-10T07:12:02.000Z</time>
      </trkpt>
      <trkpt lat="46.40011" lon="5.9494">
        <ele>1115.4000244141</ele>
        <time>2018-06-10T07:12:03.000Z</time>
      </trkpt>
      <trkpt lat="46.40006" lon="5.94924">
        <ele>1116.1999511719</ele>
        <time>2018-06-10T07:12:12.000Z</time>
      </trkpt>
      <trkpt lat="46.40005" lon="5.9492">
        <ele>1116.4000244141</ele>
        <time>2018-06-10T07:12:14.000Z</time>
      </trkpt>
      <trkpt lat="46.39999" lon="5.94907">
        <ele>1116.8000488281</ele>
        <time>2018-06-10T07:12:21.000Z</time>
      </trkpt>
      <trkpt lat="46.39987" lon="5.94887">
        <ele>1117.4000244141</ele>
        <time>2018-06-10T07:12:31.000Z</time>
      </trkpt>
      <trkpt lat="46.3997" lon="5.94863">
        <ele>1117</ele>
        <time>2018-06-10T07:12:41.000Z</time>
      </trkpt>
      <trkpt lat="46.39964" lon="5.9485">
        <ele>1116.5999755859</ele>
        <time>2018-06-10T07:12:48.000Z</time>
      </trkpt>
      <trkpt lat="46.39963" lon="5.94844">
        <ele>1116.5999755859</ele>
        <time>2018-06-10T07:12:50.000Z</time>
      </trkpt>
      <trkpt lat="46.39954" lon="5.94826">
        <ele>1115.4000244141</ele>
        <time>2018-06-10T07:12:54.000Z</time>
      </trkpt>
      <trkpt lat="46.39953" lon="5.94811">
        <ele>1114.5999755859</ele>
        <time>2018-06-10T07:13:00.000Z</time>
      </trkpt>
      <trkpt lat="46.39963" lon="5.94794">
        <ele>1115.8000488281</ele>
        <time>2018-06-10T07:13:10.000Z</time>
      </trkpt>
      <trkpt lat="46.39966" lon="5.94788">
        <ele>1115.8000488281</ele>
        <time>2018-06-10T07:13:12.000Z</time>
      </trkpt>
      <trkpt lat="46.39981" lon="5.94782">
        <ele>1115</ele>
        <time>2018-06-10T07:13:20.000Z</time>
      </trkpt>
      <trkpt lat="46.39992" lon="5.94781">
        <ele>1115</ele>
        <time>2018-06-10T07:13:23.000Z</time>
      </trkpt>
      <trkpt lat="46.40005" lon="5.94775">
        <ele>1116</ele>
        <time>2018-06-10T07:13:28.000Z</time>
      </trkpt>
      <trkpt lat="46.40013" lon="5.94773">
        <ele>1116</ele>
        <time>2018-06-10T07:13:31.000Z</time>
      </trkpt>
      <trkpt lat="46.40021" lon="5.94779">
        <ele>1114</ele>
        <time>2018-06-10T07:13:34.000Z</time>
      </trkpt>
      <trkpt lat="46.40026" lon="5.9478">
        <ele>1112.8000488281</ele>
        <time>2018-06-10T07:13:35.000Z</time>
      </trkpt>
      <trkpt lat="46.40031" lon="5.94779">
        <ele>1111.5999755859</ele>
        <time>2018-06-10T07:13:36.000Z</time>
      </trkpt>
      <trkpt lat="46.40035" lon="5.94778">
        <ele>1110.4000244141</ele>
        <time>2018-06-10T07:13:37.000Z</time>
      </trkpt>
      <trkpt lat="46.40041" lon="5.94776">
        <ele>1109</ele>
        <time>2018-06-10T07:13:39.000Z</time>
      </trkpt>
      <trkpt lat="46.40046" lon="5.94768">
        <ele>1107.8000488281</ele>
        <time>2018-06-10T07:13:41.000Z</time>
      </trkpt>
      <trkpt lat="46.40046" lon="5.94756">
        <ele>1105.8000488281</ele>
        <time>2018-06-10T07:13:43.000Z</time>
      </trkpt>
      <trkpt lat="46.40045" lon="5.94748">
        <ele>1104.4000244141</ele>
        <time>2018-06-10T07:13:44.000Z</time>
      </trkpt>
      <trkpt lat="46.40044" lon="5.94738">
        <ele>1102.8000488281</ele>
        <time>2018-06-10T07:13:45.000Z</time>
      </trkpt>
      <trkpt lat="46.40044" lon="5.94728">
        <ele>1101.1999511719</ele>
        <time>2018-06-10T07:13:46.000Z</time>
      </trkpt>
      <trkpt lat="46.40043" lon="5.94715">
        <ele>1099.8000488281</ele>
        <time>2018-06-10T07:13:48.000Z</time>
      </trkpt>
      <trkpt lat="46.40041" lon="5.94704">
        <ele>1099.4000244141</ele>
        <time>2018-06-10T07:13:50.000Z</time>
      </trkpt>
      <trkpt lat="46.40027" lon="5.94671">
        <ele>1098.5999755859</ele>
        <time>2018-06-10T07:13:57.000Z</time>
      </trkpt>
      <trkpt lat="46.40026" lon="5.94664">
        <ele>1098.4000244141</ele>
        <time>2018-06-10T07:13:58.000Z</time>
      </trkpt>
      <trkpt lat="46.40026" lon="5.94647">
        <ele>1097</ele>
        <time>2018-06-10T07:14:00.000Z</time>
      </trkpt>
      <trkpt lat="46.40026" lon="5.94638">
        <ele>1096</ele>
        <time>2018-06-10T07:14:01.000Z</time>
      </trkpt>
      <trkpt lat="46.40024" lon="5.94625">
        <ele>1094.5999755859</ele>
        <time>2018-06-10T07:14:03.000Z</time>
      </trkpt>
      <trkpt lat="46.40009" lon="5.94551">
        <ele>1095.1999511719</ele>
        <time>2018-06-10T07:14:20.000Z</time>
      </trkpt>
      <trkpt lat="46.39984" lon="5.94482">
        <ele>1095</ele>
        <time>2018-06-10T07:14:37.000Z</time>
      </trkpt>
      <trkpt lat="46.39971" lon="5.9441">
        <ele>1095.8000488281</ele>
        <time>2018-06-10T07:14:51.000Z</time>
      </trkpt>
      <trkpt lat="46.39962" lon="5.94382">
        <ele>1096.1999511719</ele>
        <time>2018-06-10T07:15:05.000Z</time>
      </trkpt>
      <trkpt lat="46.39959" lon="5.94377">
        <ele>1096.4000244141</ele>
        <time>2018-06-10T07:15:07.000Z</time>
      </trkpt>
      <trkpt lat="46.39944" lon="5.94324">
        <ele>1096.8000488281</ele>
        <time>2018-06-10T07:15:26.000Z</time>
      </trkpt>
      <trkpt lat="46.39937" lon="5.94304">
        <ele>1097.8000488281</ele>
        <time>2018-06-10T07:15:34.000Z</time>
      </trkpt>
      <trkpt lat="46.39927" lon="5.94278">
        <ele>1099</ele>
        <time>2018-06-10T07:15:44.000Z</time>
      </trkpt>
      <trkpt lat="46.39921" lon="5.94263">
        <ele>1100.1999511719</ele>
        <time>2018-06-10T07:15:50.000Z</time>
      </trkpt>
      <trkpt lat="46.39914" lon="5.94251">
        <ele>1100.5999755859</ele>
        <time>2018-06-10T07:15:56.000Z</time>
      </trkpt>
      <trkpt lat="46.39889" lon="5.94182">
        <ele>1100</ele>
        <time>2018-06-10T07:16:16.000Z</time>
      </trkpt>
      <trkpt lat="46.3986" lon="5.94114">
        <ele>1099.1999511719</ele>
        <time>2018-06-10T07:16:37.000Z</time>
      </trkpt>
      <trkpt lat="46.39857" lon="5.94107">
        <ele>1099</ele>
        <time>2018-06-10T07:16:39.000Z</time>
      </trkpt>
      <trkpt lat="46.39827" lon="5.94041">
        <ele>1098.4000244141</ele>
        <time>2018-06-10T07:17:01.000Z</time>
      </trkpt>
      <trkpt lat="46.39819" lon="5.94009">
        <ele>1098</ele>
        <time>2018-06-10T07:17:08.000Z</time>
      </trkpt>
      <trkpt lat="46.3982" lon="5.93948">
        <ele>1096.8000488281</ele>
        <time>2018-06-10T07:17:20.000Z</time>
      </trkpt>
      <trkpt lat="46.3982" lon="5.93943">
        <ele>1096.5999755859</ele>
        <time>2018-06-10T07:17:21.000Z</time>
      </trkpt>
      <trkpt lat="46.39817" lon="5.93922">
        <ele>1095.8000488281</ele>
        <time>2018-06-10T07:17:25.000Z</time>
      </trkpt>
      <trkpt lat="46.39792" lon="5.93865">
        <ele>1094.4000244141</ele>
        <time>2018-06-10T07:17:38.000Z</time>
      </trkpt>
      <trkpt lat="46.3976" lon="5.93799">
        <ele>1094.1999511719</ele>
        <time>2018-06-10T07:17:53.000Z</time>
      </trkpt>
      <trkpt lat="46.39739" lon="5.93753">
        <ele>1093.4000244141</ele>
        <time>2018-06-10T07:18:03.000Z</time>
      </trkpt>
      <trkpt lat="46.39734" lon="5.93736">
        <ele>1093.5999755859</ele>
        <time>2018-06-10T07:18:08.000Z</time>
      </trkpt>
      <trkpt lat="46.39717" lon="5.9372">
        <ele>1092.1999511719</ele>
        <time>2018-06-10T07:18:14.000Z</time>
      </trkpt>
      <trkpt lat="46.39703" lon="5.93711">
        <ele>1091.4000244141</ele>
        <time>2018-06-10T07:18:17.000Z</time>
      </trkpt>
      <trkpt lat="46.39698" lon="5.93709">
        <ele>1091</ele>
        <time>2018-06-10T07:18:18.000Z</time>
      </trkpt>
      <trkpt lat="46.39681" lon="5.93706">
        <ele>1089.5999755859</ele>
        <time>2018-06-10T07:18:21.000Z</time>
      </trkpt>
      <trkpt lat="46.39655" lon="5.93707">
        <ele>1088.1999511719</ele>
        <time>2018-06-10T07:18:25.000Z</time>
      </trkpt>
      <trkpt lat="46.39642" lon="5.93707">
        <ele>1087</ele>
        <time>2018-06-10T07:18:27.000Z</time>
      </trkpt>
      <trkpt lat="46.39622" lon="5.93707">
        <ele>1086</ele>
        <time>2018-06-10T07:18:30.000Z</time>
      </trkpt>
      <trkpt lat="46.39602" lon="5.93706">
        <ele>1084.8000488281</ele>
        <time>2018-06-10T07:18:33.000Z</time>
      </trkpt>
      <trkpt lat="46.39595" lon="5.93705">
        <ele>1084.5999755859</ele>
        <time>2018-06-10T07:18:34.000Z</time>
      </trkpt>
      <trkpt lat="46.3958" lon="5.937">
        <ele>1083.5999755859</ele>
        <time>2018-06-10T07:18:36.000Z</time>
      </trkpt>
      <trkpt lat="46.39565" lon="5.93695">
        <ele>1082</ele>
        <time>2018-06-10T07:18:38.000Z</time>
      </trkpt>
      <trkpt lat="46.39526" lon="5.93685">
        <ele>1081.5999755859</ele>
        <time>2018-06-10T07:18:44.000Z</time>
      </trkpt>
      <trkpt lat="46.39516" lon="5.93688">
        <ele>1081.8000488281</ele>
        <time>2018-06-10T07:18:46.000Z</time>
      </trkpt>
      <trkpt lat="46.39489" lon="5.93704">
        <ele>1083</ele>
        <time>2018-06-10T07:18:52.000Z</time>
      </trkpt>
      <trkpt lat="46.39485" lon="5.93705">
        <ele>1083.1999511719</ele>
        <time>2018-06-10T07:18:53.000Z</time>
      </trkpt>
      <trkpt lat="46.39481" lon="5.93705">
        <ele>1083.4000244141</ele>
        <time>2018-06-10T07:18:54.000Z</time>
      </trkpt>
      <trkpt lat="46.39469" lon="5.937">
        <ele>1084.1999511719</ele>
        <time>2018-06-10T07:18:57.000Z</time>
      </trkpt>
      <trkpt lat="46.39458" lon="5.93689">
        <ele>1085.1999511719</ele>
        <time>2018-06-10T07:19:01.000Z</time>
      </trkpt>
      <trkpt lat="46.39447" lon="5.93671">
        <ele>1086.1999511719</ele>
        <time>2018-06-10T07:19:06.000Z</time>
      </trkpt>
      <trkpt lat="46.3942" lon="5.93645">
        <ele>1087.1999511719</ele>
        <time>2018-06-10T07:19:17.000Z</time>
      </trkpt>
      <trkpt lat="46.39391" lon="5.93638">
        <ele>1088.1999511719</ele>
        <time>2018-06-10T07:19:26.000Z</time>
      </trkpt>
      <trkpt lat="46.39363" lon="5.93631">
        <ele>1089.4000244141</ele>
        <time>2018-06-10T07:19:35.000Z</time>
      </trkpt>
      <trkpt lat="46.39347" lon="5.93627">
        <ele>1090.4000244141</ele>
        <time>2018-06-10T07:19:40.000Z</time>
      </trkpt>
      <trkpt lat="46.39299" lon="5.93589">
        <ele>1090.1999511719</ele>
        <time>2018-06-10T07:19:55.000Z</time>
      </trkpt>
      <trkpt lat="46.3927" lon="5.93552">
        <ele>1089.1999511719</ele>
        <time>2018-06-10T07:20:03.000Z</time>
      </trkpt>
      <trkpt lat="46.39253" lon="5.93531">
        <ele>1088</ele>
        <time>2018-06-10T07:20:07.000Z</time>
      </trkpt>
      <trkpt lat="46.39226" lon="5.93496">
        <ele>1087</ele>
        <time>2018-06-10T07:20:13.000Z</time>
      </trkpt>
      <trkpt lat="46.39219" lon="5.9348">
        <ele>1086</ele>
        <time>2018-06-10T07:20:15.000Z</time>
      </trkpt>
      <trkpt lat="46.39212" lon="5.93461">
        <ele>1084.8000488281</ele>
        <time>2018-06-10T07:20:17.000Z</time>
      </trkpt>
      <trkpt lat="46.39204" lon="5.93443">
        <ele>1083.4000244141</ele>
        <time>2018-06-10T07:20:19.000Z</time>
      </trkpt>
      <trkpt lat="46.39194" lon="5.93414">
        <ele>1082</ele>
        <time>2018-06-10T07:20:22.000Z</time>
      </trkpt>
      <trkpt lat="46.39187" lon="5.93394">
        <ele>1080.1999511719</ele>
        <time>2018-06-10T07:20:24.000Z</time>
      </trkpt>
      <trkpt lat="46.39179" lon="5.93373">
        <ele>1079</ele>
        <time>2018-06-10T07:20:26.000Z</time>
      </trkpt>
      <trkpt lat="46.39169" lon="5.93343">
        <ele>1078</ele>
        <time>2018-06-10T07:20:29.000Z</time>
      </trkpt>
      <trkpt lat="46.39165" lon="5.93334">
        <ele>1077.8000488281</ele>
        <time>2018-06-10T07:20:30.000Z</time>
      </trkpt>
      <trkpt lat="46.39157" lon="5.93316">
        <ele>1076.5999755859</ele>
        <time>2018-06-10T07:20:32.000Z</time>
      </trkpt>
      <trkpt lat="46.39149" lon="5.93296">
        <ele>1075.5999755859</ele>
        <time>2018-06-10T07:20:34.000Z</time>
      </trkpt>
      <trkpt lat="46.39144" lon="5.93286">
        <ele>1075.1999511719</ele>
        <time>2018-06-10T07:20:35.000Z</time>
      </trkpt>
      <trkpt lat="46.39132" lon="5.93266">
        <ele>1074.4000244141</ele>
        <time>2018-06-10T07:20:37.000Z</time>
      </trkpt>
      <trkpt lat="46.39114" lon="5.93237">
        <ele>1073.1999511719</ele>
        <time>2018-06-10T07:20:40.000Z</time>
      </trkpt>
      <trkpt lat="46.39104" lon="5.93219">
        <ele>1072.1999511719</ele>
        <time>2018-06-10T07:20:42.000Z</time>
      </trkpt>
      <trkpt lat="46.39062" lon="5.93158">
        <ele>1072.1999511719</ele>
        <time>2018-06-10T07:20:50.000Z</time>
      </trkpt>
      <trkpt lat="46.39027" lon="5.93115">
        <ele>1071</ele>
        <time>2018-06-10T07:20:57.000Z</time>
      </trkpt>
      <trkpt lat="46.39001" lon="5.93075">
        <ele>1070</ele>
        <time>2018-06-10T07:21:03.000Z</time>
      </trkpt>
      <trkpt lat="46.38987" lon="5.93053">
        <ele>1068.8000488281</ele>
        <time>2018-06-10T07:21:06.000Z</time>
      </trkpt>
      <trkpt lat="46.38977" lon="5.93038">
        <ele>1067.5999755859</ele>
        <time>2018-06-10T07:21:08.000Z</time>
      </trkpt>
      <trkpt lat="46.38962" lon="5.93012">
        <ele>1066.1999511719</ele>
        <time>2018-06-10T07:21:11.000Z</time>
      </trkpt>
      <trkpt lat="46.38951" lon="5.92996">
        <ele>1064.8000488281</ele>
        <time>2018-06-10T07:21:13.000Z</time>
      </trkpt>
      <trkpt lat="46.38936" lon="5.9297">
        <ele>1063.5999755859</ele>
        <time>2018-06-10T07:21:16.000Z</time>
      </trkpt>
      <trkpt lat="46.38914" lon="5.92935">
        <ele>1062.5999755859</ele>
        <time>2018-06-10T07:21:20.000Z</time>
      </trkpt>
      <trkpt lat="46.38903" lon="5.92918">
        <ele>1061.5999755859</ele>
        <time>2018-06-10T07:21:22.000Z</time>
      </trkpt>
      <trkpt lat="46.38865" lon="5.92866">
        <ele>1060.4000244141</ele>
        <time>2018-06-10T07:21:29.000Z</time>
      </trkpt>
      <trkpt lat="46.38826" lon="5.92804">
        <ele>1059.8000488281</ele>
        <time>2018-06-10T07:21:38.000Z</time>
      </trkpt>
      <trkpt lat="46.388" lon="5.92755">
        <ele>1059.4000244141</ele>
        <time>2018-06-10T07:21:45.000Z</time>
      </trkpt>
      <trkpt lat="46.38775" lon="5.92713">
        <ele>1058</ele>
        <time>2018-06-10T07:21:51.000Z</time>
      </trkpt>
      <trkpt lat="46.38736" lon="5.92651">
        <ele>1057.5999755859</ele>
        <time>2018-06-10T07:22:00.000Z</time>
      </trkpt>
      <trkpt lat="46.38723" lon="5.92632">
        <ele>1059</ele>
        <time>2018-06-10T07:22:03.000Z</time>
      </trkpt>
      <trkpt lat="46.38685" lon="5.92573">
        <ele>1058.4000244141</ele>
        <time>2018-06-10T07:22:12.000Z</time>
      </trkpt>
      <trkpt lat="46.38672" lon="5.92551">
        <ele>1058</ele>
        <time>2018-06-10T07:22:15.000Z</time>
      </trkpt>
      <trkpt lat="46.38661" lon="5.92526">
        <ele>1056.8000488281</ele>
        <time>2018-06-10T07:22:18.000Z</time>
      </trkpt>
      <trkpt lat="46.38646" lon="5.92491">
        <ele>1055.5999755859</ele>
        <time>2018-06-10T07:22:22.000Z</time>
      </trkpt>
      <trkpt lat="46.3863" lon="5.92459">
        <ele>1054</ele>
        <time>2018-06-10T07:22:26.000Z</time>
      </trkpt>
      <trkpt lat="46.38622" lon="5.92443">
        <ele>1052.5999755859</ele>
        <time>2018-06-10T07:22:28.000Z</time>
      </trkpt>
      <trkpt lat="46.38611" lon="5.92416">
        <ele>1051</ele>
        <time>2018-06-10T07:22:31.000Z</time>
      </trkpt>
      <trkpt lat="46.38604" lon="5.92398">
        <ele>1049.5999755859</ele>
        <time>2018-06-10T07:22:33.000Z</time>
      </trkpt>
      <trkpt lat="46.38592" lon="5.92372">
        <ele>1048.4000244141</ele>
        <time>2018-06-10T07:22:36.000Z</time>
      </trkpt>
      <trkpt lat="46.3857" lon="5.92327">
        <ele>1047.1999511719</ele>
        <time>2018-06-10T07:22:41.000Z</time>
      </trkpt>
      <trkpt lat="46.38566" lon="5.92318">
        <ele>1046.8000488281</ele>
        <time>2018-06-10T07:22:42.000Z</time>
      </trkpt>
      <trkpt lat="46.38561" lon="5.92309">
        <ele>1046.5999755859</ele>
        <time>2018-06-10T07:22:43.000Z</time>
      </trkpt>
      <trkpt lat="46.38557" lon="5.92301">
        <ele>1046.1999511719</ele>
        <time>2018-06-10T07:22:44.000Z</time>
      </trkpt>
      <trkpt lat="46.38548" lon="5.92283">
        <ele>1045.1999511719</ele>
        <time>2018-06-10T07:22:46.000Z</time>
      </trkpt>
      <trkpt lat="46.38543" lon="5.92273">
        <ele>1044.8000488281</ele>
        <time>2018-06-10T07:22:47.000Z</time>
      </trkpt>
      <trkpt lat="46.38528" lon="5.92248">
        <ele>1043.4000244141</ele>
        <time>2018-06-10T07:22:50.000Z</time>
      </trkpt>
      <trkpt lat="46.38515" lon="5.92232">
        <ele>1042.5999755859</ele>
        <time>2018-06-10T07:22:52.000Z</time>
      </trkpt>
      <trkpt lat="46.38501" lon="5.92218">
        <ele>1042.1999511719</ele>
        <time>2018-06-10T07:22:54.000Z</time>
      </trkpt>
      <trkpt lat="46.38479" lon="5.92203">
        <ele>1041</ele>
        <time>2018-06-10T07:22:57.000Z</time>
      </trkpt>
      <trkpt lat="46.38457" lon="5.92192">
        <ele>1039.8000488281</ele>
        <time>2018-06-10T07:23:00.000Z</time>
      </trkpt>
      <trkpt lat="46.38449" lon="5.92187">
        <ele>1039.1999511719</ele>
        <time>2018-06-10T07:23:01.000Z</time>
      </trkpt>
      <trkpt lat="46.38442" lon="5.92182">
        <ele>1038.8000488281</ele>
        <time>2018-06-10T07:23:02.000Z</time>
      </trkpt>
      <trkpt lat="46.38435" lon="5.92176">
        <ele>1038.4000244141</ele>
        <time>2018-06-10T07:23:03.000Z</time>
      </trkpt>
      <trkpt lat="46.38415" lon="5.92154">
        <ele>1037.4000244141</ele>
        <time>2018-06-10T07:23:06.000Z</time>
      </trkpt>
      <trkpt lat="46.38395" lon="5.92131">
        <ele>1036.1999511719</ele>
        <time>2018-06-10T07:23:09.000Z</time>
      </trkpt>
      <trkpt lat="46.38382" lon="5.92118">
        <ele>1035.4000244141</ele>
        <time>2018-06-10T07:23:11.000Z</time>
      </trkpt>
      <trkpt lat="46.38375" lon="5.92112">
        <ele>1035</ele>
        <time>2018-06-10T07:23:12.000Z</time>
      </trkpt>
      <trkpt lat="46.38361" lon="5.92102">
        <ele>1034</ele>
        <time>2018-06-10T07:23:14.000Z</time>
      </trkpt>
      <trkpt lat="46.38348" lon="5.92093">
        <ele>1033</ele>
        <time>2018-06-10T07:23:16.000Z</time>
      </trkpt>
      <trkpt lat="46.38302" lon="5.9206">
        <ele>1032</ele>
        <time>2018-06-10T07:23:24.000Z</time>
      </trkpt>
      <trkpt lat="46.38286" lon="5.92046">
        <ele>1031.8000488281</ele>
        <time>2018-06-10T07:23:27.000Z</time>
      </trkpt>
      <trkpt lat="46.38272" lon="5.92025">
        <ele>1031.5999755859</ele>
        <time>2018-06-10T07:23:30.000Z</time>
      </trkpt>
      <trkpt lat="46.38264" lon="5.92008">
        <ele>1031</ele>
        <time>2018-06-10T07:23:32.000Z</time>
      </trkpt>
      <trkpt lat="46.38254" lon="5.91991">
        <ele>1029.8000488281</ele>
        <time>2018-06-10T07:23:34.000Z</time>
      </trkpt>
      <trkpt lat="46.38244" lon="5.91975">
        <ele>1029</ele>
        <time>2018-06-10T07:23:36.000Z</time>
      </trkpt>
      <trkpt lat="46.38237" lon="5.91968">
        <ele>1028.4000244141</ele>
        <time>2018-06-10T07:23:37.000Z</time>
      </trkpt>
      <trkpt lat="46.38223" lon="5.91952">
        <ele>1026.8000488281</ele>
        <time>2018-06-10T07:23:39.000Z</time>
      </trkpt>
      <trkpt lat="46.38202" lon="5.9193">
        <ele>1025.4000244141</ele>
        <time>2018-06-10T07:23:42.000Z</time>
      </trkpt>
      <trkpt lat="46.38188" lon="5.91915">
        <ele>1024</ele>
        <time>2018-06-10T07:23:44.000Z</time>
      </trkpt>
      <trkpt lat="46.38175" lon="5.919">
        <ele>1022.5999755859</ele>
        <time>2018-06-10T07:23:46.000Z</time>
      </trkpt>
      <trkpt lat="46.38163" lon="5.91882">
        <ele>1021.4000244141</ele>
        <time>2018-06-10T07:23:48.000Z</time>
      </trkpt>
      <trkpt lat="46.38144" lon="5.91853">
        <ele>1020.4000244141</ele>
        <time>2018-06-10T07:23:51.000Z</time>
      </trkpt>
      <trkpt lat="46.38113" lon="5.91824">
        <ele>1019.4000244141</ele>
        <time>2018-06-10T07:23:55.000Z</time>
      </trkpt>
      <trkpt lat="46.38095" lon="5.91813">
        <ele>1018.799987793</ele>
        <time>2018-06-10T07:23:57.000Z</time>
      </trkpt>
      <trkpt lat="46.38086" lon="5.91809">
        <ele>1017.5999755859</ele>
        <time>2018-06-10T07:23:58.000Z</time>
      </trkpt>
      <trkpt lat="46.38076" lon="5.91805">
        <ele>1015.799987793</ele>
        <time>2018-06-10T07:23:59.000Z</time>
      </trkpt>
      <trkpt lat="46.38067" lon="5.91802">
        <ele>1014.4000244141</ele>
        <time>2018-06-10T07:24:00.000Z</time>
      </trkpt>
      <trkpt lat="46.38057" lon="5.91799">
        <ele>1013.4000244141</ele>
        <time>2018-06-10T07:24:01.000Z</time>
      </trkpt>
      <trkpt lat="46.38039" lon="5.91794">
        <ele>1011.5999755859</ele>
        <time>2018-06-10T07:24:03.000Z</time>
      </trkpt>
      <trkpt lat="46.38021" lon="5.91791">
        <ele>1010.4000244141</ele>
        <time>2018-06-10T07:24:05.000Z</time>
      </trkpt>
      <trkpt lat="46.37963" lon="5.91781">
        <ele>1011</ele>
        <time>2018-06-10T07:24:13.000Z</time>
      </trkpt>
      <trkpt lat="46.37952" lon="5.91777">
        <ele>1011.5999755859</ele>
        <time>2018-06-10T07:24:15.000Z</time>
      </trkpt>
      <trkpt lat="46.37942" lon="5.91769">
        <ele>1012.4000244141</ele>
        <time>2018-06-10T07:24:17.000Z</time>
      </trkpt>
      <trkpt lat="46.37938" lon="5.91765">
        <ele>1012.799987793</ele>
        <time>2018-06-10T07:24:18.000Z</time>
      </trkpt>
      <trkpt lat="46.37897" lon="5.91716">
        <ele>1013.799987793</ele>
        <time>2018-06-10T07:24:29.000Z</time>
      </trkpt>
      <trkpt lat="46.37874" lon="5.91692">
        <ele>1014.799987793</ele>
        <time>2018-06-10T07:24:36.000Z</time>
      </trkpt>
      <trkpt lat="46.37858" lon="5.91675">
        <ele>1015.5999755859</ele>
        <time>2018-06-10T07:24:41.000Z</time>
      </trkpt>
      <trkpt lat="46.37815" lon="5.91643">
        <ele>1016</ele>
        <time>2018-06-10T07:24:52.000Z</time>
      </trkpt>
      <trkpt lat="46.37804" lon="5.91633">
        <ele>1016.200012207</ele>
        <time>2018-06-10T07:24:55.000Z</time>
      </trkpt>
      <trkpt lat="46.3779" lon="5.91616">
        <ele>1017</ele>
        <time>2018-06-10T07:24:59.000Z</time>
      </trkpt>
      <trkpt lat="46.37748" lon="5.91573">
        <ele>1016.4000244141</ele>
        <time>2018-06-10T07:25:10.000Z</time>
      </trkpt>
      <trkpt lat="46.37739" lon="5.91566">
        <ele>1016</ele>
        <time>2018-06-10T07:25:12.000Z</time>
      </trkpt>
      <trkpt lat="46.3772" lon="5.91551">
        <ele>1014.799987793</ele>
        <time>2018-06-10T07:25:16.000Z</time>
      </trkpt>
      <trkpt lat="46.37682" lon="5.91514">
        <ele>1014</ele>
        <time>2018-06-10T07:25:24.000Z</time>
      </trkpt>
      <trkpt lat="46.37676" lon="5.91509">
        <ele>1013.5999755859</ele>
        <time>2018-06-10T07:25:25.000Z</time>
      </trkpt>
      <trkpt lat="46.37664" lon="5.91497">
        <ele>1012</ele>
        <time>2018-06-10T07:25:27.000Z</time>
      </trkpt>
      <trkpt lat="46.37645" lon="5.9148">
        <ele>1010.4000244141</ele>
        <time>2018-06-10T07:25:30.000Z</time>
      </trkpt>
      <trkpt lat="46.37634" lon="5.91468">
        <ele>1008.799987793</ele>
        <time>2018-06-10T07:25:32.000Z</time>
      </trkpt>
      <trkpt lat="46.3762" lon="5.91455">
        <ele>1007</ele>
        <time>2018-06-10T07:25:34.000Z</time>
      </trkpt>
      <trkpt lat="46.37607" lon="5.91441">
        <ele>1005.799987793</ele>
        <time>2018-06-10T07:25:36.000Z</time>
      </trkpt>
      <trkpt lat="46.37593" lon="5.91426">
        <ele>1004.799987793</ele>
        <time>2018-06-10T07:25:38.000Z</time>
      </trkpt>
      <trkpt lat="46.37585" lon="5.91418">
        <ele>1004.200012207</ele>
        <time>2018-06-10T07:25:39.000Z</time>
      </trkpt>
      <trkpt lat="46.37571" lon="5.91402">
        <ele>1003</ele>
        <time>2018-06-10T07:25:41.000Z</time>
      </trkpt>
      <trkpt lat="46.37555" lon="5.91384">
        <ele>1001.799987793</ele>
        <time>2018-06-10T07:25:43.000Z</time>
      </trkpt>
      <trkpt lat="46.37547" lon="5.91376">
        <ele>1001.200012207</ele>
        <time>2018-06-10T07:25:44.000Z</time>
      </trkpt>
      <trkpt lat="46.37538" lon="5.91368">
        <ele>1000.4000244141</ele>
        <time>2018-06-10T07:25:45.000Z</time>
      </trkpt>
      <trkpt lat="46.37524" lon="5.9135">
        <ele>998.40002441406</ele>
        <time>2018-06-10T07:25:47.000Z</time>
      </trkpt>
      <trkpt lat="46.37508" lon="5.91331">
        <ele>996.20001220703</ele>
        <time>2018-06-10T07:25:49.000Z</time>
      </trkpt>
      <trkpt lat="46.37501" lon="5.91322">
        <ele>995</ele>
        <time>2018-06-10T07:25:50.000Z</time>
      </trkpt>
      <trkpt lat="46.37486" lon="5.91303">
        <ele>993.40002441406</ele>
        <time>2018-06-10T07:25:52.000Z</time>
      </trkpt>
      <trkpt lat="46.3747" lon="5.91284">
        <ele>992.40002441406</ele>
        <time>2018-06-10T07:25:54.000Z</time>
      </trkpt>
      <trkpt lat="46.37448" lon="5.91257">
        <ele>991</ele>
        <time>2018-06-10T07:25:57.000Z</time>
      </trkpt>
      <trkpt lat="46.37434" lon="5.91242">
        <ele>990.20001220703</ele>
        <time>2018-06-10T07:25:59.000Z</time>
      </trkpt>
      <trkpt lat="46.37426" lon="5.91235">
        <ele>989.79998779297</ele>
        <time>2018-06-10T07:26:00.000Z</time>
      </trkpt>
      <trkpt lat="46.37411" lon="5.9122">
        <ele>988.40002441406</ele>
        <time>2018-06-10T07:26:02.000Z</time>
      </trkpt>
      <trkpt lat="46.37405" lon="5.91213">
        <ele>987.79998779297</ele>
        <time>2018-06-10T07:26:03.000Z</time>
      </trkpt>
      <trkpt lat="46.37392" lon="5.91208">
        <ele>987.40002441406</ele>
        <time>2018-06-10T07:26:05.000Z</time>
      </trkpt>
      <trkpt lat="46.37384" lon="5.91203">
        <ele>988.59997558594</ele>
        <time>2018-06-10T07:26:07.000Z</time>
      </trkpt>
      <trkpt lat="46.3738" lon="5.91196">
        <ele>990.59997558594</ele>
        <time>2018-06-10T07:26:09.000Z</time>
      </trkpt>
      <trkpt lat="46.37378" lon="5.91191">
        <ele>992.20001220703</ele>
        <time>2018-06-10T07:26:11.000Z</time>
      </trkpt>
      <trkpt lat="46.37374" lon="5.91183">
        <ele>993.59997558594</ele>
        <time>2018-06-10T07:26:14.000Z</time>
      </trkpt>
      <trkpt lat="46.3737" lon="5.91173">
        <ele>994.59997558594</ele>
        <time>2018-06-10T07:26:18.000Z</time>
      </trkpt>
      <trkpt lat="46.37366" lon="5.91157">
        <ele>995.59997558594</ele>
        <time>2018-06-10T07:26:24.000Z</time>
      </trkpt>
      <trkpt lat="46.37363" lon="5.91145">
        <ele>996.59997558594</ele>
        <time>2018-06-10T07:26:29.000Z</time>
      </trkpt>
      <trkpt lat="46.37362" lon="5.91133">
        <ele>997.79998779297</ele>
        <time>2018-06-10T07:26:34.000Z</time>
      </trkpt>
      <trkpt lat="46.37352" lon="5.91113">
        <ele>998.79998779297</ele>
        <time>2018-06-10T07:26:44.000Z</time>
      </trkpt>
      <trkpt lat="46.37339" lon="5.911">
        <ele>999.79998779297</ele>
        <time>2018-06-10T07:26:52.000Z</time>
      </trkpt>
      <trkpt lat="46.37329" lon="5.91083">
        <ele>1001</ele>
        <time>2018-06-10T07:27:01.000Z</time>
      </trkpt>
      <trkpt lat="46.37325" lon="5.91074">
        <ele>1002</ele>
        <time>2018-06-10T07:27:06.000Z</time>
      </trkpt>
      <trkpt lat="46.3732" lon="5.91063">
        <ele>1003</ele>
        <time>2018-06-10T07:27:12.000Z</time>
      </trkpt>
      <trkpt lat="46.37311" lon="5.91051">
        <ele>1004.200012207</ele>
        <time>2018-06-10T07:27:20.000Z</time>
      </trkpt>
      <trkpt lat="46.37304" lon="5.91039">
        <ele>1005.200012207</ele>
        <time>2018-06-10T07:27:26.000Z</time>
      </trkpt>
      <trkpt lat="46.37298" lon="5.91028">
        <ele>1006.4000244141</ele>
        <time>2018-06-10T07:27:32.000Z</time>
      </trkpt>
      <trkpt lat="46.37287" lon="5.91014">
        <ele>1007.5999755859</ele>
        <time>2018-06-10T07:27:41.000Z</time>
      </trkpt>
      <trkpt lat="46.37237" lon="5.90979">
        <ele>1007</ele>
        <time>2018-06-10T07:28:03.000Z</time>
      </trkpt>
      <trkpt lat="46.37229" lon="5.90974">
        <ele>1006.4000244141</ele>
        <time>2018-06-10T07:28:05.000Z</time>
      </trkpt>
      <trkpt lat="46.37221" lon="5.90968">
        <ele>1005.4000244141</ele>
        <time>2018-06-10T07:28:07.000Z</time>
      </trkpt>
      <trkpt lat="46.37217" lon="5.90964">
        <ele>1005.4000244141</ele>
        <time>2018-06-10T07:28:08.000Z</time>
      </trkpt>
      <trkpt lat="46.37207" lon="5.90954">
        <ele>1005</ele>
        <time>2018-06-10T07:28:11.000Z</time>
      </trkpt>
      <trkpt lat="46.37191" lon="5.90943">
        <ele>1004.5999755859</ele>
        <time>2018-06-10T07:28:15.000Z</time>
      </trkpt>
      <trkpt lat="46.37188" lon="5.90939">
        <ele>1004.4000244141</ele>
        <time>2018-06-10T07:28:16.000Z</time>
      </trkpt>
      <trkpt lat="46.37181" lon="5.90931">
        <ele>1003.799987793</ele>
        <time>2018-06-10T07:28:18.000Z</time>
      </trkpt>
      <trkpt lat="46.37176" lon="5.90916">
        <ele>1003.200012207</ele>
        <time>2018-06-10T07:28:21.000Z</time>
      </trkpt>
      <trkpt lat="46.37172" lon="5.90869">
        <ele>1004.200012207</ele>
        <time>2018-06-10T07:28:34.000Z</time>
      </trkpt>
      <trkpt lat="46.37173" lon="5.90857">
        <ele>1005.4000244141</ele>
        <time>2018-06-10T07:28:39.000Z</time>
      </trkpt>
      <trkpt lat="46.37173" lon="5.90845">
        <ele>1006.4000244141</ele>
        <time>2018-06-10T07:28:44.000Z</time>
      </trkpt>
      <trkpt lat="46.37172" lon="5.90831">
        <ele>1007.4000244141</ele>
        <time>2018-06-10T07:28:49.000Z</time>
      </trkpt>
      <trkpt lat="46.37172" lon="5.90816">
        <ele>1008.200012207</ele>
        <time>2018-06-10T07:28:55.000Z</time>
      </trkpt>
      <trkpt lat="46.37172" lon="5.90814">
        <ele>1008.5999755859</ele>
        <time>2018-06-10T07:28:56.000Z</time>
      </trkpt>
      <trkpt lat="46.37172" lon="5.90802">
        <ele>1009.5999755859</ele>
        <time>2018-06-10T07:29:01.000Z</time>
      </trkpt>
      <trkpt lat="46.37155" lon="5.90725">
        <ele>1009.799987793</ele>
        <time>2018-06-10T07:29:24.000Z</time>
      </trkpt>
      <trkpt lat="46.37133" lon="5.90661">
        <ele>1010.5999755859</ele>
        <time>2018-06-10T07:29:42.000Z</time>
      </trkpt>
      <trkpt lat="46.37111" lon="5.90599">
        <ele>1009.5999755859</ele>
        <time>2018-06-10T07:29:56.000Z</time>
      </trkpt>
      <trkpt lat="46.37105" lon="5.90576">
        <ele>1008.4000244141</ele>
        <time>2018-06-10T07:29:59.000Z</time>
      </trkpt>
      <trkpt lat="46.371" lon="5.90558">
        <ele>1007.200012207</ele>
        <time>2018-06-10T07:30:01.000Z</time>
      </trkpt>
      <trkpt lat="46.37097" lon="5.90548">
        <ele>1006.200012207</ele>
        <time>2018-06-10T07:30:02.000Z</time>
      </trkpt>
      <trkpt lat="46.37093" lon="5.90538">
        <ele>1005</ele>
        <time>2018-06-10T07:30:03.000Z</time>
      </trkpt>
      <trkpt lat="46.3709" lon="5.90527">
        <ele>1003.799987793</ele>
        <time>2018-06-10T07:30:04.000Z</time>
      </trkpt>
      <trkpt lat="46.37082" lon="5.90505">
        <ele>1002.200012207</ele>
        <time>2018-06-10T07:30:06.000Z</time>
      </trkpt>
      <trkpt lat="46.37078" lon="5.90496">
        <ele>1001.200012207</ele>
        <time>2018-06-10T07:30:07.000Z</time>
      </trkpt>
      <trkpt lat="46.37073" lon="5.9049">
        <ele>999.79998779297</ele>
        <time>2018-06-10T07:30:08.000Z</time>
      </trkpt>
      <trkpt lat="46.37067" lon="5.90485">
        <ele>998.40002441406</ele>
        <time>2018-06-10T07:30:09.000Z</time>
      </trkpt>
      <trkpt lat="46.37061" lon="5.90482">
        <ele>997.59997558594</ele>
        <time>2018-06-10T07:30:10.000Z</time>
      </trkpt>
      <trkpt lat="46.37054" lon="5.9048">
        <ele>997.40002441406</ele>
        <time>2018-06-10T07:30:11.000Z</time>
      </trkpt>
      <trkpt lat="46.37044" lon="5.90475">
        <ele>997.40002441406</ele>
        <time>2018-06-10T07:30:13.000Z</time>
      </trkpt>
      <trkpt lat="46.37024" lon="5.90457">
        <ele>997.79998779297</ele>
        <time>2018-06-10T07:30:18.000Z</time>
      </trkpt>
      <trkpt lat="46.37016" lon="5.90453">
        <ele>997.79998779297</ele>
        <time>2018-06-10T07:30:20.000Z</time>
      </trkpt>
      <trkpt lat="46.36984" lon="5.90453">
        <ele>996.40002441406</ele>
        <time>2018-06-10T07:30:26.000Z</time>
      </trkpt>
      <trkpt lat="46.36974" lon="5.90452">
        <ele>995.59997558594</ele>
        <time>2018-06-10T07:30:28.000Z</time>
      </trkpt>
      <trkpt lat="46.3697" lon="5.90444">
        <ele>995.40002441406</ele>
        <time>2018-06-10T07:30:30.000Z</time>
      </trkpt>
      <trkpt lat="46.3696" lon="5.90398">
        <ele>995.20001220703</ele>
        <time>2018-06-10T07:30:40.000Z</time>
      </trkpt>
      <trkpt lat="46.36948" lon="5.90353">
        <ele>995</ele>
        <time>2018-06-10T07:30:50.000Z</time>
      </trkpt>
      <trkpt lat="46.36943" lon="5.90345">
        <ele>994</ele>
        <time>2018-06-10T07:30:52.000Z</time>
      </trkpt>
      <trkpt lat="46.36902" lon="5.90333">
        <ele>995.20001220703</ele>
        <time>2018-06-10T07:31:12.000Z</time>
      </trkpt>
      <trkpt lat="46.36895" lon="5.90332">
        <ele>996.20001220703</ele>
        <time>2018-06-10T07:31:19.000Z</time>
      </trkpt>
      <trkpt lat="46.36885" lon="5.90325">
        <ele>997.40002441406</ele>
        <time>2018-06-10T07:31:27.000Z</time>
      </trkpt>
      <trkpt lat="46.3688" lon="5.90327">
        <ele>998.40002441406</ele>
        <time>2018-06-10T07:31:31.000Z</time>
      </trkpt>
      <trkpt lat="46.36875" lon="5.90327">
        <ele>999.59997558594</ele>
        <time>2018-06-10T07:31:37.000Z</time>
      </trkpt>
      <trkpt lat="46.36871" lon="5.90326">
        <ele>1000.5999755859</ele>
        <time>2018-06-10T07:31:42.000Z</time>
      </trkpt>
      <trkpt lat="46.36867" lon="5.90323">
        <ele>1001.5999755859</ele>
        <time>2018-06-10T07:31:47.000Z</time>
      </trkpt>
      <trkpt lat="46.36867" lon="5.90322">
        <ele>1001.799987793</ele>
        <time>2018-06-10T07:31:48.000Z</time>
      </trkpt>
      <trkpt lat="46.36866" lon="5.90321">
        <ele>1002</ele>
        <time>2018-06-10T07:31:49.000Z</time>
      </trkpt>
      <trkpt lat="46.36865" lon="5.90314">
        <ele>1002.799987793</ele>
        <time>2018-06-10T07:31:54.000Z</time>
      </trkpt>
      <trkpt lat="46.36862" lon="5.90305">
        <ele>1003.799987793</ele>
        <time>2018-06-10T07:32:01.000Z</time>
      </trkpt>
      <trkpt lat="46.3686" lon="5.90297">
        <ele>1004.5999755859</ele>
        <time>2018-06-10T07:32:07.000Z</time>
      </trkpt>
      <trkpt lat="46.36859" lon="5.90295">
        <ele>1005</ele>
        <time>2018-06-10T07:32:09.000Z</time>
      </trkpt>
      <trkpt lat="46.36857" lon="5.90288">
        <ele>1006</ele>
        <time>2018-06-10T07:32:15.000Z</time>
      </trkpt>
      <trkpt lat="46.36853" lon="5.90278">
        <ele>1007.200012207</ele>
        <time>2018-06-10T07:32:22.000Z</time>
      </trkpt>
      <trkpt lat="46.36852" lon="5.90274">
        <ele>1007.4000244141</ele>
        <time>2018-06-10T07:32:24.000Z</time>
      </trkpt>
      <trkpt lat="46.3685" lon="5.90269">
        <ele>1008.200012207</ele>
        <time>2018-06-10T07:32:28.000Z</time>
      </trkpt>
      <trkpt lat="46.36844" lon="5.9026">
        <ele>1009.200012207</ele>
        <time>2018-06-10T07:32:37.000Z</time>
      </trkpt>
      <trkpt lat="46.36843" lon="5.90258">
        <ele>1009.4000244141</ele>
        <time>2018-06-10T07:32:38.000Z</time>
      </trkpt>
      <trkpt lat="46.36841" lon="5.90248">
        <ele>1010.4000244141</ele>
        <time>2018-06-10T07:32:45.000Z</time>
      </trkpt>
      <trkpt lat="46.36841" lon="5.90244">
        <ele>1010.799987793</ele>
        <time>2018-06-10T07:32:48.000Z</time>
      </trkpt>
      <trkpt lat="46.36838" lon="5.90235">
        <ele>1011.4000244141</ele>
        <time>2018-06-10T07:32:55.000Z</time>
      </trkpt>
      <trkpt lat="46.36833" lon="5.90225">
        <ele>1012.4000244141</ele>
        <time>2018-06-10T07:33:01.000Z</time>
      </trkpt>
      <trkpt lat="46.36832" lon="5.90222">
        <ele>1012.4000244141</ele>
        <time>2018-06-10T07:33:03.000Z</time>
      </trkpt>
      <trkpt lat="46.36829" lon="5.90209">
        <ele>1013.5999755859</ele>
        <time>2018-06-10T07:33:11.000Z</time>
      </trkpt>
      <trkpt lat="46.36825" lon="5.90201">
        <ele>1014</ele>
        <time>2018-06-10T07:33:17.000Z</time>
      </trkpt>
      <trkpt lat="46.36821" lon="5.90193">
        <ele>1014.5999755859</ele>
        <time>2018-06-10T07:33:22.000Z</time>
      </trkpt>
      <trkpt lat="46.3682" lon="5.90189">
        <ele>1015</ele>
        <time>2018-06-10T07:33:25.000Z</time>
      </trkpt>
      <trkpt lat="46.36819" lon="5.90183">
        <ele>1015.799987793</ele>
        <time>2018-06-10T07:33:32.000Z</time>
      </trkpt>
      <trkpt lat="46.36819" lon="5.90167">
        <ele>1016.799987793</ele>
        <time>2018-06-10T07:33:40.000Z</time>
      </trkpt>
      <trkpt lat="46.36817" lon="5.90152">
        <ele>1017.799987793</ele>
        <time>2018-06-10T07:33:48.000Z</time>
      </trkpt>
      <trkpt lat="46.36818" lon="5.90129">
        <ele>1018.5999755859</ele>
        <time>2018-06-10T07:34:03.000Z</time>
      </trkpt>
      <trkpt lat="46.36817" lon="5.90124">
        <ele>1019</ele>
        <time>2018-06-10T07:34:07.000Z</time>
      </trkpt>
      <trkpt lat="46.36814" lon="5.90112">
        <ele>1020</ele>
        <time>2018-06-10T07:34:16.000Z</time>
      </trkpt>
      <trkpt lat="46.3681" lon="5.90097">
        <ele>1021</ele>
        <time>2018-06-10T07:34:26.000Z</time>
      </trkpt>
      <trkpt lat="46.36806" lon="5.90081">
        <ele>1022</ele>
        <time>2018-06-10T07:34:34.000Z</time>
      </trkpt>
      <trkpt lat="46.36806" lon="5.9008">
        <ele>1022.200012207</ele>
        <time>2018-06-10T07:34:35.000Z</time>
      </trkpt>
      <trkpt lat="46.36803" lon="5.90067">
        <ele>1023</ele>
        <time>2018-06-10T07:34:45.000Z</time>
      </trkpt>
      <trkpt lat="46.36801" lon="5.90051">
        <ele>1024</ele>
        <time>2018-06-10T07:34:55.000Z</time>
      </trkpt>
      <trkpt lat="46.368" lon="5.90047">
        <ele>1024.1999511719</ele>
        <time>2018-06-10T07:34:57.000Z</time>
      </trkpt>
      <trkpt lat="46.36799" lon="5.90043">
        <ele>1024.4000244141</ele>
        <time>2018-06-10T07:34:59.000Z</time>
      </trkpt>
      <trkpt lat="46.36798" lon="5.90022">
        <ele>1025.1999511719</ele>
        <time>2018-06-10T07:35:08.000Z</time>
      </trkpt>
      <trkpt lat="46.36797" lon="5.90008">
        <ele>1025.8000488281</ele>
        <time>2018-06-10T07:35:14.000Z</time>
      </trkpt>
      <trkpt lat="46.36798" lon="5.90003">
        <ele>1026.4000244141</ele>
        <time>2018-06-10T07:35:16.000Z</time>
      </trkpt>
      <trkpt lat="46.36797" lon="5.89992">
        <ele>1026.8000488281</ele>
        <time>2018-06-10T07:35:20.000Z</time>
      </trkpt>
      <trkpt lat="46.36797" lon="5.89981">
        <ele>1027.4000244141</ele>
        <time>2018-06-10T07:35:25.000Z</time>
      </trkpt>
      <trkpt lat="46.36796" lon="5.89974">
        <ele>1027.5999755859</ele>
        <time>2018-06-10T07:35:28.000Z</time>
      </trkpt>
      <trkpt lat="46.36795" lon="5.89971">
        <ele>1027.8000488281</ele>
        <time>2018-06-10T07:35:30.000Z</time>
      </trkpt>
      <trkpt lat="46.3679" lon="5.89965">
        <ele>1027.5999755859</ele>
        <time>2018-06-10T07:35:34.000Z</time>
      </trkpt>
      <trkpt lat="46.36788" lon="5.8996">
        <ele>1027.8000488281</ele>
        <time>2018-06-10T07:35:36.000Z</time>
      </trkpt>
      <trkpt lat="46.36788" lon="5.89956">
        <ele>1028</ele>
        <time>2018-06-10T07:35:38.000Z</time>
      </trkpt>
      <trkpt lat="46.36785" lon="5.89945">
        <ele>1028.4000244141</ele>
        <time>2018-06-10T07:35:42.000Z</time>
      </trkpt>
      <trkpt lat="46.36785" lon="5.89942">
        <ele>1028.4000244141</ele>
        <time>2018-06-10T07:35:43.000Z</time>
      </trkpt>
      <trkpt lat="46.36784" lon="5.8993">
        <ele>1029.5999755859</ele>
        <time>2018-06-10T07:35:49.000Z</time>
      </trkpt>
      <trkpt lat="46.36783" lon="5.89928">
        <ele>1029.5999755859</ele>
        <time>2018-06-10T07:35:50.000Z</time>
      </trkpt>
      <trkpt lat="46.36781" lon="5.89922">
        <ele>1029.8000488281</ele>
        <time>2018-06-10T07:35:52.000Z</time>
      </trkpt>
      <trkpt lat="46.36777" lon="5.89906">
        <ele>1030.8000488281</ele>
        <time>2018-06-10T07:35:58.000Z</time>
      </trkpt>
      <trkpt lat="46.36777" lon="5.89895">
        <ele>1031.4000244141</ele>
        <time>2018-06-10T07:36:02.000Z</time>
      </trkpt>
      <trkpt lat="46.36776" lon="5.89888">
        <ele>1031.8000488281</ele>
        <time>2018-06-10T07:36:05.000Z</time>
      </trkpt>
      <trkpt lat="46.36774" lon="5.89874">
        <ele>1032</ele>
        <time>2018-06-10T07:36:12.000Z</time>
      </trkpt>
      <trkpt lat="46.36774" lon="5.89866">
        <ele>1032.4000244141</ele>
        <time>2018-06-10T07:36:16.000Z</time>
      </trkpt>
      <trkpt lat="46.36772" lon="5.89854">
        <ele>1032.8000488281</ele>
        <time>2018-06-10T07:36:21.000Z</time>
      </trkpt>
      <trkpt lat="46.36759" lon="5.89826">
        <ele>1034</ele>
        <time>2018-06-10T07:36:34.000Z</time>
      </trkpt>
      <trkpt lat="46.36754" lon="5.89818">
        <ele>1035.1999511719</ele>
        <time>2018-06-10T07:36:39.000Z</time>
      </trkpt>
      <trkpt lat="46.3675" lon="5.89809">
        <ele>1035.8000488281</ele>
        <time>2018-06-10T07:36:44.000Z</time>
      </trkpt>
      <trkpt lat="46.36745" lon="5.898">
        <ele>1036.1999511719</ele>
        <time>2018-06-10T07:36:49.000Z</time>
      </trkpt>
      <trkpt lat="46.3674" lon="5.89797">
        <ele>1036.8000488281</ele>
        <time>2018-06-10T07:36:53.000Z</time>
      </trkpt>
      <trkpt lat="46.36737" lon="5.89795">
        <ele>1037.1999511719</ele>
        <time>2018-06-10T07:36:57.000Z</time>
      </trkpt>
      <trkpt lat="46.3673" lon="5.89793">
        <ele>1038.4000244141</ele>
        <time>2018-06-10T07:37:05.000Z</time>
      </trkpt>
      <trkpt lat="46.36722" lon="5.89785">
        <ele>1039.4000244141</ele>
        <time>2018-06-10T07:37:14.000Z</time>
      </trkpt>
      <trkpt lat="46.36721" lon="5.89783">
        <ele>1039.5999755859</ele>
        <time>2018-06-10T07:37:15.000Z</time>
      </trkpt>
      <trkpt lat="46.36715" lon="5.89776">
        <ele>1040.5999755859</ele>
        <time>2018-06-10T07:37:22.000Z</time>
      </trkpt>
      <trkpt lat="46.36709" lon="5.89765">
        <ele>1041.8000488281</ele>
        <time>2018-06-10T07:37:31.000Z</time>
      </trkpt>
      <trkpt lat="46.36703" lon="5.89759">
        <ele>1042.8000488281</ele>
        <time>2018-06-10T07:37:38.000Z</time>
      </trkpt>
      <trkpt lat="46.36699" lon="5.89753">
        <ele>1043.8000488281</ele>
        <time>2018-06-10T07:37:45.000Z</time>
      </trkpt>
      <trkpt lat="46.36694" lon="5.89749">
        <ele>1044.8000488281</ele>
        <time>2018-06-10T07:37:51.000Z</time>
      </trkpt>
      <trkpt lat="46.3669" lon="5.89744">
        <ele>1046</ele>
        <time>2018-06-10T07:37:57.000Z</time>
      </trkpt>
      <trkpt lat="46.36684" lon="5.89738">
        <ele>1047.1999511719</ele>
        <time>2018-06-10T07:38:05.000Z</time>
      </trkpt>
      <trkpt lat="46.3668" lon="5.89734">
        <ele>1048.1999511719</ele>
        <time>2018-06-10T07:38:12.000Z</time>
      </trkpt>
      <trkpt lat="46.36677" lon="5.8973">
        <ele>1049.1999511719</ele>
        <time>2018-06-10T07:38:18.000Z</time>
      </trkpt>
      <trkpt lat="46.36676" lon="5.89728">
        <ele>1049.5999755859</ele>
        <time>2018-06-10T07:38:20.000Z</time>
      </trkpt>
      <trkpt lat="46.3667" lon="5.89723">
        <ele>1050.4000244141</ele>
        <time>2018-06-10T07:38:28.000Z</time>
      </trkpt>
      <trkpt lat="46.36668" lon="5.89721">
        <ele>1051.1999511719</ele>
        <time>2018-06-10T07:38:32.000Z</time>
      </trkpt>
      <trkpt lat="46.36668" lon="5.8972">
        <ele>1051.4000244141</ele>
        <time>2018-06-10T07:38:33.000Z</time>
      </trkpt>
      <trkpt lat="46.36666" lon="5.89717">
        <ele>1052</ele>
        <time>2018-06-10T07:38:36.000Z</time>
      </trkpt>
      <trkpt lat="46.36661" lon="5.8971">
        <ele>1052.5999755859</ele>
        <time>2018-06-10T07:38:42.000Z</time>
      </trkpt>
      <trkpt lat="46.36655" lon="5.89695">
        <ele>1053.5999755859</ele>
        <time>2018-06-10T07:38:53.000Z</time>
      </trkpt>
      <trkpt lat="46.36654" lon="5.89684">
        <ele>1054.8000488281</ele>
        <time>2018-06-10T07:39:01.000Z</time>
      </trkpt>
      <trkpt lat="46.36654" lon="5.89683">
        <ele>1054.8000488281</ele>
        <time>2018-06-10T07:39:02.000Z</time>
      </trkpt>
      <trkpt lat="46.36653" lon="5.89677">
        <ele>1055.4000244141</ele>
        <time>2018-06-10T07:39:07.000Z</time>
      </trkpt>
      <trkpt lat="46.36653" lon="5.89673">
        <ele>1055.5999755859</ele>
        <time>2018-06-10T07:39:09.000Z</time>
      </trkpt>
      <trkpt lat="46.36652" lon="5.89669">
        <ele>1055.8000488281</ele>
        <time>2018-06-10T07:39:11.000Z</time>
      </trkpt>
      <trkpt lat="46.36653" lon="5.89639">
        <ele>1056.5999755859</ele>
        <time>2018-06-10T07:39:24.000Z</time>
      </trkpt>
      <trkpt lat="46.36652" lon="5.89609">
        <ele>1056.8000488281</ele>
        <time>2018-06-10T07:39:38.000Z</time>
      </trkpt>
      <trkpt lat="46.36648" lon="5.89568">
        <ele>1057.8000488281</ele>
        <time>2018-06-10T07:39:57.000Z</time>
      </trkpt>
      <trkpt lat="46.36643" lon="5.89552">
        <ele>1058.8000488281</ele>
        <time>2018-06-10T07:40:06.000Z</time>
      </trkpt>
      <trkpt lat="46.36637" lon="5.89551">
        <ele>1059.8000488281</ele>
        <time>2018-06-10T07:40:11.000Z</time>
      </trkpt>
      <trkpt lat="46.36636" lon="5.89553">
        <ele>1060.1999511719</ele>
        <time>2018-06-10T07:40:13.000Z</time>
      </trkpt>
      <trkpt lat="46.36633" lon="5.89565">
        <ele>1061</ele>
        <time>2018-06-10T07:40:20.000Z</time>
      </trkpt>
      <trkpt lat="46.36629" lon="5.89579">
        <ele>1062</ele>
        <time>2018-06-10T07:40:39.000Z</time>
      </trkpt>
      <trkpt lat="46.36627" lon="5.89594">
        <ele>1063</ele>
        <time>2018-06-10T07:41:22.000Z</time>
      </trkpt>
      <trkpt lat="46.36626" lon="5.896">
        <ele>1063.4000244141</ele>
        <time>2018-06-10T07:41:38.000Z</time>
      </trkpt>
      <trkpt lat="46.36627" lon="5.896">
        <ele>1063.4000244141</ele>
        <time>2018-06-10T07:41:40.000Z</time>
      </trkpt>
      <trkpt lat="46.36628" lon="5.89589">
        <ele>1062</ele>
        <time>2018-06-10T07:43:01.000Z</time>
      </trkpt>
      <trkpt lat="46.36626" lon="5.89598">
        <ele>1062</ele>
        <time>2018-06-10T07:44:00.000Z</time>
      </trkpt>
      <trkpt lat="46.3662" lon="5.89615">
        <ele>1062</ele>
        <time>2018-06-10T07:44:48.000Z</time>
      </trkpt>
      <trkpt lat="46.36605" lon="5.89659">
        <ele>1061.8000488281</ele>
        <time>2018-06-10T08:09:56.000Z</time>
      </trkpt>
      <trkpt lat="46.36599" lon="5.89685">
        <ele>1060.4000244141</ele>
        <time>2018-06-10T08:10:00.000Z</time>
      </trkpt>
      <trkpt lat="46.36597" lon="5.897">
        <ele>1058.8000488281</ele>
        <time>2018-06-10T08:10:02.000Z</time>
      </trkpt>
      <trkpt lat="46.36594" lon="5.89717">
        <ele>1057.1999511719</ele>
        <time>2018-06-10T08:10:04.000Z</time>
      </trkpt>
      <trkpt lat="46.36591" lon="5.89725">
        <ele>1056</ele>
        <time>2018-06-10T08:10:05.000Z</time>
      </trkpt>
      <trkpt lat="46.36586" lon="5.89734">
        <ele>1054.8000488281</ele>
        <time>2018-06-10T08:10:06.000Z</time>
      </trkpt>
      <trkpt lat="46.36581" lon="5.89742">
        <ele>1053.1999511719</ele>
        <time>2018-06-10T08:10:07.000Z</time>
      </trkpt>
      <trkpt lat="46.36576" lon="5.8975">
        <ele>1051.5999755859</ele>
        <time>2018-06-10T08:10:08.000Z</time>
      </trkpt>
      <trkpt lat="46.36571" lon="5.89757">
        <ele>1050.4000244141</ele>
        <time>2018-06-10T08:10:09.000Z</time>
      </trkpt>
      <trkpt lat="46.36568" lon="5.89764">
        <ele>1049.1999511719</ele>
        <time>2018-06-10T08:10:10.000Z</time>
      </trkpt>
      <trkpt lat="46.36565" lon="5.89773">
        <ele>1048</ele>
        <time>2018-06-10T08:10:11.000Z</time>
      </trkpt>
      <trkpt lat="46.36559" lon="5.89789">
        <ele>1047</ele>
        <time>2018-06-10T08:10:13.000Z</time>
      </trkpt>
      <trkpt lat="46.36551" lon="5.89811">
        <ele>1045.5999755859</ele>
        <time>2018-06-10T08:10:16.000Z</time>
      </trkpt>
      <trkpt lat="46.36542" lon="5.89825">
        <ele>1043.5999755859</ele>
        <time>2018-06-10T08:10:18.000Z</time>
      </trkpt>
      <trkpt lat="46.36538" lon="5.8983">
        <ele>1041.5999755859</ele>
        <time>2018-06-10T08:10:19.000Z</time>
      </trkpt>
      <trkpt lat="46.36533" lon="5.89833">
        <ele>1039.4000244141</ele>
        <time>2018-06-10T08:10:20.000Z</time>
      </trkpt>
      <trkpt lat="46.36529" lon="5.89835">
        <ele>1037.5999755859</ele>
        <time>2018-06-10T08:10:21.000Z</time>
      </trkpt>
      <trkpt lat="46.36523" lon="5.89836">
        <ele>1036.4000244141</ele>
        <time>2018-06-10T08:10:23.000Z</time>
      </trkpt>
      <trkpt lat="46.3652" lon="5.89836">
        <ele>1036.5999755859</ele>
        <time>2018-06-10T08:10:24.000Z</time>
      </trkpt>
      <trkpt lat="46.36511" lon="5.89834">
        <ele>1037.5999755859</ele>
        <time>2018-06-10T08:10:27.000Z</time>
      </trkpt>
      <trkpt lat="46.36484" lon="5.89848">
        <ele>1035.4000244141</ele>
        <time>2018-06-10T08:10:33.000Z</time>
      </trkpt>
      <trkpt lat="46.3648" lon="5.89851">
        <ele>1034.1999511719</ele>
        <time>2018-06-10T08:10:34.000Z</time>
      </trkpt>
      <trkpt lat="46.3647" lon="5.89861">
        <ele>1032.1999511719</ele>
        <time>2018-06-10T08:10:36.000Z</time>
      </trkpt>
      <trkpt lat="46.36465" lon="5.89865">
        <ele>1031</ele>
        <time>2018-06-10T08:10:37.000Z</time>
      </trkpt>
      <trkpt lat="46.36459" lon="5.8987">
        <ele>1029.5999755859</ele>
        <time>2018-06-10T08:10:38.000Z</time>
      </trkpt>
      <trkpt lat="46.36453" lon="5.89875">
        <ele>1028.4000244141</ele>
        <time>2018-06-10T08:10:39.000Z</time>
      </trkpt>
      <trkpt lat="46.36449" lon="5.89878">
        <ele>1027.4000244141</ele>
        <time>2018-06-10T08:10:40.000Z</time>
      </trkpt>
      <trkpt lat="46.36445" lon="5.89881">
        <ele>1026.5999755859</ele>
        <time>2018-06-10T08:10:41.000Z</time>
      </trkpt>
      <trkpt lat="46.36439" lon="5.89888">
        <ele>1024.8000488281</ele>
        <time>2018-06-10T08:10:43.000Z</time>
      </trkpt>
      <trkpt lat="46.36433" lon="5.89898">
        <ele>1022.4000244141</ele>
        <time>2018-06-10T08:10:45.000Z</time>
      </trkpt>
      <trkpt lat="46.36428" lon="5.89908">
        <ele>1020.799987793</ele>
        <time>2018-06-10T08:10:47.000Z</time>
      </trkpt>
      <trkpt lat="46.36423" lon="5.89914">
        <ele>1019.4000244141</ele>
        <time>2018-06-10T08:10:49.000Z</time>
      </trkpt>
      <trkpt lat="46.36411" lon="5.89928">
        <ele>1017.5999755859</ele>
        <time>2018-06-10T08:10:53.000Z</time>
      </trkpt>
      <trkpt lat="46.36408" lon="5.8993">
        <ele>1016.4000244141</ele>
        <time>2018-06-10T08:10:54.000Z</time>
      </trkpt>
      <trkpt lat="46.36405" lon="5.89931">
        <ele>1014.5999755859</ele>
        <time>2018-06-10T08:10:55.000Z</time>
      </trkpt>
      <trkpt lat="46.36402" lon="5.89933">
        <ele>1012.799987793</ele>
        <time>2018-06-10T08:10:56.000Z</time>
      </trkpt>
      <trkpt lat="46.36399" lon="5.89934">
        <ele>1011.4000244141</ele>
        <time>2018-06-10T08:10:57.000Z</time>
      </trkpt>
      <trkpt lat="46.36397" lon="5.89936">
        <ele>1010.200012207</ele>
        <time>2018-06-10T08:10:58.000Z</time>
      </trkpt>
      <trkpt lat="46.36394" lon="5.89939">
        <ele>1009</ele>
        <time>2018-06-10T08:10:59.000Z</time>
      </trkpt>
      <trkpt lat="46.36392" lon="5.89943">
        <ele>1007.5999755859</ele>
        <time>2018-06-10T08:11:00.000Z</time>
      </trkpt>
      <trkpt lat="46.36388" lon="5.89945">
        <ele>1006.4000244141</ele>
        <time>2018-06-10T08:11:01.000Z</time>
      </trkpt>
      <trkpt lat="46.36384" lon="5.89946">
        <ele>1005.4000244141</ele>
        <time>2018-06-10T08:11:02.000Z</time>
      </trkpt>
      <trkpt lat="46.36381" lon="5.89948">
        <ele>1004.200012207</ele>
        <time>2018-06-10T08:11:03.000Z</time>
      </trkpt>
      <trkpt lat="46.36378" lon="5.89951">
        <ele>1002.799987793</ele>
        <time>2018-06-10T08:11:04.000Z</time>
      </trkpt>
      <trkpt lat="46.36376" lon="5.89953">
        <ele>1001.799987793</ele>
        <time>2018-06-10T08:11:05.000Z</time>
      </trkpt>
      <trkpt lat="46.36375" lon="5.89956">
        <ele>1000.4000244141</ele>
        <time>2018-06-10T08:11:06.000Z</time>
      </trkpt>
      <trkpt lat="46.36371" lon="5.89961">
        <ele>998.79998779297</ele>
        <time>2018-06-10T08:11:08.000Z</time>
      </trkpt>
      <trkpt lat="46.36366" lon="5.89961">
        <ele>997.59997558594</ele>
        <time>2018-06-10T08:11:10.000Z</time>
      </trkpt>
      <trkpt lat="46.36362" lon="5.89964">
        <ele>996</ele>
        <time>2018-06-10T08:11:12.000Z</time>
      </trkpt>
      <trkpt lat="46.36359" lon="5.89964">
        <ele>994.79998779297</ele>
        <time>2018-06-10T08:11:13.000Z</time>
      </trkpt>
      <trkpt lat="46.36354" lon="5.89966">
        <ele>993.20001220703</ele>
        <time>2018-06-10T08:11:15.000Z</time>
      </trkpt>
      <trkpt lat="46.3635" lon="5.89966">
        <ele>991.20001220703</ele>
        <time>2018-06-10T08:11:17.000Z</time>
      </trkpt>
      <trkpt lat="46.36349" lon="5.89965">
        <ele>989.79998779297</ele>
        <time>2018-06-10T08:11:18.000Z</time>
      </trkpt>
      <trkpt lat="46.36348" lon="5.89964">
        <ele>988.20001220703</ele>
        <time>2018-06-10T08:11:19.000Z</time>
      </trkpt>
      <trkpt lat="46.36344" lon="5.89963">
        <ele>986.79998779297</ele>
        <time>2018-06-10T08:11:21.000Z</time>
      </trkpt>
      <trkpt lat="46.36338" lon="5.89964">
        <ele>985</ele>
        <time>2018-06-10T08:11:23.000Z</time>
      </trkpt>
      <trkpt lat="46.36334" lon="5.89965">
        <ele>983.40002441406</ele>
        <time>2018-06-10T08:11:24.000Z</time>
      </trkpt>
      <trkpt lat="46.3633" lon="5.89965">
        <ele>981.79998779297</ele>
        <time>2018-06-10T08:11:25.000Z</time>
      </trkpt>
      <trkpt lat="46.36326" lon="5.89964">
        <ele>980.20001220703</ele>
        <time>2018-06-10T08:11:26.000Z</time>
      </trkpt>
      <trkpt lat="46.36324" lon="5.89964">
        <ele>979</ele>
        <time>2018-06-10T08:11:27.000Z</time>
      </trkpt>
      <trkpt lat="46.36322" lon="5.89964">
        <ele>977.79998779297</ele>
        <time>2018-06-10T08:11:28.000Z</time>
      </trkpt>
      <trkpt lat="46.36318" lon="5.89967">
        <ele>976.40002441406</ele>
        <time>2018-06-10T08:11:30.000Z</time>
      </trkpt>
      <trkpt lat="46.36317" lon="5.89968">
        <ele>974.79998779297</ele>
        <time>2018-06-10T08:11:32.000Z</time>
      </trkpt>
      <trkpt lat="46.36317" lon="5.89967">
        <ele>973.59997558594</ele>
        <time>2018-06-10T08:11:34.000Z</time>
      </trkpt>
      <trkpt lat="46.36316" lon="5.89968">
        <ele>973.40002441406</ele>
        <time>2018-06-10T08:11:47.000Z</time>
      </trkpt>
      <trkpt lat="46.36314" lon="5.89969">
        <ele>973</ele>
        <time>2018-06-10T08:11:49.000Z</time>
      </trkpt>
      <trkpt lat="46.36313" lon="5.8997">
        <ele>972.40002441406</ele>
        <time>2018-06-10T08:11:51.000Z</time>
      </trkpt>
      <trkpt lat="46.36312" lon="5.89972">
        <ele>971.40002441406</ele>
        <time>2018-06-10T08:11:54.000Z</time>
      </trkpt>
      <trkpt lat="46.36312" lon="5.89974">
        <ele>971</ele>
        <time>2018-06-10T08:12:00.000Z</time>
      </trkpt>
      <trkpt lat="46.3631" lon="5.89976">
        <ele>970.79998779297</ele>
        <time>2018-06-10T08:12:02.000Z</time>
      </trkpt>
      <trkpt lat="46.36308" lon="5.89978">
        <ele>970.20001220703</ele>
        <time>2018-06-10T08:12:04.000Z</time>
      </trkpt>
      <trkpt lat="46.36308" lon="5.89979">
        <ele>969.79998779297</ele>
        <time>2018-06-10T08:12:05.000Z</time>
      </trkpt>
      <trkpt lat="46.36305" lon="5.89981">
        <ele>969</ele>
        <time>2018-06-10T08:12:07.000Z</time>
      </trkpt>
      <trkpt lat="46.363" lon="5.89982">
        <ele>967.79998779297</ele>
        <time>2018-06-10T08:12:09.000Z</time>
      </trkpt>
      <trkpt lat="46.36297" lon="5.89982">
        <ele>967</ele>
        <time>2018-06-10T08:12:10.000Z</time>
      </trkpt>
      <trkpt lat="46.36291" lon="5.89987">
        <ele>966.40002441406</ele>
        <time>2018-06-10T08:12:12.000Z</time>
      </trkpt>
      <trkpt lat="46.36284" lon="5.89996">
        <ele>964.59997558594</ele>
        <time>2018-06-10T08:12:14.000Z</time>
      </trkpt>
      <trkpt lat="46.36278" lon="5.89999">
        <ele>963.59997558594</ele>
        <time>2018-06-10T08:12:16.000Z</time>
      </trkpt>
      <trkpt lat="46.36265" lon="5.90014">
        <ele>962.20001220703</ele>
        <time>2018-06-10T08:12:22.000Z</time>
      </trkpt>
      <trkpt lat="46.36261" lon="5.90016">
        <ele>960.79998779297</ele>
        <time>2018-06-10T08:12:24.000Z</time>
      </trkpt>
      <trkpt lat="46.3626" lon="5.90017">
        <ele>960.20001220703</ele>
        <time>2018-06-10T08:12:25.000Z</time>
      </trkpt>
      <trkpt lat="46.36259" lon="5.90018">
        <ele>959.59997558594</ele>
        <time>2018-06-10T08:12:26.000Z</time>
      </trkpt>
      <trkpt lat="46.36258" lon="5.90023">
        <ele>958.40002441406</ele>
        <time>2018-06-10T08:12:28.000Z</time>
      </trkpt>
      <trkpt lat="46.36253" lon="5.90032">
        <ele>956.40002441406</ele>
        <time>2018-06-10T08:12:31.000Z</time>
      </trkpt>
      <trkpt lat="46.36251" lon="5.90035">
        <ele>955.40002441406</ele>
        <time>2018-06-10T08:12:32.000Z</time>
      </trkpt>
      <trkpt lat="46.36249" lon="5.90037">
        <ele>954.20001220703</ele>
        <time>2018-06-10T08:12:33.000Z</time>
      </trkpt>
      <trkpt lat="46.36246" lon="5.90038">
        <ele>952.40002441406</ele>
        <time>2018-06-10T08:12:34.000Z</time>
      </trkpt>
      <trkpt lat="46.36244" lon="5.9004">
        <ele>950.20001220703</ele>
        <time>2018-06-10T08:12:35.000Z</time>
      </trkpt>
      <trkpt lat="46.36242" lon="5.90041">
        <ele>948</ele>
        <time>2018-06-10T08:12:36.000Z</time>
      </trkpt>
      <trkpt lat="46.36239" lon="5.90043">
        <ele>946.79998779297</ele>
        <time>2018-06-10T08:12:37.000Z</time>
      </trkpt>
      <trkpt lat="46.36235" lon="5.90047">
        <ele>945.59997558594</ele>
        <time>2018-06-10T08:12:39.000Z</time>
      </trkpt>
      <trkpt lat="46.3623" lon="5.90051">
        <ele>944</ele>
        <time>2018-06-10T08:12:41.000Z</time>
      </trkpt>
      <trkpt lat="46.36227" lon="5.90053">
        <ele>942.20001220703</ele>
        <time>2018-06-10T08:12:42.000Z</time>
      </trkpt>
      <trkpt lat="46.36225" lon="5.90054">
        <ele>940.40002441406</ele>
        <time>2018-06-10T08:12:43.000Z</time>
      </trkpt>
      <trkpt lat="46.36222" lon="5.90055">
        <ele>939.20001220703</ele>
        <time>2018-06-10T08:12:44.000Z</time>
      </trkpt>
      <trkpt lat="46.36219" lon="5.90056">
        <ele>938</ele>
        <time>2018-06-10T08:12:45.000Z</time>
      </trkpt>
      <trkpt lat="46.36212" lon="5.90057">
        <ele>935.79998779297</ele>
        <time>2018-06-10T08:12:47.000Z</time>
      </trkpt>
      <trkpt lat="46.36209" lon="5.90057">
        <ele>934.40002441406</ele>
        <time>2018-06-10T08:12:48.000Z</time>
      </trkpt>
      <trkpt lat="46.36205" lon="5.90058">
        <ele>932.40002441406</ele>
        <time>2018-06-10T08:12:49.000Z</time>
      </trkpt>
      <trkpt lat="46.36203" lon="5.90059">
        <ele>930.59997558594</ele>
        <time>2018-06-10T08:12:50.000Z</time>
      </trkpt>
      <trkpt lat="46.36201" lon="5.90061">
        <ele>929</ele>
        <time>2018-06-10T08:12:51.000Z</time>
      </trkpt>
      <trkpt lat="46.362" lon="5.90063">
        <ele>927.59997558594</ele>
        <time>2018-06-10T08:12:52.000Z</time>
      </trkpt>
      <trkpt lat="46.36199" lon="5.90066">
        <ele>926.40002441406</ele>
        <time>2018-06-10T08:12:53.000Z</time>
      </trkpt>
      <trkpt lat="46.36198" lon="5.90072">
        <ele>924.79998779297</ele>
        <time>2018-06-10T08:12:55.000Z</time>
      </trkpt>
      <trkpt lat="46.36195" lon="5.90075">
        <ele>923</ele>
        <time>2018-06-10T08:12:57.000Z</time>
      </trkpt>
      <trkpt lat="46.36193" lon="5.90078">
        <ele>921.20001220703</ele>
        <time>2018-06-10T08:12:59.000Z</time>
      </trkpt>
      <trkpt lat="46.3619" lon="5.90081">
        <ele>920</ele>
        <time>2018-06-10T08:13:01.000Z</time>
      </trkpt>
      <trkpt lat="46.36188" lon="5.90086">
        <ele>918.59997558594</ele>
        <time>2018-06-10T08:13:04.000Z</time>
      </trkpt>
      <trkpt lat="46.36188" lon="5.90086">
        <ele>917.40002441406</ele>
        <time>2018-06-10T08:13:06.000Z</time>
      </trkpt>
      <trkpt lat="46.36186" lon="5.90084">
        <ele>916.40002441406</ele>
        <time>2018-06-10T08:13:14.000Z</time>
      </trkpt>
      <trkpt lat="46.36183" lon="5.90081">
        <ele>915.40002441406</ele>
        <time>2018-06-10T08:13:22.000Z</time>
      </trkpt>
      <trkpt lat="46.36182" lon="5.9008">
        <ele>914.20001220703</ele>
        <time>2018-06-10T08:13:27.000Z</time>
      </trkpt>
      <trkpt lat="46.36181" lon="5.9008">
        <ele>914</ele>
        <time>2018-06-10T08:13:31.000Z</time>
      </trkpt>
      <trkpt lat="46.3618" lon="5.9008">
        <ele>914</ele>
        <time>2018-06-10T08:13:32.000Z</time>
      </trkpt>
      <trkpt lat="46.36177" lon="5.90081">
        <ele>914</ele>
        <time>2018-06-10T08:13:34.000Z</time>
      </trkpt>
      <trkpt lat="46.36175" lon="5.90083">
        <ele>913.20001220703</ele>
        <time>2018-06-10T08:13:36.000Z</time>
      </trkpt>
      <trkpt lat="46.36175" lon="5.90084">
        <ele>912.20001220703</ele>
        <time>2018-06-10T08:13:38.000Z</time>
      </trkpt>
      <trkpt lat="46.36176" lon="5.90085">
        <ele>910.59997558594</ele>
        <time>2018-06-10T08:13:41.000Z</time>
      </trkpt>
      <trkpt lat="46.36173" lon="5.90081">
        <ele>910.79998779297</ele>
        <time>2018-06-10T08:14:02.000Z</time>
      </trkpt>
      <trkpt lat="46.3617" lon="5.9008">
        <ele>910.40002441406</ele>
        <time>2018-06-10T08:14:04.000Z</time>
      </trkpt>
      <trkpt lat="46.36166" lon="5.90085">
        <ele>909.20001220703</ele>
        <time>2018-06-10T08:14:06.000Z</time>
      </trkpt>
      <trkpt lat="46.36164" lon="5.9009">
        <ele>907.79998779297</ele>
        <time>2018-06-10T08:14:08.000Z</time>
      </trkpt>
      <trkpt lat="46.36162" lon="5.90093">
        <ele>906.59997558594</ele>
        <time>2018-06-10T08:14:10.000Z</time>
      </trkpt>
      <trkpt lat="46.36161" lon="5.90094">
        <ele>905.40002441406</ele>
        <time>2018-06-10T08:14:13.000Z</time>
      </trkpt>
      <trkpt lat="46.36161" lon="5.90101">
        <ele>904.40002441406</ele>
        <time>2018-06-10T08:14:19.000Z</time>
      </trkpt>
      <trkpt lat="46.36161" lon="5.90102">
        <ele>903</ele>
        <time>2018-06-10T08:14:22.000Z</time>
      </trkpt>
      <trkpt lat="46.36161" lon="5.90103">
        <ele>902</ele>
        <time>2018-06-10T08:14:25.000Z</time>
      </trkpt>
      <trkpt lat="46.36161" lon="5.90107">
        <ele>902</ele>
        <time>2018-06-10T08:14:27.000Z</time>
      </trkpt>
      <trkpt lat="46.36161" lon="5.90109">
        <ele>901.79998779297</ele>
        <time>2018-06-10T08:14:28.000Z</time>
      </trkpt>
      <trkpt lat="46.36163" lon="5.90114">
        <ele>900.40002441406</ele>
        <time>2018-06-10T08:14:30.000Z</time>
      </trkpt>
      <trkpt lat="46.36166" lon="5.9012">
        <ele>899.40002441406</ele>
        <time>2018-06-10T08:14:32.000Z</time>
      </trkpt>
      <trkpt lat="46.36168" lon="5.90125">
        <ele>897.79998779297</ele>
        <time>2018-06-10T08:14:34.000Z</time>
      </trkpt>
      <trkpt lat="46.36168" lon="5.90127">
        <ele>896.59997558594</ele>
        <time>2018-06-10T08:14:35.000Z</time>
      </trkpt>
      <trkpt lat="46.3617" lon="5.90128">
        <ele>895.59997558594</ele>
        <time>2018-06-10T08:14:36.000Z</time>
      </trkpt>
      <trkpt lat="46.36172" lon="5.9013">
        <ele>894.20001220703</ele>
        <time>2018-06-10T08:14:38.000Z</time>
      </trkpt>
      <trkpt lat="46.36174" lon="5.9013">
        <ele>893.40002441406</ele>
        <time>2018-06-10T08:14:40.000Z</time>
      </trkpt>
      <trkpt lat="46.36176" lon="5.90134">
        <ele>893</ele>
        <time>2018-06-10T08:14:42.000Z</time>
      </trkpt>
      <trkpt lat="46.36177" lon="5.90137">
        <ele>892.79998779297</ele>
        <time>2018-06-10T08:14:43.000Z</time>
      </trkpt>
      <trkpt lat="46.3618" lon="5.90144">
        <ele>891.79998779297</ele>
        <time>2018-06-10T08:14:45.000Z</time>
      </trkpt>
      <trkpt lat="46.36183" lon="5.90154">
        <ele>890.20001220703</ele>
        <time>2018-06-10T08:14:48.000Z</time>
      </trkpt>
      <trkpt lat="46.36181" lon="5.90166">
        <ele>888.40002441406</ele>
        <time>2018-06-10T08:14:50.000Z</time>
      </trkpt>
      <trkpt lat="46.36182" lon="5.9018">
        <ele>886.79998779297</ele>
        <time>2018-06-10T08:14:52.000Z</time>
      </trkpt>
      <trkpt lat="46.36183" lon="5.90188">
        <ele>885.59997558594</ele>
        <time>2018-06-10T08:14:53.000Z</time>
      </trkpt>
      <trkpt lat="46.36184" lon="5.90193">
        <ele>884</ele>
        <time>2018-06-10T08:14:54.000Z</time>
      </trkpt>
      <trkpt lat="46.36185" lon="5.90199">
        <ele>883</ele>
        <time>2018-06-10T08:14:55.000Z</time>
      </trkpt>
      <trkpt lat="46.36186" lon="5.90209">
        <ele>881.59997558594</ele>
        <time>2018-06-10T08:14:57.000Z</time>
      </trkpt>
      <trkpt lat="46.36186" lon="5.90218">
        <ele>880.40002441406</ele>
        <time>2018-06-10T08:14:59.000Z</time>
      </trkpt>
      <trkpt lat="46.36191" lon="5.90233">
        <ele>879.20001220703</ele>
        <time>2018-06-10T08:15:02.000Z</time>
      </trkpt>
      <trkpt lat="46.36197" lon="5.90246">
        <ele>877.40002441406</ele>
        <time>2018-06-10T08:15:04.000Z</time>
      </trkpt>
      <trkpt lat="46.362" lon="5.90253">
        <ele>876.40002441406</ele>
        <time>2018-06-10T08:15:05.000Z</time>
      </trkpt>
      <trkpt lat="46.36203" lon="5.90262">
        <ele>875.20001220703</ele>
        <time>2018-06-10T08:15:06.000Z</time>
      </trkpt>
      <trkpt lat="46.36206" lon="5.9027">
        <ele>874</ele>
        <time>2018-06-10T08:15:07.000Z</time>
      </trkpt>
      <trkpt lat="46.36208" lon="5.90275">
        <ele>873.20001220703</ele>
        <time>2018-06-10T08:15:08.000Z</time>
      </trkpt>
      <trkpt lat="46.3621" lon="5.90279">
        <ele>872.40002441406</ele>
        <time>2018-06-10T08:15:09.000Z</time>
      </trkpt>
      <trkpt lat="46.36213" lon="5.90302">
        <ele>873</ele>
        <time>2018-06-10T08:15:15.000Z</time>
      </trkpt>
      <trkpt lat="46.36213" lon="5.90305">
        <ele>873.59997558594</ele>
        <time>2018-06-10T08:15:16.000Z</time>
      </trkpt>
      <trkpt lat="46.36213" lon="5.90321">
        <ele>874.79998779297</ele>
        <time>2018-06-10T08:15:20.000Z</time>
      </trkpt>
      <trkpt lat="46.36212" lon="5.90332">
        <ele>876</ele>
        <time>2018-06-10T08:15:23.000Z</time>
      </trkpt>
      <trkpt lat="46.36219" lon="5.90395">
        <ele>874.79998779297</ele>
        <time>2018-06-10T08:15:38.000Z</time>
      </trkpt>
      <trkpt lat="46.36219" lon="5.90399">
        <ele>874.59997558594</ele>
        <time>2018-06-10T08:15:39.000Z</time>
      </trkpt>
      <trkpt lat="46.36224" lon="5.9044">
        <ele>876</ele>
        <time>2018-06-10T08:15:52.000Z</time>
      </trkpt>
      <trkpt lat="46.3623" lon="5.90465">
        <ele>876.59997558594</ele>
        <time>2018-06-10T08:15:59.000Z</time>
      </trkpt>
      <trkpt lat="46.36232" lon="5.90494">
        <ele>874.20001220703</ele>
        <time>2018-06-10T08:16:03.000Z</time>
      </trkpt>
      <trkpt lat="46.36235" lon="5.90502">
        <ele>872.79998779297</ele>
        <time>2018-06-10T08:16:04.000Z</time>
      </trkpt>
      <trkpt lat="46.36238" lon="5.90511">
        <ele>871.40002441406</ele>
        <time>2018-06-10T08:16:05.000Z</time>
      </trkpt>
      <trkpt lat="46.36241" lon="5.90522">
        <ele>870.20001220703</ele>
        <time>2018-06-10T08:16:06.000Z</time>
      </trkpt>
      <trkpt lat="46.36247" lon="5.90548">
        <ele>868.40002441406</ele>
        <time>2018-06-10T08:16:08.000Z</time>
      </trkpt>
      <trkpt lat="46.36253" lon="5.90563">
        <ele>867.20001220703</ele>
        <time>2018-06-10T08:16:09.000Z</time>
      </trkpt>
      <trkpt lat="46.36259" lon="5.90577">
        <ele>865.20001220703</ele>
        <time>2018-06-10T08:16:10.000Z</time>
      </trkpt>
      <trkpt lat="46.36265" lon="5.90592">
        <ele>862.79998779297</ele>
        <time>2018-06-10T08:16:11.000Z</time>
      </trkpt>
      <trkpt lat="46.36272" lon="5.90608">
        <ele>860.79998779297</ele>
        <time>2018-06-10T08:16:12.000Z</time>
      </trkpt>
      <trkpt lat="46.36278" lon="5.90621">
        <ele>859.40002441406</ele>
        <time>2018-06-10T08:16:13.000Z</time>
      </trkpt>
      <trkpt lat="46.36283" lon="5.90633">
        <ele>858.40002441406</ele>
        <time>2018-06-10T08:16:14.000Z</time>
      </trkpt>
      <trkpt lat="46.36289" lon="5.90659">
        <ele>856.79998779297</ele>
        <time>2018-06-10T08:16:16.000Z</time>
      </trkpt>
      <trkpt lat="46.36289" lon="5.90689">
        <ele>854.59997558594</ele>
        <time>2018-06-10T08:16:18.000Z</time>
      </trkpt>
      <trkpt lat="46.36286" lon="5.90703">
        <ele>853.20001220703</ele>
        <time>2018-06-10T08:16:19.000Z</time>
      </trkpt>
      <trkpt lat="46.36281" lon="5.90716">
        <ele>851.79998779297</ele>
        <time>2018-06-10T08:16:20.000Z</time>
      </trkpt>
      <trkpt lat="46.36274" lon="5.90728">
        <ele>850.59997558594</ele>
        <time>2018-06-10T08:16:21.000Z</time>
      </trkpt>
      <trkpt lat="46.3627" lon="5.90741">
        <ele>849.20001220703</ele>
        <time>2018-06-10T08:16:22.000Z</time>
      </trkpt>
      <trkpt lat="46.36267" lon="5.90755">
        <ele>847.79998779297</ele>
        <time>2018-06-10T08:16:23.000Z</time>
      </trkpt>
      <trkpt lat="46.36264" lon="5.90777">
        <ele>846.40002441406</ele>
        <time>2018-06-10T08:16:25.000Z</time>
      </trkpt>
      <trkpt lat="46.36258" lon="5.90788">
        <ele>845.79998779297</ele>
        <time>2018-06-10T08:16:27.000Z</time>
      </trkpt>
      <trkpt lat="46.36247" lon="5.90765">
        <ele>845.79998779297</ele>
        <time>2018-06-10T08:16:31.000Z</time>
      </trkpt>
      <trkpt lat="46.3624" lon="5.90753">
        <ele>845.40002441406</ele>
        <time>2018-06-10T08:16:33.000Z</time>
      </trkpt>
      <trkpt lat="46.36236" lon="5.90747">
        <ele>845.20001220703</ele>
        <time>2018-06-10T08:16:34.000Z</time>
      </trkpt>
      <trkpt lat="46.36211" lon="5.90718">
        <ele>843.79998779297</ele>
        <time>2018-06-10T08:16:39.000Z</time>
      </trkpt>
      <trkpt lat="46.36204" lon="5.90711">
        <ele>843</ele>
        <time>2018-06-10T08:16:40.000Z</time>
      </trkpt>
      <trkpt lat="46.36196" lon="5.90705">
        <ele>841.59997558594</ele>
        <time>2018-06-10T08:16:41.000Z</time>
      </trkpt>
      <trkpt lat="46.36188" lon="5.90699">
        <ele>840.40002441406</ele>
        <time>2018-06-10T08:16:42.000Z</time>
      </trkpt>
      <trkpt lat="46.3618" lon="5.90694">
        <ele>839.40002441406</ele>
        <time>2018-06-10T08:16:43.000Z</time>
      </trkpt>
      <trkpt lat="46.36165" lon="5.90686">
        <ele>838.20001220703</ele>
        <time>2018-06-10T08:16:45.000Z</time>
      </trkpt>
      <trkpt lat="46.36157" lon="5.90682">
        <ele>838.20001220703</ele>
        <time>2018-06-10T08:16:46.000Z</time>
      </trkpt>
      <trkpt lat="46.36144" lon="5.90673">
        <ele>837.20001220703</ele>
        <time>2018-06-10T08:16:48.000Z</time>
      </trkpt>
      <trkpt lat="46.36129" lon="5.90677">
        <ele>837</ele>
        <time>2018-06-10T08:16:50.000Z</time>
      </trkpt>
      <trkpt lat="46.36114" lon="5.90689">
        <ele>836.40002441406</ele>
        <time>2018-06-10T08:16:52.000Z</time>
      </trkpt>
      <trkpt lat="46.36108" lon="5.90696">
        <ele>835.20001220703</ele>
        <time>2018-06-10T08:16:53.000Z</time>
      </trkpt>
      <trkpt lat="46.36102" lon="5.90703">
        <ele>833.59997558594</ele>
        <time>2018-06-10T08:16:54.000Z</time>
      </trkpt>
      <trkpt lat="46.36099" lon="5.9071">
        <ele>832.20001220703</ele>
        <time>2018-06-10T08:16:55.000Z</time>
      </trkpt>
      <trkpt lat="46.36098" lon="5.90718">
        <ele>831.20001220703</ele>
        <time>2018-06-10T08:16:56.000Z</time>
      </trkpt>
      <trkpt lat="46.36097" lon="5.90727">
        <ele>830.20001220703</ele>
        <time>2018-06-10T08:16:57.000Z</time>
      </trkpt>
      <trkpt lat="46.36097" lon="5.90737">
        <ele>828.59997558594</ele>
        <time>2018-06-10T08:16:58.000Z</time>
      </trkpt>
      <trkpt lat="46.36095" lon="5.90746">
        <ele>827</ele>
        <time>2018-06-10T08:16:59.000Z</time>
      </trkpt>
      <trkpt lat="46.36093" lon="5.90751">
        <ele>825.59997558594</ele>
        <time>2018-06-10T08:17:00.000Z</time>
      </trkpt>
      <trkpt lat="46.36091" lon="5.90753">
        <ele>824.59997558594</ele>
        <time>2018-06-10T08:17:01.000Z</time>
      </trkpt>
      <trkpt lat="46.36087" lon="5.90754">
        <ele>824.20001220703</ele>
        <time>2018-06-10T08:17:02.000Z</time>
      </trkpt>
      <trkpt lat="46.36082" lon="5.90752">
        <ele>823.79998779297</ele>
        <time>2018-06-10T08:17:03.000Z</time>
      </trkpt>
      <trkpt lat="46.36073" lon="5.90744">
        <ele>822.59997558594</ele>
        <time>2018-06-10T08:17:05.000Z</time>
      </trkpt>
      <trkpt lat="46.36061" lon="5.90736">
        <ele>821</ele>
        <time>2018-06-10T08:17:07.000Z</time>
      </trkpt>
      <trkpt lat="46.36051" lon="5.90728">
        <ele>819.20001220703</ele>
        <time>2018-06-10T08:17:09.000Z</time>
      </trkpt>
      <trkpt lat="46.36046" lon="5.90721">
        <ele>817.79998779297</ele>
        <time>2018-06-10T08:17:10.000Z</time>
      </trkpt>
      <trkpt lat="46.3604" lon="5.90716">
        <ele>816.40002441406</ele>
        <time>2018-06-10T08:17:11.000Z</time>
      </trkpt>
      <trkpt lat="46.3603" lon="5.90702">
        <ele>814.40002441406</ele>
        <time>2018-06-10T08:17:13.000Z</time>
      </trkpt>
      <trkpt lat="46.36022" lon="5.90694">
        <ele>812.40002441406</ele>
        <time>2018-06-10T08:17:15.000Z</time>
      </trkpt>
      <trkpt lat="46.36007" lon="5.90682">
        <ele>811</ele>
        <time>2018-06-10T08:17:18.000Z</time>
      </trkpt>
      <trkpt lat="46.35992" lon="5.90665">
        <ele>811.20001220703</ele>
        <time>2018-06-10T08:17:21.000Z</time>
      </trkpt>
      <trkpt lat="46.3599" lon="5.9066">
        <ele>811.20001220703</ele>
        <time>2018-06-10T08:17:22.000Z</time>
      </trkpt>
      <trkpt lat="46.3599" lon="5.90651">
        <ele>810.59997558594</ele>
        <time>2018-06-10T08:17:24.000Z</time>
      </trkpt>
      <trkpt lat="46.35996" lon="5.90641">
        <ele>809.79998779297</ele>
        <time>2018-06-10T08:17:27.000Z</time>
      </trkpt>
      <trkpt lat="46.35999" lon="5.90636">
        <ele>808.79998779297</ele>
        <time>2018-06-10T08:17:28.000Z</time>
      </trkpt>
      <trkpt lat="46.36002" lon="5.90629">
        <ele>807.59997558594</ele>
        <time>2018-06-10T08:17:29.000Z</time>
      </trkpt>
      <trkpt lat="46.36003" lon="5.90622">
        <ele>805.79998779297</ele>
        <time>2018-06-10T08:17:30.000Z</time>
      </trkpt>
      <trkpt lat="46.36002" lon="5.90616">
        <ele>804.20001220703</ele>
        <time>2018-06-10T08:17:31.000Z</time>
      </trkpt>
      <trkpt lat="46.35999" lon="5.90612">
        <ele>802.79998779297</ele>
        <time>2018-06-10T08:17:32.000Z</time>
      </trkpt>
      <trkpt lat="46.35993" lon="5.90605">
        <ele>801</ele>
        <time>2018-06-10T08:17:34.000Z</time>
      </trkpt>
      <trkpt lat="46.35986" lon="5.90596">
        <ele>799</ele>
        <time>2018-06-10T08:17:37.000Z</time>
      </trkpt>
      <trkpt lat="46.35987" lon="5.90595">
        <ele>797.79998779297</ele>
        <time>2018-06-10T08:17:38.000Z</time>
      </trkpt>
      <trkpt lat="46.35987" lon="5.90594">
        <ele>796.59997558594</ele>
        <time>2018-06-10T08:17:39.000Z</time>
      </trkpt>
      <trkpt lat="46.35987" lon="5.90595">
        <ele>795.40002441406</ele>
        <time>2018-06-10T08:17:41.000Z</time>
      </trkpt>
      <trkpt lat="46.35983" lon="5.90595">
        <ele>794.79998779297</ele>
        <time>2018-06-10T08:17:58.000Z</time>
      </trkpt>
      <trkpt lat="46.35978" lon="5.90597">
        <ele>794.59997558594</ele>
        <time>2018-06-10T08:18:00.000Z</time>
      </trkpt>
      <trkpt lat="46.35975" lon="5.90598">
        <ele>794</ele>
        <time>2018-06-10T08:18:02.000Z</time>
      </trkpt>
      <trkpt lat="46.35972" lon="5.90597">
        <ele>792</ele>
        <time>2018-06-10T08:18:04.000Z</time>
      </trkpt>
      <trkpt lat="46.3597" lon="5.90596">
        <ele>790.79998779297</ele>
        <time>2018-06-10T08:18:05.000Z</time>
      </trkpt>
      <trkpt lat="46.35968" lon="5.90595">
        <ele>789.79998779297</ele>
        <time>2018-06-10T08:18:06.000Z</time>
      </trkpt>
      <trkpt lat="46.35961" lon="5.90594">
        <ele>788.40002441406</ele>
        <time>2018-06-10T08:18:09.000Z</time>
      </trkpt>
      <trkpt lat="46.35958" lon="5.90591">
        <ele>787.20001220703</ele>
        <time>2018-06-10T08:18:11.000Z</time>
      </trkpt>
      <trkpt lat="46.3596" lon="5.90586">
        <ele>786.20001220703</ele>
        <time>2018-06-10T08:18:13.000Z</time>
      </trkpt>
      <trkpt lat="46.35965" lon="5.90576">
        <ele>784.59997558594</ele>
        <time>2018-06-10T08:18:16.000Z</time>
      </trkpt>
      <trkpt lat="46.35965" lon="5.90575">
        <ele>783.79998779297</ele>
        <time>2018-06-10T08:18:17.000Z</time>
      </trkpt>
      <trkpt lat="46.35964" lon="5.90571">
        <ele>782.79998779297</ele>
        <time>2018-06-10T08:18:18.000Z</time>
      </trkpt>
      <trkpt lat="46.35964" lon="5.90567">
        <ele>781.79998779297</ele>
        <time>2018-06-10T08:18:19.000Z</time>
      </trkpt>
      <trkpt lat="46.35962" lon="5.90562">
        <ele>780.20001220703</ele>
        <time>2018-06-10T08:18:21.000Z</time>
      </trkpt>
      <trkpt lat="46.35961" lon="5.90557">
        <ele>779</ele>
        <time>2018-06-10T08:18:23.000Z</time>
      </trkpt>
      <trkpt lat="46.3596" lon="5.90555">
        <ele>778.59997558594</ele>
        <time>2018-06-10T08:18:24.000Z</time>
      </trkpt>
      <trkpt lat="46.35957" lon="5.90549">
        <ele>778</ele>
        <time>2018-06-10T08:18:26.000Z</time>
      </trkpt>
      <trkpt lat="46.35955" lon="5.90547">
        <ele>778</ele>
        <time>2018-06-10T08:18:27.000Z</time>
      </trkpt>
      <trkpt lat="46.35932" lon="5.90511">
        <ele>777.40002441406</ele>
        <time>2018-06-10T08:18:38.000Z</time>
      </trkpt>
      <trkpt lat="46.35927" lon="5.90508">
        <ele>776.59997558594</ele>
        <time>2018-06-10T08:18:39.000Z</time>
      </trkpt>
      <trkpt lat="46.35923" lon="5.90503">
        <ele>775.59997558594</ele>
        <time>2018-06-10T08:18:40.000Z</time>
      </trkpt>
      <trkpt lat="46.35917" lon="5.90497">
        <ele>775.20001220703</ele>
        <time>2018-06-10T08:18:41.000Z</time>
      </trkpt>
      <trkpt lat="46.35901" lon="5.90483">
        <ele>773.79998779297</ele>
        <time>2018-06-10T08:18:44.000Z</time>
      </trkpt>
      <trkpt lat="46.35892" lon="5.90474">
        <ele>772.20001220703</ele>
        <time>2018-06-10T08:18:46.000Z</time>
      </trkpt>
      <trkpt lat="46.35888" lon="5.90468">
        <ele>770.79998779297</ele>
        <time>2018-06-10T08:18:47.000Z</time>
      </trkpt>
      <trkpt lat="46.35884" lon="5.90462">
        <ele>769.20001220703</ele>
        <time>2018-06-10T08:18:48.000Z</time>
      </trkpt>
      <trkpt lat="46.3588" lon="5.90459">
        <ele>767.79998779297</ele>
        <time>2018-06-10T08:18:49.000Z</time>
      </trkpt>
      <trkpt lat="46.35876" lon="5.90455">
        <ele>766.59997558594</ele>
        <time>2018-06-10T08:18:50.000Z</time>
      </trkpt>
      <trkpt lat="46.35871" lon="5.90452">
        <ele>765.40002441406</ele>
        <time>2018-06-10T08:18:51.000Z</time>
      </trkpt>
      <trkpt lat="46.35863" lon="5.90447">
        <ele>764.20001220703</ele>
        <time>2018-06-10T08:18:53.000Z</time>
      </trkpt>
      <trkpt lat="46.35855" lon="5.90442">
        <ele>762</ele>
        <time>2018-06-10T08:18:55.000Z</time>
      </trkpt>
      <trkpt lat="46.35848" lon="5.9044">
        <ele>760</ele>
        <time>2018-06-10T08:18:56.000Z</time>
      </trkpt>
      <trkpt lat="46.35844" lon="5.90437">
        <ele>758</ele>
        <time>2018-06-10T08:18:57.000Z</time>
      </trkpt>
      <trkpt lat="46.35838" lon="5.90433">
        <ele>756.20001220703</ele>
        <time>2018-06-10T08:18:58.000Z</time>
      </trkpt>
      <trkpt lat="46.35834" lon="5.90427">
        <ele>754.59997558594</ele>
        <time>2018-06-10T08:18:59.000Z</time>
      </trkpt>
      <trkpt lat="46.35831" lon="5.90421">
        <ele>753.40002441406</ele>
        <time>2018-06-10T08:19:00.000Z</time>
      </trkpt>
      <trkpt lat="46.35825" lon="5.9041">
        <ele>751.20001220703</ele>
        <time>2018-06-10T08:19:02.000Z</time>
      </trkpt>
      <trkpt lat="46.35825" lon="5.90405">
        <ele>750</ele>
        <time>2018-06-10T08:19:03.000Z</time>
      </trkpt>
      <trkpt lat="46.35825" lon="5.90396">
        <ele>748.40002441406</ele>
        <time>2018-06-10T08:19:05.000Z</time>
      </trkpt>
      <trkpt lat="46.35829" lon="5.90389">
        <ele>746.40002441406</ele>
        <time>2018-06-10T08:19:07.000Z</time>
      </trkpt>
      <trkpt lat="46.35827" lon="5.90384">
        <ele>745.59997558594</ele>
        <time>2018-06-10T08:19:09.000Z</time>
      </trkpt>
      <trkpt lat="46.35826" lon="5.90382">
        <ele>745.40002441406</ele>
        <time>2018-06-10T08:19:10.000Z</time>
      </trkpt>
      <trkpt lat="46.35823" lon="5.90377">
        <ele>744.20001220703</ele>
        <time>2018-06-10T08:19:12.000Z</time>
      </trkpt>
      <trkpt lat="46.35818" lon="5.9037">
        <ele>742.79998779297</ele>
        <time>2018-06-10T08:19:14.000Z</time>
      </trkpt>
      <trkpt lat="46.35814" lon="5.90361">
        <ele>741.20001220703</ele>
        <time>2018-06-10T08:19:16.000Z</time>
      </trkpt>
      <trkpt lat="46.35804" lon="5.90355">
        <ele>740</ele>
        <time>2018-06-10T08:19:17.000Z</time>
      </trkpt>
      <trkpt lat="46.35799" lon="5.90351">
        <ele>738.79998779297</ele>
        <time>2018-06-10T08:19:18.000Z</time>
      </trkpt>
      <trkpt lat="46.35792" lon="5.90347">
        <ele>737.79998779297</ele>
        <time>2018-06-10T08:19:19.000Z</time>
      </trkpt>
      <trkpt lat="46.3579" lon="5.90342">
        <ele>737.40002441406</ele>
        <time>2018-06-10T08:19:20.000Z</time>
      </trkpt>
      <trkpt lat="46.35787" lon="5.90338">
        <ele>736.79998779297</ele>
        <time>2018-06-10T08:19:21.000Z</time>
      </trkpt>
      <trkpt lat="46.35782" lon="5.90332">
        <ele>735.40002441406</ele>
        <time>2018-06-10T08:19:23.000Z</time>
      </trkpt>
      <trkpt lat="46.35774" lon="5.90326">
        <ele>734.20001220703</ele>
        <time>2018-06-10T08:19:25.000Z</time>
      </trkpt>
      <trkpt lat="46.35773" lon="5.90324">
        <ele>733</ele>
        <time>2018-06-10T08:19:26.000Z</time>
      </trkpt>
      <trkpt lat="46.35771" lon="5.90324">
        <ele>731.79998779297</ele>
        <time>2018-06-10T08:19:27.000Z</time>
      </trkpt>
      <trkpt lat="46.35768" lon="5.90321">
        <ele>730.59997558594</ele>
        <time>2018-06-10T08:19:30.000Z</time>
      </trkpt>
      <trkpt lat="46.35747" lon="5.90324">
        <ele>729.40002441406</ele>
        <time>2018-06-10T08:19:39.000Z</time>
      </trkpt>
      <trkpt lat="46.35744" lon="5.90329">
        <ele>728.20001220703</ele>
        <time>2018-06-10T08:19:44.000Z</time>
      </trkpt>
      <trkpt lat="46.35745" lon="5.90336">
        <ele>727.20001220703</ele>
        <time>2018-06-10T08:19:50.000Z</time>
      </trkpt>
      <trkpt lat="46.35746" lon="5.90338">
        <ele>726.79998779297</ele>
        <time>2018-06-10T08:19:51.000Z</time>
      </trkpt>
      <trkpt lat="46.35746" lon="5.9035">
        <ele>725.59997558594</ele>
        <time>2018-06-10T08:19:53.000Z</time>
      </trkpt>
      <trkpt lat="46.35747" lon="5.90349">
        <ele>725</ele>
        <time>2018-06-10T08:19:54.000Z</time>
      </trkpt>
      <trkpt lat="46.3575" lon="5.90341">
        <ele>724.40002441406</ele>
        <time>2018-06-10T08:19:56.000Z</time>
      </trkpt>
      <trkpt lat="46.35751" lon="5.90331">
        <ele>724.20001220703</ele>
        <time>2018-06-10T08:19:58.000Z</time>
      </trkpt>
      <trkpt lat="46.35749" lon="5.90319">
        <ele>723.59997558594</ele>
        <time>2018-06-10T08:20:00.000Z</time>
      </trkpt>
      <trkpt lat="46.35747" lon="5.90312">
        <ele>723.20001220703</ele>
        <time>2018-06-10T08:20:01.000Z</time>
      </trkpt>
      <trkpt lat="46.35747" lon="5.90304">
        <ele>722.79998779297</ele>
        <time>2018-06-10T08:20:02.000Z</time>
      </trkpt>
      <trkpt lat="46.35748" lon="5.90287">
        <ele>721.79998779297</ele>
        <time>2018-06-10T08:20:04.000Z</time>
      </trkpt>
      <trkpt lat="46.35751" lon="5.90271">
        <ele>720.79998779297</ele>
        <time>2018-06-10T08:20:06.000Z</time>
      </trkpt>
      <trkpt lat="46.35753" lon="5.90263">
        <ele>720.40002441406</ele>
        <time>2018-06-10T08:20:07.000Z</time>
      </trkpt>
      <trkpt lat="46.35754" lon="5.90255">
        <ele>719.79998779297</ele>
        <time>2018-06-10T08:20:08.000Z</time>
      </trkpt>
      <trkpt lat="46.3575" lon="5.90238">
        <ele>719</ele>
        <time>2018-06-10T08:20:10.000Z</time>
      </trkpt>
      <trkpt lat="46.35739" lon="5.90232">
        <ele>718</ele>
        <time>2018-06-10T08:20:12.000Z</time>
      </trkpt>
      <trkpt lat="46.3573" lon="5.90242">
        <ele>716.40002441406</ele>
        <time>2018-06-10T08:20:14.000Z</time>
      </trkpt>
      <trkpt lat="46.35728" lon="5.90266">
        <ele>715.40002441406</ele>
        <time>2018-06-10T08:20:16.000Z</time>
      </trkpt>
      <trkpt lat="46.35728" lon="5.90279">
        <ele>715</ele>
        <time>2018-06-10T08:20:17.000Z</time>
      </trkpt>
      <trkpt lat="46.3573" lon="5.90304">
        <ele>713.59997558594</ele>
        <time>2018-06-10T08:20:19.000Z</time>
      </trkpt>
      <trkpt lat="46.35731" lon="5.90328">
        <ele>712.59997558594</ele>
        <time>2018-06-10T08:20:21.000Z</time>
      </trkpt>
      <trkpt lat="46.35729" lon="5.90354">
        <ele>711.79998779297</ele>
        <time>2018-06-10T08:20:23.000Z</time>
      </trkpt>
      <trkpt lat="46.35726" lon="5.90367">
        <ele>711</ele>
        <time>2018-06-10T08:20:24.000Z</time>
      </trkpt>
      <trkpt lat="46.35722" lon="5.9038">
        <ele>710.40002441406</ele>
        <time>2018-06-10T08:20:25.000Z</time>
      </trkpt>
      <trkpt lat="46.35715" lon="5.9039">
        <ele>709.59997558594</ele>
        <time>2018-06-10T08:20:26.000Z</time>
      </trkpt>
      <trkpt lat="46.35707" lon="5.90411">
        <ele>708</ele>
        <time>2018-06-10T08:20:28.000Z</time>
      </trkpt>
      <trkpt lat="46.35716" lon="5.90432">
        <ele>706.79998779297</ele>
        <time>2018-06-10T08:20:30.000Z</time>
      </trkpt>
      <trkpt lat="46.35724" lon="5.90438">
        <ele>706</ele>
        <time>2018-06-10T08:20:31.000Z</time>
      </trkpt>
      <trkpt lat="46.35733" lon="5.90442">
        <ele>705.40002441406</ele>
        <time>2018-06-10T08:20:32.000Z</time>
      </trkpt>
      <trkpt lat="46.35742" lon="5.90447">
        <ele>705</ele>
        <time>2018-06-10T08:20:33.000Z</time>
      </trkpt>
      <trkpt lat="46.35752" lon="5.90467">
        <ele>704.40002441406</ele>
        <time>2018-06-10T08:20:35.000Z</time>
      </trkpt>
      <trkpt lat="46.35747" lon="5.90478">
        <ele>704</ele>
        <time>2018-06-10T08:20:36.000Z</time>
      </trkpt>
      <trkpt lat="46.35733" lon="5.90493">
        <ele>702.59997558594</ele>
        <time>2018-06-10T08:20:38.000Z</time>
      </trkpt>
      <trkpt lat="46.35732" lon="5.90481">
        <ele>701</ele>
        <time>2018-06-10T08:20:40.000Z</time>
      </trkpt>
      <trkpt lat="46.35729" lon="5.90455">
        <ele>699.79998779297</ele>
        <time>2018-06-10T08:20:42.000Z</time>
      </trkpt>
      <trkpt lat="46.35718" lon="5.9043">
        <ele>698.40002441406</ele>
        <time>2018-06-10T08:20:45.000Z</time>
      </trkpt>
      <trkpt lat="46.35711" lon="5.90423">
        <ele>698.20001220703</ele>
        <time>2018-06-10T08:20:46.000Z</time>
      </trkpt>
      <trkpt lat="46.3569" lon="5.90407">
        <ele>697.20001220703</ele>
        <time>2018-06-10T08:20:48.000Z</time>
      </trkpt>
      <trkpt lat="46.35679" lon="5.90398">
        <ele>696.79998779297</ele>
        <time>2018-06-10T08:20:49.000Z</time>
      </trkpt>
      <trkpt lat="46.35679" lon="5.90371">
        <ele>695.79998779297</ele>
        <time>2018-06-10T08:20:51.000Z</time>
      </trkpt>
      <trkpt lat="46.35684" lon="5.90344">
        <ele>693.79998779297</ele>
        <time>2018-06-10T08:20:53.000Z</time>
      </trkpt>
      <trkpt lat="46.35686" lon="5.9033">
        <ele>692.59997558594</ele>
        <time>2018-06-10T08:20:54.000Z</time>
      </trkpt>
      <trkpt lat="46.35687" lon="5.90315">
        <ele>691.59997558594</ele>
        <time>2018-06-10T08:20:55.000Z</time>
      </trkpt>
      <trkpt lat="46.35688" lon="5.90286">
        <ele>689.79998779297</ele>
        <time>2018-06-10T08:20:57.000Z</time>
      </trkpt>
      <trkpt lat="46.3569" lon="5.9026">
        <ele>688.20001220703</ele>
        <time>2018-06-10T08:20:59.000Z</time>
      </trkpt>
      <trkpt lat="46.35694" lon="5.90246">
        <ele>687.59997558594</ele>
        <time>2018-06-10T08:21:00.000Z</time>
      </trkpt>
      <trkpt lat="46.357" lon="5.90235">
        <ele>687</ele>
        <time>2018-06-10T08:21:01.000Z</time>
      </trkpt>
      <trkpt lat="46.35714" lon="5.90214">
        <ele>685.20001220703</ele>
        <time>2018-06-10T08:21:03.000Z</time>
      </trkpt>
      <trkpt lat="46.35722" lon="5.90206">
        <ele>684.20001220703</ele>
        <time>2018-06-10T08:21:04.000Z</time>
      </trkpt>
      <trkpt lat="46.3573" lon="5.90199">
        <ele>683.20001220703</ele>
        <time>2018-06-10T08:21:05.000Z</time>
      </trkpt>
      <trkpt lat="46.35748" lon="5.90187">
        <ele>682.20001220703</ele>
        <time>2018-06-10T08:21:07.000Z</time>
      </trkpt>
      <trkpt lat="46.35771" lon="5.90172">
        <ele>682</ele>
        <time>2018-06-10T08:21:11.000Z</time>
      </trkpt>
      <trkpt lat="46.35783" lon="5.90158">
        <ele>682.20001220703</ele>
        <time>2018-06-10T08:21:16.000Z</time>
      </trkpt>
      <trkpt lat="46.35784" lon="5.90154">
        <ele>682.20001220703</ele>
        <time>2018-06-10T08:21:18.000Z</time>
      </trkpt>
      <trkpt lat="46.35788" lon="5.90135">
        <ele>681</ele>
        <time>2018-06-10T08:21:24.000Z</time>
      </trkpt>
      <trkpt lat="46.35789" lon="5.9013">
        <ele>679.79998779297</ele>
        <time>2018-06-10T08:21:25.000Z</time>
      </trkpt>
      <trkpt lat="46.3579" lon="5.90125">
        <ele>678.59997558594</ele>
        <time>2018-06-10T08:21:26.000Z</time>
      </trkpt>
      <trkpt lat="46.35792" lon="5.9012">
        <ele>677.59997558594</ele>
        <time>2018-06-10T08:21:27.000Z</time>
      </trkpt>
      <trkpt lat="46.35798" lon="5.90112">
        <ele>675.40002441406</ele>
        <time>2018-06-10T08:21:29.000Z</time>
      </trkpt>
      <trkpt lat="46.35801" lon="5.90107">
        <ele>674</ele>
        <time>2018-06-10T08:21:30.000Z</time>
      </trkpt>
      <trkpt lat="46.35804" lon="5.90103">
        <ele>672.59997558594</ele>
        <time>2018-06-10T08:21:31.000Z</time>
      </trkpt>
      <trkpt lat="46.35807" lon="5.901">
        <ele>671.40002441406</ele>
        <time>2018-06-10T08:21:32.000Z</time>
      </trkpt>
      <trkpt lat="46.35808" lon="5.90098">
        <ele>670.40002441406</ele>
        <time>2018-06-10T08:21:33.000Z</time>
      </trkpt>
      <trkpt lat="46.3581" lon="5.90096">
        <ele>669.20001220703</ele>
        <time>2018-06-10T08:21:34.000Z</time>
      </trkpt>
      <trkpt lat="46.35812" lon="5.90093">
        <ele>668</ele>
        <time>2018-06-10T08:21:35.000Z</time>
      </trkpt>
      <trkpt lat="46.35816" lon="5.9009">
        <ele>666</ele>
        <time>2018-06-10T08:21:37.000Z</time>
      </trkpt>
      <trkpt lat="46.35818" lon="5.90089">
        <ele>664.59997558594</ele>
        <time>2018-06-10T08:21:38.000Z</time>
      </trkpt>
      <trkpt lat="46.35818" lon="5.90087">
        <ele>663.20001220703</ele>
        <time>2018-06-10T08:21:39.000Z</time>
      </trkpt>
      <trkpt lat="46.35818" lon="5.90085">
        <ele>662</ele>
        <time>2018-06-10T08:21:40.000Z</time>
      </trkpt>
      <trkpt lat="46.35817" lon="5.90083">
        <ele>660.79998779297</ele>
        <time>2018-06-10T08:21:42.000Z</time>
      </trkpt>
      <trkpt lat="46.35819" lon="5.90082">
        <ele>659.40002441406</ele>
        <time>2018-06-10T08:21:45.000Z</time>
      </trkpt>
      <trkpt lat="46.35819" lon="5.90082">
        <ele>658</ele>
        <time>2018-06-10T08:21:58.000Z</time>
      </trkpt>
      <trkpt lat="46.35818" lon="5.90079">
        <ele>656.59997558594</ele>
        <time>2018-06-10T08:22:01.000Z</time>
      </trkpt>
      <trkpt lat="46.35818" lon="5.90076">
        <ele>655.40002441406</ele>
        <time>2018-06-10T08:22:03.000Z</time>
      </trkpt>
      <trkpt lat="46.35818" lon="5.90072">
        <ele>654</ele>
        <time>2018-06-10T08:22:07.000Z</time>
      </trkpt>
      <trkpt lat="46.35819" lon="5.90069">
        <ele>652.79998779297</ele>
        <time>2018-06-10T08:22:10.000Z</time>
      </trkpt>
      <trkpt lat="46.35819" lon="5.90067">
        <ele>652.40002441406</ele>
        <time>2018-06-10T08:22:12.000Z</time>
      </trkpt>
      <trkpt lat="46.35822" lon="5.90063">
        <ele>651.40002441406</ele>
        <time>2018-06-10T08:22:14.000Z</time>
      </trkpt>
      <trkpt lat="46.35825" lon="5.90061">
        <ele>650.20001220703</ele>
        <time>2018-06-10T08:22:17.000Z</time>
      </trkpt>
      <trkpt lat="46.35829" lon="5.90058">
        <ele>649.59997558594</ele>
        <time>2018-06-10T08:22:20.000Z</time>
      </trkpt>
      <trkpt lat="46.35831" lon="5.90055">
        <ele>649</ele>
        <time>2018-06-10T08:22:21.000Z</time>
      </trkpt>
      <trkpt lat="46.35833" lon="5.9005">
        <ele>648.20001220703</ele>
        <time>2018-06-10T08:22:22.000Z</time>
      </trkpt>
      <trkpt lat="46.35835" lon="5.90045">
        <ele>647.59997558594</ele>
        <time>2018-06-10T08:22:23.000Z</time>
      </trkpt>
      <trkpt lat="46.35839" lon="5.90038">
        <ele>646</ele>
        <time>2018-06-10T08:22:25.000Z</time>
      </trkpt>
      <trkpt lat="46.35843" lon="5.90034">
        <ele>644.20001220703</ele>
        <time>2018-06-10T08:22:27.000Z</time>
      </trkpt>
      <trkpt lat="46.35843" lon="5.90031">
        <ele>643.20001220703</ele>
        <time>2018-06-10T08:22:28.000Z</time>
      </trkpt>
      <trkpt lat="46.35844" lon="5.90028">
        <ele>641.79998779297</ele>
        <time>2018-06-10T08:22:29.000Z</time>
      </trkpt>
      <trkpt lat="46.35846" lon="5.90025">
        <ele>640.40002441406</ele>
        <time>2018-06-10T08:22:30.000Z</time>
      </trkpt>
      <trkpt lat="46.35849" lon="5.9002">
        <ele>639.20001220703</ele>
        <time>2018-06-10T08:22:31.000Z</time>
      </trkpt>
      <trkpt lat="46.35851" lon="5.90016">
        <ele>638.20001220703</ele>
        <time>2018-06-10T08:22:32.000Z</time>
      </trkpt>
      <trkpt lat="46.35854" lon="5.90013">
        <ele>636.79998779297</ele>
        <time>2018-06-10T08:22:33.000Z</time>
      </trkpt>
      <trkpt lat="46.35858" lon="5.90011">
        <ele>635.59997558594</ele>
        <time>2018-06-10T08:22:34.000Z</time>
      </trkpt>
      <trkpt lat="46.3586" lon="5.90009">
        <ele>634.79998779297</ele>
        <time>2018-06-10T08:22:35.000Z</time>
      </trkpt>
      <trkpt lat="46.35861" lon="5.90006">
        <ele>634</ele>
        <time>2018-06-10T08:22:36.000Z</time>
      </trkpt>
      <trkpt lat="46.35861" lon="5.9">
        <ele>632.79998779297</ele>
        <time>2018-06-10T08:22:38.000Z</time>
      </trkpt>
      <trkpt lat="46.35862" lon="5.89997">
        <ele>631.40002441406</ele>
        <time>2018-06-10T08:22:40.000Z</time>
      </trkpt>
      <trkpt lat="46.35863" lon="5.89996">
        <ele>629.59997558594</ele>
        <time>2018-06-10T08:22:42.000Z</time>
      </trkpt>
      <trkpt lat="46.35865" lon="5.89991">
        <ele>628.20001220703</ele>
        <time>2018-06-10T08:22:45.000Z</time>
      </trkpt>
      <trkpt lat="46.35868" lon="5.89984">
        <ele>627</ele>
        <time>2018-06-10T08:22:47.000Z</time>
      </trkpt>
      <trkpt lat="46.3587" lon="5.89978">
        <ele>625.59997558594</ele>
        <time>2018-06-10T08:22:49.000Z</time>
      </trkpt>
      <trkpt lat="46.3587" lon="5.89976">
        <ele>624.59997558594</ele>
        <time>2018-06-10T08:22:50.000Z</time>
      </trkpt>
      <trkpt lat="46.3587" lon="5.89975">
        <ele>623.40002441406</ele>
        <time>2018-06-10T08:22:51.000Z</time>
      </trkpt>
      <trkpt lat="46.3587" lon="5.89974">
        <ele>622</ele>
        <time>2018-06-10T08:22:52.000Z</time>
      </trkpt>
      <trkpt lat="46.35869" lon="5.89973">
        <ele>620.40002441406</ele>
        <time>2018-06-10T08:22:54.000Z</time>
      </trkpt>
      <trkpt lat="46.35868" lon="5.89973">
        <ele>619.79998779297</ele>
        <time>2018-06-10T08:22:55.000Z</time>
      </trkpt>
      <trkpt lat="46.35867" lon="5.89972">
        <ele>619</ele>
        <time>2018-06-10T08:22:56.000Z</time>
      </trkpt>
      <trkpt lat="46.35867" lon="5.8997">
        <ele>618</ele>
        <time>2018-06-10T08:22:59.000Z</time>
      </trkpt>
      <trkpt lat="46.35868" lon="5.89969">
        <ele>616.79998779297</ele>
        <time>2018-06-10T08:23:03.000Z</time>
      </trkpt>
      <trkpt lat="46.35869" lon="5.89965">
        <ele>616</ele>
        <time>2018-06-10T08:23:08.000Z</time>
      </trkpt>
      <trkpt lat="46.35868" lon="5.89962">
        <ele>615.79998779297</ele>
        <time>2018-06-10T08:23:09.000Z</time>
      </trkpt>
      <trkpt lat="46.35868" lon="5.8996">
        <ele>614.20001220703</ele>
        <time>2018-06-10T08:23:11.000Z</time>
      </trkpt>
      <trkpt lat="46.35868" lon="5.89959">
        <ele>612.59997558594</ele>
        <time>2018-06-10T08:23:13.000Z</time>
      </trkpt>
      <trkpt lat="46.3587" lon="5.89959">
        <ele>612.20001220703</ele>
        <time>2018-06-10T08:23:15.000Z</time>
      </trkpt>
      <trkpt lat="46.35875" lon="5.89958">
        <ele>613.20001220703</ele>
        <time>2018-06-10T08:23:36.000Z</time>
      </trkpt>
      <trkpt lat="46.35876" lon="5.89957">
        <ele>613.20001220703</ele>
        <time>2018-06-10T08:23:38.000Z</time>
      </trkpt>
      <trkpt lat="46.35877" lon="5.89953">
        <ele>613.20001220703</ele>
        <time>2018-06-10T08:23:41.000Z</time>
      </trkpt>
      <trkpt lat="46.3588" lon="5.89947">
        <ele>612.59997558594</ele>
        <time>2018-06-10T08:23:45.000Z</time>
      </trkpt>
      <trkpt lat="46.35881" lon="5.89937">
        <ele>611</ele>
        <time>2018-06-10T08:23:48.000Z</time>
      </trkpt>
      <trkpt lat="46.35883" lon="5.89935">
        <ele>610</ele>
        <time>2018-06-10T08:23:49.000Z</time>
      </trkpt>
      <trkpt lat="46.35885" lon="5.89933">
        <ele>608.79998779297</ele>
        <time>2018-06-10T08:23:50.000Z</time>
      </trkpt>
      <trkpt lat="46.35887" lon="5.89932">
        <ele>607.59997558594</ele>
        <time>2018-06-10T08:23:52.000Z</time>
      </trkpt>
      <trkpt lat="46.35888" lon="5.89931">
        <ele>607</ele>
        <time>2018-06-10T08:23:55.000Z</time>
      </trkpt>
      <trkpt lat="46.35889" lon="5.89927">
        <ele>607.40002441406</ele>
        <time>2018-06-10T08:23:59.000Z</time>
      </trkpt>
      <trkpt lat="46.3589" lon="5.89913">
        <ele>606.79998779297</ele>
        <time>2018-06-10T08:24:08.000Z</time>
      </trkpt>
      <trkpt lat="46.35892" lon="5.89902">
        <ele>606.40002441406</ele>
        <time>2018-06-10T08:24:11.000Z</time>
      </trkpt>
      <trkpt lat="46.35895" lon="5.89894">
        <ele>605.40002441406</ele>
        <time>2018-06-10T08:24:13.000Z</time>
      </trkpt>
      <trkpt lat="46.35895" lon="5.89886">
        <ele>604.20001220703</ele>
        <time>2018-06-10T08:24:16.000Z</time>
      </trkpt>
      <trkpt lat="46.35895" lon="5.89883">
        <ele>604</ele>
        <time>2018-06-10T08:24:17.000Z</time>
      </trkpt>
      <trkpt lat="46.35896" lon="5.89881">
        <ele>602.79998779297</ele>
        <time>2018-06-10T08:24:20.000Z</time>
      </trkpt>
      <trkpt lat="46.35897" lon="5.89878">
        <ele>602.20001220703</ele>
        <time>2018-06-10T08:24:22.000Z</time>
      </trkpt>
      <trkpt lat="46.35898" lon="5.89874">
        <ele>602</ele>
        <time>2018-06-10T08:24:27.000Z</time>
      </trkpt>
      <trkpt lat="46.35899" lon="5.89867">
        <ele>601.79998779297</ele>
        <time>2018-06-10T08:24:29.000Z</time>
      </trkpt>
      <trkpt lat="46.35901" lon="5.8986">
        <ele>601.20001220703</ele>
        <time>2018-06-10T08:24:31.000Z</time>
      </trkpt>
      <trkpt lat="46.35901" lon="5.89858">
        <ele>600.59997558594</ele>
        <time>2018-06-10T08:24:34.000Z</time>
      </trkpt>
      <trkpt lat="46.35903" lon="5.89855">
        <ele>600.79998779297</ele>
        <time>2018-06-10T08:24:37.000Z</time>
      </trkpt>
      <trkpt lat="46.35902" lon="5.89851">
        <ele>601.79998779297</ele>
        <time>2018-06-10T08:24:43.000Z</time>
      </trkpt>
      <trkpt lat="46.35901" lon="5.89849">
        <ele>602.20001220703</ele>
        <time>2018-06-10T08:24:45.000Z</time>
      </trkpt>
      <trkpt lat="46.35899" lon="5.89842">
        <ele>602.40002441406</ele>
        <time>2018-06-10T08:24:47.000Z</time>
      </trkpt>
      <trkpt lat="46.35904" lon="5.89817">
        <ele>602</ele>
        <time>2018-06-10T08:25:02.000Z</time>
      </trkpt>
      <trkpt lat="46.3591" lon="5.89803">
        <ele>602.79998779297</ele>
        <time>2018-06-10T08:25:14.000Z</time>
      </trkpt>
      <trkpt lat="46.35911" lon="5.89802">
        <ele>603</ele>
        <time>2018-06-10T08:25:15.000Z</time>
      </trkpt>
      <trkpt lat="46.35911" lon="5.89797">
        <ele>603.40002441406</ele>
        <time>2018-06-10T08:25:18.000Z</time>
      </trkpt>
      <trkpt lat="46.3591" lon="5.89789">
        <ele>603.20001220703</ele>
        <time>2018-06-10T08:25:21.000Z</time>
      </trkpt>
      <trkpt lat="46.35909" lon="5.8977">
        <ele>601.79998779297</ele>
        <time>2018-06-10T08:25:27.000Z</time>
      </trkpt>
      <trkpt lat="46.35909" lon="5.89765">
        <ele>600.79998779297</ele>
        <time>2018-06-10T08:25:29.000Z</time>
      </trkpt>
      <trkpt lat="46.35908" lon="5.89763">
        <ele>600.40002441406</ele>
        <time>2018-06-10T08:25:30.000Z</time>
      </trkpt>
      <trkpt lat="46.35907" lon="5.8976">
        <ele>599.59997558594</ele>
        <time>2018-06-10T08:25:31.000Z</time>
      </trkpt>
      <trkpt lat="46.35906" lon="5.89749">
        <ele>598.40002441406</ele>
        <time>2018-06-10T08:25:35.000Z</time>
      </trkpt>
      <trkpt lat="46.35906" lon="5.8975">
        <ele>597.40002441406</ele>
        <time>2018-06-10T08:25:41.000Z</time>
      </trkpt>
      <trkpt lat="46.35906" lon="5.89747">
        <ele>597.40002441406</ele>
        <time>2018-06-10T08:25:44.000Z</time>
      </trkpt>
      <trkpt lat="46.35907" lon="5.89742">
        <ele>597</ele>
        <time>2018-06-10T08:25:46.000Z</time>
      </trkpt>
      <trkpt lat="46.35907" lon="5.89738">
        <ele>596.40002441406</ele>
        <time>2018-06-10T08:25:47.000Z</time>
      </trkpt>
      <trkpt lat="46.35908" lon="5.89732">
        <ele>595</ele>
        <time>2018-06-10T08:25:49.000Z</time>
      </trkpt>
      <trkpt lat="46.35908" lon="5.8973">
        <ele>594.20001220703</ele>
        <time>2018-06-10T08:25:50.000Z</time>
      </trkpt>
      <trkpt lat="46.35908" lon="5.89726">
        <ele>593.40002441406</ele>
        <time>2018-06-10T08:25:51.000Z</time>
      </trkpt>
      <trkpt lat="46.35907" lon="5.89719">
        <ele>592.20001220703</ele>
        <time>2018-06-10T08:25:53.000Z</time>
      </trkpt>
      <trkpt lat="46.35906" lon="5.89711">
        <ele>590.79998779297</ele>
        <time>2018-06-10T08:25:55.000Z</time>
      </trkpt>
      <trkpt lat="46.35906" lon="5.89704">
        <ele>589.20001220703</ele>
        <time>2018-06-10T08:25:57.000Z</time>
      </trkpt>
      <trkpt lat="46.35906" lon="5.89696">
        <ele>587.40002441406</ele>
        <time>2018-06-10T08:25:59.000Z</time>
      </trkpt>
      <trkpt lat="46.35907" lon="5.89691">
        <ele>586.20001220703</ele>
        <time>2018-06-10T08:26:00.000Z</time>
      </trkpt>
      <trkpt lat="46.35909" lon="5.89685">
        <ele>585</ele>
        <time>2018-06-10T08:26:01.000Z</time>
      </trkpt>
      <trkpt lat="46.35912" lon="5.8968">
        <ele>583.40002441406</ele>
        <time>2018-06-10T08:26:02.000Z</time>
      </trkpt>
      <trkpt lat="46.35914" lon="5.89676">
        <ele>581.79998779297</ele>
        <time>2018-06-10T08:26:03.000Z</time>
      </trkpt>
      <trkpt lat="46.35917" lon="5.89673">
        <ele>580.40002441406</ele>
        <time>2018-06-10T08:26:04.000Z</time>
      </trkpt>
      <trkpt lat="46.3592" lon="5.89672">
        <ele>579.20001220703</ele>
        <time>2018-06-10T08:26:05.000Z</time>
      </trkpt>
      <trkpt lat="46.35925" lon="5.8967">
        <ele>578.20001220703</ele>
        <time>2018-06-10T08:26:07.000Z</time>
      </trkpt>
      <trkpt lat="46.35932" lon="5.89667">
        <ele>577.79998779297</ele>
        <time>2018-06-10T08:26:10.000Z</time>
      </trkpt>
      <trkpt lat="46.35939" lon="5.89658">
        <ele>577.59997558594</ele>
        <time>2018-06-10T08:26:13.000Z</time>
      </trkpt>
      <trkpt lat="46.35943" lon="5.8965">
        <ele>577</ele>
        <time>2018-06-10T08:26:15.000Z</time>
      </trkpt>
      <trkpt lat="46.35947" lon="5.89642">
        <ele>576</ele>
        <time>2018-06-10T08:26:17.000Z</time>
      </trkpt>
      <trkpt lat="46.35948" lon="5.89638">
        <ele>575.40002441406</ele>
        <time>2018-06-10T08:26:18.000Z</time>
      </trkpt>
      <trkpt lat="46.35949" lon="5.89633">
        <ele>574.59997558594</ele>
        <time>2018-06-10T08:26:19.000Z</time>
      </trkpt>
      <trkpt lat="46.35949" lon="5.89629">
        <ele>572.79998779297</ele>
        <time>2018-06-10T08:26:21.000Z</time>
      </trkpt>
      <trkpt lat="46.3595" lon="5.89625">
        <ele>572.20001220703</ele>
        <time>2018-06-10T08:26:22.000Z</time>
      </trkpt>
      <trkpt lat="46.35951" lon="5.89621">
        <ele>571.79998779297</ele>
        <time>2018-06-10T08:26:23.000Z</time>
      </trkpt>
      <trkpt lat="46.35954" lon="5.89613">
        <ele>570.79998779297</ele>
        <time>2018-06-10T08:26:25.000Z</time>
      </trkpt>
      <trkpt lat="46.35956" lon="5.89608">
        <ele>570.20001220703</ele>
        <time>2018-06-10T08:26:26.000Z</time>
      </trkpt>
      <trkpt lat="46.35962" lon="5.89601">
        <ele>568.40002441406</ele>
        <time>2018-06-10T08:26:28.000Z</time>
      </trkpt>
      <trkpt lat="46.35965" lon="5.89596">
        <ele>567.40002441406</ele>
        <time>2018-06-10T08:26:29.000Z</time>
      </trkpt>
      <trkpt lat="46.35967" lon="5.89591">
        <ele>567</ele>
        <time>2018-06-10T08:26:30.000Z</time>
      </trkpt>
      <trkpt lat="46.3597" lon="5.89587">
        <ele>566.20001220703</ele>
        <time>2018-06-10T08:26:31.000Z</time>
      </trkpt>
      <trkpt lat="46.35972" lon="5.89585">
        <ele>565.20001220703</ele>
        <time>2018-06-10T08:26:32.000Z</time>
      </trkpt>
      <trkpt lat="46.35973" lon="5.89583">
        <ele>564.20001220703</ele>
        <time>2018-06-10T08:26:33.000Z</time>
      </trkpt>
      <trkpt lat="46.35975" lon="5.8958">
        <ele>562.59997558594</ele>
        <time>2018-06-10T08:26:35.000Z</time>
      </trkpt>
      <trkpt lat="46.35976" lon="5.89577">
        <ele>562</ele>
        <time>2018-06-10T08:26:36.000Z</time>
      </trkpt>
      <trkpt lat="46.3598" lon="5.89569">
        <ele>561.20001220703</ele>
        <time>2018-06-10T08:26:38.000Z</time>
      </trkpt>
      <trkpt lat="46.35981" lon="5.89566">
        <ele>560.20001220703</ele>
        <time>2018-06-10T08:26:39.000Z</time>
      </trkpt>
      <trkpt lat="46.35982" lon="5.89563">
        <ele>559.20001220703</ele>
        <time>2018-06-10T08:26:40.000Z</time>
      </trkpt>
      <trkpt lat="46.35985" lon="5.89559">
        <ele>557.40002441406</ele>
        <time>2018-06-10T08:26:42.000Z</time>
      </trkpt>
      <trkpt lat="46.35987" lon="5.89557">
        <ele>556.40002441406</ele>
        <time>2018-06-10T08:26:43.000Z</time>
      </trkpt>
      <trkpt lat="46.35988" lon="5.89557">
        <ele>555.59997558594</ele>
        <time>2018-06-10T08:26:44.000Z</time>
      </trkpt>
      <trkpt lat="46.35991" lon="5.89556">
        <ele>554.59997558594</ele>
        <time>2018-06-10T08:26:46.000Z</time>
      </trkpt>
      <trkpt lat="46.35993" lon="5.89555">
        <ele>554.40002441406</ele>
        <time>2018-06-10T08:26:47.000Z</time>
      </trkpt>
      <trkpt lat="46.35996" lon="5.89554">
        <ele>554.20001220703</ele>
        <time>2018-06-10T08:26:48.000Z</time>
      </trkpt>
      <trkpt lat="46.36003" lon="5.89552">
        <ele>553.20001220703</ele>
        <time>2018-06-10T08:26:50.000Z</time>
      </trkpt>
      <trkpt lat="46.36007" lon="5.89549">
        <ele>551.79998779297</ele>
        <time>2018-06-10T08:26:51.000Z</time>
      </trkpt>
      <trkpt lat="46.36009" lon="5.89548">
        <ele>550.40002441406</ele>
        <time>2018-06-10T08:26:52.000Z</time>
      </trkpt>
      <trkpt lat="46.36011" lon="5.89547">
        <ele>549.40002441406</ele>
        <time>2018-06-10T08:26:53.000Z</time>
      </trkpt>
      <trkpt lat="46.36013" lon="5.89545">
        <ele>548.79998779297</ele>
        <time>2018-06-10T08:26:54.000Z</time>
      </trkpt>
      <trkpt lat="46.36017" lon="5.89538">
        <ele>547.79998779297</ele>
        <time>2018-06-10T08:26:56.000Z</time>
      </trkpt>
      <trkpt lat="46.3602" lon="5.89535">
        <ele>546.40002441406</ele>
        <time>2018-06-10T08:26:58.000Z</time>
      </trkpt>
      <trkpt lat="46.3602" lon="5.89532">
        <ele>545.59997558594</ele>
        <time>2018-06-10T08:26:59.000Z</time>
      </trkpt>
      <trkpt lat="46.36022" lon="5.89525">
        <ele>544.59997558594</ele>
        <time>2018-06-10T08:27:00.000Z</time>
      </trkpt>
      <trkpt lat="46.36024" lon="5.89518">
        <ele>543.20001220703</ele>
        <time>2018-06-10T08:27:01.000Z</time>
      </trkpt>
      <trkpt lat="46.36026" lon="5.89511">
        <ele>542</ele>
        <time>2018-06-10T08:27:02.000Z</time>
      </trkpt>
      <trkpt lat="46.36028" lon="5.89505">
        <ele>540.79998779297</ele>
        <time>2018-06-10T08:27:03.000Z</time>
      </trkpt>
      <trkpt lat="46.36029" lon="5.89499">
        <ele>539.59997558594</ele>
        <time>2018-06-10T08:27:04.000Z</time>
      </trkpt>
      <trkpt lat="46.3603" lon="5.89488">
        <ele>537.79998779297</ele>
        <time>2018-06-10T08:27:06.000Z</time>
      </trkpt>
      <trkpt lat="46.36029" lon="5.89485">
        <ele>535.79998779297</ele>
        <time>2018-06-10T08:27:08.000Z</time>
      </trkpt>
      <trkpt lat="46.36028" lon="5.89486">
        <ele>534.59997558594</ele>
        <time>2018-06-10T08:27:09.000Z</time>
      </trkpt>
      <trkpt lat="46.36025" lon="5.89486">
        <ele>533.59997558594</ele>
        <time>2018-06-10T08:27:10.000Z</time>
      </trkpt>
      <trkpt lat="46.36023" lon="5.89488">
        <ele>533.20001220703</ele>
        <time>2018-06-10T08:27:11.000Z</time>
      </trkpt>
      <trkpt lat="46.36021" lon="5.8949">
        <ele>532.59997558594</ele>
        <time>2018-06-10T08:27:12.000Z</time>
      </trkpt>
      <trkpt lat="46.36018" lon="5.89497">
        <ele>531.59997558594</ele>
        <time>2018-06-10T08:27:14.000Z</time>
      </trkpt>
      <trkpt lat="46.36008" lon="5.89504">
        <ele>530.40002441406</ele>
        <time>2018-06-10T08:27:16.000Z</time>
      </trkpt>
      <trkpt lat="46.36003" lon="5.89506">
        <ele>529.79998779297</ele>
        <time>2018-06-10T08:27:17.000Z</time>
      </trkpt>
      <trkpt lat="46.35997" lon="5.89509">
        <ele>528.79998779297</ele>
        <time>2018-06-10T08:27:19.000Z</time>
      </trkpt>
      <trkpt lat="46.35994" lon="5.89508">
        <ele>527.40002441406</ele>
        <time>2018-06-10T08:27:21.000Z</time>
      </trkpt>
      <trkpt lat="46.35995" lon="5.89506">
        <ele>526.79998779297</ele>
        <time>2018-06-10T08:27:22.000Z</time>
      </trkpt>
      <trkpt lat="46.35997" lon="5.89503">
        <ele>526.20001220703</ele>
        <time>2018-06-10T08:27:23.000Z</time>
      </trkpt>
      <trkpt lat="46.35999" lon="5.89497">
        <ele>524.40002441406</ele>
        <time>2018-06-10T08:27:25.000Z</time>
      </trkpt>
      <trkpt lat="46.36002" lon="5.89491">
        <ele>523.40002441406</ele>
        <time>2018-06-10T08:27:26.000Z</time>
      </trkpt>
      <trkpt lat="46.36006" lon="5.89478">
        <ele>521.59997558594</ele>
        <time>2018-06-10T08:27:28.000Z</time>
      </trkpt>
      <trkpt lat="46.3601" lon="5.89464">
        <ele>520</ele>
        <time>2018-06-10T08:27:30.000Z</time>
      </trkpt>
      <trkpt lat="46.36011" lon="5.89452">
        <ele>517.79998779297</ele>
        <time>2018-06-10T08:27:32.000Z</time>
      </trkpt>
      <trkpt lat="46.36012" lon="5.89446">
        <ele>516</ele>
        <time>2018-06-10T08:27:33.000Z</time>
      </trkpt>
      <trkpt lat="46.36012" lon="5.8944">
        <ele>514.20001220703</ele>
        <time>2018-06-10T08:27:34.000Z</time>
      </trkpt>
      <trkpt lat="46.36013" lon="5.89436">
        <ele>512.79998779297</ele>
        <time>2018-06-10T08:27:35.000Z</time>
      </trkpt>
      <trkpt lat="46.36014" lon="5.89433">
        <ele>511.39999389648</ele>
        <time>2018-06-10T08:27:36.000Z</time>
      </trkpt>
      <trkpt lat="46.36015" lon="5.89429">
        <ele>510.20001220703</ele>
        <time>2018-06-10T08:27:37.000Z</time>
      </trkpt>
      <trkpt lat="46.36015" lon="5.89426">
        <ele>509</ele>
        <time>2018-06-10T08:27:38.000Z</time>
      </trkpt>
      <trkpt lat="46.36014" lon="5.89421">
        <ele>507.39999389648</ele>
        <time>2018-06-10T08:27:40.000Z</time>
      </trkpt>
      <trkpt lat="46.3601" lon="5.89417">
        <ele>506.39999389648</ele>
        <time>2018-06-10T08:27:41.000Z</time>
      </trkpt>
      <trkpt lat="46.36007" lon="5.89414">
        <ele>505.20001220703</ele>
        <time>2018-06-10T08:27:42.000Z</time>
      </trkpt>
      <trkpt lat="46.36002" lon="5.89411">
        <ele>503.39999389648</ele>
        <time>2018-06-10T08:27:44.000Z</time>
      </trkpt>
      <trkpt lat="46.35997" lon="5.89411">
        <ele>501.20001220703</ele>
        <time>2018-06-10T08:27:46.000Z</time>
      </trkpt>
      <trkpt lat="46.3599" lon="5.89411">
        <ele>500.20001220703</ele>
        <time>2018-06-10T08:27:47.000Z</time>
      </trkpt>
      <trkpt lat="46.35986" lon="5.89413">
        <ele>499.20001220703</ele>
        <time>2018-06-10T08:27:48.000Z</time>
      </trkpt>
      <trkpt lat="46.35982" lon="5.89415">
        <ele>497.39999389648</ele>
        <time>2018-06-10T08:27:50.000Z</time>
      </trkpt>
      <trkpt lat="46.35982" lon="5.89417">
        <ele>496.20001220703</ele>
        <time>2018-06-10T08:27:51.000Z</time>
      </trkpt>
      <trkpt lat="46.3598" lon="5.89418">
        <ele>494.79998779297</ele>
        <time>2018-06-10T08:27:52.000Z</time>
      </trkpt>
      <trkpt lat="46.35979" lon="5.89419">
        <ele>493.39999389648</ele>
        <time>2018-06-10T08:27:53.000Z</time>
      </trkpt>
      <trkpt lat="46.35976" lon="5.89422">
        <ele>491.79998779297</ele>
        <time>2018-06-10T08:27:54.000Z</time>
      </trkpt>
      <trkpt lat="46.35982" lon="5.89427">
        <ele>490.39999389648</ele>
        <time>2018-06-10T08:27:55.000Z</time>
      </trkpt>
      <trkpt lat="46.35981" lon="5.89429">
        <ele>489.20001220703</ele>
        <time>2018-06-10T08:27:56.000Z</time>
      </trkpt>
      <trkpt lat="46.3598" lon="5.89427">
        <ele>487.20001220703</ele>
        <time>2018-06-10T08:27:58.000Z</time>
      </trkpt>
      <trkpt lat="46.35982" lon="5.89429">
        <ele>486</ele>
        <time>2018-06-10T08:28:00.000Z</time>
      </trkpt>
      <trkpt lat="46.35974" lon="5.89423">
        <ele>484.60000610352</ele>
        <time>2018-06-10T08:28:03.000Z</time>
      </trkpt>
      <trkpt lat="46.35972" lon="5.8942">
        <ele>483.60000610352</ele>
        <time>2018-06-10T08:28:05.000Z</time>
      </trkpt>
      <trkpt lat="46.35971" lon="5.89416">
        <ele>482.39999389648</ele>
        <time>2018-06-10T08:28:08.000Z</time>
      </trkpt>
      <trkpt lat="46.3597" lon="5.89418">
        <ele>481.79998779297</ele>
        <time>2018-06-10T08:28:09.000Z</time>
      </trkpt>
      <trkpt lat="46.35967" lon="5.89419">
        <ele>480.79998779297</ele>
        <time>2018-06-10T08:28:11.000Z</time>
      </trkpt>
      <trkpt lat="46.35964" lon="5.89417">
        <ele>480.39999389648</ele>
        <time>2018-06-10T08:28:12.000Z</time>
      </trkpt>
      <trkpt lat="46.35956" lon="5.89415">
        <ele>479.20001220703</ele>
        <time>2018-06-10T08:28:14.000Z</time>
      </trkpt>
      <trkpt lat="46.35953" lon="5.89411">
        <ele>478.60000610352</ele>
        <time>2018-06-10T08:28:15.000Z</time>
      </trkpt>
      <trkpt lat="46.35951" lon="5.89408">
        <ele>478</ele>
        <time>2018-06-10T08:28:16.000Z</time>
      </trkpt>
      <trkpt lat="46.35952" lon="5.89396">
        <ele>477</ele>
        <time>2018-06-10T08:28:21.000Z</time>
      </trkpt>
      <trkpt lat="46.35949" lon="5.89393">
        <ele>477</ele>
        <time>2018-06-10T08:28:23.000Z</time>
      </trkpt>
      <trkpt lat="46.3594" lon="5.89385">
        <ele>475.79998779297</ele>
        <time>2018-06-10T08:28:31.000Z</time>
      </trkpt>
      <trkpt lat="46.35938" lon="5.89383">
        <ele>474.79998779297</ele>
        <time>2018-06-10T08:28:35.000Z</time>
      </trkpt>
      <trkpt lat="46.35941" lon="5.89383">
        <ele>473.79998779297</ele>
        <time>2018-06-10T08:28:51.000Z</time>
      </trkpt>
      <trkpt lat="46.35939" lon="5.89379">
        <ele>473.79998779297</ele>
        <time>2018-06-10T08:29:30.000Z</time>
      </trkpt>
      <trkpt lat="46.35941" lon="5.89376">
        <ele>473.79998779297</ele>
        <time>2018-06-10T08:30:39.000Z</time>
      </trkpt>
      <trkpt lat="46.35944" lon="5.89373">
        <ele>473.20001220703</ele>
        <time>2018-06-10T08:30:44.000Z</time>
      </trkpt>
      <trkpt lat="46.35947" lon="5.89368">
        <ele>473.20001220703</ele>
        <time>2018-06-10T08:30:51.000Z</time>
      </trkpt>
      <trkpt lat="46.3595" lon="5.89363">
        <ele>473.39999389648</ele>
        <time>2018-06-10T08:30:53.000Z</time>
      </trkpt>
      <trkpt lat="46.35964" lon="5.89348">
        <ele>472.60000610352</ele>
        <time>2018-06-10T08:31:03.000Z</time>
      </trkpt>
      <trkpt lat="46.35964" lon="5.89346">
        <ele>472.60000610352</ele>
        <time>2018-06-10T08:31:05.000Z</time>
      </trkpt>
      <trkpt lat="46.35966" lon="5.89336">
        <ele>472.60000610352</ele>
        <time>2018-06-10T08:31:13.000Z</time>
      </trkpt>
      <trkpt lat="46.35984" lon="5.89308">
        <ele>473.79998779297</ele>
        <time>2018-06-10T08:31:27.000Z</time>
      </trkpt>
      <trkpt lat="46.36002" lon="5.89305">
        <ele>474.20001220703</ele>
        <time>2018-06-10T08:31:33.000Z</time>
      </trkpt>
      <trkpt lat="46.36018" lon="5.89275">
        <ele>474.20001220703</ele>
        <time>2018-06-10T08:31:42.000Z</time>
      </trkpt>
      <trkpt lat="46.36042" lon="5.89205">
        <ele>473.20001220703</ele>
        <time>2018-06-10T08:31:57.000Z</time>
      </trkpt>
      <trkpt lat="46.3605" lon="5.89167">
        <ele>472.79998779297</ele>
        <time>2018-06-10T08:32:05.000Z</time>
      </trkpt>
      <trkpt lat="46.36053" lon="5.89154">
        <ele>473</ele>
        <time>2018-06-10T08:32:08.000Z</time>
      </trkpt>
      <trkpt lat="46.36063" lon="5.89111">
        <ele>473.20001220703</ele>
        <time>2018-06-10T08:32:17.000Z</time>
      </trkpt>
      <trkpt lat="46.36054" lon="5.89033">
        <ele>472</ele>
        <time>2018-06-10T08:32:30.000Z</time>
      </trkpt>
      <trkpt lat="46.36054" lon="5.89006">
        <ele>471.79998779297</ele>
        <time>2018-06-10T08:32:35.000Z</time>
      </trkpt>
      <trkpt lat="46.36066" lon="5.88974">
        <ele>471.79998779297</ele>
        <time>2018-06-10T08:32:41.000Z</time>
      </trkpt>
      <trkpt lat="46.36073" lon="5.8896">
        <ele>471.79998779297</ele>
        <time>2018-06-10T08:32:43.000Z</time>
      </trkpt>
      <trkpt lat="46.36088" lon="5.88894">
        <ele>471.60000610352</ele>
        <time>2018-06-10T08:32:55.000Z</time>
      </trkpt>
      <trkpt lat="46.36085" lon="5.88839">
        <ele>471.39999389648</ele>
        <time>2018-06-10T08:33:04.000Z</time>
      </trkpt>
      <trkpt lat="46.36087" lon="5.88829">
        <ele>471.79998779297</ele>
        <time>2018-06-10T08:33:06.000Z</time>
      </trkpt>
      <trkpt lat="46.36089" lon="5.88825">
        <ele>471.79998779297</ele>
        <time>2018-06-10T08:33:07.000Z</time>
      </trkpt>
      <trkpt lat="46.36093" lon="5.88817">
        <ele>472</ele>
        <time>2018-06-10T08:33:09.000Z</time>
      </trkpt>
      <trkpt lat="46.36107" lon="5.8879">
        <ele>470.60000610352</ele>
        <time>2018-06-10T08:33:14.000Z</time>
      </trkpt>
      <trkpt lat="46.36116" lon="5.88771">
        <ele>468.79998779297</ele>
        <time>2018-06-10T08:33:16.000Z</time>
      </trkpt>
      <trkpt lat="46.36122" lon="5.88762">
        <ele>467.60000610352</ele>
        <time>2018-06-10T08:33:17.000Z</time>
      </trkpt>
      <trkpt lat="46.36132" lon="5.88744">
        <ele>465.79998779297</ele>
        <time>2018-06-10T08:33:19.000Z</time>
      </trkpt>
      <trkpt lat="46.36137" lon="5.88722">
        <ele>463.60000610352</ele>
        <time>2018-06-10T08:33:21.000Z</time>
      </trkpt>
      <trkpt lat="46.3614" lon="5.8871">
        <ele>462.20001220703</ele>
        <time>2018-06-10T08:33:22.000Z</time>
      </trkpt>
      <trkpt lat="46.36143" lon="5.88698">
        <ele>460.79998779297</ele>
        <time>2018-06-10T08:33:23.000Z</time>
      </trkpt>
      <trkpt lat="46.36147" lon="5.88685">
        <ele>459.20001220703</ele>
        <time>2018-06-10T08:33:24.000Z</time>
      </trkpt>
      <trkpt lat="46.36152" lon="5.88673">
        <ele>457.79998779297</ele>
        <time>2018-06-10T08:33:25.000Z</time>
      </trkpt>
      <trkpt lat="46.36155" lon="5.8866">
        <ele>456.60000610352</ele>
        <time>2018-06-10T08:33:26.000Z</time>
      </trkpt>
      <trkpt lat="46.36159" lon="5.88648">
        <ele>455.39999389648</ele>
        <time>2018-06-10T08:33:27.000Z</time>
      </trkpt>
      <trkpt lat="46.36162" lon="5.88636">
        <ele>454.60000610352</ele>
        <time>2018-06-10T08:33:28.000Z</time>
      </trkpt>
      <trkpt lat="46.36166" lon="5.88623">
        <ele>453.79998779297</ele>
        <time>2018-06-10T08:33:29.000Z</time>
      </trkpt>
      <trkpt lat="46.36175" lon="5.88597">
        <ele>452.39999389648</ele>
        <time>2018-06-10T08:33:31.000Z</time>
      </trkpt>
      <trkpt lat="46.36184" lon="5.88573">
        <ele>450.79998779297</ele>
        <time>2018-06-10T08:33:33.000Z</time>
      </trkpt>
      <trkpt lat="46.36193" lon="5.88552">
        <ele>449</ele>
        <time>2018-06-10T08:33:35.000Z</time>
      </trkpt>
      <trkpt lat="46.36206" lon="5.88521">
        <ele>448</ele>
        <time>2018-06-10T08:33:38.000Z</time>
      </trkpt>
      <trkpt lat="46.36209" lon="5.88511">
        <ele>447.79998779297</ele>
        <time>2018-06-10T08:33:39.000Z</time>
      </trkpt>
      <trkpt lat="46.36211" lon="5.88488">
        <ele>447.79998779297</ele>
        <time>2018-06-10T08:33:41.000Z</time>
      </trkpt>
      <trkpt lat="46.36209" lon="5.88467">
        <ele>447.60000610352</ele>
        <time>2018-06-10T08:33:43.000Z</time>
      </trkpt>
      <trkpt lat="46.36207" lon="5.88449">
        <ele>447.39999389648</ele>
        <time>2018-06-10T08:33:45.000Z</time>
      </trkpt>
      <trkpt lat="46.36205" lon="5.8843">
        <ele>447.20001220703</ele>
        <time>2018-06-10T08:33:47.000Z</time>
      </trkpt>
      <trkpt lat="46.36206" lon="5.88401">
        <ele>447.20001220703</ele>
        <time>2018-06-10T08:33:50.000Z</time>
      </trkpt>
      <trkpt lat="46.36214" lon="5.88373">
        <ele>446.79998779297</ele>
        <time>2018-06-10T08:33:53.000Z</time>
      </trkpt>
      <trkpt lat="46.36216" lon="5.88363">
        <ele>446.39999389648</ele>
        <time>2018-06-10T08:33:54.000Z</time>
      </trkpt>
      <trkpt lat="46.36223" lon="5.88344">
        <ele>445.60000610352</ele>
        <time>2018-06-10T08:33:56.000Z</time>
      </trkpt>
      <trkpt lat="46.36226" lon="5.88335">
        <ele>445.39999389648</ele>
        <time>2018-06-10T08:33:57.000Z</time>
      </trkpt>
      <trkpt lat="46.3624" lon="5.88303">
        <ele>444.39999389648</ele>
        <time>2018-06-10T08:34:01.000Z</time>
      </trkpt>
      <trkpt lat="46.36243" lon="5.88295">
        <ele>444</ele>
        <time>2018-06-10T08:34:02.000Z</time>
      </trkpt>
      <trkpt lat="46.36248" lon="5.88277">
        <ele>443</ele>
        <time>2018-06-10T08:34:04.000Z</time>
      </trkpt>
      <trkpt lat="46.36251" lon="5.88269">
        <ele>442.60000610352</ele>
        <time>2018-06-10T08:34:05.000Z</time>
      </trkpt>
      <trkpt lat="46.36258" lon="5.8825">
        <ele>441.39999389648</ele>
        <time>2018-06-10T08:34:07.000Z</time>
      </trkpt>
      <trkpt lat="46.36277" lon="5.88206">
        <ele>440.79998779297</ele>
        <time>2018-06-10T08:34:13.000Z</time>
      </trkpt>
      <trkpt lat="46.36288" lon="5.88181">
        <ele>440.20001220703</ele>
        <time>2018-06-10T08:34:17.000Z</time>
      </trkpt>
      <trkpt lat="46.36292" lon="5.88176">
        <ele>440.20001220703</ele>
        <time>2018-06-10T08:34:18.000Z</time>
      </trkpt>
      <trkpt lat="46.36315" lon="5.88138">
        <ele>439.39999389648</ele>
        <time>2018-06-10T08:34:24.000Z</time>
      </trkpt>
      <trkpt lat="46.36318" lon="5.88131">
        <ele>439</ele>
        <time>2018-06-10T08:34:25.000Z</time>
      </trkpt>
      <trkpt lat="46.36321" lon="5.88124">
        <ele>438.60000610352</ele>
        <time>2018-06-10T08:34:26.000Z</time>
      </trkpt>
      <trkpt lat="46.36325" lon="5.88114">
        <ele>438</ele>
        <time>2018-06-10T08:34:27.000Z</time>
      </trkpt>
      <trkpt lat="46.3633" lon="5.88095">
        <ele>436.60000610352</ele>
        <time>2018-06-10T08:34:29.000Z</time>
      </trkpt>
      <trkpt lat="46.36336" lon="5.8808">
        <ele>435.79998779297</ele>
        <time>2018-06-10T08:34:31.000Z</time>
      </trkpt>
      <trkpt lat="46.36343" lon="5.88065">
        <ele>435.60000610352</ele>
        <time>2018-06-10T08:34:33.000Z</time>
      </trkpt>
      <trkpt lat="46.36349" lon="5.88051">
        <ele>435.20001220703</ele>
        <time>2018-06-10T08:34:35.000Z</time>
      </trkpt>
      <trkpt lat="46.36357" lon="5.8804">
        <ele>435.20001220703</ele>
        <time>2018-06-10T08:34:37.000Z</time>
      </trkpt>
      <trkpt lat="46.36375" lon="5.88018">
        <ele>435</ele>
        <time>2018-06-10T08:34:41.000Z</time>
      </trkpt>
      <trkpt lat="46.36382" lon="5.88008">
        <ele>434.39999389648</ele>
        <time>2018-06-10T08:34:43.000Z</time>
      </trkpt>
      <trkpt lat="46.36395" lon="5.87995">
        <ele>433.20001220703</ele>
        <time>2018-06-10T08:34:46.000Z</time>
      </trkpt>
      <trkpt lat="46.36398" lon="5.87989">
        <ele>433</ele>
        <time>2018-06-10T08:34:47.000Z</time>
      </trkpt>
      <trkpt lat="46.36416" lon="5.87959">
        <ele>432</ele>
        <time>2018-06-10T08:34:52.000Z</time>
      </trkpt>
      <trkpt lat="46.3642" lon="5.87954">
        <ele>432</ele>
        <time>2018-06-10T08:34:53.000Z</time>
      </trkpt>
      <trkpt lat="46.36433" lon="5.87928">
        <ele>433</ele>
        <time>2018-06-10T08:35:00.000Z</time>
      </trkpt>
      <trkpt lat="46.36437" lon="5.87918">
        <ele>433.20001220703</ele>
        <time>2018-06-10T08:35:03.000Z</time>
      </trkpt>
      <trkpt lat="46.36447" lon="5.879">
        <ele>432.79998779297</ele>
        <time>2018-06-10T08:35:07.000Z</time>
      </trkpt>
      <trkpt lat="46.36458" lon="5.87875">
        <ele>432</ele>
        <time>2018-06-10T08:35:11.000Z</time>
      </trkpt>
      <trkpt lat="46.36462" lon="5.87869">
        <ele>431.79998779297</ele>
        <time>2018-06-10T08:35:12.000Z</time>
      </trkpt>
      <trkpt lat="46.3647" lon="5.87856">
        <ele>430.60000610352</ele>
        <time>2018-06-10T08:35:14.000Z</time>
      </trkpt>
      <trkpt lat="46.3648" lon="5.87849">
        <ele>430</ele>
        <time>2018-06-10T08:35:16.000Z</time>
      </trkpt>
      <trkpt lat="46.36489" lon="5.87844">
        <ele>429.60000610352</ele>
        <time>2018-06-10T08:35:18.000Z</time>
      </trkpt>
      <trkpt lat="46.36494" lon="5.87842">
        <ele>429.60000610352</ele>
        <time>2018-06-10T08:35:19.000Z</time>
      </trkpt>
      <trkpt lat="46.3654" lon="5.87826">
        <ele>428.60000610352</ele>
        <time>2018-06-10T08:35:27.000Z</time>
      </trkpt>
      <trkpt lat="46.36562" lon="5.87818">
        <ele>428.60000610352</ele>
        <time>2018-06-10T08:35:32.000Z</time>
      </trkpt>
      <trkpt lat="46.36582" lon="5.8781">
        <ele>427.79998779297</ele>
        <time>2018-06-10T08:35:37.000Z</time>
      </trkpt>
      <trkpt lat="46.36594" lon="5.87793">
        <ele>427.79998779297</ele>
        <time>2018-06-10T08:35:40.000Z</time>
      </trkpt>
      <trkpt lat="46.36602" lon="5.87772">
        <ele>428.60000610352</ele>
        <time>2018-06-10T08:35:44.000Z</time>
      </trkpt>
      <trkpt lat="46.36608" lon="5.87752">
        <ele>429.79998779297</ele>
        <time>2018-06-10T08:35:48.000Z</time>
      </trkpt>
      <trkpt lat="46.3662" lon="5.87725">
        <ele>430.79998779297</ele>
        <time>2018-06-10T08:35:55.000Z</time>
      </trkpt>
      <trkpt lat="46.36623" lon="5.87701">
        <ele>432</ele>
        <time>2018-06-10T08:36:01.000Z</time>
      </trkpt>
      <trkpt lat="46.3664" lon="5.87651">
        <ele>432.39999389648</ele>
        <time>2018-06-10T08:36:12.000Z</time>
      </trkpt>
      <trkpt lat="46.36659" lon="5.8762">
        <ele>430.79998779297</ele>
        <time>2018-06-10T08:36:16.000Z</time>
      </trkpt>
      <trkpt lat="46.36672" lon="5.87602">
        <ele>429</ele>
        <time>2018-06-10T08:36:18.000Z</time>
      </trkpt>
      <trkpt lat="46.36678" lon="5.87593">
        <ele>428</ele>
        <time>2018-06-10T08:36:19.000Z</time>
      </trkpt>
      <trkpt lat="46.36682" lon="5.87584">
        <ele>426.79998779297</ele>
        <time>2018-06-10T08:36:20.000Z</time>
      </trkpt>
      <trkpt lat="46.36688" lon="5.87574">
        <ele>425.60000610352</ele>
        <time>2018-06-10T08:36:21.000Z</time>
      </trkpt>
      <trkpt lat="46.36694" lon="5.87564">
        <ele>424.39999389648</ele>
        <time>2018-06-10T08:36:22.000Z</time>
      </trkpt>
      <trkpt lat="46.367" lon="5.87555">
        <ele>423.20001220703</ele>
        <time>2018-06-10T08:36:23.000Z</time>
      </trkpt>
      <trkpt lat="46.36712" lon="5.8753">
        <ele>422.39999389648</ele>
        <time>2018-06-10T08:36:26.000Z</time>
      </trkpt>
      <trkpt lat="46.36722" lon="5.8751">
        <ele>423</ele>
        <time>2018-06-10T08:36:29.000Z</time>
      </trkpt>
      <trkpt lat="46.36733" lon="5.87495">
        <ele>424.39999389648</ele>
        <time>2018-06-10T08:36:32.000Z</time>
      </trkpt>
      <trkpt lat="46.3674" lon="5.87481">
        <ele>426</ele>
        <time>2018-06-10T08:36:35.000Z</time>
      </trkpt>
      <trkpt lat="46.36742" lon="5.87474">
        <ele>427</ele>
        <time>2018-06-10T08:36:37.000Z</time>
      </trkpt>
      <trkpt lat="46.3675" lon="5.87461">
        <ele>428</ele>
        <time>2018-06-10T08:36:41.000Z</time>
      </trkpt>
      <trkpt lat="46.36788" lon="5.87403">
        <ele>426.79998779297</ele>
        <time>2018-06-10T08:36:53.000Z</time>
      </trkpt>
      <trkpt lat="46.36791" lon="5.87396">
        <ele>426.39999389648</ele>
        <time>2018-06-10T08:36:54.000Z</time>
      </trkpt>
      <trkpt lat="46.36797" lon="5.87378">
        <ele>425</ele>
        <time>2018-06-10T08:36:56.000Z</time>
      </trkpt>
      <trkpt lat="46.36809" lon="5.8736">
        <ele>422.79998779297</ele>
        <time>2018-06-10T08:36:58.000Z</time>
      </trkpt>
      <trkpt lat="46.36815" lon="5.8735">
        <ele>421.39999389648</ele>
        <time>2018-06-10T08:36:59.000Z</time>
      </trkpt>
      <trkpt lat="46.36822" lon="5.8734">
        <ele>419.79998779297</ele>
        <time>2018-06-10T08:37:00.000Z</time>
      </trkpt>
      <trkpt lat="46.36829" lon="5.8733">
        <ele>418.60000610352</ele>
        <time>2018-06-10T08:37:01.000Z</time>
      </trkpt>
      <trkpt lat="46.36835" lon="5.8732">
        <ele>417.20001220703</ele>
        <time>2018-06-10T08:37:02.000Z</time>
      </trkpt>
      <trkpt lat="46.36843" lon="5.873">
        <ele>415.79998779297</ele>
        <time>2018-06-10T08:37:04.000Z</time>
      </trkpt>
      <trkpt lat="46.36849" lon="5.87273">
        <ele>415.79998779297</ele>
        <time>2018-06-10T08:37:07.000Z</time>
      </trkpt>
      <trkpt lat="46.36852" lon="5.8726">
        <ele>416.20001220703</ele>
        <time>2018-06-10T08:37:09.000Z</time>
      </trkpt>
      <trkpt lat="46.36855" lon="5.87244">
        <ele>416.39999389648</ele>
        <time>2018-06-10T08:37:11.000Z</time>
      </trkpt>
      <trkpt lat="46.36863" lon="5.87203">
        <ele>416</ele>
        <time>2018-06-10T08:37:17.000Z</time>
      </trkpt>
      <trkpt lat="46.36874" lon="5.8719">
        <ele>415.39999389648</ele>
        <time>2018-06-10T08:37:19.000Z</time>
      </trkpt>
      <trkpt lat="46.36887" lon="5.8718">
        <ele>414.60000610352</ele>
        <time>2018-06-10T08:37:21.000Z</time>
      </trkpt>
      <trkpt lat="46.36893" lon="5.87175">
        <ele>414.20001220703</ele>
        <time>2018-06-10T08:37:22.000Z</time>
      </trkpt>
      <trkpt lat="46.36901" lon="5.87165">
        <ele>414</ele>
        <time>2018-06-10T08:37:24.000Z</time>
      </trkpt>
      <trkpt lat="46.36917" lon="5.87165">
        <ele>413.60000610352</ele>
        <time>2018-06-10T08:37:27.000Z</time>
      </trkpt>
      <trkpt lat="46.36948" lon="5.87173">
        <ele>413.79998779297</ele>
        <time>2018-06-10T08:37:33.000Z</time>
      </trkpt>
      <trkpt lat="46.36959" lon="5.87172">
        <ele>413.79998779297</ele>
        <time>2018-06-10T08:37:35.000Z</time>
      </trkpt>
      <trkpt lat="46.36995" lon="5.87161">
        <ele>413.60000610352</ele>
        <time>2018-06-10T08:37:42.000Z</time>
      </trkpt>
      <trkpt lat="46.37009" lon="5.87162">
        <ele>413.20001220703</ele>
        <time>2018-06-10T08:37:45.000Z</time>
      </trkpt>
      <trkpt lat="46.37025" lon="5.87166">
        <ele>413</ele>
        <time>2018-06-10T08:37:48.000Z</time>
      </trkpt>
      <trkpt lat="46.37042" lon="5.87175">
        <ele>412.39999389648</ele>
        <time>2018-06-10T08:37:51.000Z</time>
      </trkpt>
      <trkpt lat="46.37064" lon="5.87193">
        <ele>411.79998779297</ele>
        <time>2018-06-10T08:37:56.000Z</time>
      </trkpt>
      <trkpt lat="46.37109" lon="5.87225">
        <ele>413.60000610352</ele>
        <time>2018-06-10T08:38:10.000Z</time>
      </trkpt>
      <trkpt lat="46.37121" lon="5.87236">
        <ele>414.60000610352</ele>
        <time>2018-06-10T08:38:15.000Z</time>
      </trkpt>
      <trkpt lat="46.37153" lon="5.87258">
        <ele>415.79998779297</ele>
        <time>2018-06-10T08:38:26.000Z</time>
      </trkpt>
      <trkpt lat="46.37179" lon="5.8727">
        <ele>416.79998779297</ele>
        <time>2018-06-10T08:38:34.000Z</time>
      </trkpt>
      <trkpt lat="46.37234" lon="5.87268">
        <ele>417.60000610352</ele>
        <time>2018-06-10T08:38:51.000Z</time>
      </trkpt>
      <trkpt lat="46.37266" lon="5.87265">
        <ele>417.79998779297</ele>
        <time>2018-06-10T08:38:58.000Z</time>
      </trkpt>
      <trkpt lat="46.37301" lon="5.87273">
        <ele>416.79998779297</ele>
        <time>2018-06-10T08:39:06.000Z</time>
      </trkpt>
      <trkpt lat="46.37315" lon="5.87281">
        <ele>415.60000610352</ele>
        <time>2018-06-10T08:39:09.000Z</time>
      </trkpt>
      <trkpt lat="46.37328" lon="5.87291">
        <ele>414.60000610352</ele>
        <time>2018-06-10T08:39:12.000Z</time>
      </trkpt>
      <trkpt lat="46.37333" lon="5.87295">
        <ele>414.20001220703</ele>
        <time>2018-06-10T08:39:13.000Z</time>
      </trkpt>
      <trkpt lat="46.37337" lon="5.873">
        <ele>414</ele>
        <time>2018-06-10T08:39:14.000Z</time>
      </trkpt>
      <trkpt lat="46.37352" lon="5.87313">
        <ele>413.39999389648</ele>
        <time>2018-06-10T08:39:17.000Z</time>
      </trkpt>
      <trkpt lat="46.37357" lon="5.87317">
        <ele>413.20001220703</ele>
        <time>2018-06-10T08:39:18.000Z</time>
      </trkpt>
      <trkpt lat="46.37367" lon="5.87325">
        <ele>412.79998779297</ele>
        <time>2018-06-10T08:39:20.000Z</time>
      </trkpt>
      <trkpt lat="46.37418" lon="5.87364">
        <ele>412.60000610352</ele>
        <time>2018-06-10T08:39:31.000Z</time>
      </trkpt>
      <trkpt lat="46.37469" lon="5.87393">
        <ele>412.60000610352</ele>
        <time>2018-06-10T08:39:42.000Z</time>
      </trkpt>
      <trkpt lat="46.37487" lon="5.87403">
        <ele>412.39999389648</ele>
        <time>2018-06-10T08:39:46.000Z</time>
      </trkpt>
      <trkpt lat="46.37507" lon="5.87412">
        <ele>412.20001220703</ele>
        <time>2018-06-10T08:39:50.000Z</time>
      </trkpt>
      <trkpt lat="46.37548" lon="5.87419">
        <ele>410.79998779297</ele>
        <time>2018-06-10T08:39:57.000Z</time>
      </trkpt>
      <trkpt lat="46.37554" lon="5.87419">
        <ele>410.60000610352</ele>
        <time>2018-06-10T08:39:58.000Z</time>
      </trkpt>
      <trkpt lat="46.3756" lon="5.8742">
        <ele>410.39999389648</ele>
        <time>2018-06-10T08:39:59.000Z</time>
      </trkpt>
      <trkpt lat="46.37572" lon="5.87425">
        <ele>409.60000610352</ele>
        <time>2018-06-10T08:40:01.000Z</time>
      </trkpt>
      <trkpt lat="46.37578" lon="5.87429">
        <ele>409.20001220703</ele>
        <time>2018-06-10T08:40:02.000Z</time>
      </trkpt>
      <trkpt lat="46.37591" lon="5.87436">
        <ele>408.60000610352</ele>
        <time>2018-06-10T08:40:04.000Z</time>
      </trkpt>
      <trkpt lat="46.37615" lon="5.87447">
        <ele>408</ele>
        <time>2018-06-10T08:40:08.000Z</time>
      </trkpt>
      <trkpt lat="46.37627" lon="5.87446">
        <ele>408.20001220703</ele>
        <time>2018-06-10T08:40:10.000Z</time>
      </trkpt>
      <trkpt lat="46.3764" lon="5.87427">
        <ele>409.79998779297</ele>
        <time>2018-06-10T08:40:15.000Z</time>
      </trkpt>
      <trkpt lat="46.37639" lon="5.87413">
        <ele>411</ele>
        <time>2018-06-10T08:40:19.000Z</time>
      </trkpt>
      <trkpt lat="46.3764" lon="5.87396">
        <ele>412</ele>
        <time>2018-06-10T08:40:25.000Z</time>
      </trkpt>
      <trkpt lat="46.37645" lon="5.87371">
        <ele>413.20001220703</ele>
        <time>2018-06-10T08:40:33.000Z</time>
      </trkpt>
      <trkpt lat="46.37655" lon="5.87353">
        <ele>414.39999389648</ele>
        <time>2018-06-10T08:40:40.000Z</time>
      </trkpt>
      <trkpt lat="46.37664" lon="5.87336">
        <ele>415.39999389648</ele>
        <time>2018-06-10T08:40:47.000Z</time>
      </trkpt>
      <trkpt lat="46.37668" lon="5.87327">
        <ele>416</ele>
        <time>2018-06-10T08:40:51.000Z</time>
      </trkpt>
      <trkpt lat="46.37666" lon="5.87335">
        <ele>416.60000610352</ele>
        <time>2018-06-10T08:40:55.000Z</time>
      </trkpt>
      <trkpt lat="46.37635" lon="5.87395">
        <ele>416.60000610352</ele>
        <time>2018-06-10T08:41:14.000Z</time>
      </trkpt>
      <trkpt lat="46.37645" lon="5.87475">
        <ele>416.20001220703</ele>
        <time>2018-06-10T08:41:29.000Z</time>
      </trkpt>
      <trkpt lat="46.37627" lon="5.87552">
        <ele>416.39999389648</ele>
        <time>2018-06-10T08:41:42.000Z</time>
      </trkpt>
      <trkpt lat="46.37615" lon="5.87576">
        <ele>416.39999389648</ele>
        <time>2018-06-10T08:41:47.000Z</time>
      </trkpt>
      <trkpt lat="46.37614" lon="5.8759">
        <ele>417</ele>
        <time>2018-06-10T08:41:49.000Z</time>
      </trkpt>
      <trkpt lat="46.37613" lon="5.87611">
        <ele>417.20001220703</ele>
        <time>2018-06-10T08:41:52.000Z</time>
      </trkpt>
      <trkpt lat="46.37611" lon="5.87656">
        <ele>417.20001220703</ele>
        <time>2018-06-10T08:41:59.000Z</time>
      </trkpt>
      <trkpt lat="46.37617" lon="5.8771">
        <ele>417.60000610352</ele>
        <time>2018-06-10T08:42:07.000Z</time>
      </trkpt>
      <trkpt lat="46.37618" lon="5.87716">
        <ele>417.60000610352</ele>
        <time>2018-06-10T08:42:08.000Z</time>
      </trkpt>
      <trkpt lat="46.37637" lon="5.87792">
        <ele>418</ele>
        <time>2018-06-10T08:42:21.000Z</time>
      </trkpt>
      <trkpt lat="46.3764" lon="5.87819">
        <ele>418.60000610352</ele>
        <time>2018-06-10T08:42:26.000Z</time>
      </trkpt>
      <trkpt lat="46.37631" lon="5.8789">
        <ele>419.60000610352</ele>
        <time>2018-06-10T08:42:39.000Z</time>
      </trkpt>
      <trkpt lat="46.37625" lon="5.879">
        <ele>419.79998779297</ele>
        <time>2018-06-10T08:42:41.000Z</time>
      </trkpt>
      <trkpt lat="46.37612" lon="5.87916">
        <ele>420</ele>
        <time>2018-06-10T08:42:45.000Z</time>
      </trkpt>
      <trkpt lat="46.37584" lon="5.87948">
        <ele>419.79998779297</ele>
        <time>2018-06-10T08:42:55.000Z</time>
      </trkpt>
      <trkpt lat="46.37597" lon="5.87964">
        <ele>419.20001220703</ele>
        <time>2018-06-10T08:43:48.000Z</time>
      </trkpt>
      <trkpt lat="46.37598" lon="5.87965">
        <ele>418.60000610352</ele>
        <time>2018-06-10T08:44:53.000Z</time>
      </trkpt>
      <trkpt lat="46.37598" lon="5.87965">
        <ele>418.60000610352</ele>
        <time>2018-06-10T08:44:55.000Z</time>
      </trkpt>
      <trkpt lat="46.37598" lon="5.87965">
        <ele>418.60000610352</ele>
        <time>2018-06-10T08:45:45.000Z</time>
      </trkpt>
      <trkpt lat="46.37601" lon="5.87975">
        <ele>418.60000610352</ele>
        <time>2018-06-10T08:47:25.000Z</time>
      </trkpt>
      <trkpt lat="46.37601" lon="5.87975">
        <ele>418.60000610352</ele>
        <time>2018-06-10T08:47:26.000Z</time>
      </trkpt>
      <trkpt lat="46.37608" lon="5.87998">
        <ele>418.60000610352</ele>
        <time>2018-06-10T08:49:52.000Z</time>
      </trkpt>
      <trkpt lat="46.37609" lon="5.87991">
        <ele>418.60000610352</ele>
        <time>2018-06-10T08:51:48.000Z</time>
      </trkpt>
      <trkpt lat="46.37615" lon="5.87973">
        <ele>418.60000610352</ele>
        <time>2018-06-10T08:54:11.000Z</time>
      </trkpt>
      <trkpt lat="46.37619" lon="5.87962">
        <ele>418.60000610352</ele>
        <time>2018-06-10T08:54:57.000Z</time>
      </trkpt>
      <trkpt lat="46.3362" lon="5.88741">
        <ele>1062.1999511719</ele>
        <time>2018-06-10T09:29:47.000Z</time>
      </trkpt>
      <trkpt lat="46.33619" lon="5.88741">
        <ele>1062.4000244141</ele>
        <time>2018-06-10T09:29:53.000Z</time>
      </trkpt>
      <trkpt lat="46.33625" lon="5.88735">
        <ele>1062.8000488281</ele>
        <time>2018-06-10T09:29:55.000Z</time>
      </trkpt>
      <trkpt lat="46.33638" lon="5.88708">
        <ele>1063.8000488281</ele>
        <time>2018-06-10T09:30:10.000Z</time>
      </trkpt>
      <trkpt lat="46.33645" lon="5.88698">
        <ele>1064.5999755859</ele>
        <time>2018-06-10T09:30:17.000Z</time>
      </trkpt>
      <trkpt lat="46.33648" lon="5.88693">
        <ele>1065</ele>
        <time>2018-06-10T09:30:20.000Z</time>
      </trkpt>
      <trkpt lat="46.33652" lon="5.88684">
        <ele>1065.5999755859</ele>
        <time>2018-06-10T09:30:26.000Z</time>
      </trkpt>
      <trkpt lat="46.33657" lon="5.88679">
        <ele>1066</ele>
        <time>2018-06-10T09:30:29.000Z</time>
      </trkpt>
      <trkpt lat="46.33665" lon="5.88671">
        <ele>1067</ele>
        <time>2018-06-10T09:30:36.000Z</time>
      </trkpt>
      <trkpt lat="46.33667" lon="5.88664">
        <ele>1067.8000488281</ele>
        <time>2018-06-10T09:30:40.000Z</time>
      </trkpt>
      <trkpt lat="46.33667" lon="5.8866">
        <ele>1068.1999511719</ele>
        <time>2018-06-10T09:30:42.000Z</time>
      </trkpt>
      <trkpt lat="46.33673" lon="5.88649">
        <ele>1069</ele>
        <time>2018-06-10T09:30:49.000Z</time>
      </trkpt>
      <trkpt lat="46.33677" lon="5.88643">
        <ele>1069.1999511719</ele>
        <time>2018-06-10T09:30:53.000Z</time>
      </trkpt>
      <trkpt lat="46.33679" lon="5.88623">
        <ele>1070.1999511719</ele>
        <time>2018-06-10T09:31:02.000Z</time>
      </trkpt>
      <trkpt lat="46.3368" lon="5.88614">
        <ele>1071</ele>
        <time>2018-06-10T09:31:06.000Z</time>
      </trkpt>
      <trkpt lat="46.3368" lon="5.88609">
        <ele>1071.1999511719</ele>
        <time>2018-06-10T09:31:08.000Z</time>
      </trkpt>
      <trkpt lat="46.33681" lon="5.88602">
        <ele>1071.4000244141</ele>
        <time>2018-06-10T09:31:11.000Z</time>
      </trkpt>
      <trkpt lat="46.33686" lon="5.88578">
        <ele>1072.4000244141</ele>
        <time>2018-06-10T09:31:22.000Z</time>
      </trkpt>
      <trkpt lat="46.33691" lon="5.88565">
        <ele>1073.5999755859</ele>
        <time>2018-06-10T09:31:29.000Z</time>
      </trkpt>
      <trkpt lat="46.33697" lon="5.88552">
        <ele>1074.5999755859</ele>
        <time>2018-06-10T09:31:36.000Z</time>
      </trkpt>
      <trkpt lat="46.33699" lon="5.88547">
        <ele>1075</ele>
        <time>2018-06-10T09:31:39.000Z</time>
      </trkpt>
      <trkpt lat="46.33698" lon="5.88539">
        <ele>1075.1999511719</ele>
        <time>2018-06-10T09:31:42.000Z</time>
      </trkpt>
      <trkpt lat="46.33703" lon="5.88526">
        <ele>1075.5999755859</ele>
        <time>2018-06-10T09:31:47.000Z</time>
      </trkpt>
      <trkpt lat="46.33708" lon="5.88522">
        <ele>1076</ele>
        <time>2018-06-10T09:31:50.000Z</time>
      </trkpt>
      <trkpt lat="46.33717" lon="5.88505">
        <ele>1076.5999755859</ele>
        <time>2018-06-10T09:31:57.000Z</time>
      </trkpt>
      <trkpt lat="46.33718" lon="5.88499">
        <ele>1076.8000488281</ele>
        <time>2018-06-10T09:31:59.000Z</time>
      </trkpt>
      <trkpt lat="46.33749" lon="5.88435">
        <ele>1077.5999755859</ele>
        <time>2018-06-10T09:32:21.000Z</time>
      </trkpt>
      <trkpt lat="46.33762" lon="5.88415">
        <ele>1077.8000488281</ele>
        <time>2018-06-10T09:32:26.000Z</time>
      </trkpt>
      <trkpt lat="46.33802" lon="5.88356">
        <ele>1078</ele>
        <time>2018-06-10T09:32:41.000Z</time>
      </trkpt>
      <trkpt lat="46.3383" lon="5.88329">
        <ele>1076.5999755859</ele>
        <time>2018-06-10T09:32:48.000Z</time>
      </trkpt>
      <trkpt lat="46.33852" lon="5.88306">
        <ele>1077.8000488281</ele>
        <time>2018-06-10T09:32:55.000Z</time>
      </trkpt>
      <trkpt lat="46.33865" lon="5.88298">
        <ele>1078.8000488281</ele>
        <time>2018-06-10T09:33:00.000Z</time>
      </trkpt>
      <trkpt lat="46.33888" lon="5.88301">
        <ele>1080</ele>
        <time>2018-06-10T09:33:11.000Z</time>
      </trkpt>
      <trkpt lat="46.33898" lon="5.883">
        <ele>1081.1999511719</ele>
        <time>2018-06-10T09:33:18.000Z</time>
      </trkpt>
      <trkpt lat="46.33925" lon="5.88309">
        <ele>1080.4000244141</ele>
        <time>2018-06-10T09:33:42.000Z</time>
      </trkpt>
      <trkpt lat="46.33932" lon="5.8831">
        <ele>1080.1999511719</ele>
        <time>2018-06-10T09:33:44.000Z</time>
      </trkpt>
      <trkpt lat="46.33956" lon="5.8831">
        <ele>1079</ele>
        <time>2018-06-10T09:33:49.000Z</time>
      </trkpt>
      <trkpt lat="46.33965" lon="5.88309">
        <ele>1077.4000244141</ele>
        <time>2018-06-10T09:33:51.000Z</time>
      </trkpt>
      <trkpt lat="46.33979" lon="5.88305">
        <ele>1076.1999511719</ele>
        <time>2018-06-10T09:33:54.000Z</time>
      </trkpt>
      <trkpt lat="46.33984" lon="5.88303">
        <ele>1075.5999755859</ele>
        <time>2018-06-10T09:33:55.000Z</time>
      </trkpt>
      <trkpt lat="46.33987" lon="5.883">
        <ele>1075</ele>
        <time>2018-06-10T09:33:56.000Z</time>
      </trkpt>
      <trkpt lat="46.34001" lon="5.88291">
        <ele>1074</ele>
        <time>2018-06-10T09:33:59.000Z</time>
      </trkpt>
      <trkpt lat="46.34017" lon="5.88277">
        <ele>1072.5999755859</ele>
        <time>2018-06-10T09:34:07.000Z</time>
      </trkpt>
      <trkpt lat="46.34043" lon="5.88276">
        <ele>1071.8000488281</ele>
        <time>2018-06-10T09:34:14.000Z</time>
      </trkpt>
      <trkpt lat="46.34058" lon="5.88272">
        <ele>1071.8000488281</ele>
        <time>2018-06-10T09:34:18.000Z</time>
      </trkpt>
      <trkpt lat="46.34063" lon="5.88269">
        <ele>1071.8000488281</ele>
        <time>2018-06-10T09:34:20.000Z</time>
      </trkpt>
      <trkpt lat="46.34066" lon="5.88268">
        <ele>1071.5999755859</ele>
        <time>2018-06-10T09:34:21.000Z</time>
      </trkpt>
      <trkpt lat="46.34073" lon="5.88265">
        <ele>1070.8000488281</ele>
        <time>2018-06-10T09:34:23.000Z</time>
      </trkpt>
      <trkpt lat="46.34077" lon="5.88263">
        <ele>1070.1999511719</ele>
        <time>2018-06-10T09:34:24.000Z</time>
      </trkpt>
      <trkpt lat="46.34087" lon="5.88256">
        <ele>1069</ele>
        <time>2018-06-10T09:34:27.000Z</time>
      </trkpt>
      <trkpt lat="46.34109" lon="5.88241">
        <ele>1067.5999755859</ele>
        <time>2018-06-10T09:34:31.000Z</time>
      </trkpt>
      <trkpt lat="46.34119" lon="5.88234">
        <ele>1066.4000244141</ele>
        <time>2018-06-10T09:34:33.000Z</time>
      </trkpt>
      <trkpt lat="46.34124" lon="5.88231">
        <ele>1066</ele>
        <time>2018-06-10T09:34:34.000Z</time>
      </trkpt>
      <trkpt lat="46.34133" lon="5.88222">
        <ele>1065.1999511719</ele>
        <time>2018-06-10T09:34:36.000Z</time>
      </trkpt>
      <trkpt lat="46.34143" lon="5.88212">
        <ele>1064.1999511719</ele>
        <time>2018-06-10T09:34:38.000Z</time>
      </trkpt>
      <trkpt lat="46.34155" lon="5.88204">
        <ele>1062.8000488281</ele>
        <time>2018-06-10T09:34:40.000Z</time>
      </trkpt>
      <trkpt lat="46.34173" lon="5.88191">
        <ele>1061.5999755859</ele>
        <time>2018-06-10T09:34:51.000Z</time>
      </trkpt>
      <trkpt lat="46.34226" lon="5.88178">
        <ele>1062.4000244141</ele>
        <time>2018-06-10T09:35:06.000Z</time>
      </trkpt>
      <trkpt lat="46.34232" lon="5.88179">
        <ele>1062.8000488281</ele>
        <time>2018-06-10T09:35:09.000Z</time>
      </trkpt>
      <trkpt lat="46.34239" lon="5.88178">
        <ele>1063</ele>
        <time>2018-06-10T09:35:11.000Z</time>
      </trkpt>
      <trkpt lat="46.34253" lon="5.88174">
        <ele>1064</ele>
        <time>2018-06-10T09:35:18.000Z</time>
      </trkpt>
      <trkpt lat="46.34268" lon="5.88165">
        <ele>1065</ele>
        <time>2018-06-10T09:35:27.000Z</time>
      </trkpt>
      <trkpt lat="46.34292" lon="5.88152">
        <ele>1064.4000244141</ele>
        <time>2018-06-10T09:35:42.000Z</time>
      </trkpt>
      <trkpt lat="46.34295" lon="5.8815">
        <ele>1064</ele>
        <time>2018-06-10T09:35:44.000Z</time>
      </trkpt>
      <trkpt lat="46.34296" lon="5.88149">
        <ele>1063.8000488281</ele>
        <time>2018-06-10T09:35:45.000Z</time>
      </trkpt>
      <trkpt lat="46.34299" lon="5.88148">
        <ele>1063.5999755859</ele>
        <time>2018-06-10T09:35:46.000Z</time>
      </trkpt>
      <trkpt lat="46.34343" lon="5.88137">
        <ele>1064.5999755859</ele>
        <time>2018-06-10T09:36:08.000Z</time>
      </trkpt>
      <trkpt lat="46.34344" lon="5.88136">
        <ele>1064.5999755859</ele>
        <time>2018-06-10T09:36:09.000Z</time>
      </trkpt>
      <trkpt lat="46.34347" lon="5.88134">
        <ele>1065</ele>
        <time>2018-06-10T09:36:11.000Z</time>
      </trkpt>
      <trkpt lat="46.34351" lon="5.88125">
        <ele>1066</ele>
        <time>2018-06-10T09:36:17.000Z</time>
      </trkpt>
      <trkpt lat="46.34356" lon="5.88118">
        <ele>1067</ele>
        <time>2018-06-10T09:36:24.000Z</time>
      </trkpt>
      <trkpt lat="46.34358" lon="5.88113">
        <ele>1068</ele>
        <time>2018-06-10T09:36:30.000Z</time>
      </trkpt>
      <trkpt lat="46.3436" lon="5.88106">
        <ele>1069.1999511719</ele>
        <time>2018-06-10T09:36:36.000Z</time>
      </trkpt>
      <trkpt lat="46.34365" lon="5.88099">
        <ele>1070.4000244141</ele>
        <time>2018-06-10T09:36:44.000Z</time>
      </trkpt>
      <trkpt lat="46.34367" lon="5.8809">
        <ele>1071.5999755859</ele>
        <time>2018-06-10T09:36:51.000Z</time>
      </trkpt>
      <trkpt lat="46.34372" lon="5.88082">
        <ele>1072.5999755859</ele>
        <time>2018-06-10T09:37:00.000Z</time>
      </trkpt>
      <trkpt lat="46.34376" lon="5.88076">
        <ele>1073.8000488281</ele>
        <time>2018-06-10T09:37:51.000Z</time>
      </trkpt>
      <trkpt lat="46.34374" lon="5.88071">
        <ele>1072.8000488281</ele>
        <time>2018-06-10T09:39:15.000Z</time>
      </trkpt>
      <trkpt lat="46.3437" lon="5.88061">
        <ele>1073</ele>
        <time>2018-06-10T09:43:32.000Z</time>
      </trkpt>
      <trkpt lat="46.34376" lon="5.88064">
        <ele>1073</ele>
        <time>2018-06-10T09:48:14.000Z</time>
      </trkpt>
      <trkpt lat="46.34379" lon="5.88056">
        <ele>1073</ele>
        <time>2018-06-10T09:50:43.000Z</time>
      </trkpt>
      <trkpt lat="46.34376" lon="5.88053">
        <ele>1073</ele>
        <time>2018-06-10T09:52:21.000Z</time>
      </trkpt>
      <trkpt lat="46.34408" lon="5.88052">
        <ele>1073</ele>
        <time>2018-06-10T09:56:12.000Z</time>
      </trkpt>
      <trkpt lat="46.34414" lon="5.88052">
        <ele>1073</ele>
        <time>2018-06-10T09:56:48.000Z</time>
      </trkpt>
      <trkpt lat="46.34419" lon="5.88048">
        <ele>1071</ele>
        <time>2018-06-10T09:56:51.000Z</time>
      </trkpt>
      <trkpt lat="46.34424" lon="5.88045">
        <ele>1069.5999755859</ele>
        <time>2018-06-10T09:56:53.000Z</time>
      </trkpt>
      <trkpt lat="46.34428" lon="5.88043">
        <ele>1068.5999755859</ele>
        <time>2018-06-10T09:56:54.000Z</time>
      </trkpt>
      <trkpt lat="46.34454" lon="5.88043">
        <ele>1067.1999511719</ele>
        <time>2018-06-10T09:57:01.000Z</time>
      </trkpt>
      <trkpt lat="46.34459" lon="5.88046">
        <ele>1065.8000488281</ele>
        <time>2018-06-10T09:57:02.000Z</time>
      </trkpt>
      <trkpt lat="46.34463" lon="5.88049">
        <ele>1064.4000244141</ele>
        <time>2018-06-10T09:57:03.000Z</time>
      </trkpt>
      <trkpt lat="46.34466" lon="5.88049">
        <ele>1063.1999511719</ele>
        <time>2018-06-10T09:57:04.000Z</time>
      </trkpt>
      <trkpt lat="46.34473" lon="5.88052">
        <ele>1062</ele>
        <time>2018-06-10T09:57:06.000Z</time>
      </trkpt>
      <trkpt lat="46.34493" lon="5.88056">
        <ele>1060.8000488281</ele>
        <time>2018-06-10T09:57:12.000Z</time>
      </trkpt>
      <trkpt lat="46.34531" lon="5.88067">
        <ele>1060.4000244141</ele>
        <time>2018-06-10T09:57:18.000Z</time>
      </trkpt>
      <trkpt lat="46.34549" lon="5.88073">
        <ele>1062</ele>
        <time>2018-06-10T09:57:24.000Z</time>
      </trkpt>
      <trkpt lat="46.34558" lon="5.88079">
        <ele>1062.5999755859</ele>
        <time>2018-06-10T09:57:30.000Z</time>
      </trkpt>
      <trkpt lat="46.34568" lon="5.88087">
        <ele>1062.5999755859</ele>
        <time>2018-06-10T09:57:35.000Z</time>
      </trkpt>
      <trkpt lat="46.34583" lon="5.88097">
        <ele>1063</ele>
        <time>2018-06-10T09:57:42.000Z</time>
      </trkpt>
      <trkpt lat="46.34588" lon="5.88101">
        <ele>1061.8000488281</ele>
        <time>2018-06-10T09:57:45.000Z</time>
      </trkpt>
      <trkpt lat="46.3459" lon="5.88102">
        <ele>1061</ele>
        <time>2018-06-10T09:57:46.000Z</time>
      </trkpt>
      <trkpt lat="46.34592" lon="5.88103">
        <ele>1060</ele>
        <time>2018-06-10T09:57:47.000Z</time>
      </trkpt>
      <trkpt lat="46.34594" lon="5.88105">
        <ele>1059</ele>
        <time>2018-06-10T09:57:48.000Z</time>
      </trkpt>
      <trkpt lat="46.34596" lon="5.88106">
        <ele>1057.5999755859</ele>
        <time>2018-06-10T09:57:49.000Z</time>
      </trkpt>
      <trkpt lat="46.346" lon="5.88105">
        <ele>1056.1999511719</ele>
        <time>2018-06-10T09:57:50.000Z</time>
      </trkpt>
      <trkpt lat="46.34602" lon="5.88105">
        <ele>1054.5999755859</ele>
        <time>2018-06-10T09:57:51.000Z</time>
      </trkpt>
      <trkpt lat="46.34602" lon="5.88104">
        <ele>1053.5999755859</ele>
        <time>2018-06-10T09:57:52.000Z</time>
      </trkpt>
      <trkpt lat="46.34603" lon="5.88104">
        <ele>1052.4000244141</ele>
        <time>2018-06-10T09:57:54.000Z</time>
      </trkpt>
      <trkpt lat="46.34608" lon="5.88111">
        <ele>1051.1999511719</ele>
        <time>2018-06-10T09:57:59.000Z</time>
      </trkpt>
      <trkpt lat="46.34611" lon="5.88114">
        <ele>1049.8000488281</ele>
        <time>2018-06-10T09:58:02.000Z</time>
      </trkpt>
      <trkpt lat="46.34613" lon="5.88117">
        <ele>1048.4000244141</ele>
        <time>2018-06-10T09:58:04.000Z</time>
      </trkpt>
      <trkpt lat="46.34614" lon="5.88117">
        <ele>1047.5999755859</ele>
        <time>2018-06-10T09:58:05.000Z</time>
      </trkpt>
      <trkpt lat="46.34617" lon="5.88118">
        <ele>1046.8000488281</ele>
        <time>2018-06-10T09:58:06.000Z</time>
      </trkpt>
      <trkpt lat="46.34624" lon="5.88117">
        <ele>1045.5999755859</ele>
        <time>2018-06-10T09:58:08.000Z</time>
      </trkpt>
      <trkpt lat="46.34628" lon="5.88114">
        <ele>1043.8000488281</ele>
        <time>2018-06-10T09:58:10.000Z</time>
      </trkpt>
      <trkpt lat="46.3463" lon="5.88111">
        <ele>1042.5999755859</ele>
        <time>2018-06-10T09:58:11.000Z</time>
      </trkpt>
      <trkpt lat="46.34631" lon="5.8811">
        <ele>1041.5999755859</ele>
        <time>2018-06-10T09:58:12.000Z</time>
      </trkpt>
      <trkpt lat="46.34632" lon="5.88111">
        <ele>1040.5999755859</ele>
        <time>2018-06-10T09:58:13.000Z</time>
      </trkpt>
      <trkpt lat="46.34635" lon="5.88115">
        <ele>1039</ele>
        <time>2018-06-10T09:58:15.000Z</time>
      </trkpt>
      <trkpt lat="46.34637" lon="5.88119">
        <ele>1037.8000488281</ele>
        <time>2018-06-10T09:58:17.000Z</time>
      </trkpt>
      <trkpt lat="46.3464" lon="5.88123">
        <ele>1036</ele>
        <time>2018-06-10T09:58:19.000Z</time>
      </trkpt>
      <trkpt lat="46.34643" lon="5.88126">
        <ele>1034.4000244141</ele>
        <time>2018-06-10T09:58:21.000Z</time>
      </trkpt>
      <trkpt lat="46.34647" lon="5.88128">
        <ele>1033</ele>
        <time>2018-06-10T09:58:23.000Z</time>
      </trkpt>
      <trkpt lat="46.34651" lon="5.88127">
        <ele>1032.1999511719</ele>
        <time>2018-06-10T09:58:25.000Z</time>
      </trkpt>
      <trkpt lat="46.34653" lon="5.88127">
        <ele>1031.1999511719</ele>
        <time>2018-06-10T09:58:26.000Z</time>
      </trkpt>
      <trkpt lat="46.34659" lon="5.88125">
        <ele>1029.1999511719</ele>
        <time>2018-06-10T09:58:28.000Z</time>
      </trkpt>
      <trkpt lat="46.34661" lon="5.88122">
        <ele>1027.8000488281</ele>
        <time>2018-06-10T09:58:30.000Z</time>
      </trkpt>
      <trkpt lat="46.34662" lon="5.8812">
        <ele>1027.4000244141</ele>
        <time>2018-06-10T09:58:31.000Z</time>
      </trkpt>
      <trkpt lat="46.34666" lon="5.88118">
        <ele>1026.4000244141</ele>
        <time>2018-06-10T09:58:33.000Z</time>
      </trkpt>
      <trkpt lat="46.34672" lon="5.88114">
        <ele>1024.8000488281</ele>
        <time>2018-06-10T09:58:35.000Z</time>
      </trkpt>
      <trkpt lat="46.34678" lon="5.88108">
        <ele>1022.5999755859</ele>
        <time>2018-06-10T09:58:37.000Z</time>
      </trkpt>
      <trkpt lat="46.34683" lon="5.88106">
        <ele>1021.200012207</ele>
        <time>2018-06-10T09:58:38.000Z</time>
      </trkpt>
      <trkpt lat="46.3469" lon="5.88105">
        <ele>1019.799987793</ele>
        <time>2018-06-10T09:58:39.000Z</time>
      </trkpt>
      <trkpt lat="46.34696" lon="5.88101">
        <ele>1018.5999755859</ele>
        <time>2018-06-10T09:58:40.000Z</time>
      </trkpt>
      <trkpt lat="46.34699" lon="5.88096">
        <ele>1017.200012207</ele>
        <time>2018-06-10T09:58:41.000Z</time>
      </trkpt>
      <trkpt lat="46.34701" lon="5.88091">
        <ele>1015.799987793</ele>
        <time>2018-06-10T09:58:42.000Z</time>
      </trkpt>
      <trkpt lat="46.34704" lon="5.88088">
        <ele>1014.5999755859</ele>
        <time>2018-06-10T09:58:43.000Z</time>
      </trkpt>
      <trkpt lat="46.34714" lon="5.88082">
        <ele>1013.4000244141</ele>
        <time>2018-06-10T09:58:45.000Z</time>
      </trkpt>
      <trkpt lat="46.34719" lon="5.8808">
        <ele>1013.200012207</ele>
        <time>2018-06-10T09:58:46.000Z</time>
      </trkpt>
      <trkpt lat="46.34735" lon="5.88072">
        <ele>1013.4000244141</ele>
        <time>2018-06-10T09:58:51.000Z</time>
      </trkpt>
      <trkpt lat="46.34744" lon="5.88065">
        <ele>1012.5999755859</ele>
        <time>2018-06-10T09:58:54.000Z</time>
      </trkpt>
      <trkpt lat="46.34749" lon="5.88064">
        <ele>1012</ele>
        <time>2018-06-10T09:58:55.000Z</time>
      </trkpt>
      <trkpt lat="46.34758" lon="5.88065">
        <ele>1011</ele>
        <time>2018-06-10T09:58:57.000Z</time>
      </trkpt>
      <trkpt lat="46.34763" lon="5.88065">
        <ele>1010.799987793</ele>
        <time>2018-06-10T09:58:58.000Z</time>
      </trkpt>
      <trkpt lat="46.34777" lon="5.88059">
        <ele>1009.4000244141</ele>
        <time>2018-06-10T09:59:02.000Z</time>
      </trkpt>
      <trkpt lat="46.34788" lon="5.88059">
        <ele>1008</ele>
        <time>2018-06-10T09:59:05.000Z</time>
      </trkpt>
      <trkpt lat="46.34796" lon="5.88057">
        <ele>1006.799987793</ele>
        <time>2018-06-10T09:59:07.000Z</time>
      </trkpt>
      <trkpt lat="46.34801" lon="5.88058">
        <ele>1006.200012207</ele>
        <time>2018-06-10T09:59:08.000Z</time>
      </trkpt>
      <trkpt lat="46.34805" lon="5.88059">
        <ele>1005.4000244141</ele>
        <time>2018-06-10T09:59:09.000Z</time>
      </trkpt>
      <trkpt lat="46.34815" lon="5.88061">
        <ele>1004.200012207</ele>
        <time>2018-06-10T09:59:11.000Z</time>
      </trkpt>
      <trkpt lat="46.34818" lon="5.88061">
        <ele>1003.5999755859</ele>
        <time>2018-06-10T09:59:12.000Z</time>
      </trkpt>
      <trkpt lat="46.34822" lon="5.8806">
        <ele>1002.799987793</ele>
        <time>2018-06-10T09:59:13.000Z</time>
      </trkpt>
      <trkpt lat="46.34828" lon="5.88056">
        <ele>1001.200012207</ele>
        <time>2018-06-10T09:59:15.000Z</time>
      </trkpt>
      <trkpt lat="46.3483" lon="5.88054">
        <ele>1000</ele>
        <time>2018-06-10T09:59:16.000Z</time>
      </trkpt>
      <trkpt lat="46.34835" lon="5.88055">
        <ele>998.59997558594</ele>
        <time>2018-06-10T09:59:17.000Z</time>
      </trkpt>
      <trkpt lat="46.34838" lon="5.88054">
        <ele>997.20001220703</ele>
        <time>2018-06-10T09:59:18.000Z</time>
      </trkpt>
      <trkpt lat="46.34843" lon="5.88053">
        <ele>996.20001220703</ele>
        <time>2018-06-10T09:59:19.000Z</time>
      </trkpt>
      <trkpt lat="46.34846" lon="5.88052">
        <ele>995</ele>
        <time>2018-06-10T09:59:20.000Z</time>
      </trkpt>
      <trkpt lat="46.34849" lon="5.88051">
        <ele>993.79998779297</ele>
        <time>2018-06-10T09:59:21.000Z</time>
      </trkpt>
      <trkpt lat="46.34853" lon="5.88051">
        <ele>992.40002441406</ele>
        <time>2018-06-10T09:59:22.000Z</time>
      </trkpt>
      <trkpt lat="46.34855" lon="5.88052">
        <ele>991.20001220703</ele>
        <time>2018-06-10T09:59:23.000Z</time>
      </trkpt>
      <trkpt lat="46.34861" lon="5.88052">
        <ele>990</ele>
        <time>2018-06-10T09:59:25.000Z</time>
      </trkpt>
      <trkpt lat="46.34867" lon="5.8805">
        <ele>989.59997558594</ele>
        <time>2018-06-10T09:59:28.000Z</time>
      </trkpt>
      <trkpt lat="46.34871" lon="5.8805">
        <ele>988.79998779297</ele>
        <time>2018-06-10T09:59:30.000Z</time>
      </trkpt>
      <trkpt lat="46.34873" lon="5.88052">
        <ele>987.20001220703</ele>
        <time>2018-06-10T09:59:32.000Z</time>
      </trkpt>
      <trkpt lat="46.34877" lon="5.88056">
        <ele>986</ele>
        <time>2018-06-10T09:59:36.000Z</time>
      </trkpt>
      <trkpt lat="46.34882" lon="5.88056">
        <ele>985.79998779297</ele>
        <time>2018-06-10T09:59:38.000Z</time>
      </trkpt>
      <trkpt lat="46.34888" lon="5.88056">
        <ele>985</ele>
        <time>2018-06-10T09:59:41.000Z</time>
      </trkpt>
      <trkpt lat="46.34894" lon="5.88052">
        <ele>983.59997558594</ele>
        <time>2018-06-10T09:59:43.000Z</time>
      </trkpt>
      <trkpt lat="46.34899" lon="5.88048">
        <ele>982</ele>
        <time>2018-06-10T09:59:45.000Z</time>
      </trkpt>
      <trkpt lat="46.34901" lon="5.88046">
        <ele>980.59997558594</ele>
        <time>2018-06-10T09:59:46.000Z</time>
      </trkpt>
      <trkpt lat="46.34904" lon="5.88044">
        <ele>979</ele>
        <time>2018-06-10T09:59:47.000Z</time>
      </trkpt>
      <trkpt lat="46.34907" lon="5.88044">
        <ele>977.40002441406</ele>
        <time>2018-06-10T09:59:48.000Z</time>
      </trkpt>
      <trkpt lat="46.3491" lon="5.88044">
        <ele>976.40002441406</ele>
        <time>2018-06-10T09:59:49.000Z</time>
      </trkpt>
      <trkpt lat="46.34912" lon="5.88046">
        <ele>975.20001220703</ele>
        <time>2018-06-10T09:59:50.000Z</time>
      </trkpt>
      <trkpt lat="46.34914" lon="5.88047">
        <ele>973.59997558594</ele>
        <time>2018-06-10T09:59:51.000Z</time>
      </trkpt>
      <trkpt lat="46.34917" lon="5.88047">
        <ele>972</ele>
        <time>2018-06-10T09:59:52.000Z</time>
      </trkpt>
      <trkpt lat="46.3492" lon="5.88047">
        <ele>970.59997558594</ele>
        <time>2018-06-10T09:59:53.000Z</time>
      </trkpt>
      <trkpt lat="46.34923" lon="5.88045">
        <ele>969.59997558594</ele>
        <time>2018-06-10T09:59:54.000Z</time>
      </trkpt>
      <trkpt lat="46.34928" lon="5.88045">
        <ele>967.79998779297</ele>
        <time>2018-06-10T09:59:56.000Z</time>
      </trkpt>
      <trkpt lat="46.34931" lon="5.88046">
        <ele>967.40002441406</ele>
        <time>2018-06-10T09:59:57.000Z</time>
      </trkpt>
      <trkpt lat="46.34934" lon="5.88044">
        <ele>966.40002441406</ele>
        <time>2018-06-10T09:59:59.000Z</time>
      </trkpt>
      <trkpt lat="46.34936" lon="5.88045">
        <ele>965.20001220703</ele>
        <time>2018-06-10T10:00:01.000Z</time>
      </trkpt>
      <trkpt lat="46.3494" lon="5.88048">
        <ele>963.40002441406</ele>
        <time>2018-06-10T10:00:03.000Z</time>
      </trkpt>
      <trkpt lat="46.34942" lon="5.88051">
        <ele>962.59997558594</ele>
        <time>2018-06-10T10:00:05.000Z</time>
      </trkpt>
      <trkpt lat="46.34947" lon="5.88055">
        <ele>962.40002441406</ele>
        <time>2018-06-10T10:00:08.000Z</time>
      </trkpt>
      <trkpt lat="46.34953" lon="5.88053">
        <ele>961.40002441406</ele>
        <time>2018-06-10T10:00:11.000Z</time>
      </trkpt>
      <trkpt lat="46.34956" lon="5.88054">
        <ele>960.20001220703</ele>
        <time>2018-06-10T10:00:12.000Z</time>
      </trkpt>
      <trkpt lat="46.3496" lon="5.88055">
        <ele>958.79998779297</ele>
        <time>2018-06-10T10:00:13.000Z</time>
      </trkpt>
      <trkpt lat="46.34964" lon="5.88055">
        <ele>957.79998779297</ele>
        <time>2018-06-10T10:00:14.000Z</time>
      </trkpt>
      <trkpt lat="46.34971" lon="5.88054">
        <ele>956</ele>
        <time>2018-06-10T10:00:16.000Z</time>
      </trkpt>
      <trkpt lat="46.34978" lon="5.88053">
        <ele>954.40002441406</ele>
        <time>2018-06-10T10:00:18.000Z</time>
      </trkpt>
      <trkpt lat="46.34982" lon="5.88053">
        <ele>952.79998779297</ele>
        <time>2018-06-10T10:00:20.000Z</time>
      </trkpt>
      <trkpt lat="46.34983" lon="5.88053">
        <ele>951.79998779297</ele>
        <time>2018-06-10T10:00:21.000Z</time>
      </trkpt>
      <trkpt lat="46.34984" lon="5.88053">
        <ele>950.79998779297</ele>
        <time>2018-06-10T10:00:22.000Z</time>
      </trkpt>
      <trkpt lat="46.34987" lon="5.88055">
        <ele>949.59997558594</ele>
        <time>2018-06-10T10:00:24.000Z</time>
      </trkpt>
      <trkpt lat="46.34989" lon="5.88056">
        <ele>948.79998779297</ele>
        <time>2018-06-10T10:00:26.000Z</time>
      </trkpt>
      <trkpt lat="46.34991" lon="5.88056">
        <ele>948.40002441406</ele>
        <time>2018-06-10T10:00:27.000Z</time>
      </trkpt>
      <trkpt lat="46.35002" lon="5.88062">
        <ele>947.59997558594</ele>
        <time>2018-06-10T10:00:35.000Z</time>
      </trkpt>
      <trkpt lat="46.35004" lon="5.88064">
        <ele>947.40002441406</ele>
        <time>2018-06-10T10:00:36.000Z</time>
      </trkpt>
      <trkpt lat="46.35006" lon="5.88068">
        <ele>946.79998779297</ele>
        <time>2018-06-10T10:00:38.000Z</time>
      </trkpt>
      <trkpt lat="46.3501" lon="5.88072">
        <ele>946.20001220703</ele>
        <time>2018-06-10T10:00:40.000Z</time>
      </trkpt>
      <trkpt lat="46.35026" lon="5.88082">
        <ele>945.20001220703</ele>
        <time>2018-06-10T10:00:50.000Z</time>
      </trkpt>
      <trkpt lat="46.35029" lon="5.88086">
        <ele>943.79998779297</ele>
        <time>2018-06-10T10:00:52.000Z</time>
      </trkpt>
      <trkpt lat="46.35031" lon="5.88087">
        <ele>943.40002441406</ele>
        <time>2018-06-10T10:00:53.000Z</time>
      </trkpt>
      <trkpt lat="46.35035" lon="5.88087">
        <ele>942.79998779297</ele>
        <time>2018-06-10T10:00:54.000Z</time>
      </trkpt>
      <trkpt lat="46.35037" lon="5.88087">
        <ele>942.40002441406</ele>
        <time>2018-06-10T10:00:55.000Z</time>
      </trkpt>
      <trkpt lat="46.35041" lon="5.88085">
        <ele>941.59997558594</ele>
        <time>2018-06-10T10:00:57.000Z</time>
      </trkpt>
      <trkpt lat="46.35036" lon="5.88066">
        <ele>940.59997558594</ele>
        <time>2018-06-10T10:01:09.000Z</time>
      </trkpt>
      <trkpt lat="46.35037" lon="5.88064">
        <ele>940.40002441406</ele>
        <time>2018-06-10T10:01:10.000Z</time>
      </trkpt>
      <trkpt lat="46.35039" lon="5.88055">
        <ele>939</ele>
        <time>2018-06-10T10:01:13.000Z</time>
      </trkpt>
      <trkpt lat="46.3504" lon="5.88052">
        <ele>938</ele>
        <time>2018-06-10T10:01:15.000Z</time>
      </trkpt>
      <trkpt lat="46.35043" lon="5.88047">
        <ele>936.79998779297</ele>
        <time>2018-06-10T10:01:18.000Z</time>
      </trkpt>
      <trkpt lat="46.35044" lon="5.88045">
        <ele>936.40002441406</ele>
        <time>2018-06-10T10:01:19.000Z</time>
      </trkpt>
      <trkpt lat="46.35045" lon="5.88039">
        <ele>935.59997558594</ele>
        <time>2018-06-10T10:01:21.000Z</time>
      </trkpt>
      <trkpt lat="46.35045" lon="5.88034">
        <ele>934</ele>
        <time>2018-06-10T10:01:23.000Z</time>
      </trkpt>
      <trkpt lat="46.35045" lon="5.88031">
        <ele>932.59997558594</ele>
        <time>2018-06-10T10:01:25.000Z</time>
      </trkpt>
      <trkpt lat="46.35047" lon="5.88008">
        <ele>931.59997558594</ele>
        <time>2018-06-10T10:01:37.000Z</time>
      </trkpt>
      <trkpt lat="46.35053" lon="5.87997">
        <ele>930.79998779297</ele>
        <time>2018-06-10T10:01:44.000Z</time>
      </trkpt>
      <trkpt lat="46.35054" lon="5.87996">
        <ele>930.40002441406</ele>
        <time>2018-06-10T10:01:45.000Z</time>
      </trkpt>
      <trkpt lat="46.35055" lon="5.87994">
        <ele>929</ele>
        <time>2018-06-10T10:01:48.000Z</time>
      </trkpt>
      <trkpt lat="46.35057" lon="5.87996">
        <ele>927.79998779297</ele>
        <time>2018-06-10T10:01:52.000Z</time>
      </trkpt>
      <trkpt lat="46.35059" lon="5.87994">
        <ele>926.59997558594</ele>
        <time>2018-06-10T10:01:55.000Z</time>
      </trkpt>
      <trkpt lat="46.3506" lon="5.87993">
        <ele>925.59997558594</ele>
        <time>2018-06-10T10:01:57.000Z</time>
      </trkpt>
      <trkpt lat="46.35061" lon="5.87992">
        <ele>924.40002441406</ele>
        <time>2018-06-10T10:02:00.000Z</time>
      </trkpt>
      <trkpt lat="46.3506" lon="5.87989">
        <ele>923.40002441406</ele>
        <time>2018-06-10T10:02:05.000Z</time>
      </trkpt>
      <trkpt lat="46.35063" lon="5.8798">
        <ele>922.20001220703</ele>
        <time>2018-06-10T10:02:14.000Z</time>
      </trkpt>
      <trkpt lat="46.35065" lon="5.87976">
        <ele>921.20001220703</ele>
        <time>2018-06-10T10:02:17.000Z</time>
      </trkpt>
      <trkpt lat="46.35066" lon="5.87973">
        <ele>920.40002441406</ele>
        <time>2018-06-10T10:02:19.000Z</time>
      </trkpt>
      <trkpt lat="46.35067" lon="5.8797">
        <ele>920</ele>
        <time>2018-06-10T10:02:20.000Z</time>
      </trkpt>
      <trkpt lat="46.35069" lon="5.87965">
        <ele>918.79998779297</ele>
        <time>2018-06-10T10:02:22.000Z</time>
      </trkpt>
      <trkpt lat="46.35069" lon="5.87959">
        <ele>917.79998779297</ele>
        <time>2018-06-10T10:02:24.000Z</time>
      </trkpt>
      <trkpt lat="46.3507" lon="5.87951">
        <ele>916.59997558594</ele>
        <time>2018-06-10T10:02:26.000Z</time>
      </trkpt>
      <trkpt lat="46.35073" lon="5.87945">
        <ele>915.40002441406</ele>
        <time>2018-06-10T10:02:29.000Z</time>
      </trkpt>
      <trkpt lat="46.35078" lon="5.8794">
        <ele>914.79998779297</ele>
        <time>2018-06-10T10:02:37.000Z</time>
      </trkpt>
      <trkpt lat="46.35079" lon="5.87933">
        <ele>914.20001220703</ele>
        <time>2018-06-10T10:02:42.000Z</time>
      </trkpt>
      <trkpt lat="46.3509" lon="5.87919">
        <ele>913.20001220703</ele>
        <time>2018-06-10T10:02:57.000Z</time>
      </trkpt>
      <trkpt lat="46.35091" lon="5.87914">
        <ele>912.79998779297</ele>
        <time>2018-06-10T10:02:59.000Z</time>
      </trkpt>
      <trkpt lat="46.35093" lon="5.87907">
        <ele>911.40002441406</ele>
        <time>2018-06-10T10:03:01.000Z</time>
      </trkpt>
      <trkpt lat="46.35094" lon="5.87902">
        <ele>910.40002441406</ele>
        <time>2018-06-10T10:03:03.000Z</time>
      </trkpt>
      <trkpt lat="46.35095" lon="5.87896">
        <ele>908.20001220703</ele>
        <time>2018-06-10T10:03:05.000Z</time>
      </trkpt>
      <trkpt lat="46.35094" lon="5.87893">
        <ele>906.40002441406</ele>
        <time>2018-06-10T10:03:06.000Z</time>
      </trkpt>
      <trkpt lat="46.35093" lon="5.8789">
        <ele>904.59997558594</ele>
        <time>2018-06-10T10:03:07.000Z</time>
      </trkpt>
      <trkpt lat="46.35089" lon="5.87883">
        <ele>903</ele>
        <time>2018-06-10T10:03:09.000Z</time>
      </trkpt>
      <trkpt lat="46.35086" lon="5.87875">
        <ele>901.79998779297</ele>
        <time>2018-06-10T10:03:11.000Z</time>
      </trkpt>
      <trkpt lat="46.35081" lon="5.87868">
        <ele>900.20001220703</ele>
        <time>2018-06-10T10:03:13.000Z</time>
      </trkpt>
      <trkpt lat="46.35079" lon="5.87863">
        <ele>898.79998779297</ele>
        <time>2018-06-10T10:03:14.000Z</time>
      </trkpt>
      <trkpt lat="46.35078" lon="5.87859">
        <ele>897.20001220703</ele>
        <time>2018-06-10T10:03:15.000Z</time>
      </trkpt>
      <trkpt lat="46.35081" lon="5.87855">
        <ele>895.20001220703</ele>
        <time>2018-06-10T10:03:16.000Z</time>
      </trkpt>
      <trkpt lat="46.35084" lon="5.87845">
        <ele>894.20001220703</ele>
        <time>2018-06-10T10:03:17.000Z</time>
      </trkpt>
      <trkpt lat="46.35087" lon="5.87839">
        <ele>892.79998779297</ele>
        <time>2018-06-10T10:03:18.000Z</time>
      </trkpt>
      <trkpt lat="46.35093" lon="5.87832">
        <ele>891.40002441406</ele>
        <time>2018-06-10T10:03:20.000Z</time>
      </trkpt>
      <trkpt lat="46.351" lon="5.87814">
        <ele>892</ele>
        <time>2018-06-10T10:03:25.000Z</time>
      </trkpt>
      <trkpt lat="46.35105" lon="5.8781">
        <ele>892.79998779297</ele>
        <time>2018-06-10T10:03:27.000Z</time>
      </trkpt>
      <trkpt lat="46.35114" lon="5.87797">
        <ele>893</ele>
        <time>2018-06-10T10:03:34.000Z</time>
      </trkpt>
      <trkpt lat="46.35123" lon="5.87796">
        <ele>891.40002441406</ele>
        <time>2018-06-10T10:03:36.000Z</time>
      </trkpt>
      <trkpt lat="46.35131" lon="5.87791">
        <ele>889.59997558594</ele>
        <time>2018-06-10T10:03:38.000Z</time>
      </trkpt>
      <trkpt lat="46.3514" lon="5.87788">
        <ele>888.40002441406</ele>
        <time>2018-06-10T10:03:40.000Z</time>
      </trkpt>
      <trkpt lat="46.35152" lon="5.87779">
        <ele>887</ele>
        <time>2018-06-10T10:03:43.000Z</time>
      </trkpt>
      <trkpt lat="46.35156" lon="5.87776">
        <ele>886.40002441406</ele>
        <time>2018-06-10T10:03:44.000Z</time>
      </trkpt>
      <trkpt lat="46.35162" lon="5.87772">
        <ele>885.59997558594</ele>
        <time>2018-06-10T10:03:45.000Z</time>
      </trkpt>
      <trkpt lat="46.35166" lon="5.87772">
        <ele>884.40002441406</ele>
        <time>2018-06-10T10:03:46.000Z</time>
      </trkpt>
      <trkpt lat="46.35171" lon="5.87771">
        <ele>883</ele>
        <time>2018-06-10T10:03:47.000Z</time>
      </trkpt>
      <trkpt lat="46.35176" lon="5.8777">
        <ele>881.59997558594</ele>
        <time>2018-06-10T10:03:48.000Z</time>
      </trkpt>
      <trkpt lat="46.35184" lon="5.87769">
        <ele>879.79998779297</ele>
        <time>2018-06-10T10:03:50.000Z</time>
      </trkpt>
      <trkpt lat="46.35188" lon="5.87769">
        <ele>879</ele>
        <time>2018-06-10T10:03:51.000Z</time>
      </trkpt>
      <trkpt lat="46.35195" lon="5.87769">
        <ele>878</ele>
        <time>2018-06-10T10:03:52.000Z</time>
      </trkpt>
      <trkpt lat="46.35209" lon="5.87772">
        <ele>876.79998779297</ele>
        <time>2018-06-10T10:03:55.000Z</time>
      </trkpt>
      <trkpt lat="46.35213" lon="5.87772">
        <ele>876.20001220703</ele>
        <time>2018-06-10T10:03:56.000Z</time>
      </trkpt>
      <trkpt lat="46.35233" lon="5.87758">
        <ele>875.59997558594</ele>
        <time>2018-06-10T10:04:02.000Z</time>
      </trkpt>
      <trkpt lat="46.35238" lon="5.87754">
        <ele>874.79998779297</ele>
        <time>2018-06-10T10:04:03.000Z</time>
      </trkpt>
      <trkpt lat="46.35244" lon="5.8775">
        <ele>873.59997558594</ele>
        <time>2018-06-10T10:04:04.000Z</time>
      </trkpt>
      <trkpt lat="46.35249" lon="5.87747">
        <ele>873</ele>
        <time>2018-06-10T10:04:05.000Z</time>
      </trkpt>
      <trkpt lat="46.35254" lon="5.87746">
        <ele>871.40002441406</ele>
        <time>2018-06-10T10:04:06.000Z</time>
      </trkpt>
      <trkpt lat="46.35259" lon="5.87745">
        <ele>869.79998779297</ele>
        <time>2018-06-10T10:04:07.000Z</time>
      </trkpt>
      <trkpt lat="46.35264" lon="5.87743">
        <ele>868.40002441406</ele>
        <time>2018-06-10T10:04:08.000Z</time>
      </trkpt>
      <trkpt lat="46.35269" lon="5.8774">
        <ele>867</ele>
        <time>2018-06-10T10:04:09.000Z</time>
      </trkpt>
      <trkpt lat="46.35274" lon="5.87737">
        <ele>865.79998779297</ele>
        <time>2018-06-10T10:04:10.000Z</time>
      </trkpt>
      <trkpt lat="46.35278" lon="5.87733">
        <ele>864.40002441406</ele>
        <time>2018-06-10T10:04:11.000Z</time>
      </trkpt>
      <trkpt lat="46.35281" lon="5.87731">
        <ele>863</ele>
        <time>2018-06-10T10:04:12.000Z</time>
      </trkpt>
      <trkpt lat="46.35286" lon="5.87729">
        <ele>862</ele>
        <time>2018-06-10T10:04:13.000Z</time>
      </trkpt>
      <trkpt lat="46.35295" lon="5.87724">
        <ele>860.20001220703</ele>
        <time>2018-06-10T10:04:15.000Z</time>
      </trkpt>
      <trkpt lat="46.35298" lon="5.8772">
        <ele>859.20001220703</ele>
        <time>2018-06-10T10:04:16.000Z</time>
      </trkpt>
      <trkpt lat="46.35301" lon="5.87716">
        <ele>857.79998779297</ele>
        <time>2018-06-10T10:04:17.000Z</time>
      </trkpt>
      <trkpt lat="46.35304" lon="5.87713">
        <ele>856.40002441406</ele>
        <time>2018-06-10T10:04:18.000Z</time>
      </trkpt>
      <trkpt lat="46.35309" lon="5.87711">
        <ele>855</ele>
        <time>2018-06-10T10:04:19.000Z</time>
      </trkpt>
      <trkpt lat="46.35313" lon="5.87707">
        <ele>853.79998779297</ele>
        <time>2018-06-10T10:04:20.000Z</time>
      </trkpt>
      <trkpt lat="46.35318" lon="5.87703">
        <ele>852.59997558594</ele>
        <time>2018-06-10T10:04:21.000Z</time>
      </trkpt>
      <trkpt lat="46.35322" lon="5.87698">
        <ele>851.59997558594</ele>
        <time>2018-06-10T10:04:22.000Z</time>
      </trkpt>
      <trkpt lat="46.35326" lon="5.87694">
        <ele>849.79998779297</ele>
        <time>2018-06-10T10:04:24.000Z</time>
      </trkpt>
      <trkpt lat="46.35331" lon="5.87694">
        <ele>848</ele>
        <time>2018-06-10T10:04:26.000Z</time>
      </trkpt>
      <trkpt lat="46.35333" lon="5.87693">
        <ele>846.79998779297</ele>
        <time>2018-06-10T10:04:27.000Z</time>
      </trkpt>
      <trkpt lat="46.35335" lon="5.87691">
        <ele>845.79998779297</ele>
        <time>2018-06-10T10:04:28.000Z</time>
      </trkpt>
      <trkpt lat="46.35335" lon="5.87691">
        <ele>844.79998779297</ele>
        <time>2018-06-10T10:04:29.000Z</time>
      </trkpt>
      <trkpt lat="46.3534" lon="5.87695">
        <ele>843</ele>
        <time>2018-06-10T10:04:31.000Z</time>
      </trkpt>
      <trkpt lat="46.35348" lon="5.87703">
        <ele>841.40002441406</ele>
        <time>2018-06-10T10:04:33.000Z</time>
      </trkpt>
      <trkpt lat="46.35352" lon="5.87708">
        <ele>840.20001220703</ele>
        <time>2018-06-10T10:04:35.000Z</time>
      </trkpt>
      <trkpt lat="46.3535" lon="5.87715">
        <ele>838.79998779297</ele>
        <time>2018-06-10T10:04:37.000Z</time>
      </trkpt>
      <trkpt lat="46.3535" lon="5.87724">
        <ele>837.59997558594</ele>
        <time>2018-06-10T10:04:39.000Z</time>
      </trkpt>
      <trkpt lat="46.35349" lon="5.87735">
        <ele>837</ele>
        <time>2018-06-10T10:04:41.000Z</time>
      </trkpt>
      <trkpt lat="46.35348" lon="5.87748">
        <ele>836.40002441406</ele>
        <time>2018-06-10T10:04:43.000Z</time>
      </trkpt>
      <trkpt lat="46.35352" lon="5.87761">
        <ele>835.40002441406</ele>
        <time>2018-06-10T10:04:45.000Z</time>
      </trkpt>
      <trkpt lat="46.3535" lon="5.87775">
        <ele>833.79998779297</ele>
        <time>2018-06-10T10:04:47.000Z</time>
      </trkpt>
      <trkpt lat="46.35344" lon="5.87791">
        <ele>831.79998779297</ele>
        <time>2018-06-10T10:04:49.000Z</time>
      </trkpt>
      <trkpt lat="46.35343" lon="5.87799">
        <ele>830.59997558594</ele>
        <time>2018-06-10T10:04:50.000Z</time>
      </trkpt>
      <trkpt lat="46.35336" lon="5.87815">
        <ele>829</ele>
        <time>2018-06-10T10:04:52.000Z</time>
      </trkpt>
      <trkpt lat="46.3533" lon="5.87832">
        <ele>828</ele>
        <time>2018-06-10T10:04:54.000Z</time>
      </trkpt>
      <trkpt lat="46.35327" lon="5.87839">
        <ele>827.59997558594</ele>
        <time>2018-06-10T10:04:55.000Z</time>
      </trkpt>
      <trkpt lat="46.35319" lon="5.87857">
        <ele>826.40002441406</ele>
        <time>2018-06-10T10:04:57.000Z</time>
      </trkpt>
      <trkpt lat="46.35316" lon="5.87866">
        <ele>825.20001220703</ele>
        <time>2018-06-10T10:04:58.000Z</time>
      </trkpt>
      <trkpt lat="46.35312" lon="5.87878">
        <ele>823.40002441406</ele>
        <time>2018-06-10T10:04:59.000Z</time>
      </trkpt>
      <trkpt lat="46.35311" lon="5.87888">
        <ele>822</ele>
        <time>2018-06-10T10:05:00.000Z</time>
      </trkpt>
      <trkpt lat="46.35307" lon="5.87902">
        <ele>821</ele>
        <time>2018-06-10T10:05:02.000Z</time>
      </trkpt>
      <trkpt lat="46.35304" lon="5.87914">
        <ele>820.20001220703</ele>
        <time>2018-06-10T10:05:03.000Z</time>
      </trkpt>
      <trkpt lat="46.35305" lon="5.87917">
        <ele>820</ele>
        <time>2018-06-10T10:05:04.000Z</time>
      </trkpt>
      <trkpt lat="46.35308" lon="5.87928">
        <ele>819</ele>
        <time>2018-06-10T10:05:06.000Z</time>
      </trkpt>
      <trkpt lat="46.35311" lon="5.8793">
        <ele>818</ele>
        <time>2018-06-10T10:05:07.000Z</time>
      </trkpt>
      <trkpt lat="46.35314" lon="5.87931">
        <ele>816.79998779297</ele>
        <time>2018-06-10T10:05:08.000Z</time>
      </trkpt>
      <trkpt lat="46.35318" lon="5.87929">
        <ele>815.79998779297</ele>
        <time>2018-06-10T10:05:09.000Z</time>
      </trkpt>
      <trkpt lat="46.35324" lon="5.87927">
        <ele>814.59997558594</ele>
        <time>2018-06-10T10:05:10.000Z</time>
      </trkpt>
      <trkpt lat="46.35331" lon="5.8792">
        <ele>812.59997558594</ele>
        <time>2018-06-10T10:05:12.000Z</time>
      </trkpt>
      <trkpt lat="46.35334" lon="5.87911">
        <ele>810.79998779297</ele>
        <time>2018-06-10T10:05:14.000Z</time>
      </trkpt>
      <trkpt lat="46.35336" lon="5.87907">
        <ele>810</ele>
        <time>2018-06-10T10:05:15.000Z</time>
      </trkpt>
      <trkpt lat="46.35337" lon="5.87903">
        <ele>809.40002441406</ele>
        <time>2018-06-10T10:05:16.000Z</time>
      </trkpt>
      <trkpt lat="46.3534" lon="5.87901">
        <ele>808.79998779297</ele>
        <time>2018-06-10T10:05:17.000Z</time>
      </trkpt>
      <trkpt lat="46.35344" lon="5.87899">
        <ele>808.20001220703</ele>
        <time>2018-06-10T10:05:18.000Z</time>
      </trkpt>
      <trkpt lat="46.35353" lon="5.87894">
        <ele>807</ele>
        <time>2018-06-10T10:05:20.000Z</time>
      </trkpt>
      <trkpt lat="46.35365" lon="5.87888">
        <ele>805</ele>
        <time>2018-06-10T10:05:22.000Z</time>
      </trkpt>
      <trkpt lat="46.35373" lon="5.87884">
        <ele>804</ele>
        <time>2018-06-10T10:05:23.000Z</time>
      </trkpt>
      <trkpt lat="46.35383" lon="5.87879">
        <ele>802.59997558594</ele>
        <time>2018-06-10T10:05:24.000Z</time>
      </trkpt>
      <trkpt lat="46.35393" lon="5.87873">
        <ele>800.79998779297</ele>
        <time>2018-06-10T10:05:25.000Z</time>
      </trkpt>
      <trkpt lat="46.35401" lon="5.87865">
        <ele>799</ele>
        <time>2018-06-10T10:05:26.000Z</time>
      </trkpt>
      <trkpt lat="46.3541" lon="5.87857">
        <ele>797.59997558594</ele>
        <time>2018-06-10T10:05:27.000Z</time>
      </trkpt>
      <trkpt lat="46.35419" lon="5.87849">
        <ele>796.20001220703</ele>
        <time>2018-06-10T10:05:28.000Z</time>
      </trkpt>
      <trkpt lat="46.35428" lon="5.87843">
        <ele>794.79998779297</ele>
        <time>2018-06-10T10:05:29.000Z</time>
      </trkpt>
      <trkpt lat="46.35435" lon="5.87836">
        <ele>793.40002441406</ele>
        <time>2018-06-10T10:05:30.000Z</time>
      </trkpt>
      <trkpt lat="46.35444" lon="5.87829">
        <ele>792</ele>
        <time>2018-06-10T10:05:31.000Z</time>
      </trkpt>
      <trkpt lat="46.35451" lon="5.87822">
        <ele>790.79998779297</ele>
        <time>2018-06-10T10:05:32.000Z</time>
      </trkpt>
      <trkpt lat="46.35457" lon="5.87813">
        <ele>789.40002441406</ele>
        <time>2018-06-10T10:05:33.000Z</time>
      </trkpt>
      <trkpt lat="46.35461" lon="5.87806">
        <ele>788</ele>
        <time>2018-06-10T10:05:34.000Z</time>
      </trkpt>
      <trkpt lat="46.35464" lon="5.87798">
        <ele>786.59997558594</ele>
        <time>2018-06-10T10:05:35.000Z</time>
      </trkpt>
      <trkpt lat="46.35468" lon="5.87791">
        <ele>785.20001220703</ele>
        <time>2018-06-10T10:05:36.000Z</time>
      </trkpt>
      <trkpt lat="46.35472" lon="5.87783">
        <ele>783.79998779297</ele>
        <time>2018-06-10T10:05:37.000Z</time>
      </trkpt>
      <trkpt lat="46.35477" lon="5.87776">
        <ele>782.59997558594</ele>
        <time>2018-06-10T10:05:38.000Z</time>
      </trkpt>
      <trkpt lat="46.35493" lon="5.87749">
        <ele>781</ele>
        <time>2018-06-10T10:05:41.000Z</time>
      </trkpt>
      <trkpt lat="46.35504" lon="5.87728">
        <ele>779</ele>
        <time>2018-06-10T10:05:43.000Z</time>
      </trkpt>
      <trkpt lat="46.35509" lon="5.87717">
        <ele>777.40002441406</ele>
        <time>2018-06-10T10:05:44.000Z</time>
      </trkpt>
      <trkpt lat="46.35515" lon="5.87706">
        <ele>775.79998779297</ele>
        <time>2018-06-10T10:05:45.000Z</time>
      </trkpt>
      <trkpt lat="46.3552" lon="5.87694">
        <ele>774.20001220703</ele>
        <time>2018-06-10T10:05:46.000Z</time>
      </trkpt>
      <trkpt lat="46.35524" lon="5.87684">
        <ele>772.79998779297</ele>
        <time>2018-06-10T10:05:47.000Z</time>
      </trkpt>
      <trkpt lat="46.35527" lon="5.87676">
        <ele>771.59997558594</ele>
        <time>2018-06-10T10:05:48.000Z</time>
      </trkpt>
      <trkpt lat="46.35529" lon="5.87659">
        <ele>770.40002441406</ele>
        <time>2018-06-10T10:05:50.000Z</time>
      </trkpt>
      <trkpt lat="46.3552" lon="5.87629">
        <ele>769.20001220703</ele>
        <time>2018-06-10T10:05:53.000Z</time>
      </trkpt>
      <trkpt lat="46.35513" lon="5.8761">
        <ele>767.40002441406</ele>
        <time>2018-06-10T10:05:55.000Z</time>
      </trkpt>
      <trkpt lat="46.35511" lon="5.876">
        <ele>766.59997558594</ele>
        <time>2018-06-10T10:05:56.000Z</time>
      </trkpt>
      <trkpt lat="46.35509" lon="5.87589">
        <ele>766</ele>
        <time>2018-06-10T10:05:57.000Z</time>
      </trkpt>
      <trkpt lat="46.35506" lon="5.87569">
        <ele>765.40002441406</ele>
        <time>2018-06-10T10:05:59.000Z</time>
      </trkpt>
      <trkpt lat="46.35506" lon="5.87561">
        <ele>765</ele>
        <time>2018-06-10T10:06:00.000Z</time>
      </trkpt>
      <trkpt lat="46.35508" lon="5.87553">
        <ele>764</ele>
        <time>2018-06-10T10:06:02.000Z</time>
      </trkpt>
      <trkpt lat="46.35513" lon="5.87546">
        <ele>762.79998779297</ele>
        <time>2018-06-10T10:06:04.000Z</time>
      </trkpt>
      <trkpt lat="46.3552" lon="5.87539">
        <ele>762.20001220703</ele>
        <time>2018-06-10T10:06:06.000Z</time>
      </trkpt>
      <trkpt lat="46.35525" lon="5.87536">
        <ele>761.59997558594</ele>
        <time>2018-06-10T10:06:07.000Z</time>
      </trkpt>
      <trkpt lat="46.35537" lon="5.87528">
        <ele>760.59997558594</ele>
        <time>2018-06-10T10:06:09.000Z</time>
      </trkpt>
      <trkpt lat="46.35557" lon="5.87516">
        <ele>759.40002441406</ele>
        <time>2018-06-10T10:06:12.000Z</time>
      </trkpt>
      <trkpt lat="46.35577" lon="5.87496">
        <ele>758.20001220703</ele>
        <time>2018-06-10T10:06:16.000Z</time>
      </trkpt>
      <trkpt lat="46.35592" lon="5.87481">
        <ele>756.79998779297</ele>
        <time>2018-06-10T10:06:19.000Z</time>
      </trkpt>
      <trkpt lat="46.35607" lon="5.87464">
        <ele>755.20001220703</ele>
        <time>2018-06-10T10:06:22.000Z</time>
      </trkpt>
      <trkpt lat="46.3562" lon="5.87451">
        <ele>754.20001220703</ele>
        <time>2018-06-10T10:06:24.000Z</time>
      </trkpt>
      <trkpt lat="46.35628" lon="5.87437">
        <ele>753.59997558594</ele>
        <time>2018-06-10T10:06:26.000Z</time>
      </trkpt>
      <trkpt lat="46.35645" lon="5.87403">
        <ele>753.79998779297</ele>
        <time>2018-06-10T10:06:33.000Z</time>
      </trkpt>
      <trkpt lat="46.35659" lon="5.87392">
        <ele>752.79998779297</ele>
        <time>2018-06-10T10:06:35.000Z</time>
      </trkpt>
      <trkpt lat="46.35668" lon="5.87384">
        <ele>751.20001220703</ele>
        <time>2018-06-10T10:06:37.000Z</time>
      </trkpt>
      <trkpt lat="46.35677" lon="5.87382">
        <ele>751</ele>
        <time>2018-06-10T10:06:38.000Z</time>
      </trkpt>
      <trkpt lat="46.35683" lon="5.87381">
        <ele>750.20001220703</ele>
        <time>2018-06-10T10:06:40.000Z</time>
      </trkpt>
      <trkpt lat="46.35696" lon="5.87383">
        <ele>748.79998779297</ele>
        <time>2018-06-10T10:06:44.000Z</time>
      </trkpt>
      <trkpt lat="46.35709" lon="5.87383">
        <ele>747.59997558594</ele>
        <time>2018-06-10T10:06:46.000Z</time>
      </trkpt>
      <trkpt lat="46.35718" lon="5.87383">
        <ele>746.20001220703</ele>
        <time>2018-06-10T10:06:48.000Z</time>
      </trkpt>
      <trkpt lat="46.35723" lon="5.87385">
        <ele>744.79998779297</ele>
        <time>2018-06-10T10:06:49.000Z</time>
      </trkpt>
      <trkpt lat="46.35729" lon="5.87386">
        <ele>743</ele>
        <time>2018-06-10T10:06:50.000Z</time>
      </trkpt>
      <trkpt lat="46.35734" lon="5.87388">
        <ele>741.79998779297</ele>
        <time>2018-06-10T10:06:51.000Z</time>
      </trkpt>
      <trkpt lat="46.35737" lon="5.8739">
        <ele>740.40002441406</ele>
        <time>2018-06-10T10:06:52.000Z</time>
      </trkpt>
      <trkpt lat="46.35741" lon="5.87392">
        <ele>739.40002441406</ele>
        <time>2018-06-10T10:06:53.000Z</time>
      </trkpt>
      <trkpt lat="46.35746" lon="5.87398">
        <ele>737.59997558594</ele>
        <time>2018-06-10T10:06:55.000Z</time>
      </trkpt>
      <trkpt lat="46.35749" lon="5.874">
        <ele>736.59997558594</ele>
        <time>2018-06-10T10:06:56.000Z</time>
      </trkpt>
      <trkpt lat="46.35754" lon="5.87402">
        <ele>735.40002441406</ele>
        <time>2018-06-10T10:06:57.000Z</time>
      </trkpt>
      <trkpt lat="46.35755" lon="5.87407">
        <ele>734</ele>
        <time>2018-06-10T10:06:59.000Z</time>
      </trkpt>
      <trkpt lat="46.35756" lon="5.87412">
        <ele>732.59997558594</ele>
        <time>2018-06-10T10:07:01.000Z</time>
      </trkpt>
      <trkpt lat="46.35756" lon="5.87416">
        <ele>731.40002441406</ele>
        <time>2018-06-10T10:07:02.000Z</time>
      </trkpt>
      <trkpt lat="46.35756" lon="5.8742">
        <ele>729.40002441406</ele>
        <time>2018-06-10T10:07:04.000Z</time>
      </trkpt>
      <trkpt lat="46.35754" lon="5.87424">
        <ele>727.40002441406</ele>
        <time>2018-06-10T10:07:06.000Z</time>
      </trkpt>
      <trkpt lat="46.35752" lon="5.8743">
        <ele>725.79998779297</ele>
        <time>2018-06-10T10:07:08.000Z</time>
      </trkpt>
      <trkpt lat="46.35754" lon="5.87439">
        <ele>724</ele>
        <time>2018-06-10T10:07:10.000Z</time>
      </trkpt>
      <trkpt lat="46.35755" lon="5.87443">
        <ele>723</ele>
        <time>2018-06-10T10:07:11.000Z</time>
      </trkpt>
      <trkpt lat="46.35758" lon="5.87446">
        <ele>721.79998779297</ele>
        <time>2018-06-10T10:07:12.000Z</time>
      </trkpt>
      <trkpt lat="46.3576" lon="5.87448">
        <ele>720.79998779297</ele>
        <time>2018-06-10T10:07:13.000Z</time>
      </trkpt>
      <trkpt lat="46.35764" lon="5.87451">
        <ele>719.59997558594</ele>
        <time>2018-06-10T10:07:15.000Z</time>
      </trkpt>
      <trkpt lat="46.35765" lon="5.8746">
        <ele>718.20001220703</ele>
        <time>2018-06-10T10:07:18.000Z</time>
      </trkpt>
      <trkpt lat="46.35764" lon="5.87464">
        <ele>717.20001220703</ele>
        <time>2018-06-10T10:07:19.000Z</time>
      </trkpt>
      <trkpt lat="46.35764" lon="5.87468">
        <ele>715.79998779297</ele>
        <time>2018-06-10T10:07:20.000Z</time>
      </trkpt>
      <trkpt lat="46.35767" lon="5.8747">
        <ele>714.59997558594</ele>
        <time>2018-06-10T10:07:21.000Z</time>
      </trkpt>
      <trkpt lat="46.35769" lon="5.87472">
        <ele>713.40002441406</ele>
        <time>2018-06-10T10:07:22.000Z</time>
      </trkpt>
      <trkpt lat="46.35771" lon="5.87473">
        <ele>712.20001220703</ele>
        <time>2018-06-10T10:07:23.000Z</time>
      </trkpt>
      <trkpt lat="46.35772" lon="5.87474">
        <ele>711</ele>
        <time>2018-06-10T10:07:24.000Z</time>
      </trkpt>
      <trkpt lat="46.35774" lon="5.87476">
        <ele>709.59997558594</ele>
        <time>2018-06-10T10:07:26.000Z</time>
      </trkpt>
      <trkpt lat="46.35778" lon="5.87478">
        <ele>708.20001220703</ele>
        <time>2018-06-10T10:07:31.000Z</time>
      </trkpt>
      <trkpt lat="46.35779" lon="5.87478">
        <ele>707</ele>
        <time>2018-06-10T10:07:35.000Z</time>
      </trkpt>
      <trkpt lat="46.35782" lon="5.87483">
        <ele>706</ele>
        <time>2018-06-10T10:07:41.000Z</time>
      </trkpt>
      <trkpt lat="46.35798" lon="5.87492">
        <ele>704.79998779297</ele>
        <time>2018-06-10T10:08:00.000Z</time>
      </trkpt>
      <trkpt lat="46.35812" lon="5.875">
        <ele>703.79998779297</ele>
        <time>2018-06-10T10:08:16.000Z</time>
      </trkpt>
      <trkpt lat="46.35833" lon="5.87496">
        <ele>704.79998779297</ele>
        <time>2018-06-10T10:08:36.000Z</time>
      </trkpt>
      <trkpt lat="46.35841" lon="5.87494">
        <ele>704.20001220703</ele>
        <time>2018-06-10T10:08:45.000Z</time>
      </trkpt>
      <trkpt lat="46.35844" lon="5.87492">
        <ele>703.59997558594</ele>
        <time>2018-06-10T10:08:47.000Z</time>
      </trkpt>
      <trkpt lat="46.3585" lon="5.87492">
        <ele>702.59997558594</ele>
        <time>2018-06-10T10:08:50.000Z</time>
      </trkpt>
      <trkpt lat="46.35852" lon="5.87492">
        <ele>702.20001220703</ele>
        <time>2018-06-10T10:08:51.000Z</time>
      </trkpt>
      <trkpt lat="46.35856" lon="5.87491">
        <ele>701.20001220703</ele>
        <time>2018-06-10T10:08:54.000Z</time>
      </trkpt>
      <trkpt lat="46.35861" lon="5.8749">
        <ele>700.40002441406</ele>
        <time>2018-06-10T10:08:57.000Z</time>
      </trkpt>
      <trkpt lat="46.35862" lon="5.87491">
        <ele>700</ele>
        <time>2018-06-10T10:08:58.000Z</time>
      </trkpt>
      <trkpt lat="46.35867" lon="5.87491">
        <ele>699.20001220703</ele>
        <time>2018-06-10T10:09:00.000Z</time>
      </trkpt>
      <trkpt lat="46.35869" lon="5.87491">
        <ele>698.59997558594</ele>
        <time>2018-06-10T10:09:01.000Z</time>
      </trkpt>
      <trkpt lat="46.35876" lon="5.87491">
        <ele>697.20001220703</ele>
        <time>2018-06-10T10:09:03.000Z</time>
      </trkpt>
      <trkpt lat="46.35882" lon="5.87494">
        <ele>695.59997558594</ele>
        <time>2018-06-10T10:09:05.000Z</time>
      </trkpt>
      <trkpt lat="46.35886" lon="5.87499">
        <ele>694.59997558594</ele>
        <time>2018-06-10T10:09:06.000Z</time>
      </trkpt>
      <trkpt lat="46.35889" lon="5.87503">
        <ele>693.79998779297</ele>
        <time>2018-06-10T10:09:07.000Z</time>
      </trkpt>
      <trkpt lat="46.35892" lon="5.87513">
        <ele>692.59997558594</ele>
        <time>2018-06-10T10:09:09.000Z</time>
      </trkpt>
      <trkpt lat="46.35894" lon="5.87517">
        <ele>691.59997558594</ele>
        <time>2018-06-10T10:09:10.000Z</time>
      </trkpt>
      <trkpt lat="46.35896" lon="5.87519">
        <ele>690.20001220703</ele>
        <time>2018-06-10T10:09:11.000Z</time>
      </trkpt>
      <trkpt lat="46.35898" lon="5.87521">
        <ele>688.79998779297</ele>
        <time>2018-06-10T10:09:12.000Z</time>
      </trkpt>
      <trkpt lat="46.359" lon="5.87523">
        <ele>687.40002441406</ele>
        <time>2018-06-10T10:09:14.000Z</time>
      </trkpt>
      <trkpt lat="46.359" lon="5.87524">
        <ele>685.59997558594</ele>
        <time>2018-06-10T10:09:17.000Z</time>
      </trkpt>
      <trkpt lat="46.35901" lon="5.87525">
        <ele>683.79998779297</ele>
        <time>2018-06-10T10:09:19.000Z</time>
      </trkpt>
      <trkpt lat="46.35901" lon="5.87533">
        <ele>682.59997558594</ele>
        <time>2018-06-10T10:09:21.000Z</time>
      </trkpt>
      <trkpt lat="46.35901" lon="5.87536">
        <ele>681.20001220703</ele>
        <time>2018-06-10T10:09:24.000Z</time>
      </trkpt>
      <trkpt lat="46.35898" lon="5.87535">
        <ele>680.20001220703</ele>
        <time>2018-06-10T10:09:29.000Z</time>
      </trkpt>
      <trkpt lat="46.35891" lon="5.8753">
        <ele>680.40002441406</ele>
        <time>2018-06-10T10:09:38.000Z</time>
      </trkpt>
      <trkpt lat="46.35884" lon="5.87525">
        <ele>681.20001220703</ele>
        <time>2018-06-10T10:09:47.000Z</time>
      </trkpt>
      <trkpt lat="46.35882" lon="5.87525">
        <ele>681</ele>
        <time>2018-06-10T10:09:56.000Z</time>
      </trkpt>
      <trkpt lat="46.35881" lon="5.87529">
        <ele>680.20001220703</ele>
        <time>2018-06-10T10:10:00.000Z</time>
      </trkpt>
      <trkpt lat="46.35885" lon="5.87539">
        <ele>679</ele>
        <time>2018-06-10T10:10:23.000Z</time>
      </trkpt>
      <trkpt lat="46.35887" lon="5.87547">
        <ele>677.59997558594</ele>
        <time>2018-06-10T10:10:27.000Z</time>
      </trkpt>
      <trkpt lat="46.3589" lon="5.8755">
        <ele>676.20001220703</ele>
        <time>2018-06-10T10:10:30.000Z</time>
      </trkpt>
      <trkpt lat="46.35887" lon="5.87556">
        <ele>675</ele>
        <time>2018-06-10T10:10:36.000Z</time>
      </trkpt>
      <trkpt lat="46.35886" lon="5.87556">
        <ele>674</ele>
        <time>2018-06-10T10:10:40.000Z</time>
      </trkpt>
      <trkpt lat="46.35887" lon="5.8756">
        <ele>672.79998779297</ele>
        <time>2018-06-10T10:10:46.000Z</time>
      </trkpt>
      <trkpt lat="46.35888" lon="5.87564">
        <ele>671.59997558594</ele>
        <time>2018-06-10T10:10:52.000Z</time>
      </trkpt>
      <trkpt lat="46.35888" lon="5.87572">
        <ele>670.40002441406</ele>
        <time>2018-06-10T10:10:55.000Z</time>
      </trkpt>
      <trkpt lat="46.35887" lon="5.87579">
        <ele>669</ele>
        <time>2018-06-10T10:10:57.000Z</time>
      </trkpt>
      <trkpt lat="46.35888" lon="5.87588">
        <ele>667.20001220703</ele>
        <time>2018-06-10T10:10:59.000Z</time>
      </trkpt>
      <trkpt lat="46.35889" lon="5.87594">
        <ele>665.59997558594</ele>
        <time>2018-06-10T10:11:01.000Z</time>
      </trkpt>
      <trkpt lat="46.3589" lon="5.876">
        <ele>665</ele>
        <time>2018-06-10T10:11:03.000Z</time>
      </trkpt>
      <trkpt lat="46.35894" lon="5.8761">
        <ele>664.59997558594</ele>
        <time>2018-06-10T10:11:09.000Z</time>
      </trkpt>
      <trkpt lat="46.35897" lon="5.87615">
        <ele>664</ele>
        <time>2018-06-10T10:11:11.000Z</time>
      </trkpt>
      <trkpt lat="46.35897" lon="5.87619">
        <ele>663.20001220703</ele>
        <time>2018-06-10T10:11:12.000Z</time>
      </trkpt>
      <trkpt lat="46.35899" lon="5.87624">
        <ele>661.79998779297</ele>
        <time>2018-06-10T10:11:14.000Z</time>
      </trkpt>
      <trkpt lat="46.359" lon="5.87631">
        <ele>660.59997558594</ele>
        <time>2018-06-10T10:11:16.000Z</time>
      </trkpt>
      <trkpt lat="46.35901" lon="5.87641">
        <ele>659.20001220703</ele>
        <time>2018-06-10T10:11:18.000Z</time>
      </trkpt>
      <trkpt lat="46.35902" lon="5.87651">
        <ele>657.40002441406</ele>
        <time>2018-06-10T10:11:20.000Z</time>
      </trkpt>
      <trkpt lat="46.35906" lon="5.87662">
        <ele>656</ele>
        <time>2018-06-10T10:11:23.000Z</time>
      </trkpt>
      <trkpt lat="46.35907" lon="5.87667">
        <ele>654.79998779297</ele>
        <time>2018-06-10T10:11:25.000Z</time>
      </trkpt>
      <trkpt lat="46.3591" lon="5.87671">
        <ele>653.59997558594</ele>
        <time>2018-06-10T10:11:27.000Z</time>
      </trkpt>
      <trkpt lat="46.35915" lon="5.87677">
        <ele>652</ele>
        <time>2018-06-10T10:11:30.000Z</time>
      </trkpt>
      <trkpt lat="46.35919" lon="5.87679">
        <ele>650</ele>
        <time>2018-06-10T10:11:32.000Z</time>
      </trkpt>
      <trkpt lat="46.3592" lon="5.87681">
        <ele>649</ele>
        <time>2018-06-10T10:11:33.000Z</time>
      </trkpt>
      <trkpt lat="46.35921" lon="5.87684">
        <ele>648.40002441406</ele>
        <time>2018-06-10T10:11:34.000Z</time>
      </trkpt>
      <trkpt lat="46.35925" lon="5.87693">
        <ele>646.40002441406</ele>
        <time>2018-06-10T10:11:36.000Z</time>
      </trkpt>
      <trkpt lat="46.35929" lon="5.87697">
        <ele>645.20001220703</ele>
        <time>2018-06-10T10:11:37.000Z</time>
      </trkpt>
      <trkpt lat="46.35931" lon="5.87702">
        <ele>644.20001220703</ele>
        <time>2018-06-10T10:11:38.000Z</time>
      </trkpt>
      <trkpt lat="46.35931" lon="5.87707">
        <ele>643.20001220703</ele>
        <time>2018-06-10T10:11:39.000Z</time>
      </trkpt>
      <trkpt lat="46.35933" lon="5.87714">
        <ele>641.20001220703</ele>
        <time>2018-06-10T10:11:41.000Z</time>
      </trkpt>
      <trkpt lat="46.35934" lon="5.87717">
        <ele>639.59997558594</ele>
        <time>2018-06-10T10:11:43.000Z</time>
      </trkpt>
      <trkpt lat="46.35937" lon="5.87722">
        <ele>638.20001220703</ele>
        <time>2018-06-10T10:11:45.000Z</time>
      </trkpt>
      <trkpt lat="46.35939" lon="5.87724">
        <ele>637.59997558594</ele>
        <time>2018-06-10T10:11:46.000Z</time>
      </trkpt>
      <trkpt lat="46.35944" lon="5.87727">
        <ele>637</ele>
        <time>2018-06-10T10:11:48.000Z</time>
      </trkpt>
      <trkpt lat="46.35947" lon="5.87729">
        <ele>636.40002441406</ele>
        <time>2018-06-10T10:11:49.000Z</time>
      </trkpt>
      <trkpt lat="46.35951" lon="5.87731">
        <ele>635.59997558594</ele>
        <time>2018-06-10T10:11:50.000Z</time>
      </trkpt>
      <trkpt lat="46.35951" lon="5.87733">
        <ele>634.79998779297</ele>
        <time>2018-06-10T10:11:51.000Z</time>
      </trkpt>
      <trkpt lat="46.35954" lon="5.87734">
        <ele>634</ele>
        <time>2018-06-10T10:11:52.000Z</time>
      </trkpt>
      <trkpt lat="46.35958" lon="5.87738">
        <ele>632.40002441406</ele>
        <time>2018-06-10T10:11:54.000Z</time>
      </trkpt>
      <trkpt lat="46.35959" lon="5.87741">
        <ele>631.40002441406</ele>
        <time>2018-06-10T10:11:56.000Z</time>
      </trkpt>
      <trkpt lat="46.3596" lon="5.87744">
        <ele>630</ele>
        <time>2018-06-10T10:11:58.000Z</time>
      </trkpt>
      <trkpt lat="46.3596" lon="5.87751">
        <ele>628.59997558594</ele>
        <time>2018-06-10T10:12:01.000Z</time>
      </trkpt>
      <trkpt lat="46.35958" lon="5.87756">
        <ele>628.20001220703</ele>
        <time>2018-06-10T10:12:02.000Z</time>
      </trkpt>
      <trkpt lat="46.35955" lon="5.87761">
        <ele>627.20001220703</ele>
        <time>2018-06-10T10:12:04.000Z</time>
      </trkpt>
      <trkpt lat="46.35954" lon="5.87766">
        <ele>626</ele>
        <time>2018-06-10T10:12:07.000Z</time>
      </trkpt>
      <trkpt lat="46.35954" lon="5.87772">
        <ele>625</ele>
        <time>2018-06-10T10:12:12.000Z</time>
      </trkpt>
      <trkpt lat="46.35955" lon="5.87774">
        <ele>624.40002441406</ele>
        <time>2018-06-10T10:12:14.000Z</time>
      </trkpt>
      <trkpt lat="46.35957" lon="5.87776">
        <ele>624</ele>
        <time>2018-06-10T10:12:16.000Z</time>
      </trkpt>
      <trkpt lat="46.35958" lon="5.87777">
        <ele>623.59997558594</ele>
        <time>2018-06-10T10:12:17.000Z</time>
      </trkpt>
      <trkpt lat="46.35959" lon="5.87779">
        <ele>622.40002441406</ele>
        <time>2018-06-10T10:12:19.000Z</time>
      </trkpt>
      <trkpt lat="46.3596" lon="5.87782">
        <ele>621.20001220703</ele>
        <time>2018-06-10T10:12:21.000Z</time>
      </trkpt>
      <trkpt lat="46.35963" lon="5.87785">
        <ele>620.59997558594</ele>
        <time>2018-06-10T10:12:23.000Z</time>
      </trkpt>
      <trkpt lat="46.35963" lon="5.87789">
        <ele>619.79998779297</ele>
        <time>2018-06-10T10:12:25.000Z</time>
      </trkpt>
      <trkpt lat="46.35961" lon="5.87793">
        <ele>618.79998779297</ele>
        <time>2018-06-10T10:12:27.000Z</time>
      </trkpt>
      <trkpt lat="46.35956" lon="5.878">
        <ele>617</ele>
        <time>2018-06-10T10:12:29.000Z</time>
      </trkpt>
      <trkpt lat="46.35952" lon="5.87804">
        <ele>615</ele>
        <time>2018-06-10T10:12:31.000Z</time>
      </trkpt>
      <trkpt lat="46.35951" lon="5.87806">
        <ele>614.59997558594</ele>
        <time>2018-06-10T10:12:32.000Z</time>
      </trkpt>
      <trkpt lat="46.35949" lon="5.87811">
        <ele>613.79998779297</ele>
        <time>2018-06-10T10:12:34.000Z</time>
      </trkpt>
      <trkpt lat="46.35952" lon="5.87815">
        <ele>612.40002441406</ele>
        <time>2018-06-10T10:12:36.000Z</time>
      </trkpt>
      <trkpt lat="46.35952" lon="5.87818">
        <ele>610.40002441406</ele>
        <time>2018-06-10T10:12:38.000Z</time>
      </trkpt>
      <trkpt lat="46.3595" lon="5.8782">
        <ele>609</ele>
        <time>2018-06-10T10:12:39.000Z</time>
      </trkpt>
      <trkpt lat="46.35949" lon="5.87821">
        <ele>608</ele>
        <time>2018-06-10T10:12:40.000Z</time>
      </trkpt>
      <trkpt lat="46.35947" lon="5.87823">
        <ele>606.40002441406</ele>
        <time>2018-06-10T10:12:42.000Z</time>
      </trkpt>
      <trkpt lat="46.35945" lon="5.87821">
        <ele>605</ele>
        <time>2018-06-10T10:12:44.000Z</time>
      </trkpt>
      <trkpt lat="46.35944" lon="5.87823">
        <ele>604.40002441406</ele>
        <time>2018-06-10T10:12:45.000Z</time>
      </trkpt>
      <trkpt lat="46.35942" lon="5.87827">
        <ele>604</ele>
        <time>2018-06-10T10:12:46.000Z</time>
      </trkpt>
      <trkpt lat="46.35943" lon="5.8783">
        <ele>603.59997558594</ele>
        <time>2018-06-10T10:12:47.000Z</time>
      </trkpt>
      <trkpt lat="46.35945" lon="5.87836">
        <ele>602.20001220703</ele>
        <time>2018-06-10T10:12:49.000Z</time>
      </trkpt>
      <trkpt lat="46.35945" lon="5.8784">
        <ele>601.20001220703</ele>
        <time>2018-06-10T10:12:50.000Z</time>
      </trkpt>
      <trkpt lat="46.35946" lon="5.87845">
        <ele>600.40002441406</ele>
        <time>2018-06-10T10:12:51.000Z</time>
      </trkpt>
      <trkpt lat="46.35946" lon="5.87847">
        <ele>599.59997558594</ele>
        <time>2018-06-10T10:12:52.000Z</time>
      </trkpt>
      <trkpt lat="46.35946" lon="5.87851">
        <ele>598.79998779297</ele>
        <time>2018-06-10T10:12:53.000Z</time>
      </trkpt>
      <trkpt lat="46.35946" lon="5.87852">
        <ele>597.79998779297</ele>
        <time>2018-06-10T10:12:54.000Z</time>
      </trkpt>
      <trkpt lat="46.35945" lon="5.87855">
        <ele>596.79998779297</ele>
        <time>2018-06-10T10:12:55.000Z</time>
      </trkpt>
      <trkpt lat="46.35944" lon="5.87859">
        <ele>595.20001220703</ele>
        <time>2018-06-10T10:12:57.000Z</time>
      </trkpt>
      <trkpt lat="46.35946" lon="5.87866">
        <ele>594</ele>
        <time>2018-06-10T10:13:02.000Z</time>
      </trkpt>
      <trkpt lat="46.3595" lon="5.87867">
        <ele>593</ele>
        <time>2018-06-10T10:13:04.000Z</time>
      </trkpt>
      <trkpt lat="46.35954" lon="5.87868">
        <ele>591.79998779297</ele>
        <time>2018-06-10T10:13:06.000Z</time>
      </trkpt>
      <trkpt lat="46.35957" lon="5.87871">
        <ele>590.79998779297</ele>
        <time>2018-06-10T10:13:08.000Z</time>
      </trkpt>
      <trkpt lat="46.35958" lon="5.87872">
        <ele>589</ele>
        <time>2018-06-10T10:13:10.000Z</time>
      </trkpt>
      <trkpt lat="46.35958" lon="5.87874">
        <ele>587.40002441406</ele>
        <time>2018-06-10T10:13:12.000Z</time>
      </trkpt>
      <trkpt lat="46.35958" lon="5.87877">
        <ele>587</ele>
        <time>2018-06-10T10:13:14.000Z</time>
      </trkpt>
      <trkpt lat="46.35959" lon="5.87882">
        <ele>586</ele>
        <time>2018-06-10T10:13:16.000Z</time>
      </trkpt>
      <trkpt lat="46.35959" lon="5.87884">
        <ele>585</ele>
        <time>2018-06-10T10:13:18.000Z</time>
      </trkpt>
      <trkpt lat="46.35958" lon="5.87887">
        <ele>584.40002441406</ele>
        <time>2018-06-10T10:13:19.000Z</time>
      </trkpt>
      <trkpt lat="46.35957" lon="5.87888">
        <ele>583.79998779297</ele>
        <time>2018-06-10T10:13:20.000Z</time>
      </trkpt>
      <trkpt lat="46.35957" lon="5.8789">
        <ele>582.59997558594</ele>
        <time>2018-06-10T10:13:22.000Z</time>
      </trkpt>
      <trkpt lat="46.35959" lon="5.87893">
        <ele>581.40002441406</ele>
        <time>2018-06-10T10:13:24.000Z</time>
      </trkpt>
      <trkpt lat="46.35961" lon="5.87894">
        <ele>580.40002441406</ele>
        <time>2018-06-10T10:13:26.000Z</time>
      </trkpt>
      <trkpt lat="46.35962" lon="5.87895">
        <ele>579.40002441406</ele>
        <time>2018-06-10T10:13:28.000Z</time>
      </trkpt>
      <trkpt lat="46.35964" lon="5.87893">
        <ele>578.20001220703</ele>
        <time>2018-06-10T10:13:31.000Z</time>
      </trkpt>
      <trkpt lat="46.35965" lon="5.87895">
        <ele>577.79998779297</ele>
        <time>2018-06-10T10:13:33.000Z</time>
      </trkpt>
      <trkpt lat="46.35966" lon="5.87906">
        <ele>577</ele>
        <time>2018-06-10T10:13:36.000Z</time>
      </trkpt>
      <trkpt lat="46.35967" lon="5.87909">
        <ele>576.40002441406</ele>
        <time>2018-06-10T10:13:37.000Z</time>
      </trkpt>
      <trkpt lat="46.35969" lon="5.8791">
        <ele>575.59997558594</ele>
        <time>2018-06-10T10:13:38.000Z</time>
      </trkpt>
      <trkpt lat="46.35973" lon="5.8791">
        <ele>574.20001220703</ele>
        <time>2018-06-10T10:13:40.000Z</time>
      </trkpt>
      <trkpt lat="46.35974" lon="5.87907">
        <ele>572.79998779297</ele>
        <time>2018-06-10T10:13:42.000Z</time>
      </trkpt>
      <trkpt lat="46.35974" lon="5.87905">
        <ele>571.20001220703</ele>
        <time>2018-06-10T10:13:44.000Z</time>
      </trkpt>
      <trkpt lat="46.35974" lon="5.87903">
        <ele>570.20001220703</ele>
        <time>2018-06-10T10:13:46.000Z</time>
      </trkpt>
      <trkpt lat="46.35974" lon="5.87898">
        <ele>569</ele>
        <time>2018-06-10T10:13:51.000Z</time>
      </trkpt>
      <trkpt lat="46.35975" lon="5.87897">
        <ele>569</ele>
        <time>2018-06-10T10:13:52.000Z</time>
      </trkpt>
      <trkpt lat="46.35978" lon="5.87896">
        <ele>568.79998779297</ele>
        <time>2018-06-10T10:13:54.000Z</time>
      </trkpt>
      <trkpt lat="46.35983" lon="5.87894">
        <ele>567.79998779297</ele>
        <time>2018-06-10T10:13:57.000Z</time>
      </trkpt>
      <trkpt lat="46.35988" lon="5.87894">
        <ele>566.40002441406</ele>
        <time>2018-06-10T10:14:00.000Z</time>
      </trkpt>
      <trkpt lat="46.35989" lon="5.87894">
        <ele>565.59997558594</ele>
        <time>2018-06-10T10:14:01.000Z</time>
      </trkpt>
      <trkpt lat="46.35991" lon="5.87894">
        <ele>564.79998779297</ele>
        <time>2018-06-10T10:14:02.000Z</time>
      </trkpt>
      <trkpt lat="46.35996" lon="5.87896">
        <ele>563.40002441406</ele>
        <time>2018-06-10T10:14:04.000Z</time>
      </trkpt>
      <trkpt lat="46.36001" lon="5.87897">
        <ele>561.59997558594</ele>
        <time>2018-06-10T10:14:06.000Z</time>
      </trkpt>
      <trkpt lat="46.36003" lon="5.87897">
        <ele>560.59997558594</ele>
        <time>2018-06-10T10:14:07.000Z</time>
      </trkpt>
      <trkpt lat="46.36004" lon="5.879">
        <ele>559</ele>
        <time>2018-06-10T10:14:09.000Z</time>
      </trkpt>
      <trkpt lat="46.36006" lon="5.87903">
        <ele>558</ele>
        <time>2018-06-10T10:14:11.000Z</time>
      </trkpt>
      <trkpt lat="46.36007" lon="5.87907">
        <ele>556.59997558594</ele>
        <time>2018-06-10T10:14:14.000Z</time>
      </trkpt>
      <trkpt lat="46.36007" lon="5.8791">
        <ele>556.20001220703</ele>
        <time>2018-06-10T10:14:15.000Z</time>
      </trkpt>
      <trkpt lat="46.36004" lon="5.87912">
        <ele>555</ele>
        <time>2018-06-10T10:14:17.000Z</time>
      </trkpt>
      <trkpt lat="46.36001" lon="5.87915">
        <ele>553.79998779297</ele>
        <time>2018-06-10T10:14:19.000Z</time>
      </trkpt>
      <trkpt lat="46.35998" lon="5.87917">
        <ele>551.79998779297</ele>
        <time>2018-06-10T10:14:21.000Z</time>
      </trkpt>
      <trkpt lat="46.35994" lon="5.87918">
        <ele>550.40002441406</ele>
        <time>2018-06-10T10:14:23.000Z</time>
      </trkpt>
      <trkpt lat="46.35992" lon="5.87919">
        <ele>549.20001220703</ele>
        <time>2018-06-10T10:14:25.000Z</time>
      </trkpt>
      <trkpt lat="46.35989" lon="5.87923">
        <ele>548</ele>
        <time>2018-06-10T10:14:30.000Z</time>
      </trkpt>
      <trkpt lat="46.35989" lon="5.87922">
        <ele>548</ele>
        <time>2018-06-10T10:14:55.000Z</time>
      </trkpt>
      <trkpt lat="46.35986" lon="5.87926">
        <ele>548</ele>
        <time>2018-06-10T10:14:58.000Z</time>
      </trkpt>
      <trkpt lat="46.35977" lon="5.87933">
        <ele>548</ele>
        <time>2018-06-10T10:15:01.000Z</time>
      </trkpt>
      <trkpt lat="46.35971" lon="5.87935">
        <ele>548.20001220703</ele>
        <time>2018-06-10T10:15:04.000Z</time>
      </trkpt>
      <trkpt lat="46.35952" lon="5.87934">
        <ele>548.79998779297</ele>
        <time>2018-06-10T10:15:12.000Z</time>
      </trkpt>
      <trkpt lat="46.35927" lon="5.87928">
        <ele>547</ele>
        <time>2018-06-10T10:15:31.000Z</time>
      </trkpt>
      <trkpt lat="46.35923" lon="5.87929">
        <ele>546.79998779297</ele>
        <time>2018-06-10T10:15:32.000Z</time>
      </trkpt>
      <trkpt lat="46.35909" lon="5.87935">
        <ele>546.40002441406</ele>
        <time>2018-06-10T10:15:35.000Z</time>
      </trkpt>
      <trkpt lat="46.35899" lon="5.87957">
        <ele>545.79998779297</ele>
        <time>2018-06-10T10:15:40.000Z</time>
      </trkpt>
      <trkpt lat="46.35899" lon="5.87982">
        <ele>547</ele>
        <time>2018-06-10T10:15:50.000Z</time>
      </trkpt>
      <trkpt lat="46.35898" lon="5.87989">
        <ele>548</ele>
        <time>2018-06-10T10:15:55.000Z</time>
      </trkpt>
      <trkpt lat="46.35893" lon="5.87995">
        <ele>548.79998779297</ele>
        <time>2018-06-10T10:15:59.000Z</time>
      </trkpt>
      <trkpt lat="46.3589" lon="5.87996">
        <ele>549</ele>
        <time>2018-06-10T10:16:01.000Z</time>
      </trkpt>
      <trkpt lat="46.3589" lon="5.87996">
        <ele>549.20001220703</ele>
        <time>2018-06-10T10:16:03.000Z</time>
      </trkpt>
      <trkpt lat="46.35889" lon="5.88">
        <ele>549.59997558594</ele>
        <time>2018-06-10T10:16:07.000Z</time>
      </trkpt>
      <trkpt lat="46.35885" lon="5.88002">
        <ele>550</ele>
        <time>2018-06-10T10:16:11.000Z</time>
      </trkpt>
      <trkpt lat="46.35883" lon="5.88003">
        <ele>550.20001220703</ele>
        <time>2018-06-10T10:16:13.000Z</time>
      </trkpt>
      <trkpt lat="46.35879" lon="5.88004">
        <ele>550.20001220703</ele>
        <time>2018-06-10T10:16:15.000Z</time>
      </trkpt>
      <trkpt lat="46.35875" lon="5.88006">
        <ele>550.20001220703</ele>
        <time>2018-06-10T10:16:18.000Z</time>
      </trkpt>
      <trkpt lat="46.35866" lon="5.88007">
        <ele>550.40002441406</ele>
        <time>2018-06-10T10:16:21.000Z</time>
      </trkpt>
      <trkpt lat="46.35862" lon="5.88009">
        <ele>551</ele>
        <time>2018-06-10T10:16:24.000Z</time>
      </trkpt>
      <trkpt lat="46.3586" lon="5.88013">
        <ele>551.20001220703</ele>
        <time>2018-06-10T10:16:25.000Z</time>
      </trkpt>
      <trkpt lat="46.35859" lon="5.88014">
        <ele>551.20001220703</ele>
        <time>2018-06-10T10:16:26.000Z</time>
      </trkpt>
      <trkpt lat="46.35864" lon="5.88028">
        <ele>551</ele>
        <time>2018-06-10T10:16:32.000Z</time>
      </trkpt>
      <trkpt lat="46.3588" lon="5.88023">
        <ele>550.79998779297</ele>
        <time>2018-06-10T10:16:38.000Z</time>
      </trkpt>
      <trkpt lat="46.35895" lon="5.88018">
        <ele>550.40002441406</ele>
        <time>2018-06-10T10:16:42.000Z</time>
      </trkpt>
      <trkpt lat="46.35902" lon="5.88017">
        <ele>549.79998779297</ele>
        <time>2018-06-10T10:16:43.000Z</time>
      </trkpt>
      <trkpt lat="46.35916" lon="5.88016">
        <ele>548</ele>
        <time>2018-06-10T10:16:45.000Z</time>
      </trkpt>
      <trkpt lat="46.35955" lon="5.88014">
        <ele>546.79998779297</ele>
        <time>2018-06-10T10:16:56.000Z</time>
      </trkpt>
      <trkpt lat="46.3596" lon="5.88015">
        <ele>545.79998779297</ele>
        <time>2018-06-10T10:16:57.000Z</time>
      </trkpt>
      <trkpt lat="46.35964" lon="5.88015">
        <ele>544.40002441406</ele>
        <time>2018-06-10T10:16:58.000Z</time>
      </trkpt>
      <trkpt lat="46.35971" lon="5.88016">
        <ele>543.40002441406</ele>
        <time>2018-06-10T10:16:59.000Z</time>
      </trkpt>
      <trkpt lat="46.35983" lon="5.88022">
        <ele>542</ele>
        <time>2018-06-10T10:17:01.000Z</time>
      </trkpt>
      <trkpt lat="46.36033" lon="5.88049">
        <ele>542.79998779297</ele>
        <time>2018-06-10T10:17:13.000Z</time>
      </trkpt>
      <trkpt lat="46.36037" lon="5.88051">
        <ele>542.79998779297</ele>
        <time>2018-06-10T10:17:14.000Z</time>
      </trkpt>
      <trkpt lat="46.36067" lon="5.88063">
        <ele>543</ele>
        <time>2018-06-10T10:17:20.000Z</time>
      </trkpt>
      <trkpt lat="46.36096" lon="5.88063">
        <ele>542.79998779297</ele>
        <time>2018-06-10T10:17:25.000Z</time>
      </trkpt>
      <trkpt lat="46.36106" lon="5.88063">
        <ele>542.79998779297</ele>
        <time>2018-06-10T10:17:27.000Z</time>
      </trkpt>
      <trkpt lat="46.3613" lon="5.8805">
        <ele>544</ele>
        <time>2018-06-10T10:17:34.000Z</time>
      </trkpt>
      <trkpt lat="46.36148" lon="5.88031">
        <ele>545.20001220703</ele>
        <time>2018-06-10T10:17:42.000Z</time>
      </trkpt>
      <trkpt lat="46.36175" lon="5.88019">
        <ele>545.20001220703</ele>
        <time>2018-06-10T10:17:52.000Z</time>
      </trkpt>
      <trkpt lat="46.36186" lon="5.88008">
        <ele>543.40002441406</ele>
        <time>2018-06-10T10:17:56.000Z</time>
      </trkpt>
      <trkpt lat="46.36191" lon="5.88007">
        <ele>541.40002441406</ele>
        <time>2018-06-10T10:17:58.000Z</time>
      </trkpt>
      <trkpt lat="46.36195" lon="5.88007">
        <ele>540.20001220703</ele>
        <time>2018-06-10T10:17:59.000Z</time>
      </trkpt>
      <trkpt lat="46.36198" lon="5.88007">
        <ele>539.20001220703</ele>
        <time>2018-06-10T10:18:00.000Z</time>
      </trkpt>
      <trkpt lat="46.362" lon="5.88007">
        <ele>538.20001220703</ele>
        <time>2018-06-10T10:18:01.000Z</time>
      </trkpt>
      <trkpt lat="46.36203" lon="5.88005">
        <ele>536.40002441406</ele>
        <time>2018-06-10T10:18:03.000Z</time>
      </trkpt>
      <trkpt lat="46.36203" lon="5.88002">
        <ele>535</ele>
        <time>2018-06-10T10:18:05.000Z</time>
      </trkpt>
      <trkpt lat="46.36203" lon="5.88003">
        <ele>534</ele>
        <time>2018-06-10T10:18:07.000Z</time>
      </trkpt>
      <trkpt lat="46.36203" lon="5.88003">
        <ele>532.59997558594</ele>
        <time>2018-06-10T10:18:11.000Z</time>
      </trkpt>
      <trkpt lat="46.36204" lon="5.88003">
        <ele>531.59997558594</ele>
        <time>2018-06-10T10:18:14.000Z</time>
      </trkpt>
      <trkpt lat="46.36205" lon="5.88002">
        <ele>530.40002441406</ele>
        <time>2018-06-10T10:18:17.000Z</time>
      </trkpt>
      <trkpt lat="46.36205" lon="5.88002">
        <ele>529.40002441406</ele>
        <time>2018-06-10T10:18:21.000Z</time>
      </trkpt>
      <trkpt lat="46.36208" lon="5.87998">
        <ele>528</ele>
        <time>2018-06-10T10:18:25.000Z</time>
      </trkpt>
      <trkpt lat="46.36209" lon="5.87991">
        <ele>526.79998779297</ele>
        <time>2018-06-10T10:18:27.000Z</time>
      </trkpt>
      <trkpt lat="46.36214" lon="5.87989">
        <ele>525.79998779297</ele>
        <time>2018-06-10T10:18:30.000Z</time>
      </trkpt>
      <trkpt lat="46.36219" lon="5.87987">
        <ele>524.79998779297</ele>
        <time>2018-06-10T10:18:32.000Z</time>
      </trkpt>
      <trkpt lat="46.3622" lon="5.87985">
        <ele>524.40002441406</ele>
        <time>2018-06-10T10:18:33.000Z</time>
      </trkpt>
      <trkpt lat="46.36222" lon="5.87979">
        <ele>523.79998779297</ele>
        <time>2018-06-10T10:18:35.000Z</time>
      </trkpt>
      <trkpt lat="46.36222" lon="5.87977">
        <ele>523</ele>
        <time>2018-06-10T10:18:36.000Z</time>
      </trkpt>
      <trkpt lat="46.36223" lon="5.87974">
        <ele>521.79998779297</ele>
        <time>2018-06-10T10:18:38.000Z</time>
      </trkpt>
      <trkpt lat="46.36222" lon="5.87972">
        <ele>520.59997558594</ele>
        <time>2018-06-10T10:18:41.000Z</time>
      </trkpt>
      <trkpt lat="46.36225" lon="5.8797">
        <ele>519.40002441406</ele>
        <time>2018-06-10T10:18:47.000Z</time>
      </trkpt>
      <trkpt lat="46.36226" lon="5.87965">
        <ele>518.59997558594</ele>
        <time>2018-06-10T10:18:50.000Z</time>
      </trkpt>
      <trkpt lat="46.36227" lon="5.87964">
        <ele>518.40002441406</ele>
        <time>2018-06-10T10:18:51.000Z</time>
      </trkpt>
      <trkpt lat="46.36231" lon="5.87965">
        <ele>517.20001220703</ele>
        <time>2018-06-10T10:18:56.000Z</time>
      </trkpt>
      <trkpt lat="46.36236" lon="5.87965">
        <ele>515.59997558594</ele>
        <time>2018-06-10T10:18:59.000Z</time>
      </trkpt>
      <trkpt lat="46.36239" lon="5.87966">
        <ele>514.20001220703</ele>
        <time>2018-06-10T10:19:01.000Z</time>
      </trkpt>
      <trkpt lat="46.36243" lon="5.87965">
        <ele>512.59997558594</ele>
        <time>2018-06-10T10:19:03.000Z</time>
      </trkpt>
      <trkpt lat="46.36248" lon="5.87965">
        <ele>511</ele>
        <time>2018-06-10T10:19:05.000Z</time>
      </trkpt>
      <trkpt lat="46.3625" lon="5.87965">
        <ele>510.60000610352</ele>
        <time>2018-06-10T10:19:06.000Z</time>
      </trkpt>
      <trkpt lat="46.36252" lon="5.87965">
        <ele>510</ele>
        <time>2018-06-10T10:19:07.000Z</time>
      </trkpt>
      <trkpt lat="46.36253" lon="5.87963">
        <ele>509.60000610352</ele>
        <time>2018-06-10T10:19:08.000Z</time>
      </trkpt>
      <trkpt lat="46.36256" lon="5.87962">
        <ele>508.79998779297</ele>
        <time>2018-06-10T10:19:09.000Z</time>
      </trkpt>
      <trkpt lat="46.36261" lon="5.87958">
        <ele>507</ele>
        <time>2018-06-10T10:19:11.000Z</time>
      </trkpt>
      <trkpt lat="46.36263" lon="5.87955">
        <ele>505.60000610352</ele>
        <time>2018-06-10T10:19:12.000Z</time>
      </trkpt>
      <trkpt lat="46.36266" lon="5.87954">
        <ele>504.60000610352</ele>
        <time>2018-06-10T10:19:13.000Z</time>
      </trkpt>
      <trkpt lat="46.36268" lon="5.87952">
        <ele>503.60000610352</ele>
        <time>2018-06-10T10:19:14.000Z</time>
      </trkpt>
      <trkpt lat="46.36271" lon="5.87949">
        <ele>502.39999389648</ele>
        <time>2018-06-10T10:19:15.000Z</time>
      </trkpt>
      <trkpt lat="46.36273" lon="5.87944">
        <ele>501.20001220703</ele>
        <time>2018-06-10T10:19:16.000Z</time>
      </trkpt>
      <trkpt lat="46.36277" lon="5.87936">
        <ele>499.79998779297</ele>
        <time>2018-06-10T10:19:17.000Z</time>
      </trkpt>
      <trkpt lat="46.36281" lon="5.8793">
        <ele>498</ele>
        <time>2018-06-10T10:19:18.000Z</time>
      </trkpt>
      <trkpt lat="46.36285" lon="5.87923">
        <ele>496.39999389648</ele>
        <time>2018-06-10T10:19:19.000Z</time>
      </trkpt>
      <trkpt lat="46.36288" lon="5.87921">
        <ele>495.20001220703</ele>
        <time>2018-06-10T10:19:20.000Z</time>
      </trkpt>
      <trkpt lat="46.36295" lon="5.87919">
        <ele>493.39999389648</ele>
        <time>2018-06-10T10:19:22.000Z</time>
      </trkpt>
      <trkpt lat="46.36299" lon="5.87918">
        <ele>492.20001220703</ele>
        <time>2018-06-10T10:19:23.000Z</time>
      </trkpt>
      <trkpt lat="46.36302" lon="5.87915">
        <ele>490.39999389648</ele>
        <time>2018-06-10T10:19:25.000Z</time>
      </trkpt>
      <trkpt lat="46.36302" lon="5.87913">
        <ele>489</ele>
        <time>2018-06-10T10:19:27.000Z</time>
      </trkpt>
      <trkpt lat="46.36304" lon="5.87908">
        <ele>488.20001220703</ele>
        <time>2018-06-10T10:19:31.000Z</time>
      </trkpt>
      <trkpt lat="46.36309" lon="5.87904">
        <ele>487.79998779297</ele>
        <time>2018-06-10T10:19:33.000Z</time>
      </trkpt>
      <trkpt lat="46.3631" lon="5.87901">
        <ele>487</ele>
        <time>2018-06-10T10:19:34.000Z</time>
      </trkpt>
      <trkpt lat="46.36312" lon="5.879">
        <ele>486.20001220703</ele>
        <time>2018-06-10T10:19:35.000Z</time>
      </trkpt>
      <trkpt lat="46.36316" lon="5.879">
        <ele>484.60000610352</ele>
        <time>2018-06-10T10:19:37.000Z</time>
      </trkpt>
      <trkpt lat="46.36319" lon="5.87898">
        <ele>483.39999389648</ele>
        <time>2018-06-10T10:19:39.000Z</time>
      </trkpt>
      <trkpt lat="46.36321" lon="5.87895">
        <ele>481.79998779297</ele>
        <time>2018-06-10T10:19:41.000Z</time>
      </trkpt>
      <trkpt lat="46.36322" lon="5.87892">
        <ele>480</ele>
        <time>2018-06-10T10:19:43.000Z</time>
      </trkpt>
      <trkpt lat="46.36324" lon="5.87887">
        <ele>478</ele>
        <time>2018-06-10T10:19:45.000Z</time>
      </trkpt>
      <trkpt lat="46.36325" lon="5.87881">
        <ele>476.20001220703</ele>
        <time>2018-06-10T10:19:47.000Z</time>
      </trkpt>
      <trkpt lat="46.36326" lon="5.87873">
        <ele>475</ele>
        <time>2018-06-10T10:19:49.000Z</time>
      </trkpt>
      <trkpt lat="46.36326" lon="5.87867">
        <ele>474</ele>
        <time>2018-06-10T10:19:51.000Z</time>
      </trkpt>
      <trkpt lat="46.36327" lon="5.87866">
        <ele>473.20001220703</ele>
        <time>2018-06-10T10:19:52.000Z</time>
      </trkpt>
      <trkpt lat="46.36328" lon="5.87866">
        <ele>472.20001220703</ele>
        <time>2018-06-10T10:19:53.000Z</time>
      </trkpt>
      <trkpt lat="46.3633" lon="5.87869">
        <ele>470.39999389648</ele>
        <time>2018-06-10T10:19:55.000Z</time>
      </trkpt>
      <trkpt lat="46.36332" lon="5.87874">
        <ele>469.39999389648</ele>
        <time>2018-06-10T10:19:57.000Z</time>
      </trkpt>
      <trkpt lat="46.36333" lon="5.87875">
        <ele>468.79998779297</ele>
        <time>2018-06-10T10:19:58.000Z</time>
      </trkpt>
      <trkpt lat="46.36337" lon="5.87876">
        <ele>468</ele>
        <time>2018-06-10T10:19:59.000Z</time>
      </trkpt>
      <trkpt lat="46.36345" lon="5.87881">
        <ele>466.20001220703</ele>
        <time>2018-06-10T10:20:02.000Z</time>
      </trkpt>
      <trkpt lat="46.36347" lon="5.87884">
        <ele>465.20001220703</ele>
        <time>2018-06-10T10:20:03.000Z</time>
      </trkpt>
      <trkpt lat="46.3635" lon="5.8789">
        <ele>463.39999389648</ele>
        <time>2018-06-10T10:20:05.000Z</time>
      </trkpt>
      <trkpt lat="46.36352" lon="5.87893">
        <ele>461.79998779297</ele>
        <time>2018-06-10T10:20:06.000Z</time>
      </trkpt>
      <trkpt lat="46.36353" lon="5.87897">
        <ele>460.20001220703</ele>
        <time>2018-06-10T10:20:07.000Z</time>
      </trkpt>
      <trkpt lat="46.36349" lon="5.87902">
        <ele>459</ele>
        <time>2018-06-10T10:20:08.000Z</time>
      </trkpt>
      <trkpt lat="46.36344" lon="5.87908">
        <ele>458.39999389648</ele>
        <time>2018-06-10T10:20:09.000Z</time>
      </trkpt>
      <trkpt lat="46.36344" lon="5.8791">
        <ele>458</ele>
        <time>2018-06-10T10:20:10.000Z</time>
      </trkpt>
      <trkpt lat="46.3635" lon="5.87916">
        <ele>456.60000610352</ele>
        <time>2018-06-10T10:20:14.000Z</time>
      </trkpt>
      <trkpt lat="46.36351" lon="5.87918">
        <ele>455.60000610352</ele>
        <time>2018-06-10T10:20:15.000Z</time>
      </trkpt>
      <trkpt lat="46.36354" lon="5.87919">
        <ele>454.39999389648</ele>
        <time>2018-06-10T10:20:16.000Z</time>
      </trkpt>
      <trkpt lat="46.36358" lon="5.8792">
        <ele>452.39999389648</ele>
        <time>2018-06-10T10:20:18.000Z</time>
      </trkpt>
      <trkpt lat="46.3636" lon="5.87919">
        <ele>451.20001220703</ele>
        <time>2018-06-10T10:20:19.000Z</time>
      </trkpt>
      <trkpt lat="46.36367" lon="5.87922">
        <ele>450</ele>
        <time>2018-06-10T10:20:20.000Z</time>
      </trkpt>
      <trkpt lat="46.36371" lon="5.87922">
        <ele>448.79998779297</ele>
        <time>2018-06-10T10:20:21.000Z</time>
      </trkpt>
      <trkpt lat="46.36374" lon="5.87922">
        <ele>447.60000610352</ele>
        <time>2018-06-10T10:20:22.000Z</time>
      </trkpt>
      <trkpt lat="46.36376" lon="5.8792">
        <ele>446.60000610352</ele>
        <time>2018-06-10T10:20:23.000Z</time>
      </trkpt>
      <trkpt lat="46.36383" lon="5.8792">
        <ele>444.79998779297</ele>
        <time>2018-06-10T10:20:25.000Z</time>
      </trkpt>
      <trkpt lat="46.36385" lon="5.87919">
        <ele>443.79998779297</ele>
        <time>2018-06-10T10:20:26.000Z</time>
      </trkpt>
      <trkpt lat="46.36389" lon="5.87919">
        <ele>442.39999389648</ele>
        <time>2018-06-10T10:20:27.000Z</time>
      </trkpt>
      <trkpt lat="46.36392" lon="5.87917">
        <ele>441</ele>
        <time>2018-06-10T10:20:28.000Z</time>
      </trkpt>
      <trkpt lat="46.36395" lon="5.87917">
        <ele>439.39999389648</ele>
        <time>2018-06-10T10:20:29.000Z</time>
      </trkpt>
      <trkpt lat="46.36397" lon="5.87918">
        <ele>438</ele>
        <time>2018-06-10T10:20:30.000Z</time>
      </trkpt>
      <trkpt lat="46.36402" lon="5.87918">
        <ele>436.60000610352</ele>
        <time>2018-06-10T10:20:31.000Z</time>
      </trkpt>
      <trkpt lat="46.36404" lon="5.87916">
        <ele>435.20001220703</ele>
        <time>2018-06-10T10:20:32.000Z</time>
      </trkpt>
      <trkpt lat="46.36406" lon="5.87917">
        <ele>434.20001220703</ele>
        <time>2018-06-10T10:20:33.000Z</time>
      </trkpt>
      <trkpt lat="46.3641" lon="5.87916">
        <ele>433</ele>
        <time>2018-06-10T10:20:35.000Z</time>
      </trkpt>
      <trkpt lat="46.36422" lon="5.87918">
        <ele>432</ele>
        <time>2018-06-10T10:20:41.000Z</time>
      </trkpt>
      <trkpt lat="46.36429" lon="5.87921">
        <ele>430.60000610352</ele>
        <time>2018-06-10T10:20:44.000Z</time>
      </trkpt>
      <trkpt lat="46.36431" lon="5.87921">
        <ele>430.20001220703</ele>
        <time>2018-06-10T10:21:00.000Z</time>
      </trkpt>
      <trkpt lat="46.36429" lon="5.8791">
        <ele>430.79998779297</ele>
        <time>2018-06-10T10:22:06.000Z</time>
      </trkpt>
      <trkpt lat="46.36432" lon="5.87904">
        <ele>431</ele>
        <time>2018-06-10T10:23:22.000Z</time>
      </trkpt>
      <trkpt lat="46.36433" lon="5.87901">
        <ele>431</ele>
        <time>2018-06-10T10:23:24.000Z</time>
      </trkpt>
      <trkpt lat="46.36435" lon="5.87896">
        <ele>431</ele>
        <time>2018-06-10T10:23:27.000Z</time>
      </trkpt>
      <trkpt lat="46.36438" lon="5.87891">
        <ele>430.60000610352</ele>
        <time>2018-06-10T10:23:31.000Z</time>
      </trkpt>
      <trkpt lat="46.36453" lon="5.87861">
        <ele>429.79998779297</ele>
        <time>2018-06-10T10:23:53.000Z</time>
      </trkpt>
      <trkpt lat="46.36457" lon="5.87858">
        <ele>429.60000610352</ele>
        <time>2018-06-10T10:23:56.000Z</time>
      </trkpt>
      <trkpt lat="46.36467" lon="5.87847">
        <ele>429</ele>
        <time>2018-06-10T10:24:04.000Z</time>
      </trkpt>
      <trkpt lat="46.36479" lon="5.87839">
        <ele>428.79998779297</ele>
        <time>2018-06-10T10:24:12.000Z</time>
      </trkpt>
      <trkpt lat="46.36474" lon="5.87832">
        <ele>429</ele>
        <time>2018-06-10T10:25:32.000Z</time>
      </trkpt>
      <trkpt lat="46.36482" lon="5.87829">
        <ele>428.60000610352</ele>
        <time>2018-06-10T10:26:00.000Z</time>
      </trkpt>
      <trkpt lat="46.36488" lon="5.87829">
        <ele>428.39999389648</ele>
        <time>2018-06-10T10:26:02.000Z</time>
      </trkpt>
      <trkpt lat="46.36524" lon="5.87824">
        <ele>427.39999389648</ele>
        <time>2018-06-10T10:26:13.000Z</time>
      </trkpt>
      <trkpt lat="46.36563" lon="5.87807">
        <ele>426.39999389648</ele>
        <time>2018-06-10T10:26:25.000Z</time>
      </trkpt>
      <trkpt lat="46.36594" lon="5.87752">
        <ele>427.39999389648</ele>
        <time>2018-06-10T10:26:39.000Z</time>
      </trkpt>
      <trkpt lat="46.36601" lon="5.8774">
        <ele>428.60000610352</ele>
        <time>2018-06-10T10:26:44.000Z</time>
      </trkpt>
      <trkpt lat="46.36603" lon="5.87738">
        <ele>428.60000610352</ele>
        <time>2018-06-10T10:26:45.000Z</time>
      </trkpt>
      <trkpt lat="46.3661" lon="5.87726">
        <ele>429.60000610352</ele>
        <time>2018-06-10T10:26:50.000Z</time>
      </trkpt>
      <trkpt lat="46.36615" lon="5.87719">
        <ele>430</ele>
        <time>2018-06-10T10:26:53.000Z</time>
      </trkpt>
      <trkpt lat="46.36625" lon="5.877">
        <ele>430.60000610352</ele>
        <time>2018-06-10T10:26:59.000Z</time>
      </trkpt>
      <trkpt lat="46.36635" lon="5.87665">
        <ele>429.60000610352</ele>
        <time>2018-06-10T10:27:05.000Z</time>
      </trkpt>
      <trkpt lat="46.36643" lon="5.87648">
        <ele>428.79998779297</ele>
        <time>2018-06-10T10:27:07.000Z</time>
      </trkpt>
      <trkpt lat="46.36648" lon="5.8764">
        <ele>428.20001220703</ele>
        <time>2018-06-10T10:27:08.000Z</time>
      </trkpt>
      <trkpt lat="46.36657" lon="5.87623">
        <ele>426.39999389648</ele>
        <time>2018-06-10T10:27:10.000Z</time>
      </trkpt>
      <trkpt lat="46.36662" lon="5.87614">
        <ele>425.39999389648</ele>
        <time>2018-06-10T10:27:11.000Z</time>
      </trkpt>
      <trkpt lat="46.36668" lon="5.87606">
        <ele>424.20001220703</ele>
        <time>2018-06-10T10:27:12.000Z</time>
      </trkpt>
      <trkpt lat="46.36673" lon="5.87598">
        <ele>423.20001220703</ele>
        <time>2018-06-10T10:27:13.000Z</time>
      </trkpt>
      <trkpt lat="46.36683" lon="5.87583">
        <ele>421.60000610352</ele>
        <time>2018-06-10T10:27:15.000Z</time>
      </trkpt>
      <trkpt lat="46.367" lon="5.87558">
        <ele>420.79998779297</ele>
        <time>2018-06-10T10:27:19.000Z</time>
      </trkpt>
      <trkpt lat="46.36718" lon="5.87526">
        <ele>423.39999389648</ele>
        <time>2018-06-10T10:27:25.000Z</time>
      </trkpt>
      <trkpt lat="46.36723" lon="5.87513">
        <ele>424.60000610352</ele>
        <time>2018-06-10T10:27:28.000Z</time>
      </trkpt>
      <trkpt lat="46.36727" lon="5.87489">
        <ele>425.79998779297</ele>
        <time>2018-06-10T10:27:31.000Z</time>
      </trkpt>
      <trkpt lat="46.36742" lon="5.87455">
        <ele>426.79998779297</ele>
        <time>2018-06-10T10:27:38.000Z</time>
      </trkpt>
      <trkpt lat="46.36765" lon="5.87412">
        <ele>425.39999389648</ele>
        <time>2018-06-10T10:27:47.000Z</time>
      </trkpt>
      <trkpt lat="46.36774" lon="5.87391">
        <ele>424</ele>
        <time>2018-06-10T10:27:50.000Z</time>
      </trkpt>
      <trkpt lat="46.36782" lon="5.87373">
        <ele>422.39999389648</ele>
        <time>2018-06-10T10:27:52.000Z</time>
      </trkpt>
      <trkpt lat="46.36789" lon="5.87365">
        <ele>421.20001220703</ele>
        <time>2018-06-10T10:27:53.000Z</time>
      </trkpt>
      <trkpt lat="46.36795" lon="5.87356">
        <ele>420</ele>
        <time>2018-06-10T10:27:54.000Z</time>
      </trkpt>
      <trkpt lat="46.36807" lon="5.87336">
        <ele>418.79998779297</ele>
        <time>2018-06-10T10:27:55.000Z</time>
      </trkpt>
      <trkpt lat="46.36807" lon="5.87336">
        <ele>417.39999389648</ele>
        <time>2018-06-10T10:27:56.000Z</time>
      </trkpt>
      <trkpt lat="46.36816" lon="5.87329">
        <ele>416.20001220703</ele>
        <time>2018-06-10T10:27:57.000Z</time>
      </trkpt>
      <trkpt lat="46.36823" lon="5.87322">
        <ele>415.20001220703</ele>
        <time>2018-06-10T10:27:58.000Z</time>
      </trkpt>
      <trkpt lat="46.36827" lon="5.87313">
        <ele>414.39999389648</ele>
        <time>2018-06-10T10:27:59.000Z</time>
      </trkpt>
      <trkpt lat="46.3683" lon="5.87304">
        <ele>414</ele>
        <time>2018-06-10T10:28:00.000Z</time>
      </trkpt>
      <trkpt lat="46.36834" lon="5.87288">
        <ele>413.60000610352</ele>
        <time>2018-06-10T10:28:02.000Z</time>
      </trkpt>
      <trkpt lat="46.3684" lon="5.87263">
        <ele>414.20001220703</ele>
        <time>2018-06-10T10:28:05.000Z</time>
      </trkpt>
      <trkpt lat="46.36843" lon="5.87256">
        <ele>414.20001220703</ele>
        <time>2018-06-10T10:28:06.000Z</time>
      </trkpt>
      <trkpt lat="46.36851" lon="5.87234">
        <ele>413.60000610352</ele>
        <time>2018-06-10T10:28:09.000Z</time>
      </trkpt>
      <trkpt lat="46.36857" lon="5.87224">
        <ele>413</ele>
        <time>2018-06-10T10:28:11.000Z</time>
      </trkpt>
      <trkpt lat="46.36859" lon="5.87216">
        <ele>412.79998779297</ele>
        <time>2018-06-10T10:28:12.000Z</time>
      </trkpt>
      <trkpt lat="46.36862" lon="5.87206">
        <ele>412.39999389648</ele>
        <time>2018-06-10T10:28:13.000Z</time>
      </trkpt>
      <trkpt lat="46.36871" lon="5.87199">
        <ele>412.20001220703</ele>
        <time>2018-06-10T10:28:15.000Z</time>
      </trkpt>
      <trkpt lat="46.36881" lon="5.87197">
        <ele>412</ele>
        <time>2018-06-10T10:28:17.000Z</time>
      </trkpt>
      <trkpt lat="46.36914" lon="5.87166">
        <ele>411.60000610352</ele>
        <time>2018-06-10T10:28:24.000Z</time>
      </trkpt>
      <trkpt lat="46.36932" lon="5.87168">
        <ele>411.60000610352</ele>
        <time>2018-06-10T10:28:26.000Z</time>
      </trkpt>
      <trkpt lat="46.36962" lon="5.87165">
        <ele>411.79998779297</ele>
        <time>2018-06-10T10:28:30.000Z</time>
      </trkpt>
      <trkpt lat="46.36987" lon="5.87159">
        <ele>411.60000610352</ele>
        <time>2018-06-10T10:28:34.000Z</time>
      </trkpt>
      <trkpt lat="46.36992" lon="5.87159">
        <ele>411.20001220703</ele>
        <time>2018-06-10T10:28:36.000Z</time>
      </trkpt>
      <trkpt lat="46.37006" lon="5.87164">
        <ele>410.79998779297</ele>
        <time>2018-06-10T10:28:39.000Z</time>
      </trkpt>
      <trkpt lat="46.37011" lon="5.87167">
        <ele>410.60000610352</ele>
        <time>2018-06-10T10:28:40.000Z</time>
      </trkpt>
      <trkpt lat="46.37038" lon="5.8718">
        <ele>410</ele>
        <time>2018-06-10T10:28:45.000Z</time>
      </trkpt>
      <trkpt lat="46.3705" lon="5.87185">
        <ele>410</ele>
        <time>2018-06-10T10:28:47.000Z</time>
      </trkpt>
      <trkpt lat="46.37086" lon="5.87213">
        <ele>411</ele>
        <time>2018-06-10T10:28:55.000Z</time>
      </trkpt>
      <trkpt lat="46.37106" lon="5.87224">
        <ele>411.60000610352</ele>
        <time>2018-06-10T10:29:00.000Z</time>
      </trkpt>
      <trkpt lat="46.37125" lon="5.87239">
        <ele>412.79998779297</ele>
        <time>2018-06-10T10:29:06.000Z</time>
      </trkpt>
      <trkpt lat="46.3715" lon="5.87258">
        <ele>413.79998779297</ele>
        <time>2018-06-10T10:29:14.000Z</time>
      </trkpt>
      <trkpt lat="46.3718" lon="5.87269">
        <ele>414.79998779297</ele>
        <time>2018-06-10T10:29:23.000Z</time>
      </trkpt>
      <trkpt lat="46.37236" lon="5.87263">
        <ele>415.20001220703</ele>
        <time>2018-06-10T10:29:40.000Z</time>
      </trkpt>
      <trkpt lat="46.37278" lon="5.87265">
        <ele>414</ele>
        <time>2018-06-10T10:29:49.000Z</time>
      </trkpt>
      <trkpt lat="46.37284" lon="5.87267">
        <ele>413.79998779297</ele>
        <time>2018-06-10T10:29:50.000Z</time>
      </trkpt>
      <trkpt lat="46.37331" lon="5.873">
        <ele>412.79998779297</ele>
        <time>2018-06-10T10:30:00.000Z</time>
      </trkpt>
      <trkpt lat="46.37346" lon="5.87313">
        <ele>411.39999389648</ele>
        <time>2018-06-10T10:30:03.000Z</time>
      </trkpt>
      <trkpt lat="46.37394" lon="5.87351">
        <ele>411</ele>
        <time>2018-06-10T10:30:14.000Z</time>
      </trkpt>
      <trkpt lat="46.37445" lon="5.87382">
        <ele>412.39999389648</ele>
        <time>2018-06-10T10:30:26.000Z</time>
      </trkpt>
      <trkpt lat="46.37457" lon="5.87389">
        <ele>412.39999389648</ele>
        <time>2018-06-10T10:30:29.000Z</time>
      </trkpt>
      <trkpt lat="46.3751" lon="5.87412">
        <ele>412</ele>
        <time>2018-06-10T10:30:41.000Z</time>
      </trkpt>
      <trkpt lat="46.37542" lon="5.87418">
        <ele>411.39999389648</ele>
        <time>2018-06-10T10:30:47.000Z</time>
      </trkpt>
      <trkpt lat="46.37554" lon="5.8742">
        <ele>410.79998779297</ele>
        <time>2018-06-10T10:30:49.000Z</time>
      </trkpt>
      <trkpt lat="46.37565" lon="5.87424">
        <ele>410.39999389648</ele>
        <time>2018-06-10T10:30:51.000Z</time>
      </trkpt>
      <trkpt lat="46.37584" lon="5.87437">
        <ele>409.20001220703</ele>
        <time>2018-06-10T10:30:55.000Z</time>
      </trkpt>
      <trkpt lat="46.37589" lon="5.8744">
        <ele>408.79998779297</ele>
        <time>2018-06-10T10:30:56.000Z</time>
      </trkpt>
      <trkpt lat="46.37601" lon="5.87445">
        <ele>407.79998779297</ele>
        <time>2018-06-10T10:30:58.000Z</time>
      </trkpt>
      <trkpt lat="46.37607" lon="5.87446">
        <ele>407</ele>
        <time>2018-06-10T10:30:59.000Z</time>
      </trkpt>
      <trkpt lat="46.37612" lon="5.87446">
        <ele>406.39999389648</ele>
        <time>2018-06-10T10:31:00.000Z</time>
      </trkpt>
      <trkpt lat="46.37617" lon="5.87444">
        <ele>406.20001220703</ele>
        <time>2018-06-10T10:31:01.000Z</time>
      </trkpt>
      <trkpt lat="46.37629" lon="5.87428">
        <ele>407.79998779297</ele>
        <time>2018-06-10T10:31:06.000Z</time>
      </trkpt>
      <trkpt lat="46.3763" lon="5.87416">
        <ele>409</ele>
        <time>2018-06-10T10:31:09.000Z</time>
      </trkpt>
      <trkpt lat="46.37629" lon="5.874">
        <ele>410</ele>
        <time>2018-06-10T10:31:13.000Z</time>
      </trkpt>
      <trkpt lat="46.37635" lon="5.87373">
        <ele>411.20001220703</ele>
        <time>2018-06-10T10:31:20.000Z</time>
      </trkpt>
      <trkpt lat="46.37645" lon="5.87355">
        <ele>412.20001220703</ele>
        <time>2018-06-10T10:31:26.000Z</time>
      </trkpt>
      <trkpt lat="46.37653" lon="5.87342">
        <ele>413.20001220703</ele>
        <time>2018-06-10T10:31:31.000Z</time>
      </trkpt>
      <trkpt lat="46.3766" lon="5.87325">
        <ele>414</ele>
        <time>2018-06-10T10:31:36.000Z</time>
      </trkpt>
      <trkpt lat="46.37662" lon="5.87325">
        <ele>414.20001220703</ele>
        <time>2018-06-10T10:31:37.000Z</time>
      </trkpt>
      <trkpt lat="46.37663" lon="5.87329">
        <ele>414.60000610352</ele>
        <time>2018-06-10T10:31:39.000Z</time>
      </trkpt>
      <trkpt lat="46.37657" lon="5.87338">
        <ele>415.20001220703</ele>
        <time>2018-06-10T10:31:43.000Z</time>
      </trkpt>
      <trkpt lat="46.3763" lon="5.87406">
        <ele>415.39999389648</ele>
        <time>2018-06-10T10:31:59.000Z</time>
      </trkpt>
      <trkpt lat="46.3763" lon="5.87411">
        <ele>415.39999389648</ele>
        <time>2018-06-10T10:32:00.000Z</time>
      </trkpt>
      <trkpt lat="46.37641" lon="5.87491">
        <ele>415.60000610352</ele>
        <time>2018-06-10T10:32:15.000Z</time>
      </trkpt>
      <trkpt lat="46.37638" lon="5.87534">
        <ele>415.20001220703</ele>
        <time>2018-06-10T10:32:23.000Z</time>
      </trkpt>
      <trkpt lat="46.37626" lon="5.87557">
        <ele>415.39999389648</ele>
        <time>2018-06-10T10:32:27.000Z</time>
      </trkpt>
      <trkpt lat="46.37619" lon="5.87615">
        <ele>415</ele>
        <time>2018-06-10T10:32:37.000Z</time>
      </trkpt>
      <trkpt lat="46.37613" lon="5.87629">
        <ele>415</ele>
        <time>2018-06-10T10:32:39.000Z</time>
      </trkpt>
      <trkpt lat="46.37608" lon="5.87642">
        <ele>415</ele>
        <time>2018-06-10T10:32:41.000Z</time>
      </trkpt>
      <trkpt lat="46.37604" lon="5.87654">
        <ele>415</ele>
        <time>2018-06-10T10:32:43.000Z</time>
      </trkpt>
      <trkpt lat="46.37601" lon="5.87666">
        <ele>415</ele>
        <time>2018-06-10T10:32:45.000Z</time>
      </trkpt>
      <trkpt lat="46.37615" lon="5.87741">
        <ele>415.60000610352</ele>
        <time>2018-06-10T10:32:58.000Z</time>
      </trkpt>
      <trkpt lat="46.37633" lon="5.87779">
        <ele>416.39999389648</ele>
        <time>2018-06-10T10:33:07.000Z</time>
      </trkpt>
      <trkpt lat="46.37637" lon="5.87824">
        <ele>417.39999389648</ele>
        <time>2018-06-10T10:33:17.000Z</time>
      </trkpt>
      <trkpt lat="46.37631" lon="5.87866">
        <ele>417.60000610352</ele>
        <time>2018-06-10T10:33:26.000Z</time>
      </trkpt>
      <trkpt lat="46.37625" lon="5.87883">
        <ele>417.60000610352</ele>
        <time>2018-06-10T10:33:28.000Z</time>
      </trkpt>
      <trkpt lat="46.37609" lon="5.87906">
        <ele>417.60000610352</ele>
        <time>2018-06-10T10:33:31.000Z</time>
      </trkpt>
      <trkpt lat="46.37585" lon="5.87939">
        <ele>417.60000610352</ele>
        <time>2018-06-10T10:33:40.000Z</time>
      </trkpt>
      <trkpt lat="46.37585" lon="5.87952">
        <ele>417</ele>
        <time>2018-06-10T10:33:43.000Z</time>
      </trkpt>
      <trkpt lat="46.3759" lon="5.87963">
        <ele>417.39999389648</ele>
        <time>2018-06-10T10:34:13.000Z</time>
      </trkpt>
      <trkpt lat="46.36969" lon="5.90402">
        <ele>985.79998779297</ele>
        <time>2018-06-10T11:55:33.000Z</time>
      </trkpt>
      <trkpt lat="46.36975" lon="5.90415">
        <ele>985.79998779297</ele>
        <time>2018-06-10T11:56:19.000Z</time>
      </trkpt>
      <trkpt lat="46.36977" lon="5.90421">
        <ele>985.59997558594</ele>
        <time>2018-06-10T11:56:22.000Z</time>
      </trkpt>
      <trkpt lat="46.36983" lon="5.90439">
        <ele>985.20001220703</ele>
        <time>2018-06-10T11:56:32.000Z</time>
      </trkpt>
      <trkpt lat="46.37019" lon="5.90444">
        <ele>986.40002441406</ele>
        <time>2018-06-10T11:56:51.000Z</time>
      </trkpt>
      <trkpt lat="46.37029" lon="5.90448">
        <ele>987.40002441406</ele>
        <time>2018-06-10T11:56:57.000Z</time>
      </trkpt>
      <trkpt lat="46.37076" lon="5.90485">
        <ele>987.79998779297</ele>
        <time>2018-06-10T11:57:30.000Z</time>
      </trkpt>
      <trkpt lat="46.37083" lon="5.90491">
        <ele>988.20001220703</ele>
        <time>2018-06-10T11:57:36.000Z</time>
      </trkpt>
      <trkpt lat="46.37086" lon="5.90499">
        <ele>988.59997558594</ele>
        <time>2018-06-10T11:57:42.000Z</time>
      </trkpt>
      <trkpt lat="46.37089" lon="5.9051">
        <ele>989.59997558594</ele>
        <time>2018-06-10T11:57:50.000Z</time>
      </trkpt>
      <trkpt lat="46.37091" lon="5.90521">
        <ele>990.59997558594</ele>
        <time>2018-06-10T11:57:56.000Z</time>
      </trkpt>
      <trkpt lat="46.37094" lon="5.90534">
        <ele>991.79998779297</ele>
        <time>2018-06-10T11:58:03.000Z</time>
      </trkpt>
      <trkpt lat="46.37097" lon="5.90544">
        <ele>992.79998779297</ele>
        <time>2018-06-10T11:58:09.000Z</time>
      </trkpt>
      <trkpt lat="46.37103" lon="5.90556">
        <ele>994</ele>
        <time>2018-06-10T11:58:18.000Z</time>
      </trkpt>
      <trkpt lat="46.37108" lon="5.90569">
        <ele>995</ele>
        <time>2018-06-10T11:58:27.000Z</time>
      </trkpt>
      <trkpt lat="46.37112" lon="5.90579">
        <ele>996</ele>
        <time>2018-06-10T11:58:34.000Z</time>
      </trkpt>
      <trkpt lat="46.37117" lon="5.90592">
        <ele>997.20001220703</ele>
        <time>2018-06-10T11:58:42.000Z</time>
      </trkpt>
      <trkpt lat="46.37121" lon="5.90604">
        <ele>998.20001220703</ele>
        <time>2018-06-10T11:58:48.000Z</time>
      </trkpt>
      <trkpt lat="46.37129" lon="5.90633">
        <ele>999.40002441406</ele>
        <time>2018-06-10T11:59:02.000Z</time>
      </trkpt>
      <trkpt lat="46.37154" lon="5.90705">
        <ele>999.59997558594</ele>
        <time>2018-06-10T11:59:23.000Z</time>
      </trkpt>
      <trkpt lat="46.37163" lon="5.90728">
        <ele>998.20001220703</ele>
        <time>2018-06-10T11:59:28.000Z</time>
      </trkpt>
      <trkpt lat="46.37172" lon="5.90752">
        <ele>998</ele>
        <time>2018-06-10T11:59:34.000Z</time>
      </trkpt>
      <trkpt lat="46.37178" lon="5.90835">
        <ele>997.20001220703</ele>
        <time>2018-06-10T11:59:53.000Z</time>
      </trkpt>
      <trkpt lat="46.37179" lon="5.90861">
        <ele>995.79998779297</ele>
        <time>2018-06-10T11:59:56.000Z</time>
      </trkpt>
      <trkpt lat="46.3718" lon="5.90882">
        <ele>994.40002441406</ele>
        <time>2018-06-10T11:59:58.000Z</time>
      </trkpt>
      <trkpt lat="46.37181" lon="5.90894">
        <ele>993.79998779297</ele>
        <time>2018-06-10T11:59:59.000Z</time>
      </trkpt>
      <trkpt lat="46.37182" lon="5.90905">
        <ele>993.20001220703</ele>
        <time>2018-06-10T12:00:00.000Z</time>
      </trkpt>
      <trkpt lat="46.37185" lon="5.90915">
        <ele>992.59997558594</ele>
        <time>2018-06-10T12:00:01.000Z</time>
      </trkpt>
      <trkpt lat="46.37188" lon="5.90925">
        <ele>992</ele>
        <time>2018-06-10T12:00:02.000Z</time>
      </trkpt>
      <trkpt lat="46.37192" lon="5.90933">
        <ele>991.40002441406</ele>
        <time>2018-06-10T12:00:03.000Z</time>
      </trkpt>
      <trkpt lat="46.372" lon="5.90942">
        <ele>991.59997558594</ele>
        <time>2018-06-10T12:00:05.000Z</time>
      </trkpt>
      <trkpt lat="46.37214" lon="5.90951">
        <ele>993</ele>
        <time>2018-06-10T12:00:10.000Z</time>
      </trkpt>
      <trkpt lat="46.37224" lon="5.9096">
        <ele>994.20001220703</ele>
        <time>2018-06-10T12:00:15.000Z</time>
      </trkpt>
      <trkpt lat="46.3725" lon="5.9098">
        <ele>995.20001220703</ele>
        <time>2018-06-10T12:00:28.000Z</time>
      </trkpt>
      <trkpt lat="46.37268" lon="5.9099">
        <ele>996.40002441406</ele>
        <time>2018-06-10T12:00:37.000Z</time>
      </trkpt>
      <trkpt lat="46.37287" lon="5.90995">
        <ele>997.20001220703</ele>
        <time>2018-06-10T12:00:50.000Z</time>
      </trkpt>
      <trkpt lat="46.37289" lon="5.90989">
        <ele>997.40002441406</ele>
        <time>2018-06-10T12:00:55.000Z</time>
      </trkpt>
      <trkpt lat="46.37293" lon="5.90986">
        <ele>997.40002441406</ele>
        <time>2018-06-10T12:00:57.000Z</time>
      </trkpt>
      <trkpt lat="46.37312" lon="5.90983">
        <ele>998.59997558594</ele>
        <time>2018-06-10T12:01:07.000Z</time>
      </trkpt>
      <trkpt lat="46.37318" lon="5.90981">
        <ele>999.79998779297</ele>
        <time>2018-06-10T12:01:12.000Z</time>
      </trkpt>
      <trkpt lat="46.3733" lon="5.90974">
        <ele>1000.799987793</ele>
        <time>2018-06-10T12:01:21.000Z</time>
      </trkpt>
      <trkpt lat="46.37335" lon="5.90963">
        <ele>1002</ele>
        <time>2018-06-10T12:01:27.000Z</time>
      </trkpt>
      <trkpt lat="46.3734" lon="5.90951">
        <ele>1003.200012207</ele>
        <time>2018-06-10T12:01:34.000Z</time>
      </trkpt>
      <trkpt lat="46.37341" lon="5.9095">
        <ele>1003.4000244141</ele>
        <time>2018-06-10T12:01:35.000Z</time>
      </trkpt>
      <trkpt lat="46.37343" lon="5.90936">
        <ele>1004.200012207</ele>
        <time>2018-06-10T12:01:42.000Z</time>
      </trkpt>
      <trkpt lat="46.37348" lon="5.90925">
        <ele>1005.200012207</ele>
        <time>2018-06-10T12:01:48.000Z</time>
      </trkpt>
      <trkpt lat="46.3735" lon="5.90922">
        <ele>1005.4000244141</ele>
        <time>2018-06-10T12:01:50.000Z</time>
      </trkpt>
      <trkpt lat="46.37353" lon="5.90915">
        <ele>1006.4000244141</ele>
        <time>2018-06-10T12:01:55.000Z</time>
      </trkpt>
      <trkpt lat="46.37368" lon="5.90898">
        <ele>1007.4000244141</ele>
        <time>2018-06-10T12:02:07.000Z</time>
      </trkpt>
      <trkpt lat="46.37369" lon="5.90897">
        <ele>1007.4000244141</ele>
        <time>2018-06-10T12:02:08.000Z</time>
      </trkpt>
      <trkpt lat="46.37375" lon="5.90888">
        <ele>1008.5999755859</ele>
        <time>2018-06-10T12:02:14.000Z</time>
      </trkpt>
      <trkpt lat="46.37385" lon="5.90879">
        <ele>1009.799987793</ele>
        <time>2018-06-10T12:02:22.000Z</time>
      </trkpt>
      <trkpt lat="46.37397" lon="5.9087">
        <ele>1010.4000244141</ele>
        <time>2018-06-10T12:02:31.000Z</time>
      </trkpt>
      <trkpt lat="46.37403" lon="5.90864">
        <ele>1010.799987793</ele>
        <time>2018-06-10T12:02:36.000Z</time>
      </trkpt>
      <trkpt lat="46.37411" lon="5.90853">
        <ele>1012</ele>
        <time>2018-06-10T12:02:44.000Z</time>
      </trkpt>
      <trkpt lat="46.3742" lon="5.90845">
        <ele>1013</ele>
        <time>2018-06-10T12:02:49.000Z</time>
      </trkpt>
      <trkpt lat="46.37425" lon="5.90842">
        <ele>1013.4000244141</ele>
        <time>2018-06-10T12:02:52.000Z</time>
      </trkpt>
      <trkpt lat="46.37428" lon="5.9084">
        <ele>1013.5999755859</ele>
        <time>2018-06-10T12:02:54.000Z</time>
      </trkpt>
      <trkpt lat="46.37436" lon="5.90836">
        <ele>1014</ele>
        <time>2018-06-10T12:02:59.000Z</time>
      </trkpt>
      <trkpt lat="46.37457" lon="5.90825">
        <ele>1015</ele>
        <time>2018-06-10T12:03:09.000Z</time>
      </trkpt>
      <trkpt lat="46.37495" lon="5.90798">
        <ele>1016.200012207</ele>
        <time>2018-06-10T12:03:27.000Z</time>
      </trkpt>
      <trkpt lat="46.37504" lon="5.90794">
        <ele>1017.200012207</ele>
        <time>2018-06-10T12:03:32.000Z</time>
      </trkpt>
      <trkpt lat="46.37518" lon="5.90783">
        <ele>1018.4000244141</ele>
        <time>2018-06-10T12:03:41.000Z</time>
      </trkpt>
      <trkpt lat="46.37521" lon="5.9078">
        <ele>1018.5999755859</ele>
        <time>2018-06-10T12:03:43.000Z</time>
      </trkpt>
      <trkpt lat="46.37535" lon="5.90777">
        <ele>1019.4000244141</ele>
        <time>2018-06-10T12:03:49.000Z</time>
      </trkpt>
      <trkpt lat="46.37559" lon="5.90792">
        <ele>1020.4000244141</ele>
        <time>2018-06-10T12:04:00.000Z</time>
      </trkpt>
      <trkpt lat="46.37583" lon="5.90813">
        <ele>1021.799987793</ele>
        <time>2018-06-10T12:04:12.000Z</time>
      </trkpt>
      <trkpt lat="46.37589" lon="5.90822">
        <ele>1022.799987793</ele>
        <time>2018-06-10T12:04:17.000Z</time>
      </trkpt>
      <trkpt lat="46.37601" lon="5.90837">
        <ele>1023.799987793</ele>
        <time>2018-06-10T12:04:25.000Z</time>
      </trkpt>
      <trkpt lat="46.37653" lon="5.90868">
        <ele>1023</ele>
        <time>2018-06-10T12:04:45.000Z</time>
      </trkpt>
      <trkpt lat="46.37685" lon="5.90901">
        <ele>1025</ele>
        <time>2018-06-10T12:05:00.000Z</time>
      </trkpt>
      <trkpt lat="46.37728" lon="5.90935">
        <ele>1023.799987793</ele>
        <time>2018-06-10T12:05:17.000Z</time>
      </trkpt>
      <trkpt lat="46.37774" lon="5.90978">
        <ele>1023.5999755859</ele>
        <time>2018-06-10T12:05:35.000Z</time>
      </trkpt>
      <trkpt lat="46.37786" lon="5.90985">
        <ele>1022.5999755859</ele>
        <time>2018-06-10T12:05:39.000Z</time>
      </trkpt>
      <trkpt lat="46.37824" lon="5.90992">
        <ele>1021.4000244141</ele>
        <time>2018-06-10T12:05:52.000Z</time>
      </trkpt>
      <trkpt lat="46.37865" lon="5.90953">
        <ele>1021.200012207</ele>
        <time>2018-06-10T12:06:11.000Z</time>
      </trkpt>
      <trkpt lat="46.37912" lon="5.90927">
        <ele>1021.4000244141</ele>
        <time>2018-06-10T12:06:27.000Z</time>
      </trkpt>
      <trkpt lat="46.37927" lon="5.9094">
        <ele>1021.5999755859</ele>
        <time>2018-06-10T12:06:32.000Z</time>
      </trkpt>
      <trkpt lat="46.37969" lon="5.90992">
        <ele>1021.799987793</ele>
        <time>2018-06-10T12:06:49.000Z</time>
      </trkpt>
      <trkpt lat="46.3797" lon="5.90996">
        <ele>1021.799987793</ele>
        <time>2018-06-10T12:06:50.000Z</time>
      </trkpt>
      <trkpt lat="46.37986" lon="5.91019">
        <ele>1022.5999755859</ele>
        <time>2018-06-10T12:06:59.000Z</time>
      </trkpt>
      <trkpt lat="46.37997" lon="5.91032">
        <ele>1023.5999755859</ele>
        <time>2018-06-10T12:07:04.000Z</time>
      </trkpt>
      <trkpt lat="46.38052" lon="5.91045">
        <ele>1024.1999511719</ele>
        <time>2018-06-10T12:07:24.000Z</time>
      </trkpt>
      <trkpt lat="46.38072" lon="5.91044">
        <ele>1023.200012207</ele>
        <time>2018-06-10T12:07:27.000Z</time>
      </trkpt>
      <trkpt lat="46.38079" lon="5.91045">
        <ele>1022.5999755859</ele>
        <time>2018-06-10T12:07:28.000Z</time>
      </trkpt>
      <trkpt lat="46.38094" lon="5.91046">
        <ele>1021.200012207</ele>
        <time>2018-06-10T12:07:30.000Z</time>
      </trkpt>
      <trkpt lat="46.3811" lon="5.91047">
        <ele>1020.5999755859</ele>
        <time>2018-06-10T12:07:33.000Z</time>
      </trkpt>
      <trkpt lat="46.38127" lon="5.91045">
        <ele>1021.200012207</ele>
        <time>2018-06-10T12:07:37.000Z</time>
      </trkpt>
      <trkpt lat="46.38136" lon="5.91048">
        <ele>1020.799987793</ele>
        <time>2018-06-10T12:07:39.000Z</time>
      </trkpt>
      <trkpt lat="46.38145" lon="5.91057">
        <ele>1020.4000244141</ele>
        <time>2018-06-10T12:07:41.000Z</time>
      </trkpt>
      <trkpt lat="46.38153" lon="5.9107">
        <ele>1020</ele>
        <time>2018-06-10T12:07:43.000Z</time>
      </trkpt>
      <trkpt lat="46.3816" lon="5.91082">
        <ele>1019.5999755859</ele>
        <time>2018-06-10T12:07:45.000Z</time>
      </trkpt>
      <trkpt lat="46.38178" lon="5.91105">
        <ele>1018.5999755859</ele>
        <time>2018-06-10T12:07:48.000Z</time>
      </trkpt>
      <trkpt lat="46.38191" lon="5.91122">
        <ele>1017.4000244141</ele>
        <time>2018-06-10T12:07:50.000Z</time>
      </trkpt>
      <trkpt lat="46.3821" lon="5.91148">
        <ele>1016</ele>
        <time>2018-06-10T12:07:53.000Z</time>
      </trkpt>
      <trkpt lat="46.38223" lon="5.91166">
        <ele>1014.799987793</ele>
        <time>2018-06-10T12:07:55.000Z</time>
      </trkpt>
      <trkpt lat="46.38235" lon="5.91183">
        <ele>1013.799987793</ele>
        <time>2018-06-10T12:07:57.000Z</time>
      </trkpt>
      <trkpt lat="46.38254" lon="5.91211">
        <ele>1012.5999755859</ele>
        <time>2018-06-10T12:08:00.000Z</time>
      </trkpt>
      <trkpt lat="46.38262" lon="5.91219">
        <ele>1012.200012207</ele>
        <time>2018-06-10T12:08:01.000Z</time>
      </trkpt>
      <trkpt lat="46.38278" lon="5.91233">
        <ele>1011.200012207</ele>
        <time>2018-06-10T12:08:03.000Z</time>
      </trkpt>
      <trkpt lat="46.38305" lon="5.91269">
        <ele>1010.200012207</ele>
        <time>2018-06-10T12:08:07.000Z</time>
      </trkpt>
      <trkpt lat="46.38344" lon="5.91324">
        <ele>1010.5999755859</ele>
        <time>2018-06-10T12:08:14.000Z</time>
      </trkpt>
      <trkpt lat="46.38349" lon="5.91332">
        <ele>1011.4000244141</ele>
        <time>2018-06-10T12:08:16.000Z</time>
      </trkpt>
      <trkpt lat="46.38353" lon="5.91341">
        <ele>1012.799987793</ele>
        <time>2018-06-10T12:08:19.000Z</time>
      </trkpt>
      <trkpt lat="46.38358" lon="5.91347">
        <ele>1014</ele>
        <time>2018-06-10T12:08:23.000Z</time>
      </trkpt>
      <trkpt lat="46.38368" lon="5.91361">
        <ele>1015</ele>
        <time>2018-06-10T12:08:30.000Z</time>
      </trkpt>
      <trkpt lat="46.38379" lon="5.91374">
        <ele>1016</ele>
        <time>2018-06-10T12:08:37.000Z</time>
      </trkpt>
      <trkpt lat="46.38381" lon="5.91376">
        <ele>1016.200012207</ele>
        <time>2018-06-10T12:08:38.000Z</time>
      </trkpt>
      <trkpt lat="46.38411" lon="5.91411">
        <ele>1017.200012207</ele>
        <time>2018-06-10T12:08:53.000Z</time>
      </trkpt>
      <trkpt lat="46.38415" lon="5.91417">
        <ele>1017.5999755859</ele>
        <time>2018-06-10T12:08:56.000Z</time>
      </trkpt>
      <trkpt lat="46.38421" lon="5.91427">
        <ele>1018.4000244141</ele>
        <time>2018-06-10T12:09:01.000Z</time>
      </trkpt>
      <trkpt lat="46.38427" lon="5.91436">
        <ele>1019.4000244141</ele>
        <time>2018-06-10T12:09:06.000Z</time>
      </trkpt>
      <trkpt lat="46.38433" lon="5.91452">
        <ele>1020.5999755859</ele>
        <time>2018-06-10T12:09:13.000Z</time>
      </trkpt>
      <trkpt lat="46.38441" lon="5.91465">
        <ele>1021.5999755859</ele>
        <time>2018-06-10T12:09:20.000Z</time>
      </trkpt>
      <trkpt lat="46.38451" lon="5.91486">
        <ele>1022.5999755859</ele>
        <time>2018-06-10T12:09:29.000Z</time>
      </trkpt>
      <trkpt lat="46.38489" lon="5.9155">
        <ele>1021.4000244141</ele>
        <time>2018-06-10T12:09:46.000Z</time>
      </trkpt>
      <trkpt lat="46.38502" lon="5.91571">
        <ele>1019.799987793</ele>
        <time>2018-06-10T12:09:49.000Z</time>
      </trkpt>
      <trkpt lat="46.38511" lon="5.91585">
        <ele>1018.5999755859</ele>
        <time>2018-06-10T12:09:51.000Z</time>
      </trkpt>
      <trkpt lat="46.38552" lon="5.91645">
        <ele>1017.4000244141</ele>
        <time>2018-06-10T12:10:01.000Z</time>
      </trkpt>
      <trkpt lat="46.38561" lon="5.91661">
        <ele>1016.4000244141</ele>
        <time>2018-06-10T12:10:03.000Z</time>
      </trkpt>
      <trkpt lat="46.38566" lon="5.91669">
        <ele>1016</ele>
        <time>2018-06-10T12:10:04.000Z</time>
      </trkpt>
      <trkpt lat="46.38577" lon="5.91681">
        <ele>1015.200012207</ele>
        <time>2018-06-10T12:10:06.000Z</time>
      </trkpt>
      <trkpt lat="46.38591" lon="5.91689">
        <ele>1014.4000244141</ele>
        <time>2018-06-10T12:10:08.000Z</time>
      </trkpt>
      <trkpt lat="46.38597" lon="5.91691">
        <ele>1014.200012207</ele>
        <time>2018-06-10T12:10:09.000Z</time>
      </trkpt>
      <trkpt lat="46.38603" lon="5.91693">
        <ele>1014</ele>
        <time>2018-06-10T12:10:10.000Z</time>
      </trkpt>
      <trkpt lat="46.38612" lon="5.91701">
        <ele>1014</ele>
        <time>2018-06-10T12:10:12.000Z</time>
      </trkpt>
      <trkpt lat="46.38631" lon="5.91722">
        <ele>1014.200012207</ele>
        <time>2018-06-10T12:10:16.000Z</time>
      </trkpt>
      <trkpt lat="46.38647" lon="5.91737">
        <ele>1015.200012207</ele>
        <time>2018-06-10T12:10:22.000Z</time>
      </trkpt>
      <trkpt lat="46.38663" lon="5.91765">
        <ele>1014.200012207</ele>
        <time>2018-06-10T12:10:52.000Z</time>
      </trkpt>
      <trkpt lat="46.38698" lon="5.91782">
        <ele>1015.799987793</ele>
        <time>2018-06-10T12:13:13.000Z</time>
      </trkpt>
      <trkpt lat="46.38699" lon="5.91781">
        <ele>1016.200012207</ele>
        <time>2018-06-10T12:13:14.000Z</time>
      </trkpt>
      <trkpt lat="46.387" lon="5.9178">
        <ele>1017.4000244141</ele>
        <time>2018-06-10T12:13:15.000Z</time>
      </trkpt>
      <trkpt lat="46.38702" lon="5.91774">
        <ele>1018.4000244141</ele>
        <time>2018-06-10T12:13:21.000Z</time>
      </trkpt>
      <trkpt lat="46.38702" lon="5.91772">
        <ele>1018.4000244141</ele>
        <time>2018-06-10T12:13:22.000Z</time>
      </trkpt>
      <trkpt lat="46.38704" lon="5.91765">
        <ele>1019.4000244141</ele>
        <time>2018-06-10T12:13:28.000Z</time>
      </trkpt>
      <trkpt lat="46.38704" lon="5.91762">
        <ele>1019.5999755859</ele>
        <time>2018-06-10T12:13:30.000Z</time>
      </trkpt>
      <trkpt lat="46.38706" lon="5.9175">
        <ele>1020.4000244141</ele>
        <time>2018-06-10T12:13:37.000Z</time>
      </trkpt>
      <trkpt lat="46.38707" lon="5.91749">
        <ele>1020.4000244141</ele>
        <time>2018-06-10T12:13:38.000Z</time>
      </trkpt>
      <trkpt lat="46.38711" lon="5.9174">
        <ele>1020.5999755859</ele>
        <time>2018-06-10T12:13:44.000Z</time>
      </trkpt>
      <trkpt lat="46.38712" lon="5.91721">
        <ele>1021.5999755859</ele>
        <time>2018-06-10T12:13:57.000Z</time>
      </trkpt>
      <trkpt lat="46.38711" lon="5.91718">
        <ele>1022</ele>
        <time>2018-06-10T12:13:59.000Z</time>
      </trkpt>
      <trkpt lat="46.38709" lon="5.91711">
        <ele>1022.5999755859</ele>
        <time>2018-06-10T12:14:04.000Z</time>
      </trkpt>
      <trkpt lat="46.38709" lon="5.91706">
        <ele>1023.4000244141</ele>
        <time>2018-06-10T12:14:09.000Z</time>
      </trkpt>
      <trkpt lat="46.3871" lon="5.91703">
        <ele>1023.5999755859</ele>
        <time>2018-06-10T12:14:12.000Z</time>
      </trkpt>
      <trkpt lat="46.38717" lon="5.91681">
        <ele>1024.5999755859</ele>
        <time>2018-06-10T12:14:24.000Z</time>
      </trkpt>
      <trkpt lat="46.38717" lon="5.91677">
        <ele>1024.8000488281</ele>
        <time>2018-06-10T12:14:26.000Z</time>
      </trkpt>
      <trkpt lat="46.38717" lon="5.91656">
        <ele>1025.8000488281</ele>
        <time>2018-06-10T12:14:38.000Z</time>
      </trkpt>
      <trkpt lat="46.38713" lon="5.91638">
        <ele>1026.5999755859</ele>
        <time>2018-06-10T12:14:48.000Z</time>
      </trkpt>
      <trkpt lat="46.38712" lon="5.91633">
        <ele>1026.8000488281</ele>
        <time>2018-06-10T12:14:51.000Z</time>
      </trkpt>
      <trkpt lat="46.3871" lon="5.91628">
        <ele>1027</ele>
        <time>2018-06-10T12:14:53.000Z</time>
      </trkpt>
      <trkpt lat="46.38709" lon="5.91625">
        <ele>1027.4000244141</ele>
        <time>2018-06-10T12:14:55.000Z</time>
      </trkpt>
      <trkpt lat="46.38707" lon="5.91618">
        <ele>1028</ele>
        <time>2018-06-10T12:14:59.000Z</time>
      </trkpt>
      <trkpt lat="46.38703" lon="5.91605">
        <ele>1029</ele>
        <time>2018-06-10T12:15:08.000Z</time>
      </trkpt>
      <trkpt lat="46.38702" lon="5.91603">
        <ele>1029.4000244141</ele>
        <time>2018-06-10T12:15:10.000Z</time>
      </trkpt>
      <trkpt lat="46.387" lon="5.91594">
        <ele>1030.1999511719</ele>
        <time>2018-06-10T12:15:16.000Z</time>
      </trkpt>
      <trkpt lat="46.38699" lon="5.91586">
        <ele>1031.1999511719</ele>
        <time>2018-06-10T12:15:24.000Z</time>
      </trkpt>
      <trkpt lat="46.38698" lon="5.91572">
        <ele>1032.1999511719</ele>
        <time>2018-06-10T12:15:33.000Z</time>
      </trkpt>
      <trkpt lat="46.38697" lon="5.91564">
        <ele>1033.1999511719</ele>
        <time>2018-06-10T12:15:41.000Z</time>
      </trkpt>
      <trkpt lat="46.38696" lon="5.91562">
        <ele>1033.4000244141</ele>
        <time>2018-06-10T12:15:42.000Z</time>
      </trkpt>
      <trkpt lat="46.38692" lon="5.91551">
        <ele>1034.4000244141</ele>
        <time>2018-06-10T12:15:52.000Z</time>
      </trkpt>
      <trkpt lat="46.38693" lon="5.9154">
        <ele>1035.5999755859</ele>
        <time>2018-06-10T12:16:00.000Z</time>
      </trkpt>
      <trkpt lat="46.38691" lon="5.91534">
        <ele>1035.8000488281</ele>
        <time>2018-06-10T12:16:03.000Z</time>
      </trkpt>
      <trkpt lat="46.38689" lon="5.91522">
        <ele>1036.5999755859</ele>
        <time>2018-06-10T12:16:10.000Z</time>
      </trkpt>
      <trkpt lat="46.38685" lon="5.91507">
        <ele>1037.5999755859</ele>
        <time>2018-06-10T12:16:20.000Z</time>
      </trkpt>
      <trkpt lat="46.38679" lon="5.91488">
        <ele>1038.5999755859</ele>
        <time>2018-06-10T12:16:32.000Z</time>
      </trkpt>
      <trkpt lat="46.38678" lon="5.91487">
        <ele>1038.8000488281</ele>
        <time>2018-06-10T12:16:33.000Z</time>
      </trkpt>
      <trkpt lat="46.38675" lon="5.9148">
        <ele>1039</ele>
        <time>2018-06-10T12:16:37.000Z</time>
      </trkpt>
      <trkpt lat="46.38675" lon="5.91472">
        <ele>1039.8000488281</ele>
        <time>2018-06-10T12:16:42.000Z</time>
      </trkpt>
      <trkpt lat="46.38672" lon="5.91454">
        <ele>1040.8000488281</ele>
        <time>2018-06-10T12:16:55.000Z</time>
      </trkpt>
      <trkpt lat="46.38669" lon="5.91449">
        <ele>1041.4000244141</ele>
        <time>2018-06-10T12:16:59.000Z</time>
      </trkpt>
      <trkpt lat="46.38668" lon="5.91446">
        <ele>1041.5999755859</ele>
        <time>2018-06-10T12:17:01.000Z</time>
      </trkpt>
      <trkpt lat="46.38668" lon="5.91441">
        <ele>1041.8000488281</ele>
        <time>2018-06-10T12:17:06.000Z</time>
      </trkpt>
      <trkpt lat="46.38665" lon="5.91422">
        <ele>1043</ele>
        <time>2018-06-10T12:17:18.000Z</time>
      </trkpt>
      <trkpt lat="46.38664" lon="5.9142">
        <ele>1042.8000488281</ele>
        <time>2018-06-10T12:17:25.000Z</time>
      </trkpt>
      <trkpt lat="46.3866" lon="5.91398">
        <ele>1044</ele>
        <time>2018-06-10T12:17:40.000Z</time>
      </trkpt>
      <trkpt lat="46.38659" lon="5.91389">
        <ele>1044.1999511719</ele>
        <time>2018-06-10T12:17:45.000Z</time>
      </trkpt>
      <trkpt lat="46.38657" lon="5.91379">
        <ele>1045</ele>
        <time>2018-06-10T12:17:52.000Z</time>
      </trkpt>
      <trkpt lat="46.38655" lon="5.91357">
        <ele>1045.4000244141</ele>
        <time>2018-06-10T12:18:01.000Z</time>
      </trkpt>
      <trkpt lat="46.38653" lon="5.91351">
        <ele>1046</ele>
        <time>2018-06-10T12:18:04.000Z</time>
      </trkpt>
      <trkpt lat="46.38651" lon="5.91345">
        <ele>1046.5999755859</ele>
        <time>2018-06-10T12:18:07.000Z</time>
      </trkpt>
      <trkpt lat="46.3865" lon="5.91341">
        <ele>1046.8000488281</ele>
        <time>2018-06-10T12:18:09.000Z</time>
      </trkpt>
      <trkpt lat="46.38649" lon="5.91335">
        <ele>1047.1999511719</ele>
        <time>2018-06-10T12:18:13.000Z</time>
      </trkpt>
      <trkpt lat="46.38646" lon="5.91317">
        <ele>1048</ele>
        <time>2018-06-10T12:18:21.000Z</time>
      </trkpt>
      <trkpt lat="46.38645" lon="5.91312">
        <ele>1048.1999511719</ele>
        <time>2018-06-10T12:18:23.000Z</time>
      </trkpt>
      <trkpt lat="46.38645" lon="5.9131">
        <ele>1048.1999511719</ele>
        <time>2018-06-10T12:18:24.000Z</time>
      </trkpt>
      <trkpt lat="46.38643" lon="5.91286">
        <ele>1049.1999511719</ele>
        <time>2018-06-10T12:18:37.000Z</time>
      </trkpt>
      <trkpt lat="46.3864" lon="5.9127">
        <ele>1049.5999755859</ele>
        <time>2018-06-10T12:18:44.000Z</time>
      </trkpt>
      <trkpt lat="46.38639" lon="5.91266">
        <ele>1049.8000488281</ele>
        <time>2018-06-10T12:18:46.000Z</time>
      </trkpt>
      <trkpt lat="46.38641" lon="5.91253">
        <ele>1050.1999511719</ele>
        <time>2018-06-10T12:18:54.000Z</time>
      </trkpt>
      <trkpt lat="46.38642" lon="5.91249">
        <ele>1050.4000244141</ele>
        <time>2018-06-10T12:18:59.000Z</time>
      </trkpt>
      <trkpt lat="46.38646" lon="5.9124">
        <ele>1051.4000244141</ele>
        <time>2018-06-10T12:19:09.000Z</time>
      </trkpt>
      <trkpt lat="46.3865" lon="5.9124">
        <ele>1052.5999755859</ele>
        <time>2018-06-10T12:19:14.000Z</time>
      </trkpt>
      <trkpt lat="46.38654" lon="5.91241">
        <ele>1053.8000488281</ele>
        <time>2018-06-10T12:19:20.000Z</time>
      </trkpt>
      <trkpt lat="46.38658" lon="5.91248">
        <ele>1054.8000488281</ele>
        <time>2018-06-10T12:19:26.000Z</time>
      </trkpt>
      <trkpt lat="46.38668" lon="5.91256">
        <ele>1055.8000488281</ele>
        <time>2018-06-10T12:19:37.000Z</time>
      </trkpt>
      <trkpt lat="46.38675" lon="5.91273">
        <ele>1057</ele>
        <time>2018-06-10T12:19:48.000Z</time>
      </trkpt>
      <trkpt lat="46.38676" lon="5.91277">
        <ele>1058</ele>
        <time>2018-06-10T12:19:54.000Z</time>
      </trkpt>
      <trkpt lat="46.38678" lon="5.91291">
        <ele>1059</ele>
        <time>2018-06-10T12:20:05.000Z</time>
      </trkpt>
      <trkpt lat="46.38685" lon="5.91309">
        <ele>1060.1999511719</ele>
        <time>2018-06-10T12:20:17.000Z</time>
      </trkpt>
      <trkpt lat="46.38689" lon="5.91322">
        <ele>1061.1999511719</ele>
        <time>2018-06-10T12:20:27.000Z</time>
      </trkpt>
      <trkpt lat="46.38692" lon="5.91333">
        <ele>1062.1999511719</ele>
        <time>2018-06-10T12:20:33.000Z</time>
      </trkpt>
      <trkpt lat="46.38692" lon="5.91334">
        <ele>1062.4000244141</ele>
        <time>2018-06-10T12:20:34.000Z</time>
      </trkpt>
      <trkpt lat="46.38699" lon="5.91342">
        <ele>1063.5999755859</ele>
        <time>2018-06-10T12:20:43.000Z</time>
      </trkpt>
      <trkpt lat="46.387" lon="5.91344">
        <ele>1064</ele>
        <time>2018-06-10T12:20:45.000Z</time>
      </trkpt>
      <trkpt lat="46.38703" lon="5.91349">
        <ele>1064.5999755859</ele>
        <time>2018-06-10T12:20:50.000Z</time>
      </trkpt>
      <trkpt lat="46.38707" lon="5.91367">
        <ele>1065.8000488281</ele>
        <time>2018-06-10T12:21:06.000Z</time>
      </trkpt>
      <trkpt lat="46.38708" lon="5.9137">
        <ele>1066.1999511719</ele>
        <time>2018-06-10T12:21:09.000Z</time>
      </trkpt>
      <trkpt lat="46.38709" lon="5.91376">
        <ele>1066.8000488281</ele>
        <time>2018-06-10T12:21:14.000Z</time>
      </trkpt>
      <trkpt lat="46.38714" lon="5.91384">
        <ele>1068</ele>
        <time>2018-06-10T12:21:22.000Z</time>
      </trkpt>
      <trkpt lat="46.38716" lon="5.91391">
        <ele>1069</ele>
        <time>2018-06-10T12:21:27.000Z</time>
      </trkpt>
      <trkpt lat="46.3872" lon="5.91404">
        <ele>1070.1999511719</ele>
        <time>2018-06-10T12:21:38.000Z</time>
      </trkpt>
      <trkpt lat="46.38722" lon="5.91411">
        <ele>1071.1999511719</ele>
        <time>2018-06-10T12:21:44.000Z</time>
      </trkpt>
      <trkpt lat="46.38724" lon="5.91412">
        <ele>1071.5999755859</ele>
        <time>2018-06-10T12:21:46.000Z</time>
      </trkpt>
      <trkpt lat="46.38727" lon="5.91418">
        <ele>1072.1999511719</ele>
        <time>2018-06-10T12:21:52.000Z</time>
      </trkpt>
      <trkpt lat="46.38732" lon="5.91425">
        <ele>1073.4000244141</ele>
        <time>2018-06-10T12:22:00.000Z</time>
      </trkpt>
      <trkpt lat="46.38736" lon="5.91428">
        <ele>1074.4000244141</ele>
        <time>2018-06-10T12:22:07.000Z</time>
      </trkpt>
      <trkpt lat="46.38742" lon="5.91435">
        <ele>1075.5999755859</ele>
        <time>2018-06-10T12:22:16.000Z</time>
      </trkpt>
      <trkpt lat="46.38746" lon="5.91444">
        <ele>1076.5999755859</ele>
        <time>2018-06-10T12:22:26.000Z</time>
      </trkpt>
      <trkpt lat="46.38751" lon="5.91449">
        <ele>1077.5999755859</ele>
        <time>2018-06-10T12:22:33.000Z</time>
      </trkpt>
      <trkpt lat="46.38753" lon="5.9146">
        <ele>1078.8000488281</ele>
        <time>2018-06-10T12:22:43.000Z</time>
      </trkpt>
      <trkpt lat="46.38757" lon="5.91469">
        <ele>1079.8000488281</ele>
        <time>2018-06-10T12:22:53.000Z</time>
      </trkpt>
      <trkpt lat="46.38758" lon="5.9148">
        <ele>1080.8000488281</ele>
        <time>2018-06-10T12:23:01.000Z</time>
      </trkpt>
      <trkpt lat="46.38762" lon="5.9149">
        <ele>1081.8000488281</ele>
        <time>2018-06-10T12:23:11.000Z</time>
      </trkpt>
      <trkpt lat="46.38768" lon="5.91499">
        <ele>1083</ele>
        <time>2018-06-10T12:23:20.000Z</time>
      </trkpt>
      <trkpt lat="46.38771" lon="5.9151">
        <ele>1084</ele>
        <time>2018-06-10T12:23:30.000Z</time>
      </trkpt>
      <trkpt lat="46.38774" lon="5.91521">
        <ele>1085</ele>
        <time>2018-06-10T12:23:39.000Z</time>
      </trkpt>
      <trkpt lat="46.38778" lon="5.91529">
        <ele>1086.1999511719</ele>
        <time>2018-06-10T12:23:52.000Z</time>
      </trkpt>
      <trkpt lat="46.3878" lon="5.9154">
        <ele>1087.1999511719</ele>
        <time>2018-06-10T12:24:01.000Z</time>
      </trkpt>
      <trkpt lat="46.38789" lon="5.91551">
        <ele>1088.1999511719</ele>
        <time>2018-06-10T12:24:10.000Z</time>
      </trkpt>
      <trkpt lat="46.38796" lon="5.91561">
        <ele>1089.4000244141</ele>
        <time>2018-06-10T12:24:20.000Z</time>
      </trkpt>
      <trkpt lat="46.38803" lon="5.91572">
        <ele>1090.4000244141</ele>
        <time>2018-06-10T12:24:28.000Z</time>
      </trkpt>
      <trkpt lat="46.38808" lon="5.9158">
        <ele>1091.5999755859</ele>
        <time>2018-06-10T12:24:36.000Z</time>
      </trkpt>
      <trkpt lat="46.38809" lon="5.91584">
        <ele>1092</ele>
        <time>2018-06-10T12:24:39.000Z</time>
      </trkpt>
      <trkpt lat="46.38811" lon="5.91588">
        <ele>1092.5999755859</ele>
        <time>2018-06-10T12:24:44.000Z</time>
      </trkpt>
      <trkpt lat="46.38819" lon="5.91601">
        <ele>1093.5999755859</ele>
        <time>2018-06-10T12:24:55.000Z</time>
      </trkpt>
      <trkpt lat="46.38827" lon="5.91608">
        <ele>1094.8000488281</ele>
        <time>2018-06-10T12:25:07.000Z</time>
      </trkpt>
      <trkpt lat="46.38833" lon="5.91613">
        <ele>1095.8000488281</ele>
        <time>2018-06-10T12:25:13.000Z</time>
      </trkpt>
      <trkpt lat="46.38834" lon="5.91613">
        <ele>1096</ele>
        <time>2018-06-10T12:25:14.000Z</time>
      </trkpt>
      <trkpt lat="46.38841" lon="5.91619">
        <ele>1096.8000488281</ele>
        <time>2018-06-10T12:25:23.000Z</time>
      </trkpt>
      <trkpt lat="46.3886" lon="5.91631">
        <ele>1097.8000488281</ele>
        <time>2018-06-10T12:25:47.000Z</time>
      </trkpt>
      <trkpt lat="46.38867" lon="5.9164">
        <ele>1098.1999511719</ele>
        <time>2018-06-10T12:26:50.000Z</time>
      </trkpt>
      <trkpt lat="46.38896" lon="5.91696">
        <ele>1098.1999511719</ele>
        <time>2018-06-10T12:30:09.000Z</time>
      </trkpt>
      <trkpt lat="46.38897" lon="5.91697">
        <ele>1098.1999511719</ele>
        <time>2018-06-10T12:30:11.000Z</time>
      </trkpt>
      <trkpt lat="46.38895" lon="5.91682">
        <ele>1098.1999511719</ele>
        <time>2018-06-10T12:32:07.000Z</time>
      </trkpt>
      <trkpt lat="46.38904" lon="5.91692">
        <ele>1098.1999511719</ele>
        <time>2018-06-10T12:32:26.000Z</time>
      </trkpt>
      <trkpt lat="46.38895" lon="5.91696">
        <ele>1098.1999511719</ele>
        <time>2018-06-10T12:34:47.000Z</time>
      </trkpt>
      <trkpt lat="46.38808" lon="5.91426">
        <ele>1085</ele>
        <time>2018-06-10T13:18:18.000Z</time>
      </trkpt>
      <trkpt lat="46.38812" lon="5.91418">
        <ele>1085.8000488281</ele>
        <time>2018-06-10T13:18:19.000Z</time>
      </trkpt>
      <trkpt lat="46.38818" lon="5.91412">
        <ele>1085.8000488281</ele>
        <time>2018-06-10T13:18:22.000Z</time>
      </trkpt>
      <trkpt lat="46.3882" lon="5.91408">
        <ele>1085.8000488281</ele>
        <time>2018-06-10T13:18:24.000Z</time>
      </trkpt>
      <trkpt lat="46.38823" lon="5.91399">
        <ele>1085.8000488281</ele>
        <time>2018-06-10T13:18:27.000Z</time>
      </trkpt>
      <trkpt lat="46.3883" lon="5.91389">
        <ele>1085.4000244141</ele>
        <time>2018-06-10T13:18:31.000Z</time>
      </trkpt>
      <trkpt lat="46.38846" lon="5.91394">
        <ele>1084.8000488281</ele>
        <time>2018-06-10T13:18:36.000Z</time>
      </trkpt>
      <trkpt lat="46.38855" lon="5.914">
        <ele>1083.5999755859</ele>
        <time>2018-06-10T13:18:38.000Z</time>
      </trkpt>
      <trkpt lat="46.3886" lon="5.91404">
        <ele>1082.5999755859</ele>
        <time>2018-06-10T13:18:39.000Z</time>
      </trkpt>
      <trkpt lat="46.38866" lon="5.91414">
        <ele>1081.4000244141</ele>
        <time>2018-06-10T13:18:41.000Z</time>
      </trkpt>
      <trkpt lat="46.38877" lon="5.91435">
        <ele>1081.1999511719</ele>
        <time>2018-06-10T13:18:47.000Z</time>
      </trkpt>
      <trkpt lat="46.38887" lon="5.91443">
        <ele>1080.5999755859</ele>
        <time>2018-06-10T13:18:50.000Z</time>
      </trkpt>
      <trkpt lat="46.38893" lon="5.91442">
        <ele>1080</ele>
        <time>2018-06-10T13:18:51.000Z</time>
      </trkpt>
      <trkpt lat="46.389" lon="5.91441">
        <ele>1078.5999755859</ele>
        <time>2018-06-10T13:18:52.000Z</time>
      </trkpt>
      <trkpt lat="46.38907" lon="5.91439">
        <ele>1076.5999755859</ele>
        <time>2018-06-10T13:18:53.000Z</time>
      </trkpt>
      <trkpt lat="46.38913" lon="5.91437">
        <ele>1074.1999511719</ele>
        <time>2018-06-10T13:18:54.000Z</time>
      </trkpt>
      <trkpt lat="46.38919" lon="5.91436">
        <ele>1072.4000244141</ele>
        <time>2018-06-10T13:18:55.000Z</time>
      </trkpt>
      <trkpt lat="46.38924" lon="5.91437">
        <ele>1071.1999511719</ele>
        <time>2018-06-10T13:18:56.000Z</time>
      </trkpt>
      <trkpt lat="46.38931" lon="5.9144">
        <ele>1069.5999755859</ele>
        <time>2018-06-10T13:18:58.000Z</time>
      </trkpt>
      <trkpt lat="46.38944" lon="5.91442">
        <ele>1068</ele>
        <time>2018-06-10T13:19:00.000Z</time>
      </trkpt>
      <trkpt lat="46.38948" lon="5.91444">
        <ele>1067.1999511719</ele>
        <time>2018-06-10T13:19:01.000Z</time>
      </trkpt>
      <trkpt lat="46.38951" lon="5.91447">
        <ele>1066.8000488281</ele>
        <time>2018-06-10T13:19:02.000Z</time>
      </trkpt>
      <trkpt lat="46.3896" lon="5.91449">
        <ele>1065.5999755859</ele>
        <time>2018-06-10T13:19:05.000Z</time>
      </trkpt>
      <trkpt lat="46.38966" lon="5.91453">
        <ele>1064.5999755859</ele>
        <time>2018-06-10T13:19:07.000Z</time>
      </trkpt>
      <trkpt lat="46.3897" lon="5.91455">
        <ele>1063.1999511719</ele>
        <time>2018-06-10T13:19:08.000Z</time>
      </trkpt>
      <trkpt lat="46.38974" lon="5.91457">
        <ele>1061.5999755859</ele>
        <time>2018-06-10T13:19:09.000Z</time>
      </trkpt>
      <trkpt lat="46.38978" lon="5.91462">
        <ele>1059.8000488281</ele>
        <time>2018-06-10T13:19:10.000Z</time>
      </trkpt>
      <trkpt lat="46.38982" lon="5.91466">
        <ele>1058</ele>
        <time>2018-06-10T13:19:11.000Z</time>
      </trkpt>
      <trkpt lat="46.38986" lon="5.91469">
        <ele>1056.1999511719</ele>
        <time>2018-06-10T13:19:12.000Z</time>
      </trkpt>
      <trkpt lat="46.38989" lon="5.91471">
        <ele>1054.5999755859</ele>
        <time>2018-06-10T13:19:13.000Z</time>
      </trkpt>
      <trkpt lat="46.38991" lon="5.91474">
        <ele>1053.5999755859</ele>
        <time>2018-06-10T13:19:14.000Z</time>
      </trkpt>
      <trkpt lat="46.38994" lon="5.91476">
        <ele>1052.5999755859</ele>
        <time>2018-06-10T13:19:15.000Z</time>
      </trkpt>
      <trkpt lat="46.39004" lon="5.91479">
        <ele>1051.5999755859</ele>
        <time>2018-06-10T13:19:16.000Z</time>
      </trkpt>
      <trkpt lat="46.39026" lon="5.91489">
        <ele>1050.4000244141</ele>
        <time>2018-06-10T13:19:19.000Z</time>
      </trkpt>
      <trkpt lat="46.39055" lon="5.91507">
        <ele>1051.8000488281</ele>
        <time>2018-06-10T13:19:23.000Z</time>
      </trkpt>
      <trkpt lat="46.39063" lon="5.91512">
        <ele>1053</ele>
        <time>2018-06-10T13:19:25.000Z</time>
      </trkpt>
      <trkpt lat="46.3906" lon="5.91527">
        <ele>1054.4000244141</ele>
        <time>2018-06-10T13:19:28.000Z</time>
      </trkpt>
      <trkpt lat="46.39077" lon="5.91531">
        <ele>1055</ele>
        <time>2018-06-10T13:19:36.000Z</time>
      </trkpt>
      <trkpt lat="46.39081" lon="5.91534">
        <ele>1055</ele>
        <time>2018-06-10T13:19:38.000Z</time>
      </trkpt>
      <trkpt lat="46.39087" lon="5.91543">
        <ele>1054.5999755859</ele>
        <time>2018-06-10T13:19:41.000Z</time>
      </trkpt>
      <trkpt lat="46.39087" lon="5.91548">
        <ele>1054.5999755859</ele>
        <time>2018-06-10T13:19:43.000Z</time>
      </trkpt>
      <trkpt lat="46.39096" lon="5.9157">
        <ele>1055</ele>
        <time>2018-06-10T13:19:54.000Z</time>
      </trkpt>
      <trkpt lat="46.39098" lon="5.91575">
        <ele>1055.1999511719</ele>
        <time>2018-06-10T13:19:57.000Z</time>
      </trkpt>
      <trkpt lat="46.39099" lon="5.91577">
        <ele>1055.4000244141</ele>
        <time>2018-06-10T13:19:58.000Z</time>
      </trkpt>
      <trkpt lat="46.39101" lon="5.91584">
        <ele>1056.5999755859</ele>
        <time>2018-06-10T13:20:04.000Z</time>
      </trkpt>
      <trkpt lat="46.39105" lon="5.91589">
        <ele>1057.1999511719</ele>
        <time>2018-06-10T13:20:09.000Z</time>
      </trkpt>
      <trkpt lat="46.39108" lon="5.91594">
        <ele>1056.8000488281</ele>
        <time>2018-06-10T13:20:11.000Z</time>
      </trkpt>
      <trkpt lat="46.39126" lon="5.91622">
        <ele>1055.5999755859</ele>
        <time>2018-06-10T13:20:23.000Z</time>
      </trkpt>
      <trkpt lat="46.39134" lon="5.91632">
        <ele>1054.1999511719</ele>
        <time>2018-06-10T13:20:26.000Z</time>
      </trkpt>
      <trkpt lat="46.39142" lon="5.91648">
        <ele>1052.5999755859</ele>
        <time>2018-06-10T13:20:29.000Z</time>
      </trkpt>
      <trkpt lat="46.39146" lon="5.91656">
        <ele>1051.8000488281</ele>
        <time>2018-06-10T13:20:30.000Z</time>
      </trkpt>
      <trkpt lat="46.39149" lon="5.91663">
        <ele>1050.4000244141</ele>
        <time>2018-06-10T13:20:31.000Z</time>
      </trkpt>
      <trkpt lat="46.39153" lon="5.9167">
        <ele>1049</ele>
        <time>2018-06-10T13:20:32.000Z</time>
      </trkpt>
      <trkpt lat="46.39156" lon="5.91677">
        <ele>1048.1999511719</ele>
        <time>2018-06-10T13:20:33.000Z</time>
      </trkpt>
      <trkpt lat="46.39159" lon="5.91682">
        <ele>1047.1999511719</ele>
        <time>2018-06-10T13:20:34.000Z</time>
      </trkpt>
      <trkpt lat="46.39162" lon="5.91689">
        <ele>1045.5999755859</ele>
        <time>2018-06-10T13:20:35.000Z</time>
      </trkpt>
      <trkpt lat="46.39168" lon="5.91699">
        <ele>1044</ele>
        <time>2018-06-10T13:20:37.000Z</time>
      </trkpt>
      <trkpt lat="46.39174" lon="5.91708">
        <ele>1042.5999755859</ele>
        <time>2018-06-10T13:20:39.000Z</time>
      </trkpt>
      <trkpt lat="46.39178" lon="5.91725">
        <ele>1041.4000244141</ele>
        <time>2018-06-10T13:20:44.000Z</time>
      </trkpt>
      <trkpt lat="46.39194" lon="5.91754">
        <ele>1040.4000244141</ele>
        <time>2018-06-10T13:20:50.000Z</time>
      </trkpt>
      <trkpt lat="46.39197" lon="5.91759">
        <ele>1039.8000488281</ele>
        <time>2018-06-10T13:20:51.000Z</time>
      </trkpt>
      <trkpt lat="46.39201" lon="5.91767">
        <ele>1039.1999511719</ele>
        <time>2018-06-10T13:20:53.000Z</time>
      </trkpt>
      <trkpt lat="46.39221" lon="5.91785">
        <ele>1037.8000488281</ele>
        <time>2018-06-10T13:21:00.000Z</time>
      </trkpt>
      <trkpt lat="46.3923" lon="5.91784">
        <ele>1036.1999511719</ele>
        <time>2018-06-10T13:21:02.000Z</time>
      </trkpt>
      <trkpt lat="46.39233" lon="5.91782">
        <ele>1035.1999511719</ele>
        <time>2018-06-10T13:21:03.000Z</time>
      </trkpt>
      <trkpt lat="46.39235" lon="5.9178">
        <ele>1034</ele>
        <time>2018-06-10T13:21:04.000Z</time>
      </trkpt>
      <trkpt lat="46.39233" lon="5.91776">
        <ele>1032.4000244141</ele>
        <time>2018-06-10T13:21:05.000Z</time>
      </trkpt>
      <trkpt lat="46.39235" lon="5.91774">
        <ele>1031.1999511719</ele>
        <time>2018-06-10T13:21:06.000Z</time>
      </trkpt>
      <trkpt lat="46.39241" lon="5.91772">
        <ele>1029.8000488281</ele>
        <time>2018-06-10T13:21:08.000Z</time>
      </trkpt>
      <trkpt lat="46.39253" lon="5.91778">
        <ele>1028.8000488281</ele>
        <time>2018-06-10T13:21:13.000Z</time>
      </trkpt>
      <trkpt lat="46.39255" lon="5.91779">
        <ele>1028.8000488281</ele>
        <time>2018-06-10T13:21:14.000Z</time>
      </trkpt>
      <trkpt lat="46.39258" lon="5.91782">
        <ele>1028.5999755859</ele>
        <time>2018-06-10T13:21:16.000Z</time>
      </trkpt>
      <trkpt lat="46.39273" lon="5.91794">
        <ele>1030</ele>
        <time>2018-06-10T13:21:22.000Z</time>
      </trkpt>
      <trkpt lat="46.39282" lon="5.91795">
        <ele>1029.5999755859</ele>
        <time>2018-06-10T13:21:27.000Z</time>
      </trkpt>
      <trkpt lat="46.39284" lon="5.91795">
        <ele>1029</ele>
        <time>2018-06-10T13:21:28.000Z</time>
      </trkpt>
      <trkpt lat="46.39283" lon="5.91795">
        <ele>1028</ele>
        <time>2018-06-10T13:21:30.000Z</time>
      </trkpt>
      <trkpt lat="46.39284" lon="5.91794">
        <ele>1026.5999755859</ele>
        <time>2018-06-10T13:21:33.000Z</time>
      </trkpt>
      <trkpt lat="46.39288" lon="5.91788">
        <ele>1025.4000244141</ele>
        <time>2018-06-10T13:21:47.000Z</time>
      </trkpt>
      <trkpt lat="46.39288" lon="5.91786">
        <ele>1024.1999511719</ele>
        <time>2018-06-10T13:21:49.000Z</time>
      </trkpt>
      <trkpt lat="46.3929" lon="5.91784">
        <ele>1023</ele>
        <time>2018-06-10T13:21:51.000Z</time>
      </trkpt>
      <trkpt lat="46.39291" lon="5.91783">
        <ele>1022</ele>
        <time>2018-06-10T13:21:54.000Z</time>
      </trkpt>
      <trkpt lat="46.39298" lon="5.91785">
        <ele>1020.799987793</ele>
        <time>2018-06-10T13:22:01.000Z</time>
      </trkpt>
      <trkpt lat="46.39303" lon="5.91785">
        <ele>1019.5999755859</ele>
        <time>2018-06-10T13:22:04.000Z</time>
      </trkpt>
      <trkpt lat="46.39306" lon="5.91784">
        <ele>1018.200012207</ele>
        <time>2018-06-10T13:22:08.000Z</time>
      </trkpt>
      <trkpt lat="46.39305" lon="5.91784">
        <ele>1017.200012207</ele>
        <time>2018-06-10T13:22:10.000Z</time>
      </trkpt>
      <trkpt lat="46.39306" lon="5.91775">
        <ele>1016</ele>
        <time>2018-06-10T13:22:21.000Z</time>
      </trkpt>
      <trkpt lat="46.39306" lon="5.91774">
        <ele>1015.5999755859</ele>
        <time>2018-06-10T13:22:22.000Z</time>
      </trkpt>
      <trkpt lat="46.39306" lon="5.91771">
        <ele>1014.799987793</ele>
        <time>2018-06-10T13:22:24.000Z</time>
      </trkpt>
      <trkpt lat="46.39307" lon="5.91769">
        <ele>1013.5999755859</ele>
        <time>2018-06-10T13:22:26.000Z</time>
      </trkpt>
      <trkpt lat="46.39308" lon="5.91768">
        <ele>1012.4000244141</ele>
        <time>2018-06-10T13:22:28.000Z</time>
      </trkpt>
      <trkpt lat="46.39303" lon="5.91763">
        <ele>1011.4000244141</ele>
        <time>2018-06-10T13:22:38.000Z</time>
      </trkpt>
      <trkpt lat="46.39303" lon="5.9176">
        <ele>1010.4000244141</ele>
        <time>2018-06-10T13:22:44.000Z</time>
      </trkpt>
      <trkpt lat="46.39303" lon="5.91759">
        <ele>1009.200012207</ele>
        <time>2018-06-10T13:22:48.000Z</time>
      </trkpt>
      <trkpt lat="46.39304" lon="5.91757">
        <ele>1008</ele>
        <time>2018-06-10T13:22:50.000Z</time>
      </trkpt>
      <trkpt lat="46.39307" lon="5.91759">
        <ele>1004.5999755859</ele>
        <time>2018-06-10T13:23:07.000Z</time>
      </trkpt>
      <trkpt lat="46.39307" lon="5.91761">
        <ele>1002.4000244141</ele>
        <time>2018-06-10T13:23:09.000Z</time>
      </trkpt>
      <trkpt lat="46.39308" lon="5.91761">
        <ele>1001.4000244141</ele>
        <time>2018-06-10T13:23:10.000Z</time>
      </trkpt>
      <trkpt lat="46.39315" lon="5.91766">
        <ele>1000.4000244141</ele>
        <time>2018-06-10T13:23:17.000Z</time>
      </trkpt>
      <trkpt lat="46.39322" lon="5.91766">
        <ele>999.20001220703</ele>
        <time>2018-06-10T13:23:27.000Z</time>
      </trkpt>
      <trkpt lat="46.39324" lon="5.91766">
        <ele>998</ele>
        <time>2018-06-10T13:23:31.000Z</time>
      </trkpt>
      <trkpt lat="46.39322" lon="5.9176">
        <ele>996.59997558594</ele>
        <time>2018-06-10T13:23:37.000Z</time>
      </trkpt>
      <trkpt lat="46.39322" lon="5.91757">
        <ele>995.20001220703</ele>
        <time>2018-06-10T13:23:40.000Z</time>
      </trkpt>
      <trkpt lat="46.39323" lon="5.91755">
        <ele>993.59997558594</ele>
        <time>2018-06-10T13:23:42.000Z</time>
      </trkpt>
      <trkpt lat="46.39322" lon="5.91751">
        <ele>992.40002441406</ele>
        <time>2018-06-10T13:23:44.000Z</time>
      </trkpt>
      <trkpt lat="46.39321" lon="5.91749">
        <ele>991.20001220703</ele>
        <time>2018-06-10T13:23:47.000Z</time>
      </trkpt>
      <trkpt lat="46.39317" lon="5.91752">
        <ele>990.20001220703</ele>
        <time>2018-06-10T13:23:54.000Z</time>
      </trkpt>
      <trkpt lat="46.39313" lon="5.91735">
        <ele>989</ele>
        <time>2018-06-10T13:23:57.000Z</time>
      </trkpt>
      <trkpt lat="46.39318" lon="5.91732">
        <ele>987.79998779297</ele>
        <time>2018-06-10T13:24:12.000Z</time>
      </trkpt>
      <trkpt lat="46.39326" lon="5.91739">
        <ele>986.20001220703</ele>
        <time>2018-06-10T13:24:15.000Z</time>
      </trkpt>
      <trkpt lat="46.39335" lon="5.91744">
        <ele>984.59997558594</ele>
        <time>2018-06-10T13:24:17.000Z</time>
      </trkpt>
      <trkpt lat="46.39341" lon="5.91749">
        <ele>983.40002441406</ele>
        <time>2018-06-10T13:24:19.000Z</time>
      </trkpt>
      <trkpt lat="46.39349" lon="5.91755">
        <ele>982</ele>
        <time>2018-06-10T13:24:21.000Z</time>
      </trkpt>
      <trkpt lat="46.39359" lon="5.91761">
        <ele>979.79998779297</ele>
        <time>2018-06-10T13:24:23.000Z</time>
      </trkpt>
      <trkpt lat="46.3937" lon="5.91766">
        <ele>978</ele>
        <time>2018-06-10T13:24:25.000Z</time>
      </trkpt>
      <trkpt lat="46.39375" lon="5.91768">
        <ele>976.79998779297</ele>
        <time>2018-06-10T13:24:26.000Z</time>
      </trkpt>
      <trkpt lat="46.39379" lon="5.9177">
        <ele>975.40002441406</ele>
        <time>2018-06-10T13:24:27.000Z</time>
      </trkpt>
      <trkpt lat="46.39384" lon="5.91771">
        <ele>974.20001220703</ele>
        <time>2018-06-10T13:24:28.000Z</time>
      </trkpt>
      <trkpt lat="46.39389" lon="5.91772">
        <ele>973</ele>
        <time>2018-06-10T13:24:29.000Z</time>
      </trkpt>
      <trkpt lat="46.39394" lon="5.91771">
        <ele>971.59997558594</ele>
        <time>2018-06-10T13:24:30.000Z</time>
      </trkpt>
      <trkpt lat="46.39398" lon="5.91767">
        <ele>970.20001220703</ele>
        <time>2018-06-10T13:24:31.000Z</time>
      </trkpt>
      <trkpt lat="46.39402" lon="5.91763">
        <ele>968.40002441406</ele>
        <time>2018-06-10T13:24:32.000Z</time>
      </trkpt>
      <trkpt lat="46.39408" lon="5.9176">
        <ele>967.40002441406</ele>
        <time>2018-06-10T13:24:33.000Z</time>
      </trkpt>
      <trkpt lat="46.39416" lon="5.91758">
        <ele>966.40002441406</ele>
        <time>2018-06-10T13:24:34.000Z</time>
      </trkpt>
      <trkpt lat="46.39425" lon="5.91759">
        <ele>965.40002441406</ele>
        <time>2018-06-10T13:24:35.000Z</time>
      </trkpt>
      <trkpt lat="46.39441" lon="5.91762">
        <ele>963.40002441406</ele>
        <time>2018-06-10T13:24:37.000Z</time>
      </trkpt>
      <trkpt lat="46.39448" lon="5.91767">
        <ele>962</ele>
        <time>2018-06-10T13:24:38.000Z</time>
      </trkpt>
      <trkpt lat="46.39456" lon="5.9177">
        <ele>960.59997558594</ele>
        <time>2018-06-10T13:24:39.000Z</time>
      </trkpt>
      <trkpt lat="46.39464" lon="5.91774">
        <ele>959</ele>
        <time>2018-06-10T13:24:40.000Z</time>
      </trkpt>
      <trkpt lat="46.39474" lon="5.91778">
        <ele>957</ele>
        <time>2018-06-10T13:24:41.000Z</time>
      </trkpt>
      <trkpt lat="46.39482" lon="5.91783">
        <ele>954.59997558594</ele>
        <time>2018-06-10T13:24:42.000Z</time>
      </trkpt>
      <trkpt lat="46.39491" lon="5.91789">
        <ele>952.40002441406</ele>
        <time>2018-06-10T13:24:43.000Z</time>
      </trkpt>
      <trkpt lat="46.39502" lon="5.91795">
        <ele>951.20001220703</ele>
        <time>2018-06-10T13:24:44.000Z</time>
      </trkpt>
      <trkpt lat="46.39511" lon="5.918">
        <ele>949.79998779297</ele>
        <time>2018-06-10T13:24:45.000Z</time>
      </trkpt>
      <trkpt lat="46.39524" lon="5.91808">
        <ele>949</ele>
        <time>2018-06-10T13:24:47.000Z</time>
      </trkpt>
      <trkpt lat="46.39549" lon="5.91815">
        <ele>950.59997558594</ele>
        <time>2018-06-10T13:24:50.000Z</time>
      </trkpt>
      <trkpt lat="46.39563" lon="5.91817">
        <ele>951.20001220703</ele>
        <time>2018-06-10T13:24:52.000Z</time>
      </trkpt>
      <trkpt lat="46.39576" lon="5.91816">
        <ele>951.79998779297</ele>
        <time>2018-06-10T13:24:54.000Z</time>
      </trkpt>
      <trkpt lat="46.39611" lon="5.91817">
        <ele>952.20001220703</ele>
        <time>2018-06-10T13:24:59.000Z</time>
      </trkpt>
      <trkpt lat="46.39616" lon="5.91816">
        <ele>952.40002441406</ele>
        <time>2018-06-10T13:25:00.000Z</time>
      </trkpt>
      <trkpt lat="46.39628" lon="5.91809">
        <ele>953.59997558594</ele>
        <time>2018-06-10T13:25:03.000Z</time>
      </trkpt>
      <trkpt lat="46.39642" lon="5.91753">
        <ele>952.59997558594</ele>
        <time>2018-06-10T13:25:14.000Z</time>
      </trkpt>
      <trkpt lat="46.39639" lon="5.91747">
        <ele>951.79998779297</ele>
        <time>2018-06-10T13:25:15.000Z</time>
      </trkpt>
      <trkpt lat="46.39635" lon="5.91737">
        <ele>950.40002441406</ele>
        <time>2018-06-10T13:25:17.000Z</time>
      </trkpt>
      <trkpt lat="46.39623" lon="5.91716">
        <ele>949.20001220703</ele>
        <time>2018-06-10T13:25:23.000Z</time>
      </trkpt>
      <trkpt lat="46.39617" lon="5.91708">
        <ele>947.79998779297</ele>
        <time>2018-06-10T13:25:25.000Z</time>
      </trkpt>
      <trkpt lat="46.3961" lon="5.91701">
        <ele>946.20001220703</ele>
        <time>2018-06-10T13:25:27.000Z</time>
      </trkpt>
      <trkpt lat="46.39604" lon="5.91694">
        <ele>944.59997558594</ele>
        <time>2018-06-10T13:25:29.000Z</time>
      </trkpt>
      <trkpt lat="46.39599" lon="5.91681">
        <ele>944</ele>
        <time>2018-06-10T13:25:32.000Z</time>
      </trkpt>
      <trkpt lat="46.396" lon="5.91668">
        <ele>943.59997558594</ele>
        <time>2018-06-10T13:25:35.000Z</time>
      </trkpt>
      <trkpt lat="46.39602" lon="5.91656">
        <ele>942.40002441406</ele>
        <time>2018-06-10T13:25:38.000Z</time>
      </trkpt>
      <trkpt lat="46.39597" lon="5.91644">
        <ele>941.59997558594</ele>
        <time>2018-06-10T13:25:41.000Z</time>
      </trkpt>
      <trkpt lat="46.39594" lon="5.91641">
        <ele>941.20001220703</ele>
        <time>2018-06-10T13:25:42.000Z</time>
      </trkpt>
      <trkpt lat="46.39584" lon="5.91628">
        <ele>939.79998779297</ele>
        <time>2018-06-10T13:25:45.000Z</time>
      </trkpt>
      <trkpt lat="46.39577" lon="5.91613">
        <ele>938.59997558594</ele>
        <time>2018-06-10T13:25:48.000Z</time>
      </trkpt>
      <trkpt lat="46.39571" lon="5.91603">
        <ele>937.40002441406</ele>
        <time>2018-06-10T13:25:50.000Z</time>
      </trkpt>
      <trkpt lat="46.39565" lon="5.91593">
        <ele>936.40002441406</ele>
        <time>2018-06-10T13:25:52.000Z</time>
      </trkpt>
      <trkpt lat="46.39563" lon="5.91586">
        <ele>936</ele>
        <time>2018-06-10T13:25:53.000Z</time>
      </trkpt>
      <trkpt lat="46.39558" lon="5.91569">
        <ele>935</ele>
        <time>2018-06-10T13:25:55.000Z</time>
      </trkpt>
      <trkpt lat="46.39552" lon="5.91557">
        <ele>933.20001220703</ele>
        <time>2018-06-10T13:25:57.000Z</time>
      </trkpt>
      <trkpt lat="46.39546" lon="5.91545">
        <ele>931.79998779297</ele>
        <time>2018-06-10T13:25:59.000Z</time>
      </trkpt>
      <trkpt lat="46.39543" lon="5.91538">
        <ele>930.79998779297</ele>
        <time>2018-06-10T13:26:00.000Z</time>
      </trkpt>
      <trkpt lat="46.39541" lon="5.91531">
        <ele>929.40002441406</ele>
        <time>2018-06-10T13:26:01.000Z</time>
      </trkpt>
      <trkpt lat="46.3954" lon="5.91523">
        <ele>928.20001220703</ele>
        <time>2018-06-10T13:26:02.000Z</time>
      </trkpt>
      <trkpt lat="46.39539" lon="5.91517">
        <ele>927.20001220703</ele>
        <time>2018-06-10T13:26:03.000Z</time>
      </trkpt>
      <trkpt lat="46.39537" lon="5.91512">
        <ele>926.20001220703</ele>
        <time>2018-06-10T13:26:04.000Z</time>
      </trkpt>
      <trkpt lat="46.39527" lon="5.91481">
        <ele>925.40002441406</ele>
        <time>2018-06-10T13:26:09.000Z</time>
      </trkpt>
      <trkpt lat="46.39522" lon="5.91472">
        <ele>925.20001220703</ele>
        <time>2018-06-10T13:26:10.000Z</time>
      </trkpt>
      <trkpt lat="46.39514" lon="5.91452">
        <ele>923.59997558594</ele>
        <time>2018-06-10T13:26:13.000Z</time>
      </trkpt>
      <trkpt lat="46.39511" lon="5.91447">
        <ele>922.20001220703</ele>
        <time>2018-06-10T13:26:14.000Z</time>
      </trkpt>
      <trkpt lat="46.39508" lon="5.91442">
        <ele>921.20001220703</ele>
        <time>2018-06-10T13:26:15.000Z</time>
      </trkpt>
      <trkpt lat="46.39505" lon="5.9143">
        <ele>919.59997558594</ele>
        <time>2018-06-10T13:26:17.000Z</time>
      </trkpt>
      <trkpt lat="46.395" lon="5.91417">
        <ele>918.20001220703</ele>
        <time>2018-06-10T13:26:19.000Z</time>
      </trkpt>
      <trkpt lat="46.39498" lon="5.91412">
        <ele>917.20001220703</ele>
        <time>2018-06-10T13:26:20.000Z</time>
      </trkpt>
      <trkpt lat="46.39496" lon="5.91407">
        <ele>916</ele>
        <time>2018-06-10T13:26:21.000Z</time>
      </trkpt>
      <trkpt lat="46.39496" lon="5.91401">
        <ele>914.59997558594</ele>
        <time>2018-06-10T13:26:22.000Z</time>
      </trkpt>
      <trkpt lat="46.39495" lon="5.91392">
        <ele>913.20001220703</ele>
        <time>2018-06-10T13:26:24.000Z</time>
      </trkpt>
      <trkpt lat="46.39494" lon="5.9138">
        <ele>911.59997558594</ele>
        <time>2018-06-10T13:26:26.000Z</time>
      </trkpt>
      <trkpt lat="46.39492" lon="5.91374">
        <ele>910.59997558594</ele>
        <time>2018-06-10T13:26:27.000Z</time>
      </trkpt>
      <trkpt lat="46.39487" lon="5.91362">
        <ele>908.59997558594</ele>
        <time>2018-06-10T13:26:29.000Z</time>
      </trkpt>
      <trkpt lat="46.39482" lon="5.9135">
        <ele>907</ele>
        <time>2018-06-10T13:26:31.000Z</time>
      </trkpt>
      <trkpt lat="46.39478" lon="5.91345">
        <ele>906.59997558594</ele>
        <time>2018-06-10T13:26:32.000Z</time>
      </trkpt>
      <trkpt lat="46.39468" lon="5.91337">
        <ele>905.40002441406</ele>
        <time>2018-06-10T13:26:34.000Z</time>
      </trkpt>
      <trkpt lat="46.39463" lon="5.91332">
        <ele>904.40002441406</ele>
        <time>2018-06-10T13:26:35.000Z</time>
      </trkpt>
      <trkpt lat="46.39459" lon="5.91329">
        <ele>903.20001220703</ele>
        <time>2018-06-10T13:26:36.000Z</time>
      </trkpt>
      <trkpt lat="46.39455" lon="5.91325">
        <ele>902.20001220703</ele>
        <time>2018-06-10T13:26:37.000Z</time>
      </trkpt>
      <trkpt lat="46.3945" lon="5.91314">
        <ele>901</ele>
        <time>2018-06-10T13:26:39.000Z</time>
      </trkpt>
      <trkpt lat="46.39445" lon="5.91303">
        <ele>899.59997558594</ele>
        <time>2018-06-10T13:26:41.000Z</time>
      </trkpt>
      <trkpt lat="46.39443" lon="5.91297">
        <ele>898.59997558594</ele>
        <time>2018-06-10T13:26:42.000Z</time>
      </trkpt>
      <trkpt lat="46.39441" lon="5.9129">
        <ele>897.79998779297</ele>
        <time>2018-06-10T13:26:43.000Z</time>
      </trkpt>
      <trkpt lat="46.39439" lon="5.91283">
        <ele>897</ele>
        <time>2018-06-10T13:26:44.000Z</time>
      </trkpt>
      <trkpt lat="46.39437" lon="5.91276">
        <ele>896</ele>
        <time>2018-06-10T13:26:45.000Z</time>
      </trkpt>
      <trkpt lat="46.39433" lon="5.91268">
        <ele>894.59997558594</ele>
        <time>2018-06-10T13:26:47.000Z</time>
      </trkpt>
      <trkpt lat="46.39429" lon="5.9126">
        <ele>893.40002441406</ele>
        <time>2018-06-10T13:26:49.000Z</time>
      </trkpt>
      <trkpt lat="46.3942" lon="5.91245">
        <ele>891.79998779297</ele>
        <time>2018-06-10T13:26:52.000Z</time>
      </trkpt>
      <trkpt lat="46.39417" lon="5.91239">
        <ele>890.59997558594</ele>
        <time>2018-06-10T13:26:53.000Z</time>
      </trkpt>
      <trkpt lat="46.39414" lon="5.91232">
        <ele>889.40002441406</ele>
        <time>2018-06-10T13:26:54.000Z</time>
      </trkpt>
      <trkpt lat="46.39412" lon="5.91225">
        <ele>887.59997558594</ele>
        <time>2018-06-10T13:26:55.000Z</time>
      </trkpt>
      <trkpt lat="46.39409" lon="5.91218">
        <ele>885.79998779297</ele>
        <time>2018-06-10T13:26:56.000Z</time>
      </trkpt>
      <trkpt lat="46.39405" lon="5.91211">
        <ele>884</ele>
        <time>2018-06-10T13:26:57.000Z</time>
      </trkpt>
      <trkpt lat="46.39402" lon="5.91207">
        <ele>882.20001220703</ele>
        <time>2018-06-10T13:26:58.000Z</time>
      </trkpt>
      <trkpt lat="46.39398" lon="5.91202">
        <ele>880.79998779297</ele>
        <time>2018-06-10T13:26:59.000Z</time>
      </trkpt>
      <trkpt lat="46.39395" lon="5.91197">
        <ele>879.59997558594</ele>
        <time>2018-06-10T13:27:00.000Z</time>
      </trkpt>
      <trkpt lat="46.39389" lon="5.91189">
        <ele>877.40002441406</ele>
        <time>2018-06-10T13:27:02.000Z</time>
      </trkpt>
      <trkpt lat="46.39385" lon="5.91185">
        <ele>876.20001220703</ele>
        <time>2018-06-10T13:27:03.000Z</time>
      </trkpt>
      <trkpt lat="46.39381" lon="5.91181">
        <ele>874.79998779297</ele>
        <time>2018-06-10T13:27:04.000Z</time>
      </trkpt>
      <trkpt lat="46.39378" lon="5.91178">
        <ele>874.20001220703</ele>
        <time>2018-06-10T13:27:05.000Z</time>
      </trkpt>
      <trkpt lat="46.39376" lon="5.91177">
        <ele>873.59997558594</ele>
        <time>2018-06-10T13:27:06.000Z</time>
      </trkpt>
      <trkpt lat="46.3937" lon="5.91171">
        <ele>872.59997558594</ele>
        <time>2018-06-10T13:27:13.000Z</time>
      </trkpt>
      <trkpt lat="46.39367" lon="5.91178">
        <ele>871.40002441406</ele>
        <time>2018-06-10T13:27:18.000Z</time>
      </trkpt>
      <trkpt lat="46.39367" lon="5.91184">
        <ele>870.20001220703</ele>
        <time>2018-06-10T13:27:21.000Z</time>
      </trkpt>
      <trkpt lat="46.39366" lon="5.91194">
        <ele>868.20001220703</ele>
        <time>2018-06-10T13:27:23.000Z</time>
      </trkpt>
      <trkpt lat="46.39363" lon="5.91198">
        <ele>867.40002441406</ele>
        <time>2018-06-10T13:27:24.000Z</time>
      </trkpt>
      <trkpt lat="46.39359" lon="5.91207">
        <ele>866.79998779297</ele>
        <time>2018-06-10T13:27:25.000Z</time>
      </trkpt>
      <trkpt lat="46.39357" lon="5.91215">
        <ele>865.79998779297</ele>
        <time>2018-06-10T13:27:27.000Z</time>
      </trkpt>
      <trkpt lat="46.39356" lon="5.91217">
        <ele>864.40002441406</ele>
        <time>2018-06-10T13:27:29.000Z</time>
      </trkpt>
      <trkpt lat="46.39353" lon="5.91219">
        <ele>864</ele>
        <time>2018-06-10T13:27:30.000Z</time>
      </trkpt>
      <trkpt lat="46.39345" lon="5.9122">
        <ele>864</ele>
        <time>2018-06-10T13:27:33.000Z</time>
      </trkpt>
      <trkpt lat="46.39308" lon="5.91215">
        <ele>865.20001220703</ele>
        <time>2018-06-10T13:27:49.000Z</time>
      </trkpt>
      <trkpt lat="46.39306" lon="5.91216">
        <ele>865.40002441406</ele>
        <time>2018-06-10T13:27:50.000Z</time>
      </trkpt>
      <trkpt lat="46.39298" lon="5.91214">
        <ele>866.20001220703</ele>
        <time>2018-06-10T13:27:54.000Z</time>
      </trkpt>
      <trkpt lat="46.39286" lon="5.91216">
        <ele>866.59997558594</ele>
        <time>2018-06-10T13:28:00.000Z</time>
      </trkpt>
      <trkpt lat="46.39265" lon="5.91208">
        <ele>865</ele>
        <time>2018-06-10T13:28:06.000Z</time>
      </trkpt>
      <trkpt lat="46.39257" lon="5.91203">
        <ele>863</ele>
        <time>2018-06-10T13:28:08.000Z</time>
      </trkpt>
      <trkpt lat="46.39252" lon="5.91201">
        <ele>861.79998779297</ele>
        <time>2018-06-10T13:28:09.000Z</time>
      </trkpt>
      <trkpt lat="46.39249" lon="5.91201">
        <ele>860.40002441406</ele>
        <time>2018-06-10T13:28:10.000Z</time>
      </trkpt>
      <trkpt lat="46.39246" lon="5.912">
        <ele>859.40002441406</ele>
        <time>2018-06-10T13:28:11.000Z</time>
      </trkpt>
      <trkpt lat="46.39243" lon="5.91199">
        <ele>858</ele>
        <time>2018-06-10T13:28:13.000Z</time>
      </trkpt>
      <trkpt lat="46.39233" lon="5.91197">
        <ele>858.59997558594</ele>
        <time>2018-06-10T13:28:23.000Z</time>
      </trkpt>
      <trkpt lat="46.39219" lon="5.91188">
        <ele>858.20001220703</ele>
        <time>2018-06-10T13:28:26.000Z</time>
      </trkpt>
      <trkpt lat="46.39212" lon="5.91181">
        <ele>857.59997558594</ele>
        <time>2018-06-10T13:28:28.000Z</time>
      </trkpt>
      <trkpt lat="46.39203" lon="5.91174">
        <ele>856.59997558594</ele>
        <time>2018-06-10T13:28:30.000Z</time>
      </trkpt>
      <trkpt lat="46.39196" lon="5.91168">
        <ele>855.20001220703</ele>
        <time>2018-06-10T13:28:32.000Z</time>
      </trkpt>
      <trkpt lat="46.39187" lon="5.91158">
        <ele>853.79998779297</ele>
        <time>2018-06-10T13:28:34.000Z</time>
      </trkpt>
      <trkpt lat="46.39183" lon="5.91154">
        <ele>852.59997558594</ele>
        <time>2018-06-10T13:28:35.000Z</time>
      </trkpt>
      <trkpt lat="46.39179" lon="5.9115">
        <ele>851.20001220703</ele>
        <time>2018-06-10T13:28:36.000Z</time>
      </trkpt>
      <trkpt lat="46.39175" lon="5.91145">
        <ele>849.79998779297</ele>
        <time>2018-06-10T13:28:37.000Z</time>
      </trkpt>
      <trkpt lat="46.39169" lon="5.91138">
        <ele>848.40002441406</ele>
        <time>2018-06-10T13:28:39.000Z</time>
      </trkpt>
      <trkpt lat="46.39163" lon="5.91132">
        <ele>847.40002441406</ele>
        <time>2018-06-10T13:28:41.000Z</time>
      </trkpt>
      <trkpt lat="46.39157" lon="5.91125">
        <ele>846.40002441406</ele>
        <time>2018-06-10T13:28:43.000Z</time>
      </trkpt>
      <trkpt lat="46.39154" lon="5.91121">
        <ele>845.59997558594</ele>
        <time>2018-06-10T13:28:44.000Z</time>
      </trkpt>
      <trkpt lat="46.39151" lon="5.91116">
        <ele>844.79998779297</ele>
        <time>2018-06-10T13:28:45.000Z</time>
      </trkpt>
      <trkpt lat="46.39145" lon="5.91103">
        <ele>843.40002441406</ele>
        <time>2018-06-10T13:28:47.000Z</time>
      </trkpt>
      <trkpt lat="46.3914" lon="5.9109">
        <ele>842.40002441406</ele>
        <time>2018-06-10T13:28:48.000Z</time>
      </trkpt>
      <trkpt lat="46.39135" lon="5.91077">
        <ele>840.79998779297</ele>
        <time>2018-06-10T13:28:49.000Z</time>
      </trkpt>
      <trkpt lat="46.3913" lon="5.91064">
        <ele>838.79998779297</ele>
        <time>2018-06-10T13:28:50.000Z</time>
      </trkpt>
      <trkpt lat="46.39125" lon="5.91053">
        <ele>837.40002441406</ele>
        <time>2018-06-10T13:28:51.000Z</time>
      </trkpt>
      <trkpt lat="46.39117" lon="5.91035">
        <ele>836</ele>
        <time>2018-06-10T13:28:53.000Z</time>
      </trkpt>
      <trkpt lat="46.3911" lon="5.9102">
        <ele>834.20001220703</ele>
        <time>2018-06-10T13:28:56.000Z</time>
      </trkpt>
      <trkpt lat="46.39109" lon="5.91016">
        <ele>833</ele>
        <time>2018-06-10T13:28:57.000Z</time>
      </trkpt>
      <trkpt lat="46.39108" lon="5.91009">
        <ele>831.59997558594</ele>
        <time>2018-06-10T13:28:59.000Z</time>
      </trkpt>
      <trkpt lat="46.39108" lon="5.91006">
        <ele>831.20001220703</ele>
        <time>2018-06-10T13:29:00.000Z</time>
      </trkpt>
      <trkpt lat="46.3911" lon="5.91">
        <ele>830.40002441406</ele>
        <time>2018-06-10T13:29:02.000Z</time>
      </trkpt>
      <trkpt lat="46.39114" lon="5.90996">
        <ele>829.40002441406</ele>
        <time>2018-06-10T13:29:06.000Z</time>
      </trkpt>
      <trkpt lat="46.39114" lon="5.90993">
        <ele>829</ele>
        <time>2018-06-10T13:29:07.000Z</time>
      </trkpt>
      <trkpt lat="46.39111" lon="5.90989">
        <ele>827.59997558594</ele>
        <time>2018-06-10T13:29:09.000Z</time>
      </trkpt>
      <trkpt lat="46.39108" lon="5.90984">
        <ele>826.40002441406</ele>
        <time>2018-06-10T13:29:11.000Z</time>
      </trkpt>
      <trkpt lat="46.39095" lon="5.90976">
        <ele>825.40002441406</ele>
        <time>2018-06-10T13:29:15.000Z</time>
      </trkpt>
      <trkpt lat="46.39089" lon="5.90971">
        <ele>824.59997558594</ele>
        <time>2018-06-10T13:29:17.000Z</time>
      </trkpt>
      <trkpt lat="46.39084" lon="5.90966">
        <ele>823.79998779297</ele>
        <time>2018-06-10T13:29:18.000Z</time>
      </trkpt>
      <trkpt lat="46.39081" lon="5.90962">
        <ele>822.79998779297</ele>
        <time>2018-06-10T13:29:19.000Z</time>
      </trkpt>
      <trkpt lat="46.39076" lon="5.90959">
        <ele>822</ele>
        <time>2018-06-10T13:29:20.000Z</time>
      </trkpt>
      <trkpt lat="46.39071" lon="5.90952">
        <ele>820.79998779297</ele>
        <time>2018-06-10T13:29:23.000Z</time>
      </trkpt>
      <trkpt lat="46.39068" lon="5.90946">
        <ele>819.79998779297</ele>
        <time>2018-06-10T13:29:27.000Z</time>
      </trkpt>
      <trkpt lat="46.39067" lon="5.90946">
        <ele>818.59997558594</ele>
        <time>2018-06-10T13:29:29.000Z</time>
      </trkpt>
      <trkpt lat="46.39065" lon="5.90944">
        <ele>817.59997558594</ele>
        <time>2018-06-10T13:29:40.000Z</time>
      </trkpt>
      <trkpt lat="46.39062" lon="5.90939">
        <ele>816</ele>
        <time>2018-06-10T13:29:45.000Z</time>
      </trkpt>
      <trkpt lat="46.39054" lon="5.90928">
        <ele>814.59997558594</ele>
        <time>2018-06-10T13:29:47.000Z</time>
      </trkpt>
      <trkpt lat="46.39052" lon="5.90924">
        <ele>814</ele>
        <time>2018-06-10T13:29:48.000Z</time>
      </trkpt>
      <trkpt lat="46.3905" lon="5.90922">
        <ele>813.40002441406</ele>
        <time>2018-06-10T13:29:49.000Z</time>
      </trkpt>
      <trkpt lat="46.39048" lon="5.90916">
        <ele>813.20001220703</ele>
        <time>2018-06-10T13:29:50.000Z</time>
      </trkpt>
      <trkpt lat="46.39044" lon="5.90909">
        <ele>813.20001220703</ele>
        <time>2018-06-10T13:29:53.000Z</time>
      </trkpt>
      <trkpt lat="46.39039" lon="5.90904">
        <ele>813.79998779297</ele>
        <time>2018-06-10T13:29:57.000Z</time>
      </trkpt>
      <trkpt lat="46.39032" lon="5.90901">
        <ele>814.40002441406</ele>
        <time>2018-06-10T13:30:00.000Z</time>
      </trkpt>
      <trkpt lat="46.39025" lon="5.90893">
        <ele>814.59997558594</ele>
        <time>2018-06-10T13:30:03.000Z</time>
      </trkpt>
      <trkpt lat="46.38987" lon="5.90849">
        <ele>813.59997558594</ele>
        <time>2018-06-10T13:30:18.000Z</time>
      </trkpt>
      <trkpt lat="46.38979" lon="5.90843">
        <ele>812.20001220703</ele>
        <time>2018-06-10T13:30:21.000Z</time>
      </trkpt>
      <trkpt lat="46.38976" lon="5.90839">
        <ele>811</ele>
        <time>2018-06-10T13:30:23.000Z</time>
      </trkpt>
      <trkpt lat="46.38973" lon="5.90836">
        <ele>809.59997558594</ele>
        <time>2018-06-10T13:30:25.000Z</time>
      </trkpt>
      <trkpt lat="46.38969" lon="5.90834">
        <ele>807.79998779297</ele>
        <time>2018-06-10T13:30:27.000Z</time>
      </trkpt>
      <trkpt lat="46.38965" lon="5.90834">
        <ele>806.79998779297</ele>
        <time>2018-06-10T13:30:28.000Z</time>
      </trkpt>
      <trkpt lat="46.38954" lon="5.90835">
        <ele>805</ele>
        <time>2018-06-10T13:30:30.000Z</time>
      </trkpt>
      <trkpt lat="46.38949" lon="5.90834">
        <ele>803.59997558594</ele>
        <time>2018-06-10T13:30:32.000Z</time>
      </trkpt>
      <trkpt lat="46.38942" lon="5.90829">
        <ele>802.40002441406</ele>
        <time>2018-06-10T13:30:35.000Z</time>
      </trkpt>
      <trkpt lat="46.38938" lon="5.9082">
        <ele>800.79998779297</ele>
        <time>2018-06-10T13:30:37.000Z</time>
      </trkpt>
      <trkpt lat="46.38937" lon="5.90813">
        <ele>799.20001220703</ele>
        <time>2018-06-10T13:30:39.000Z</time>
      </trkpt>
      <trkpt lat="46.38936" lon="5.90809">
        <ele>798.59997558594</ele>
        <time>2018-06-10T13:30:40.000Z</time>
      </trkpt>
      <trkpt lat="46.38937" lon="5.90806">
        <ele>798</ele>
        <time>2018-06-10T13:30:41.000Z</time>
      </trkpt>
      <trkpt lat="46.38937" lon="5.90801">
        <ele>796.79998779297</ele>
        <time>2018-06-10T13:30:43.000Z</time>
      </trkpt>
      <trkpt lat="46.38938" lon="5.90793">
        <ele>795.59997558594</ele>
        <time>2018-06-10T13:30:45.000Z</time>
      </trkpt>
      <trkpt lat="46.38936" lon="5.90784">
        <ele>794.20001220703</ele>
        <time>2018-06-10T13:30:47.000Z</time>
      </trkpt>
      <trkpt lat="46.38933" lon="5.90774">
        <ele>793</ele>
        <time>2018-06-10T13:30:49.000Z</time>
      </trkpt>
      <trkpt lat="46.3893" lon="5.90767">
        <ele>791.40002441406</ele>
        <time>2018-06-10T13:30:51.000Z</time>
      </trkpt>
      <trkpt lat="46.38927" lon="5.9076">
        <ele>790.20001220703</ele>
        <time>2018-06-10T13:30:54.000Z</time>
      </trkpt>
      <trkpt lat="46.38922" lon="5.90751">
        <ele>789</ele>
        <time>2018-06-10T13:30:58.000Z</time>
      </trkpt>
      <trkpt lat="46.38918" lon="5.90747">
        <ele>787.79998779297</ele>
        <time>2018-06-10T13:31:00.000Z</time>
      </trkpt>
      <trkpt lat="46.38913" lon="5.90733">
        <ele>786</ele>
        <time>2018-06-10T13:31:02.000Z</time>
      </trkpt>
      <trkpt lat="46.3891" lon="5.90727">
        <ele>785.40002441406</ele>
        <time>2018-06-10T13:31:03.000Z</time>
      </trkpt>
      <trkpt lat="46.38907" lon="5.90722">
        <ele>784.79998779297</ele>
        <time>2018-06-10T13:31:04.000Z</time>
      </trkpt>
      <trkpt lat="46.38903" lon="5.90716">
        <ele>783.20001220703</ele>
        <time>2018-06-10T13:31:06.000Z</time>
      </trkpt>
      <trkpt lat="46.38901" lon="5.90711">
        <ele>782</ele>
        <time>2018-06-10T13:31:08.000Z</time>
      </trkpt>
      <trkpt lat="46.38898" lon="5.90706">
        <ele>780.79998779297</ele>
        <time>2018-06-10T13:31:10.000Z</time>
      </trkpt>
      <trkpt lat="46.38894" lon="5.90703">
        <ele>780</ele>
        <time>2018-06-10T13:31:11.000Z</time>
      </trkpt>
      <trkpt lat="46.3889" lon="5.90701">
        <ele>779</ele>
        <time>2018-06-10T13:31:12.000Z</time>
      </trkpt>
      <trkpt lat="46.38882" lon="5.90697">
        <ele>777.40002441406</ele>
        <time>2018-06-10T13:31:14.000Z</time>
      </trkpt>
      <trkpt lat="46.38875" lon="5.90693">
        <ele>776</ele>
        <time>2018-06-10T13:31:16.000Z</time>
      </trkpt>
      <trkpt lat="46.38871" lon="5.90693">
        <ele>774.79998779297</ele>
        <time>2018-06-10T13:31:17.000Z</time>
      </trkpt>
      <trkpt lat="46.38867" lon="5.90692">
        <ele>773.59997558594</ele>
        <time>2018-06-10T13:31:18.000Z</time>
      </trkpt>
      <trkpt lat="46.38862" lon="5.90691">
        <ele>772.20001220703</ele>
        <time>2018-06-10T13:31:19.000Z</time>
      </trkpt>
      <trkpt lat="46.38856" lon="5.90686">
        <ele>770.20001220703</ele>
        <time>2018-06-10T13:31:21.000Z</time>
      </trkpt>
      <trkpt lat="46.38849" lon="5.90679">
        <ele>768.59997558594</ele>
        <time>2018-06-10T13:31:23.000Z</time>
      </trkpt>
      <trkpt lat="46.38847" lon="5.90675">
        <ele>767.40002441406</ele>
        <time>2018-06-10T13:31:24.000Z</time>
      </trkpt>
      <trkpt lat="46.38843" lon="5.90673">
        <ele>766.20001220703</ele>
        <time>2018-06-10T13:31:25.000Z</time>
      </trkpt>
      <trkpt lat="46.38838" lon="5.90668">
        <ele>764.59997558594</ele>
        <time>2018-06-10T13:31:26.000Z</time>
      </trkpt>
      <trkpt lat="46.38835" lon="5.90664">
        <ele>763</ele>
        <time>2018-06-10T13:31:27.000Z</time>
      </trkpt>
      <trkpt lat="46.38831" lon="5.90661">
        <ele>761.59997558594</ele>
        <time>2018-06-10T13:31:28.000Z</time>
      </trkpt>
      <trkpt lat="46.38828" lon="5.90659">
        <ele>760.20001220703</ele>
        <time>2018-06-10T13:31:29.000Z</time>
      </trkpt>
      <trkpt lat="46.38821" lon="5.90653">
        <ele>758.59997558594</ele>
        <time>2018-06-10T13:31:31.000Z</time>
      </trkpt>
      <trkpt lat="46.38791" lon="5.90626">
        <ele>758.20001220703</ele>
        <time>2018-06-10T13:31:36.000Z</time>
      </trkpt>
      <trkpt lat="46.38783" lon="5.90618">
        <ele>757.79998779297</ele>
        <time>2018-06-10T13:31:38.000Z</time>
      </trkpt>
      <trkpt lat="46.38783" lon="5.90618">
        <ele>757</ele>
        <time>2018-06-10T13:31:39.000Z</time>
      </trkpt>
      <trkpt lat="46.38779" lon="5.90613">
        <ele>755.59997558594</ele>
        <time>2018-06-10T13:31:40.000Z</time>
      </trkpt>
      <trkpt lat="46.38776" lon="5.90608">
        <ele>753.79998779297</ele>
        <time>2018-06-10T13:31:41.000Z</time>
      </trkpt>
      <trkpt lat="46.3877" lon="5.90601">
        <ele>752.40002441406</ele>
        <time>2018-06-10T13:31:43.000Z</time>
      </trkpt>
      <trkpt lat="46.38763" lon="5.9059">
        <ele>754</ele>
        <time>2018-06-10T13:31:47.000Z</time>
      </trkpt>
      <trkpt lat="46.38753" lon="5.90572">
        <ele>755</ele>
        <time>2018-06-10T13:31:50.000Z</time>
      </trkpt>
      <trkpt lat="46.38737" lon="5.90535">
        <ele>755.40002441406</ele>
        <time>2018-06-10T13:31:59.000Z</time>
      </trkpt>
      <trkpt lat="46.38728" lon="5.90515">
        <ele>754.40002441406</ele>
        <time>2018-06-10T13:32:01.000Z</time>
      </trkpt>
      <trkpt lat="46.3872" lon="5.90498">
        <ele>754</ele>
        <time>2018-06-10T13:32:03.000Z</time>
      </trkpt>
      <trkpt lat="46.38716" lon="5.90482">
        <ele>754.20001220703</ele>
        <time>2018-06-10T13:32:06.000Z</time>
      </trkpt>
      <trkpt lat="46.38714" lon="5.90451">
        <ele>752.79998779297</ele>
        <time>2018-06-10T13:32:12.000Z</time>
      </trkpt>
      <trkpt lat="46.38714" lon="5.90441">
        <ele>752.20001220703</ele>
        <time>2018-06-10T13:32:15.000Z</time>
      </trkpt>
      <trkpt lat="46.38715" lon="5.90433">
        <ele>751.40002441406</ele>
        <time>2018-06-10T13:32:17.000Z</time>
      </trkpt>
      <trkpt lat="46.38714" lon="5.90424">
        <ele>751</ele>
        <time>2018-06-10T13:32:18.000Z</time>
      </trkpt>
      <trkpt lat="46.38715" lon="5.90416">
        <ele>750.59997558594</ele>
        <time>2018-06-10T13:32:20.000Z</time>
      </trkpt>
      <trkpt lat="46.38717" lon="5.90412">
        <ele>750.40002441406</ele>
        <time>2018-06-10T13:32:21.000Z</time>
      </trkpt>
      <trkpt lat="46.3872" lon="5.90391">
        <ele>750.40002441406</ele>
        <time>2018-06-10T13:32:25.000Z</time>
      </trkpt>
      <trkpt lat="46.38716" lon="5.90368">
        <ele>750</ele>
        <time>2018-06-10T13:32:28.000Z</time>
      </trkpt>
      <trkpt lat="46.38706" lon="5.90315">
        <ele>750</ele>
        <time>2018-06-10T13:32:34.000Z</time>
      </trkpt>
      <trkpt lat="46.38698" lon="5.9029">
        <ele>751.59997558594</ele>
        <time>2018-06-10T13:32:37.000Z</time>
      </trkpt>
      <trkpt lat="46.38696" lon="5.90269">
        <ele>752.59997558594</ele>
        <time>2018-06-10T13:32:41.000Z</time>
      </trkpt>
      <trkpt lat="46.38699" lon="5.90259">
        <ele>752.79998779297</ele>
        <time>2018-06-10T13:32:44.000Z</time>
      </trkpt>
      <trkpt lat="46.38701" lon="5.90257">
        <ele>753</ele>
        <time>2018-06-10T13:32:45.000Z</time>
      </trkpt>
      <trkpt lat="46.38704" lon="5.90254">
        <ele>753.59997558594</ele>
        <time>2018-06-10T13:32:49.000Z</time>
      </trkpt>
      <trkpt lat="46.38706" lon="5.90244">
        <ele>754.79998779297</ele>
        <time>2018-06-10T13:32:57.000Z</time>
      </trkpt>
      <trkpt lat="46.38706" lon="5.90243">
        <ele>756</ele>
        <time>2018-06-10T13:33:01.000Z</time>
      </trkpt>
      <trkpt lat="46.38708" lon="5.90239">
        <ele>757</ele>
        <time>2018-06-10T13:33:08.000Z</time>
      </trkpt>
      <trkpt lat="46.38709" lon="5.90231">
        <ele>758.20001220703</ele>
        <time>2018-06-10T13:33:12.000Z</time>
      </trkpt>
      <trkpt lat="46.38717" lon="5.90222">
        <ele>759.20001220703</ele>
        <time>2018-06-10T13:33:18.000Z</time>
      </trkpt>
      <trkpt lat="46.38723" lon="5.90218">
        <ele>760.40002441406</ele>
        <time>2018-06-10T13:33:24.000Z</time>
      </trkpt>
      <trkpt lat="46.38725" lon="5.90211">
        <ele>761.59997558594</ele>
        <time>2018-06-10T13:33:29.000Z</time>
      </trkpt>
      <trkpt lat="46.38726" lon="5.90206">
        <ele>762.59997558594</ele>
        <time>2018-06-10T13:33:36.000Z</time>
      </trkpt>
      <trkpt lat="46.38717" lon="5.90199">
        <ele>763.59997558594</ele>
        <time>2018-06-10T13:33:43.000Z</time>
      </trkpt>
      <trkpt lat="46.38714" lon="5.90187">
        <ele>764.79998779297</ele>
        <time>2018-06-10T13:33:52.000Z</time>
      </trkpt>
      <trkpt lat="46.38709" lon="5.90173">
        <ele>765.40002441406</ele>
        <time>2018-06-10T13:34:00.000Z</time>
      </trkpt>
      <trkpt lat="46.38708" lon="5.90167">
        <ele>765.59997558594</ele>
        <time>2018-06-10T13:34:03.000Z</time>
      </trkpt>
      <trkpt lat="46.38706" lon="5.9016">
        <ele>765.59997558594</ele>
        <time>2018-06-10T13:34:05.000Z</time>
      </trkpt>
      <trkpt lat="46.387" lon="5.90124">
        <ele>763.59997558594</ele>
        <time>2018-06-10T13:34:12.000Z</time>
      </trkpt>
      <trkpt lat="46.3869" lon="5.90071">
        <ele>764</ele>
        <time>2018-06-10T13:34:26.000Z</time>
      </trkpt>
      <trkpt lat="46.38685" lon="5.90036">
        <ele>763</ele>
        <time>2018-06-10T13:34:31.000Z</time>
      </trkpt>
      <trkpt lat="46.38683" lon="5.90028">
        <ele>762.40002441406</ele>
        <time>2018-06-10T13:34:32.000Z</time>
      </trkpt>
      <trkpt lat="46.38676" lon="5.90015">
        <ele>761.20001220703</ele>
        <time>2018-06-10T13:34:35.000Z</time>
      </trkpt>
      <trkpt lat="46.38654" lon="5.89944">
        <ele>760.59997558594</ele>
        <time>2018-06-10T13:34:50.000Z</time>
      </trkpt>
      <trkpt lat="46.38639" lon="5.89919">
        <ele>760</ele>
        <time>2018-06-10T13:34:56.000Z</time>
      </trkpt>
      <trkpt lat="46.38616" lon="5.89883">
        <ele>758.79998779297</ele>
        <time>2018-06-10T13:35:04.000Z</time>
      </trkpt>
      <trkpt lat="46.38608" lon="5.89869">
        <ele>758.20001220703</ele>
        <time>2018-06-10T13:35:06.000Z</time>
      </trkpt>
      <trkpt lat="46.38604" lon="5.89864">
        <ele>757.40002441406</ele>
        <time>2018-06-10T13:35:07.000Z</time>
      </trkpt>
      <trkpt lat="46.3859" lon="5.89848">
        <ele>756.40002441406</ele>
        <time>2018-06-10T13:35:11.000Z</time>
      </trkpt>
      <trkpt lat="46.38581" lon="5.89829">
        <ele>755.59997558594</ele>
        <time>2018-06-10T13:35:14.000Z</time>
      </trkpt>
      <trkpt lat="46.38578" lon="5.89821">
        <ele>754.79998779297</ele>
        <time>2018-06-10T13:35:15.000Z</time>
      </trkpt>
      <trkpt lat="46.38574" lon="5.89811">
        <ele>753.79998779297</ele>
        <time>2018-06-10T13:35:16.000Z</time>
      </trkpt>
      <trkpt lat="46.38572" lon="5.89804">
        <ele>752.79998779297</ele>
        <time>2018-06-10T13:35:17.000Z</time>
      </trkpt>
      <trkpt lat="46.38567" lon="5.8979">
        <ele>750.79998779297</ele>
        <time>2018-06-10T13:35:19.000Z</time>
      </trkpt>
      <trkpt lat="46.3856" lon="5.89776">
        <ele>749.20001220703</ele>
        <time>2018-06-10T13:35:21.000Z</time>
      </trkpt>
      <trkpt lat="46.38556" lon="5.8977">
        <ele>748.20001220703</ele>
        <time>2018-06-10T13:35:22.000Z</time>
      </trkpt>
      <trkpt lat="46.38552" lon="5.89765">
        <ele>747.20001220703</ele>
        <time>2018-06-10T13:35:23.000Z</time>
      </trkpt>
      <trkpt lat="46.38545" lon="5.89754">
        <ele>745.59997558594</ele>
        <time>2018-06-10T13:35:25.000Z</time>
      </trkpt>
      <trkpt lat="46.38536" lon="5.89738">
        <ele>744</ele>
        <time>2018-06-10T13:35:27.000Z</time>
      </trkpt>
      <trkpt lat="46.3853" lon="5.89723">
        <ele>742.59997558594</ele>
        <time>2018-06-10T13:35:29.000Z</time>
      </trkpt>
      <trkpt lat="46.38521" lon="5.89698">
        <ele>741.20001220703</ele>
        <time>2018-06-10T13:35:32.000Z</time>
      </trkpt>
      <trkpt lat="46.38516" lon="5.89683">
        <ele>739.79998779297</ele>
        <time>2018-06-10T13:35:34.000Z</time>
      </trkpt>
      <trkpt lat="46.38512" lon="5.89675">
        <ele>739.40002441406</ele>
        <time>2018-06-10T13:35:35.000Z</time>
      </trkpt>
      <trkpt lat="46.38505" lon="5.89663">
        <ele>738.59997558594</ele>
        <time>2018-06-10T13:35:37.000Z</time>
      </trkpt>
      <trkpt lat="46.385" lon="5.89649">
        <ele>738</ele>
        <time>2018-06-10T13:35:39.000Z</time>
      </trkpt>
      <trkpt lat="46.38495" lon="5.89637">
        <ele>737.40002441406</ele>
        <time>2018-06-10T13:35:41.000Z</time>
      </trkpt>
      <trkpt lat="46.38481" lon="5.89619">
        <ele>736.20001220703</ele>
        <time>2018-06-10T13:35:44.000Z</time>
      </trkpt>
      <trkpt lat="46.38471" lon="5.89607">
        <ele>734.20001220703</ele>
        <time>2018-06-10T13:35:46.000Z</time>
      </trkpt>
      <trkpt lat="46.38463" lon="5.89599">
        <ele>732.40002441406</ele>
        <time>2018-06-10T13:35:48.000Z</time>
      </trkpt>
      <trkpt lat="46.38458" lon="5.89587">
        <ele>730.79998779297</ele>
        <time>2018-06-10T13:35:50.000Z</time>
      </trkpt>
      <trkpt lat="46.38451" lon="5.89571">
        <ele>729.40002441406</ele>
        <time>2018-06-10T13:35:53.000Z</time>
      </trkpt>
      <trkpt lat="46.38444" lon="5.89549">
        <ele>727.40002441406</ele>
        <time>2018-06-10T13:35:55.000Z</time>
      </trkpt>
      <trkpt lat="46.38439" lon="5.89535">
        <ele>726.40002441406</ele>
        <time>2018-06-10T13:35:56.000Z</time>
      </trkpt>
      <trkpt lat="46.38436" lon="5.89524">
        <ele>725.40002441406</ele>
        <time>2018-06-10T13:35:57.000Z</time>
      </trkpt>
      <trkpt lat="46.38433" lon="5.89514">
        <ele>724.79998779297</ele>
        <time>2018-06-10T13:35:58.000Z</time>
      </trkpt>
      <trkpt lat="46.38428" lon="5.89499">
        <ele>723.20001220703</ele>
        <time>2018-06-10T13:36:00.000Z</time>
      </trkpt>
      <trkpt lat="46.38421" lon="5.89488">
        <ele>722.20001220703</ele>
        <time>2018-06-10T13:36:02.000Z</time>
      </trkpt>
      <trkpt lat="46.38414" lon="5.8948">
        <ele>721</ele>
        <time>2018-06-10T13:36:04.000Z</time>
      </trkpt>
      <trkpt lat="46.38408" lon="5.89476">
        <ele>719.20001220703</ele>
        <time>2018-06-10T13:36:06.000Z</time>
      </trkpt>
      <trkpt lat="46.38407" lon="5.89475">
        <ele>718.20001220703</ele>
        <time>2018-06-10T13:36:07.000Z</time>
      </trkpt>
      <trkpt lat="46.38403" lon="5.89475">
        <ele>716.40002441406</ele>
        <time>2018-06-10T13:36:09.000Z</time>
      </trkpt>
      <trkpt lat="46.38367" lon="5.89451">
        <ele>717.40002441406</ele>
        <time>2018-06-10T13:36:40.000Z</time>
      </trkpt>
      <trkpt lat="46.38355" lon="5.89443">
        <ele>718</ele>
        <time>2018-06-10T13:36:47.000Z</time>
      </trkpt>
      <trkpt lat="46.38349" lon="5.89433">
        <ele>718</ele>
        <time>2018-06-10T13:36:49.000Z</time>
      </trkpt>
      <trkpt lat="46.38341" lon="5.89419">
        <ele>715.59997558594</ele>
        <time>2018-06-10T13:36:52.000Z</time>
      </trkpt>
      <trkpt lat="46.38338" lon="5.89415">
        <ele>714.40002441406</ele>
        <time>2018-06-10T13:36:53.000Z</time>
      </trkpt>
      <trkpt lat="46.38334" lon="5.89409">
        <ele>712.79998779297</ele>
        <time>2018-06-10T13:36:55.000Z</time>
      </trkpt>
      <trkpt lat="46.3833" lon="5.89407">
        <ele>711.59997558594</ele>
        <time>2018-06-10T13:36:58.000Z</time>
      </trkpt>
      <trkpt lat="46.3833" lon="5.89404">
        <ele>711.40002441406</ele>
        <time>2018-06-10T13:36:59.000Z</time>
      </trkpt>
      <trkpt lat="46.38326" lon="5.89396">
        <ele>710.20001220703</ele>
        <time>2018-06-10T13:37:02.000Z</time>
      </trkpt>
      <trkpt lat="46.38323" lon="5.89391">
        <ele>709</ele>
        <time>2018-06-10T13:37:03.000Z</time>
      </trkpt>
      <trkpt lat="46.38321" lon="5.89384">
        <ele>708</ele>
        <time>2018-06-10T13:37:04.000Z</time>
      </trkpt>
      <trkpt lat="46.3832" lon="5.89369">
        <ele>706.40002441406</ele>
        <time>2018-06-10T13:37:06.000Z</time>
      </trkpt>
      <trkpt lat="46.38316" lon="5.89354">
        <ele>704.40002441406</ele>
        <time>2018-06-10T13:37:08.000Z</time>
      </trkpt>
      <trkpt lat="46.38312" lon="5.89346">
        <ele>703</ele>
        <time>2018-06-10T13:37:09.000Z</time>
      </trkpt>
      <trkpt lat="46.38308" lon="5.89338">
        <ele>701.79998779297</ele>
        <time>2018-06-10T13:37:10.000Z</time>
      </trkpt>
      <trkpt lat="46.38303" lon="5.89332">
        <ele>700.59997558594</ele>
        <time>2018-06-10T13:37:11.000Z</time>
      </trkpt>
      <trkpt lat="46.38295" lon="5.89322">
        <ele>699.40002441406</ele>
        <time>2018-06-10T13:37:13.000Z</time>
      </trkpt>
      <trkpt lat="46.38288" lon="5.89313">
        <ele>698.59997558594</ele>
        <time>2018-06-10T13:37:15.000Z</time>
      </trkpt>
      <trkpt lat="46.38283" lon="5.89306">
        <ele>698.20001220703</ele>
        <time>2018-06-10T13:37:17.000Z</time>
      </trkpt>
      <trkpt lat="46.38278" lon="5.89302">
        <ele>697.79998779297</ele>
        <time>2018-06-10T13:37:18.000Z</time>
      </trkpt>
      <trkpt lat="46.38272" lon="5.89297">
        <ele>696.40002441406</ele>
        <time>2018-06-10T13:37:20.000Z</time>
      </trkpt>
      <trkpt lat="46.38266" lon="5.8929">
        <ele>694.79998779297</ele>
        <time>2018-06-10T13:37:22.000Z</time>
      </trkpt>
      <trkpt lat="46.38256" lon="5.89285">
        <ele>693.59997558594</ele>
        <time>2018-06-10T13:37:25.000Z</time>
      </trkpt>
      <trkpt lat="46.38247" lon="5.89273">
        <ele>692</ele>
        <time>2018-06-10T13:37:28.000Z</time>
      </trkpt>
      <trkpt lat="46.38239" lon="5.89261">
        <ele>690.40002441406</ele>
        <time>2018-06-10T13:37:30.000Z</time>
      </trkpt>
      <trkpt lat="46.38228" lon="5.8925">
        <ele>688.79998779297</ele>
        <time>2018-06-10T13:37:32.000Z</time>
      </trkpt>
      <trkpt lat="46.38217" lon="5.89237">
        <ele>687</ele>
        <time>2018-06-10T13:37:34.000Z</time>
      </trkpt>
      <trkpt lat="46.38214" lon="5.89231">
        <ele>685.79998779297</ele>
        <time>2018-06-10T13:37:35.000Z</time>
      </trkpt>
      <trkpt lat="46.38211" lon="5.89225">
        <ele>684.79998779297</ele>
        <time>2018-06-10T13:37:36.000Z</time>
      </trkpt>
      <trkpt lat="46.38207" lon="5.89211">
        <ele>683</ele>
        <time>2018-06-10T13:37:38.000Z</time>
      </trkpt>
      <trkpt lat="46.38206" lon="5.89202">
        <ele>681.20001220703</ele>
        <time>2018-06-10T13:37:40.000Z</time>
      </trkpt>
      <trkpt lat="46.38205" lon="5.89198">
        <ele>679.79998779297</ele>
        <time>2018-06-10T13:37:41.000Z</time>
      </trkpt>
      <trkpt lat="46.38202" lon="5.89189">
        <ele>678.20001220703</ele>
        <time>2018-06-10T13:37:42.000Z</time>
      </trkpt>
      <trkpt lat="46.38199" lon="5.8918">
        <ele>676.59997558594</ele>
        <time>2018-06-10T13:37:43.000Z</time>
      </trkpt>
      <trkpt lat="46.38195" lon="5.89173">
        <ele>675.40002441406</ele>
        <time>2018-06-10T13:37:44.000Z</time>
      </trkpt>
      <trkpt lat="46.38191" lon="5.89164">
        <ele>674</ele>
        <time>2018-06-10T13:37:46.000Z</time>
      </trkpt>
      <trkpt lat="46.38185" lon="5.89162">
        <ele>672.79998779297</ele>
        <time>2018-06-10T13:37:48.000Z</time>
      </trkpt>
      <trkpt lat="46.38177" lon="5.89161">
        <ele>671.59997558594</ele>
        <time>2018-06-10T13:37:51.000Z</time>
      </trkpt>
      <trkpt lat="46.38171" lon="5.89157">
        <ele>670.59997558594</ele>
        <time>2018-06-10T13:37:54.000Z</time>
      </trkpt>
      <trkpt lat="46.38161" lon="5.8915">
        <ele>669.20001220703</ele>
        <time>2018-06-10T13:37:57.000Z</time>
      </trkpt>
      <trkpt lat="46.38156" lon="5.89151">
        <ele>668</ele>
        <time>2018-06-10T13:37:59.000Z</time>
      </trkpt>
      <trkpt lat="46.38153" lon="5.89152">
        <ele>667.40002441406</ele>
        <time>2018-06-10T13:38:01.000Z</time>
      </trkpt>
      <trkpt lat="46.38148" lon="5.89154">
        <ele>666.79998779297</ele>
        <time>2018-06-10T13:38:03.000Z</time>
      </trkpt>
      <trkpt lat="46.38143" lon="5.89149">
        <ele>666.40002441406</ele>
        <time>2018-06-10T13:38:06.000Z</time>
      </trkpt>
      <trkpt lat="46.38142" lon="5.89143">
        <ele>665.40002441406</ele>
        <time>2018-06-10T13:38:08.000Z</time>
      </trkpt>
      <trkpt lat="46.3814" lon="5.8914">
        <ele>664.79998779297</ele>
        <time>2018-06-10T13:38:09.000Z</time>
      </trkpt>
      <trkpt lat="46.38138" lon="5.89138">
        <ele>664</ele>
        <time>2018-06-10T13:38:10.000Z</time>
      </trkpt>
      <trkpt lat="46.38134" lon="5.89136">
        <ele>662.59997558594</ele>
        <time>2018-06-10T13:38:12.000Z</time>
      </trkpt>
      <trkpt lat="46.38129" lon="5.89137">
        <ele>661.40002441406</ele>
        <time>2018-06-10T13:38:14.000Z</time>
      </trkpt>
      <trkpt lat="46.38123" lon="5.89138">
        <ele>660.20001220703</ele>
        <time>2018-06-10T13:38:17.000Z</time>
      </trkpt>
      <trkpt lat="46.38111" lon="5.89128">
        <ele>659</ele>
        <time>2018-06-10T13:38:20.000Z</time>
      </trkpt>
      <trkpt lat="46.38104" lon="5.89123">
        <ele>657.20001220703</ele>
        <time>2018-06-10T13:38:22.000Z</time>
      </trkpt>
      <trkpt lat="46.38101" lon="5.89121">
        <ele>656.40002441406</ele>
        <time>2018-06-10T13:38:23.000Z</time>
      </trkpt>
      <trkpt lat="46.38099" lon="5.89119">
        <ele>655.59997558594</ele>
        <time>2018-06-10T13:38:24.000Z</time>
      </trkpt>
      <trkpt lat="46.38095" lon="5.89116">
        <ele>654.40002441406</ele>
        <time>2018-06-10T13:38:26.000Z</time>
      </trkpt>
      <trkpt lat="46.38089" lon="5.8911">
        <ele>652.40002441406</ele>
        <time>2018-06-10T13:38:28.000Z</time>
      </trkpt>
      <trkpt lat="46.38087" lon="5.8911">
        <ele>651.20001220703</ele>
        <time>2018-06-10T13:38:29.000Z</time>
      </trkpt>
      <trkpt lat="46.38083" lon="5.89105">
        <ele>649.59997558594</ele>
        <time>2018-06-10T13:38:31.000Z</time>
      </trkpt>
      <trkpt lat="46.3808" lon="5.89093">
        <ele>648.40002441406</ele>
        <time>2018-06-10T13:38:34.000Z</time>
      </trkpt>
      <trkpt lat="46.38079" lon="5.89093">
        <ele>647.20001220703</ele>
        <time>2018-06-10T13:38:47.000Z</time>
      </trkpt>
      <trkpt lat="46.38065" lon="5.8909">
        <ele>646.20001220703</ele>
        <time>2018-06-10T13:38:58.000Z</time>
      </trkpt>
      <trkpt lat="46.38059" lon="5.8909">
        <ele>645.40002441406</ele>
        <time>2018-06-10T13:39:00.000Z</time>
      </trkpt>
      <trkpt lat="46.38057" lon="5.8909">
        <ele>644.79998779297</ele>
        <time>2018-06-10T13:39:01.000Z</time>
      </trkpt>
      <trkpt lat="46.38054" lon="5.89091">
        <ele>644</ele>
        <time>2018-06-10T13:39:02.000Z</time>
      </trkpt>
      <trkpt lat="46.38051" lon="5.89091">
        <ele>643.59997558594</ele>
        <time>2018-06-10T13:39:03.000Z</time>
      </trkpt>
      <trkpt lat="46.38048" lon="5.89091">
        <ele>643</ele>
        <time>2018-06-10T13:39:04.000Z</time>
      </trkpt>
      <trkpt lat="46.38045" lon="5.89089">
        <ele>642.40002441406</ele>
        <time>2018-06-10T13:39:06.000Z</time>
      </trkpt>
      <trkpt lat="46.38043" lon="5.89089">
        <ele>641.79998779297</ele>
        <time>2018-06-10T13:39:08.000Z</time>
      </trkpt>
      <trkpt lat="46.38038" lon="5.89089">
        <ele>641.20001220703</ele>
        <time>2018-06-10T13:39:10.000Z</time>
      </trkpt>
      <trkpt lat="46.3803" lon="5.89092">
        <ele>640.40002441406</ele>
        <time>2018-06-10T13:39:12.000Z</time>
      </trkpt>
      <trkpt lat="46.38029" lon="5.89091">
        <ele>639.79998779297</ele>
        <time>2018-06-10T13:39:13.000Z</time>
      </trkpt>
      <trkpt lat="46.3803" lon="5.89087">
        <ele>638.79998779297</ele>
        <time>2018-06-10T13:39:15.000Z</time>
      </trkpt>
      <trkpt lat="46.38029" lon="5.89085">
        <ele>637.79998779297</ele>
        <time>2018-06-10T13:39:17.000Z</time>
      </trkpt>
      <trkpt lat="46.38026" lon="5.89083">
        <ele>636.20001220703</ele>
        <time>2018-06-10T13:39:20.000Z</time>
      </trkpt>
      <trkpt lat="46.38026" lon="5.89081">
        <ele>635.79998779297</ele>
        <time>2018-06-10T13:39:21.000Z</time>
      </trkpt>
      <trkpt lat="46.38026" lon="5.89079">
        <ele>635</ele>
        <time>2018-06-10T13:39:24.000Z</time>
      </trkpt>
      <trkpt lat="46.38027" lon="5.89074">
        <ele>634.40002441406</ele>
        <time>2018-06-10T13:39:27.000Z</time>
      </trkpt>
      <trkpt lat="46.38027" lon="5.89071">
        <ele>634.20001220703</ele>
        <time>2018-06-10T13:39:29.000Z</time>
      </trkpt>
      <trkpt lat="46.38025" lon="5.89068">
        <ele>633.79998779297</ele>
        <time>2018-06-10T13:39:30.000Z</time>
      </trkpt>
      <trkpt lat="46.38024" lon="5.89065">
        <ele>632.20001220703</ele>
        <time>2018-06-10T13:39:32.000Z</time>
      </trkpt>
      <trkpt lat="46.38022" lon="5.89062">
        <ele>630.79998779297</ele>
        <time>2018-06-10T13:39:34.000Z</time>
      </trkpt>
      <trkpt lat="46.38018" lon="5.89058">
        <ele>630.20001220703</ele>
        <time>2018-06-10T13:39:36.000Z</time>
      </trkpt>
      <trkpt lat="46.38016" lon="5.89056">
        <ele>629.79998779297</ele>
        <time>2018-06-10T13:39:37.000Z</time>
      </trkpt>
      <trkpt lat="46.38014" lon="5.89052">
        <ele>629.20001220703</ele>
        <time>2018-06-10T13:39:39.000Z</time>
      </trkpt>
      <trkpt lat="46.38013" lon="5.8905">
        <ele>628.79998779297</ele>
        <time>2018-06-10T13:39:40.000Z</time>
      </trkpt>
      <trkpt lat="46.38012" lon="5.89048">
        <ele>628.20001220703</ele>
        <time>2018-06-10T13:39:41.000Z</time>
      </trkpt>
      <trkpt lat="46.38012" lon="5.89044">
        <ele>627.59997558594</ele>
        <time>2018-06-10T13:39:42.000Z</time>
      </trkpt>
      <trkpt lat="46.38014" lon="5.89037">
        <ele>626.20001220703</ele>
        <time>2018-06-10T13:39:44.000Z</time>
      </trkpt>
      <trkpt lat="46.38015" lon="5.89027">
        <ele>624.59997558594</ele>
        <time>2018-06-10T13:39:46.000Z</time>
      </trkpt>
      <trkpt lat="46.38015" lon="5.89015">
        <ele>623.40002441406</ele>
        <time>2018-06-10T13:39:48.000Z</time>
      </trkpt>
      <trkpt lat="46.38014" lon="5.89003">
        <ele>622</ele>
        <time>2018-06-10T13:39:50.000Z</time>
      </trkpt>
      <trkpt lat="46.38011" lon="5.88988">
        <ele>620.59997558594</ele>
        <time>2018-06-10T13:39:52.000Z</time>
      </trkpt>
      <trkpt lat="46.38009" lon="5.88973">
        <ele>618.79998779297</ele>
        <time>2018-06-10T13:39:54.000Z</time>
      </trkpt>
      <trkpt lat="46.38006" lon="5.88959">
        <ele>617.40002441406</ele>
        <time>2018-06-10T13:39:56.000Z</time>
      </trkpt>
      <trkpt lat="46.38003" lon="5.88948">
        <ele>615.79998779297</ele>
        <time>2018-06-10T13:39:58.000Z</time>
      </trkpt>
      <trkpt lat="46.38001" lon="5.88942">
        <ele>614.59997558594</ele>
        <time>2018-06-10T13:40:00.000Z</time>
      </trkpt>
      <trkpt lat="46.37997" lon="5.88934">
        <ele>613.20001220703</ele>
        <time>2018-06-10T13:40:02.000Z</time>
      </trkpt>
      <trkpt lat="46.3799" lon="5.88922">
        <ele>612</ele>
        <time>2018-06-10T13:40:05.000Z</time>
      </trkpt>
      <trkpt lat="46.37986" lon="5.88917">
        <ele>610.59997558594</ele>
        <time>2018-06-10T13:40:07.000Z</time>
      </trkpt>
      <trkpt lat="46.37984" lon="5.88915">
        <ele>610</ele>
        <time>2018-06-10T13:40:08.000Z</time>
      </trkpt>
      <trkpt lat="46.37983" lon="5.88908">
        <ele>609.20001220703</ele>
        <time>2018-06-10T13:40:10.000Z</time>
      </trkpt>
      <trkpt lat="46.37982" lon="5.88904">
        <ele>608.20001220703</ele>
        <time>2018-06-10T13:40:12.000Z</time>
      </trkpt>
      <trkpt lat="46.37981" lon="5.88899">
        <ele>606.40002441406</ele>
        <time>2018-06-10T13:40:14.000Z</time>
      </trkpt>
      <trkpt lat="46.37976" lon="5.88893">
        <ele>604.79998779297</ele>
        <time>2018-06-10T13:40:16.000Z</time>
      </trkpt>
      <trkpt lat="46.37968" lon="5.88887">
        <ele>603.59997558594</ele>
        <time>2018-06-10T13:40:18.000Z</time>
      </trkpt>
      <trkpt lat="46.37962" lon="5.88883">
        <ele>601.40002441406</ele>
        <time>2018-06-10T13:40:20.000Z</time>
      </trkpt>
      <trkpt lat="46.37959" lon="5.88881">
        <ele>600.20001220703</ele>
        <time>2018-06-10T13:40:21.000Z</time>
      </trkpt>
      <trkpt lat="46.37956" lon="5.8888">
        <ele>598.59997558594</ele>
        <time>2018-06-10T13:40:22.000Z</time>
      </trkpt>
      <trkpt lat="46.37951" lon="5.88877">
        <ele>597.40002441406</ele>
        <time>2018-06-10T13:40:23.000Z</time>
      </trkpt>
      <trkpt lat="46.37948" lon="5.88875">
        <ele>596.40002441406</ele>
        <time>2018-06-10T13:40:24.000Z</time>
      </trkpt>
      <trkpt lat="46.37942" lon="5.88869">
        <ele>594.79998779297</ele>
        <time>2018-06-10T13:40:26.000Z</time>
      </trkpt>
      <trkpt lat="46.37936" lon="5.88863">
        <ele>592.79998779297</ele>
        <time>2018-06-10T13:40:28.000Z</time>
      </trkpt>
      <trkpt lat="46.37933" lon="5.88861">
        <ele>591.40002441406</ele>
        <time>2018-06-10T13:40:29.000Z</time>
      </trkpt>
      <trkpt lat="46.3793" lon="5.8886">
        <ele>590</ele>
        <time>2018-06-10T13:40:30.000Z</time>
      </trkpt>
      <trkpt lat="46.37927" lon="5.88858">
        <ele>588.79998779297</ele>
        <time>2018-06-10T13:40:31.000Z</time>
      </trkpt>
      <trkpt lat="46.37925" lon="5.88856">
        <ele>587.79998779297</ele>
        <time>2018-06-10T13:40:32.000Z</time>
      </trkpt>
      <trkpt lat="46.37923" lon="5.88854">
        <ele>586.40002441406</ele>
        <time>2018-06-10T13:40:34.000Z</time>
      </trkpt>
      <trkpt lat="46.3792" lon="5.88851">
        <ele>585.40002441406</ele>
        <time>2018-06-10T13:40:36.000Z</time>
      </trkpt>
      <trkpt lat="46.37918" lon="5.8885">
        <ele>585</ele>
        <time>2018-06-10T13:40:37.000Z</time>
      </trkpt>
      <trkpt lat="46.37911" lon="5.88845">
        <ele>583.79998779297</ele>
        <time>2018-06-10T13:40:39.000Z</time>
      </trkpt>
      <trkpt lat="46.37906" lon="5.88843">
        <ele>582.59997558594</ele>
        <time>2018-06-10T13:40:40.000Z</time>
      </trkpt>
      <trkpt lat="46.37903" lon="5.8884">
        <ele>581.40002441406</ele>
        <time>2018-06-10T13:40:41.000Z</time>
      </trkpt>
      <trkpt lat="46.37899" lon="5.88838">
        <ele>580</ele>
        <time>2018-06-10T13:40:42.000Z</time>
      </trkpt>
      <trkpt lat="46.37895" lon="5.88834">
        <ele>578.40002441406</ele>
        <time>2018-06-10T13:40:44.000Z</time>
      </trkpt>
      <trkpt lat="46.37891" lon="5.88832">
        <ele>577.40002441406</ele>
        <time>2018-06-10T13:40:45.000Z</time>
      </trkpt>
      <trkpt lat="46.37888" lon="5.8883">
        <ele>576.40002441406</ele>
        <time>2018-06-10T13:40:46.000Z</time>
      </trkpt>
      <trkpt lat="46.37881" lon="5.88827">
        <ele>574.59997558594</ele>
        <time>2018-06-10T13:40:48.000Z</time>
      </trkpt>
      <trkpt lat="46.37877" lon="5.88826">
        <ele>573.40002441406</ele>
        <time>2018-06-10T13:40:49.000Z</time>
      </trkpt>
      <trkpt lat="46.37873" lon="5.88826">
        <ele>572.20001220703</ele>
        <time>2018-06-10T13:40:50.000Z</time>
      </trkpt>
      <trkpt lat="46.37866" lon="5.88826">
        <ele>570</ele>
        <time>2018-06-10T13:40:52.000Z</time>
      </trkpt>
      <trkpt lat="46.37863" lon="5.88825">
        <ele>568.59997558594</ele>
        <time>2018-06-10T13:40:53.000Z</time>
      </trkpt>
      <trkpt lat="46.3786" lon="5.88824">
        <ele>567.20001220703</ele>
        <time>2018-06-10T13:40:54.000Z</time>
      </trkpt>
      <trkpt lat="46.37858" lon="5.88822">
        <ele>566</ele>
        <time>2018-06-10T13:40:55.000Z</time>
      </trkpt>
      <trkpt lat="46.37853" lon="5.88822">
        <ele>564.40002441406</ele>
        <time>2018-06-10T13:40:57.000Z</time>
      </trkpt>
      <trkpt lat="46.37848" lon="5.88822">
        <ele>563.20001220703</ele>
        <time>2018-06-10T13:40:59.000Z</time>
      </trkpt>
      <trkpt lat="46.37843" lon="5.88821">
        <ele>562</ele>
        <time>2018-06-10T13:41:01.000Z</time>
      </trkpt>
      <trkpt lat="46.37836" lon="5.8882">
        <ele>560.40002441406</ele>
        <time>2018-06-10T13:41:03.000Z</time>
      </trkpt>
      <trkpt lat="46.37832" lon="5.88814">
        <ele>558.59997558594</ele>
        <time>2018-06-10T13:41:05.000Z</time>
      </trkpt>
      <trkpt lat="46.37829" lon="5.88811">
        <ele>557.20001220703</ele>
        <time>2018-06-10T13:41:06.000Z</time>
      </trkpt>
      <trkpt lat="46.37827" lon="5.88806">
        <ele>556</ele>
        <time>2018-06-10T13:41:07.000Z</time>
      </trkpt>
      <trkpt lat="46.37824" lon="5.88794">
        <ele>554</ele>
        <time>2018-06-10T13:41:09.000Z</time>
      </trkpt>
      <trkpt lat="46.37822" lon="5.88787">
        <ele>553</ele>
        <time>2018-06-10T13:41:10.000Z</time>
      </trkpt>
      <trkpt lat="46.3782" lon="5.88781">
        <ele>551.59997558594</ele>
        <time>2018-06-10T13:41:11.000Z</time>
      </trkpt>
      <trkpt lat="46.37819" lon="5.88775">
        <ele>550</ele>
        <time>2018-06-10T13:41:12.000Z</time>
      </trkpt>
      <trkpt lat="46.37819" lon="5.88772">
        <ele>548.59997558594</ele>
        <time>2018-06-10T13:41:13.000Z</time>
      </trkpt>
      <trkpt lat="46.37818" lon="5.88769">
        <ele>547</ele>
        <time>2018-06-10T13:41:15.000Z</time>
      </trkpt>
      <trkpt lat="46.37819" lon="5.88767">
        <ele>546.40002441406</ele>
        <time>2018-06-10T13:41:16.000Z</time>
      </trkpt>
      <trkpt lat="46.37819" lon="5.88766">
        <ele>545.79998779297</ele>
        <time>2018-06-10T13:41:17.000Z</time>
      </trkpt>
      <trkpt lat="46.37819" lon="5.88767">
        <ele>544.20001220703</ele>
        <time>2018-06-10T13:41:19.000Z</time>
      </trkpt>
      <trkpt lat="46.37816" lon="5.88755">
        <ele>544.20001220703</ele>
        <time>2018-06-10T13:41:41.000Z</time>
      </trkpt>
      <trkpt lat="46.37821" lon="5.88759">
        <ele>545.20001220703</ele>
        <time>2018-06-10T13:42:11.000Z</time>
      </trkpt>
      <trkpt lat="46.37832" lon="5.88757">
        <ele>545.79998779297</ele>
        <time>2018-06-10T13:42:19.000Z</time>
      </trkpt>
      <trkpt lat="46.37833" lon="5.88753">
        <ele>545.59997558594</ele>
        <time>2018-06-10T13:42:20.000Z</time>
      </trkpt>
      <trkpt lat="46.37849" lon="5.88749">
        <ele>544.20001220703</ele>
        <time>2018-06-10T13:42:26.000Z</time>
      </trkpt>
      <trkpt lat="46.37863" lon="5.88745">
        <ele>543.20001220703</ele>
        <time>2018-06-10T13:42:29.000Z</time>
      </trkpt>
      <trkpt lat="46.3787" lon="5.88738">
        <ele>542.59997558594</ele>
        <time>2018-06-10T13:42:31.000Z</time>
      </trkpt>
      <trkpt lat="46.37874" lon="5.88734">
        <ele>542.20001220703</ele>
        <time>2018-06-10T13:42:32.000Z</time>
      </trkpt>
      <trkpt lat="46.37892" lon="5.88737">
        <ele>541.79998779297</ele>
        <time>2018-06-10T13:42:43.000Z</time>
      </trkpt>
      <trkpt lat="46.37927" lon="5.88696">
        <ele>540.79998779297</ele>
        <time>2018-06-10T13:43:02.000Z</time>
      </trkpt>
      <trkpt lat="46.37932" lon="5.8869">
        <ele>539.20001220703</ele>
        <time>2018-06-10T13:43:04.000Z</time>
      </trkpt>
      <trkpt lat="46.37938" lon="5.88685">
        <ele>537.40002441406</ele>
        <time>2018-06-10T13:43:06.000Z</time>
      </trkpt>
      <trkpt lat="46.37943" lon="5.8868">
        <ele>535.79998779297</ele>
        <time>2018-06-10T13:43:08.000Z</time>
      </trkpt>
      <trkpt lat="46.37945" lon="5.88676">
        <ele>534.79998779297</ele>
        <time>2018-06-10T13:43:10.000Z</time>
      </trkpt>
      <trkpt lat="46.37945" lon="5.88674">
        <ele>533.59997558594</ele>
        <time>2018-06-10T13:43:13.000Z</time>
      </trkpt>
      <trkpt lat="46.37943" lon="5.88673">
        <ele>533.20001220703</ele>
        <time>2018-06-10T13:43:14.000Z</time>
      </trkpt>
      <trkpt lat="46.37938" lon="5.8867">
        <ele>532</ele>
        <time>2018-06-10T13:43:16.000Z</time>
      </trkpt>
      <trkpt lat="46.37935" lon="5.88669">
        <ele>530.79998779297</ele>
        <time>2018-06-10T13:43:17.000Z</time>
      </trkpt>
      <trkpt lat="46.37932" lon="5.88668">
        <ele>529.59997558594</ele>
        <time>2018-06-10T13:43:18.000Z</time>
      </trkpt>
      <trkpt lat="46.37929" lon="5.88666">
        <ele>528.40002441406</ele>
        <time>2018-06-10T13:43:19.000Z</time>
      </trkpt>
      <trkpt lat="46.37924" lon="5.88663">
        <ele>526.79998779297</ele>
        <time>2018-06-10T13:43:21.000Z</time>
      </trkpt>
      <trkpt lat="46.37921" lon="5.88661">
        <ele>525</ele>
        <time>2018-06-10T13:43:23.000Z</time>
      </trkpt>
      <trkpt lat="46.37919" lon="5.88661">
        <ele>523.59997558594</ele>
        <time>2018-06-10T13:43:25.000Z</time>
      </trkpt>
      <trkpt lat="46.37918" lon="5.88661">
        <ele>522.40002441406</ele>
        <time>2018-06-10T13:43:28.000Z</time>
      </trkpt>
      <trkpt lat="46.37917" lon="5.88657">
        <ele>521</ele>
        <time>2018-06-10T13:43:32.000Z</time>
      </trkpt>
      <trkpt lat="46.37917" lon="5.88656">
        <ele>520.59997558594</ele>
        <time>2018-06-10T13:43:33.000Z</time>
      </trkpt>
      <trkpt lat="46.37918" lon="5.88653">
        <ele>519.59997558594</ele>
        <time>2018-06-10T13:43:35.000Z</time>
      </trkpt>
      <trkpt lat="46.37917" lon="5.88648">
        <ele>518.59997558594</ele>
        <time>2018-06-10T13:43:40.000Z</time>
      </trkpt>
      <trkpt lat="46.37913" lon="5.88643">
        <ele>517.20001220703</ele>
        <time>2018-06-10T13:43:43.000Z</time>
      </trkpt>
      <trkpt lat="46.37911" lon="5.88638">
        <ele>516</ele>
        <time>2018-06-10T13:43:46.000Z</time>
      </trkpt>
      <trkpt lat="46.37913" lon="5.88633">
        <ele>514.79998779297</ele>
        <time>2018-06-10T13:43:49.000Z</time>
      </trkpt>
      <trkpt lat="46.37915" lon="5.88631">
        <ele>513.40002441406</ele>
        <time>2018-06-10T13:43:51.000Z</time>
      </trkpt>
      <trkpt lat="46.37919" lon="5.88631">
        <ele>512.20001220703</ele>
        <time>2018-06-10T13:43:54.000Z</time>
      </trkpt>
      <trkpt lat="46.37918" lon="5.88628">
        <ele>511.79998779297</ele>
        <time>2018-06-10T13:43:55.000Z</time>
      </trkpt>
      <trkpt lat="46.37919" lon="5.88627">
        <ele>511.20001220703</ele>
        <time>2018-06-10T13:43:56.000Z</time>
      </trkpt>
      <trkpt lat="46.37917" lon="5.88622">
        <ele>509.39999389648</ele>
        <time>2018-06-10T13:43:58.000Z</time>
      </trkpt>
      <trkpt lat="46.37916" lon="5.88621">
        <ele>507.39999389648</ele>
        <time>2018-06-10T13:44:00.000Z</time>
      </trkpt>
      <trkpt lat="46.37915" lon="5.88621">
        <ele>506.60000610352</ele>
        <time>2018-06-10T13:44:01.000Z</time>
      </trkpt>
      <trkpt lat="46.37913" lon="5.88619">
        <ele>505.79998779297</ele>
        <time>2018-06-10T13:44:02.000Z</time>
      </trkpt>
      <trkpt lat="46.37909" lon="5.88616">
        <ele>504.20001220703</ele>
        <time>2018-06-10T13:44:04.000Z</time>
      </trkpt>
      <trkpt lat="46.37904" lon="5.88615">
        <ele>502.79998779297</ele>
        <time>2018-06-10T13:44:06.000Z</time>
      </trkpt>
      <trkpt lat="46.37903" lon="5.88613">
        <ele>502.20001220703</ele>
        <time>2018-06-10T13:44:07.000Z</time>
      </trkpt>
      <trkpt lat="46.37901" lon="5.8861">
        <ele>501.39999389648</ele>
        <time>2018-06-10T13:44:08.000Z</time>
      </trkpt>
      <trkpt lat="46.37899" lon="5.88608">
        <ele>500.39999389648</ele>
        <time>2018-06-10T13:44:10.000Z</time>
      </trkpt>
      <trkpt lat="46.37897" lon="5.88606">
        <ele>500</ele>
        <time>2018-06-10T13:44:11.000Z</time>
      </trkpt>
      <trkpt lat="46.37894" lon="5.88602">
        <ele>499</ele>
        <time>2018-06-10T13:44:13.000Z</time>
      </trkpt>
      <trkpt lat="46.37895" lon="5.88599">
        <ele>498.39999389648</ele>
        <time>2018-06-10T13:44:15.000Z</time>
      </trkpt>
      <trkpt lat="46.37896" lon="5.88595">
        <ele>497.79998779297</ele>
        <time>2018-06-10T13:44:16.000Z</time>
      </trkpt>
      <trkpt lat="46.37897" lon="5.88592">
        <ele>496.39999389648</ele>
        <time>2018-06-10T13:44:18.000Z</time>
      </trkpt>
      <trkpt lat="46.37899" lon="5.88591">
        <ele>495.79998779297</ele>
        <time>2018-06-10T13:44:19.000Z</time>
      </trkpt>
      <trkpt lat="46.37898" lon="5.88588">
        <ele>495</ele>
        <time>2018-06-10T13:44:21.000Z</time>
      </trkpt>
      <trkpt lat="46.37896" lon="5.88584">
        <ele>493.20001220703</ele>
        <time>2018-06-10T13:44:23.000Z</time>
      </trkpt>
      <trkpt lat="46.37896" lon="5.88581">
        <ele>491.79998779297</ele>
        <time>2018-06-10T13:44:25.000Z</time>
      </trkpt>
      <trkpt lat="46.37898" lon="5.88575">
        <ele>491.20001220703</ele>
        <time>2018-06-10T13:44:26.000Z</time>
      </trkpt>
      <trkpt lat="46.37899" lon="5.88572">
        <ele>490.79998779297</ele>
        <time>2018-06-10T13:44:27.000Z</time>
      </trkpt>
      <trkpt lat="46.37901" lon="5.88571">
        <ele>489.39999389648</ele>
        <time>2018-06-10T13:44:29.000Z</time>
      </trkpt>
      <trkpt lat="46.37902" lon="5.88571">
        <ele>488.60000610352</ele>
        <time>2018-06-10T13:44:30.000Z</time>
      </trkpt>
      <trkpt lat="46.379" lon="5.88569">
        <ele>488</ele>
        <time>2018-06-10T13:44:31.000Z</time>
      </trkpt>
      <trkpt lat="46.37898" lon="5.88567">
        <ele>487</ele>
        <time>2018-06-10T13:44:32.000Z</time>
      </trkpt>
      <trkpt lat="46.37898" lon="5.88567">
        <ele>486</ele>
        <time>2018-06-10T13:44:33.000Z</time>
      </trkpt>
      <trkpt lat="46.37897" lon="5.88564">
        <ele>485</ele>
        <time>2018-06-10T13:44:34.000Z</time>
      </trkpt>
      <trkpt lat="46.37897" lon="5.88562">
        <ele>484</ele>
        <time>2018-06-10T13:44:35.000Z</time>
      </trkpt>
      <trkpt lat="46.37898" lon="5.88559">
        <ele>483.20001220703</ele>
        <time>2018-06-10T13:44:36.000Z</time>
      </trkpt>
      <trkpt lat="46.37902" lon="5.88554">
        <ele>481.79998779297</ele>
        <time>2018-06-10T13:44:38.000Z</time>
      </trkpt>
      <trkpt lat="46.37907" lon="5.8855">
        <ele>480.79998779297</ele>
        <time>2018-06-10T13:44:40.000Z</time>
      </trkpt>
      <trkpt lat="46.3791" lon="5.88549">
        <ele>479.39999389648</ele>
        <time>2018-06-10T13:44:42.000Z</time>
      </trkpt>
      <trkpt lat="46.37911" lon="5.88549">
        <ele>478.39999389648</ele>
        <time>2018-06-10T13:44:43.000Z</time>
      </trkpt>
      <trkpt lat="46.37913" lon="5.88549">
        <ele>476.79998779297</ele>
        <time>2018-06-10T13:44:45.000Z</time>
      </trkpt>
      <trkpt lat="46.37914" lon="5.88545">
        <ele>475.20001220703</ele>
        <time>2018-06-10T13:44:48.000Z</time>
      </trkpt>
      <trkpt lat="46.37916" lon="5.88543">
        <ele>474.20001220703</ele>
        <time>2018-06-10T13:44:50.000Z</time>
      </trkpt>
      <trkpt lat="46.37918" lon="5.88542">
        <ele>473.39999389648</ele>
        <time>2018-06-10T13:44:51.000Z</time>
      </trkpt>
      <trkpt lat="46.3792" lon="5.88541">
        <ele>472.60000610352</ele>
        <time>2018-06-10T13:44:52.000Z</time>
      </trkpt>
      <trkpt lat="46.37929" lon="5.88542">
        <ele>471.79998779297</ele>
        <time>2018-06-10T13:44:53.000Z</time>
      </trkpt>
      <trkpt lat="46.37932" lon="5.88541">
        <ele>471.39999389648</ele>
        <time>2018-06-10T13:44:54.000Z</time>
      </trkpt>
      <trkpt lat="46.37942" lon="5.88538">
        <ele>470.20001220703</ele>
        <time>2018-06-10T13:44:56.000Z</time>
      </trkpt>
      <trkpt lat="46.37946" lon="5.88539">
        <ele>469.39999389648</ele>
        <time>2018-06-10T13:44:58.000Z</time>
      </trkpt>
      <trkpt lat="46.37947" lon="5.88538">
        <ele>469</ele>
        <time>2018-06-10T13:44:59.000Z</time>
      </trkpt>
      <trkpt lat="46.37945" lon="5.88536">
        <ele>468.39999389648</ele>
        <time>2018-06-10T13:45:00.000Z</time>
      </trkpt>
      <trkpt lat="46.37932" lon="5.88532">
        <ele>467.20001220703</ele>
        <time>2018-06-10T13:45:02.000Z</time>
      </trkpt>
      <trkpt lat="46.37932" lon="5.88532">
        <ele>466.20001220703</ele>
        <time>2018-06-10T13:45:03.000Z</time>
      </trkpt>
      <trkpt lat="46.37928" lon="5.8853">
        <ele>464.79998779297</ele>
        <time>2018-06-10T13:45:04.000Z</time>
      </trkpt>
      <trkpt lat="46.37917" lon="5.88517">
        <ele>463.20001220703</ele>
        <time>2018-06-10T13:45:06.000Z</time>
      </trkpt>
      <trkpt lat="46.37908" lon="5.88509">
        <ele>461.39999389648</ele>
        <time>2018-06-10T13:45:08.000Z</time>
      </trkpt>
      <trkpt lat="46.37908" lon="5.88509">
        <ele>460.20001220703</ele>
        <time>2018-06-10T13:45:09.000Z</time>
      </trkpt>
      <trkpt lat="46.37902" lon="5.88505">
        <ele>459.20001220703</ele>
        <time>2018-06-10T13:45:10.000Z</time>
      </trkpt>
      <trkpt lat="46.37893" lon="5.88498">
        <ele>457.60000610352</ele>
        <time>2018-06-10T13:45:12.000Z</time>
      </trkpt>
      <trkpt lat="46.37887" lon="5.8848">
        <ele>456.20001220703</ele>
        <time>2018-06-10T13:45:14.000Z</time>
      </trkpt>
      <trkpt lat="46.37881" lon="5.88459">
        <ele>454.60000610352</ele>
        <time>2018-06-10T13:45:16.000Z</time>
      </trkpt>
      <trkpt lat="46.37879" lon="5.8845">
        <ele>453.39999389648</ele>
        <time>2018-06-10T13:45:17.000Z</time>
      </trkpt>
      <trkpt lat="46.37877" lon="5.88443">
        <ele>452.39999389648</ele>
        <time>2018-06-10T13:45:18.000Z</time>
      </trkpt>
      <trkpt lat="46.37875" lon="5.88429">
        <ele>451.20001220703</ele>
        <time>2018-06-10T13:45:20.000Z</time>
      </trkpt>
      <trkpt lat="46.37874" lon="5.88414">
        <ele>450</ele>
        <time>2018-06-10T13:45:24.000Z</time>
      </trkpt>
      <trkpt lat="46.37875" lon="5.88405">
        <ele>448.79998779297</ele>
        <time>2018-06-10T13:45:27.000Z</time>
      </trkpt>
      <trkpt lat="46.37876" lon="5.88399">
        <ele>447.39999389648</ele>
        <time>2018-06-10T13:45:29.000Z</time>
      </trkpt>
      <trkpt lat="46.37878" lon="5.88396">
        <ele>446.20001220703</ele>
        <time>2018-06-10T13:45:31.000Z</time>
      </trkpt>
      <trkpt lat="46.37881" lon="5.88394">
        <ele>444.39999389648</ele>
        <time>2018-06-10T13:45:33.000Z</time>
      </trkpt>
      <trkpt lat="46.37883" lon="5.88392">
        <ele>443.79998779297</ele>
        <time>2018-06-10T13:45:34.000Z</time>
      </trkpt>
      <trkpt lat="46.37884" lon="5.8839">
        <ele>443</ele>
        <time>2018-06-10T13:45:35.000Z</time>
      </trkpt>
      <trkpt lat="46.37887" lon="5.88387">
        <ele>441.60000610352</ele>
        <time>2018-06-10T13:45:37.000Z</time>
      </trkpt>
      <trkpt lat="46.3789" lon="5.88384">
        <ele>440.79998779297</ele>
        <time>2018-06-10T13:45:38.000Z</time>
      </trkpt>
      <trkpt lat="46.37892" lon="5.88382">
        <ele>439.60000610352</ele>
        <time>2018-06-10T13:45:39.000Z</time>
      </trkpt>
      <trkpt lat="46.37894" lon="5.88381">
        <ele>438.39999389648</ele>
        <time>2018-06-10T13:45:40.000Z</time>
      </trkpt>
      <trkpt lat="46.37902" lon="5.88379">
        <ele>436.60000610352</ele>
        <time>2018-06-10T13:45:42.000Z</time>
      </trkpt>
      <trkpt lat="46.37906" lon="5.88369">
        <ele>435.20001220703</ele>
        <time>2018-06-10T13:45:44.000Z</time>
      </trkpt>
      <trkpt lat="46.3791" lon="5.8836">
        <ele>434</ele>
        <time>2018-06-10T13:45:46.000Z</time>
      </trkpt>
      <trkpt lat="46.37911" lon="5.88349">
        <ele>432.60000610352</ele>
        <time>2018-06-10T13:45:48.000Z</time>
      </trkpt>
      <trkpt lat="46.37911" lon="5.88347">
        <ele>431.79998779297</ele>
        <time>2018-06-10T13:45:55.000Z</time>
      </trkpt>
      <trkpt lat="46.37634" lon="5.87934">
        <ele>414.60000610352</ele>
        <time>2018-06-10T14:01:53.000Z</time>
      </trkpt>
      <trkpt lat="46.3761" lon="5.87926">
        <ele>415.39999389648</ele>
        <time>2018-06-10T14:02:09.000Z</time>
      </trkpt>
      <trkpt lat="46.37607" lon="5.87928">
        <ele>415.39999389648</ele>
        <time>2018-06-10T14:02:10.000Z</time>
      </trkpt>
    </trkseg>
  </trk>
</gpx>